<?xml version='1.0' encoding='UTF-8'?><gpx version="1.1" creator="JPX - https://github.com/jenetics/jpx" xmlns="http://www.topografix.com/GPX/1/1"><trk><trkseg><trkpt lat="44.1507558" lon="10.412557"><ele>546.0</ele><time>2026-04-04T10:09:36.779Z</time></trkpt><trkpt lat="44.1507818" lon="10.4124294"><ele>546.0</ele><time>2026-04-04T10:09:41.768Z</time></trkpt><trkpt lat="44.1507934" lon="10.4123282"><ele>546.0</ele><time>2026-04-04T10:09:42.783Z</time></trkpt><trkpt lat="44.1508054" lon="10.4121982"><ele>546.0</ele><time>2026-04-04T10:09:44.776Z</time></trkpt><trkpt lat="44.1508623" lon="10.4121366"><ele>546.0</ele><time>2026-04-04T10:09:46.767Z</time></trkpt><trkpt lat="44.1509478" lon="10.4121063"><ele>546.0</ele><time>2026-04-04T10:09:49.769Z</time></trkpt><trkpt lat="44.1510268" lon="10.4121022"><ele>543.0</ele><time>2026-04-04T10:09:52.777Z</time></trkpt><trkpt lat="44.1511068" lon="10.4120639"><ele>540.0</ele><time>2026-04-04T10:09:55.778Z</time></trkpt><trkpt lat="44.1510594" lon="10.4119474"><ele>537.0</ele><time>2026-04-04T10:09:57.769Z</time></trkpt><trkpt lat="44.1509733" lon="10.4118672"><ele>534.0</ele><time>2026-04-04T10:09:59.78Z</time></trkpt><trkpt lat="44.1509019" lon="10.4118144"><ele>531.0</ele><time>2026-04-04T10:10:01.769Z</time></trkpt><trkpt lat="44.1508166" lon="10.4117744"><ele>531.0</ele><time>2026-04-04T10:10:04.769Z</time></trkpt><trkpt lat="44.1507422" lon="10.411774"><ele>531.0</ele><time>2026-04-04T10:10:06.768Z</time></trkpt><trkpt lat="44.150653" lon="10.4117814"><ele>531.0</ele><time>2026-04-04T10:10:08.772Z</time></trkpt><trkpt lat="44.1505361" lon="10.4117718"><ele>531.0</ele><time>2026-04-04T10:10:10.775Z</time></trkpt><trkpt lat="44.1504131" lon="10.4117123"><ele>531.0</ele><time>2026-04-04T10:10:12.78Z</time></trkpt><trkpt lat="44.15035" lon="10.4116792"><ele>530.8333333333334</ele><time>2026-04-04T10:10:13.768Z</time></trkpt><trkpt lat="44.1502821" lon="10.4116463"><ele>530.6666666666666</ele><time>2026-04-04T10:10:14.779Z</time></trkpt><trkpt lat="44.1502099" lon="10.4116189"><ele>530.5</ele><time>2026-04-04T10:10:15.771Z</time></trkpt><trkpt lat="44.1501398" lon="10.4115857"><ele>530.3333333333333</ele><time>2026-04-04T10:10:16.774Z</time></trkpt><trkpt lat="44.1500684" lon="10.4115447"><ele>530.1666666666666</ele><time>2026-04-04T10:10:17.789Z</time></trkpt><trkpt lat="44.149998" lon="10.4115037"><ele>530.0</ele><time>2026-04-04T10:10:18.778Z</time></trkpt><trkpt lat="44.149926" lon="10.4114633"><ele>529.0</ele><time>2026-04-04T10:10:19.786Z</time></trkpt><trkpt lat="44.1498554" lon="10.4114276"><ele>528.0</ele><time>2026-04-04T10:10:20.779Z</time></trkpt><trkpt lat="44.1497842" lon="10.4113891"><ele>527.0</ele><time>2026-04-04T10:10:21.78Z</time></trkpt><trkpt lat="44.149713" lon="10.411355"><ele>526.0</ele><time>2026-04-04T10:10:22.783Z</time></trkpt><trkpt lat="44.1496433" lon="10.4113173"><ele>525.0</ele><time>2026-04-04T10:10:23.782Z</time></trkpt><trkpt lat="44.1495737" lon="10.4112763"><ele>524.0</ele><time>2026-04-04T10:10:24.772Z</time></trkpt><trkpt lat="44.1495035" lon="10.4112342"><ele>524.1428571428571</ele><time>2026-04-04T10:10:25.781Z</time></trkpt><trkpt lat="44.1494342" lon="10.4111934"><ele>524.2857142857143</ele><time>2026-04-04T10:10:26.783Z</time></trkpt><trkpt lat="44.1493689" lon="10.4111577"><ele>524.4285714285714</ele><time>2026-04-04T10:10:27.784Z</time></trkpt><trkpt lat="44.1493015" lon="10.4111207"><ele>524.5714285714286</ele><time>2026-04-04T10:10:28.784Z</time></trkpt><trkpt lat="44.1492295" lon="10.411111"><ele>524.7142857142858</ele><time>2026-04-04T10:10:29.775Z</time></trkpt><trkpt lat="44.1491627" lon="10.4111257"><ele>524.8571428571429</ele><time>2026-04-04T10:10:30.785Z</time></trkpt><trkpt lat="44.1491021" lon="10.4111621"><ele>525.0</ele><time>2026-04-04T10:10:31.78Z</time></trkpt><trkpt lat="44.1489936" lon="10.4112227"><ele>525.0</ele><time>2026-04-04T10:10:33.769Z</time></trkpt><trkpt lat="44.1489011" lon="10.4113051"><ele>525.0</ele><time>2026-04-04T10:10:35.781Z</time></trkpt><trkpt lat="44.148813" lon="10.4113649"><ele>525.0</ele><time>2026-04-04T10:10:37.781Z</time></trkpt><trkpt lat="44.1487342" lon="10.4113707"><ele>525.0</ele><time>2026-04-04T10:10:39.777Z</time></trkpt><trkpt lat="44.1486611" lon="10.411333"><ele>525.0</ele><time>2026-04-04T10:10:41.792Z</time></trkpt><trkpt lat="44.1486076" lon="10.4112687"><ele>525.0</ele><time>2026-04-04T10:10:43.787Z</time></trkpt><trkpt lat="44.148564" lon="10.4111812"><ele>525.0</ele><time>2026-04-04T10:10:45.775Z</time></trkpt><trkpt lat="44.1485244" lon="10.4110986"><ele>525.0</ele><time>2026-04-04T10:10:47.772Z</time></trkpt><trkpt lat="44.1484944" lon="10.4110047"><ele>525.0</ele><time>2026-04-04T10:10:49.779Z</time></trkpt><trkpt lat="44.1484621" lon="10.4109018"><ele>525.0</ele><time>2026-04-04T10:10:51.776Z</time></trkpt><trkpt lat="44.1484277" lon="10.4107942"><ele>525.0</ele><time>2026-04-04T10:10:53.794Z</time></trkpt><trkpt lat="44.1483906" lon="10.4106843"><ele>525.0</ele><time>2026-04-04T10:10:55.778Z</time></trkpt><trkpt lat="44.1483548" lon="10.4105678"><ele>525.6666666666666</ele><time>2026-04-04T10:10:57.772Z</time></trkpt><trkpt lat="44.1483165" lon="10.4104458"><ele>526.3333333333334</ele><time>2026-04-04T10:10:59.795Z</time></trkpt><trkpt lat="44.1482836" lon="10.4103202"><ele>527.0</ele><time>2026-04-04T10:11:01.784Z</time></trkpt><trkpt lat="44.148267" lon="10.410204"><ele>527.6666666666667</ele><time>2026-04-04T10:11:03.787Z</time></trkpt><trkpt lat="44.1482311" lon="10.4101021"><ele>528.3333333333334</ele><time>2026-04-04T10:11:05.785Z</time></trkpt><trkpt lat="44.1482094" lon="10.4099901"><ele>529.0</ele><time>2026-04-04T10:11:07.773Z</time></trkpt><trkpt lat="44.1481765" lon="10.4098788"><ele>525.0</ele><time>2026-04-04T10:11:09.784Z</time></trkpt><trkpt lat="44.1481553" lon="10.4097524"><ele>521.0</ele><time>2026-04-04T10:11:11.779Z</time></trkpt><trkpt lat="44.1481443" lon="10.4096182"><ele>517.0</ele><time>2026-04-04T10:11:13.784Z</time></trkpt><trkpt lat="44.1481298" lon="10.4094737"><ele>513.0</ele><time>2026-04-04T10:11:15.785Z</time></trkpt><trkpt lat="44.1481186" lon="10.4093272"><ele>509.0</ele><time>2026-04-04T10:11:17.784Z</time></trkpt><trkpt lat="44.1481098" lon="10.4091764"><ele>509.0</ele><time>2026-04-04T10:11:19.784Z</time></trkpt><trkpt lat="44.1481008" lon="10.4090271"><ele>509.0</ele><time>2026-04-04T10:11:21.788Z</time></trkpt><trkpt lat="44.1480912" lon="10.4088712"><ele>509.0</ele><time>2026-04-04T10:11:23.775Z</time></trkpt><trkpt lat="44.1480745" lon="10.4087142"><ele>509.0</ele><time>2026-04-04T10:11:25.784Z</time></trkpt><trkpt lat="44.1480563" lon="10.4085527"><ele>508.8333333333333</ele><time>2026-04-04T10:11:27.792Z</time></trkpt><trkpt lat="44.1480474" lon="10.4083792"><ele>508.66666666666663</ele><time>2026-04-04T10:11:29.79Z</time></trkpt><trkpt lat="44.1480379" lon="10.4082897"><ele>508.5</ele><time>2026-04-04T10:11:30.788Z</time></trkpt><trkpt lat="44.1480255" lon="10.4081908"><ele>508.33333333333337</ele><time>2026-04-04T10:11:31.778Z</time></trkpt><trkpt lat="44.148016" lon="10.4080916"><ele>508.1666666666667</ele><time>2026-04-04T10:11:32.782Z</time></trkpt><trkpt lat="44.1480026" lon="10.407992"><ele>508.0</ele><time>2026-04-04T10:11:33.784Z</time></trkpt><trkpt lat="44.1479667" lon="10.4078986"><ele>508.00000000000006</ele><time>2026-04-04T10:11:34.777Z</time></trkpt><trkpt lat="44.1479074" lon="10.4078287"><ele>508.0</ele><time>2026-04-04T10:11:35.775Z</time></trkpt><trkpt lat="44.1478328" lon="10.4077887"><ele>508.0</ele><time>2026-04-04T10:11:36.77Z</time></trkpt><trkpt lat="44.1477548" lon="10.4077619"><ele>508.0</ele><time>2026-04-04T10:11:37.776Z</time></trkpt><trkpt lat="44.1476723" lon="10.4077398"><ele>508.00000000000006</ele><time>2026-04-04T10:11:38.778Z</time></trkpt><trkpt lat="44.1475905" lon="10.4077238"><ele>508.0</ele><time>2026-04-04T10:11:39.771Z</time></trkpt><trkpt lat="44.1475006" lon="10.407711"><ele>508.00000000000006</ele><time>2026-04-04T10:11:40.768Z</time></trkpt><trkpt lat="44.1474204" lon="10.4077127"><ele>508.0</ele><time>2026-04-04T10:11:41.78Z</time></trkpt><trkpt lat="44.1473517" lon="10.4077323"><ele>508.0</ele><time>2026-04-04T10:11:42.774Z</time></trkpt><trkpt lat="44.1472942" lon="10.4077746"><ele>508.0</ele><time>2026-04-04T10:11:43.784Z</time></trkpt><trkpt lat="44.1471982" lon="10.4078676"><ele>508.00000000000006</ele><time>2026-04-04T10:11:45.797Z</time></trkpt><trkpt lat="44.1471588" lon="10.408012"><ele>508.0</ele><time>2026-04-04T10:11:47.772Z</time></trkpt><trkpt lat="44.1471855" lon="10.4080942"><ele>506.6666666666667</ele><time>2026-04-04T10:11:48.795Z</time></trkpt><trkpt lat="44.1472407" lon="10.408155"><ele>505.33333333333337</ele><time>2026-04-04T10:11:49.778Z</time></trkpt><trkpt lat="44.1472938" lon="10.4082239"><ele>504.0</ele><time>2026-04-04T10:11:50.787Z</time></trkpt><trkpt lat="44.147341" lon="10.4083074"><ele>502.66666666666663</ele><time>2026-04-04T10:11:51.777Z</time></trkpt><trkpt lat="44.1473862" lon="10.4083982"><ele>501.3333333333333</ele><time>2026-04-04T10:11:52.788Z</time></trkpt><trkpt lat="44.147434" lon="10.4085042"><ele>500.0</ele><time>2026-04-04T10:11:53.779Z</time></trkpt><trkpt lat="44.147464" lon="10.4086172"><ele>501.8</ele><time>2026-04-04T10:11:54.778Z</time></trkpt><trkpt lat="44.147487" lon="10.4087337"><ele>503.6</ele><time>2026-04-04T10:11:55.774Z</time></trkpt><trkpt lat="44.147507" lon="10.4088559"><ele>505.4</ele><time>2026-04-04T10:11:56.776Z</time></trkpt><trkpt lat="44.147526" lon="10.4089809"><ele>507.2</ele><time>2026-04-04T10:11:57.803Z</time></trkpt><trkpt lat="44.1475425" lon="10.4091081"><ele>509.0</ele><time>2026-04-04T10:11:58.782Z</time></trkpt><trkpt lat="44.1475627" lon="10.409235"><ele>509.0</ele><time>2026-04-04T10:11:59.788Z</time></trkpt><trkpt lat="44.1475806" lon="10.4093683"><ele>509.0</ele><time>2026-04-04T10:12:00.784Z</time></trkpt><trkpt lat="44.1476028" lon="10.4095047"><ele>509.0</ele><time>2026-04-04T10:12:01.781Z</time></trkpt><trkpt lat="44.1476233" lon="10.409645"><ele>509.0</ele><time>2026-04-04T10:12:02.782Z</time></trkpt><trkpt lat="44.147644" lon="10.4097857"><ele>509.0</ele><time>2026-04-04T10:12:03.781Z</time></trkpt><trkpt lat="44.147658" lon="10.4099307"><ele>507.0</ele><time>2026-04-04T10:12:04.774Z</time></trkpt><trkpt lat="44.1476771" lon="10.4100726"><ele>505.0</ele><time>2026-04-04T10:12:05.772Z</time></trkpt><trkpt lat="44.1476983" lon="10.410216"><ele>503.0</ele><time>2026-04-04T10:12:06.783Z</time></trkpt><trkpt lat="44.147719" lon="10.41036"><ele>501.0</ele><time>2026-04-04T10:12:07.784Z</time></trkpt><trkpt lat="44.1477433" lon="10.4105019"><ele>499.0</ele><time>2026-04-04T10:12:08.785Z</time></trkpt><trkpt lat="44.1477666" lon="10.4106466"><ele>498.0</ele><time>2026-04-04T10:12:09.784Z</time></trkpt><trkpt lat="44.1477906" lon="10.4107922"><ele>497.0</ele><time>2026-04-04T10:12:10.782Z</time></trkpt><trkpt lat="44.1478153" lon="10.4109385"><ele>496.0</ele><time>2026-04-04T10:12:11.789Z</time></trkpt><trkpt lat="44.1478455" lon="10.4110795"><ele>495.0</ele><time>2026-04-04T10:12:12.785Z</time></trkpt><trkpt lat="44.1478722" lon="10.4112272"><ele>494.0</ele><time>2026-04-04T10:12:13.783Z</time></trkpt><trkpt lat="44.1478983" lon="10.4113729"><ele>493.2</ele><time>2026-04-04T10:12:14.781Z</time></trkpt><trkpt lat="44.1479238" lon="10.4115181"><ele>492.4</ele><time>2026-04-04T10:12:15.793Z</time></trkpt><trkpt lat="44.1479441" lon="10.4116644"><ele>491.6</ele><time>2026-04-04T10:12:16.781Z</time></trkpt><trkpt lat="44.1479726" lon="10.41181"><ele>490.8</ele><time>2026-04-04T10:12:17.79Z</time></trkpt><trkpt lat="44.1480008" lon="10.4119536"><ele>490.0</ele><time>2026-04-04T10:12:18.794Z</time></trkpt><trkpt lat="44.1480277" lon="10.4120981"><ele>490.2</ele><time>2026-04-04T10:12:19.777Z</time></trkpt><trkpt lat="44.1480511" lon="10.4122423"><ele>490.4</ele><time>2026-04-04T10:12:20.776Z</time></trkpt><trkpt lat="44.1480768" lon="10.4123874"><ele>490.6</ele><time>2026-04-04T10:12:21.784Z</time></trkpt><trkpt lat="44.1481072" lon="10.4125335"><ele>490.8</ele><time>2026-04-04T10:12:22.777Z</time></trkpt><trkpt lat="44.1481347" lon="10.4126665"><ele>491.0</ele><time>2026-04-04T10:12:23.776Z</time></trkpt><trkpt lat="44.1481596" lon="10.4127861"><ele>491.0</ele><time>2026-04-04T10:12:24.79Z</time></trkpt><trkpt lat="44.14818" lon="10.4128882"><ele>491.0</ele><time>2026-04-04T10:12:25.792Z</time></trkpt><trkpt lat="44.1482055" lon="10.4130436"><ele>491.0</ele><time>2026-04-04T10:12:27.805Z</time></trkpt><trkpt lat="44.1481889" lon="10.4131979"><ele>491.0</ele><time>2026-04-04T10:12:29.796Z</time></trkpt><trkpt lat="44.1482093" lon="10.4133242"><ele>491.0</ele><time>2026-04-04T10:12:31.783Z</time></trkpt><trkpt lat="44.1481693" lon="10.4134385"><ele>490.99999999999994</ele><time>2026-04-04T10:12:33.779Z</time></trkpt><trkpt lat="44.1480914" lon="10.4134734"><ele>491.0</ele><time>2026-04-04T10:12:35.783Z</time></trkpt><trkpt lat="44.1480303" lon="10.4134329"><ele>491.0</ele><time>2026-04-04T10:12:37.773Z</time></trkpt><trkpt lat="44.1479598" lon="10.4133805"><ele>491.0</ele><time>2026-04-04T10:12:39.773Z</time></trkpt><trkpt lat="44.1479018" lon="10.4133257"><ele>490.99999999999994</ele><time>2026-04-04T10:12:41.774Z</time></trkpt><trkpt lat="44.1478244" lon="10.4132586"><ele>491.0</ele><time>2026-04-04T10:12:44.782Z</time></trkpt><trkpt lat="44.1477698" lon="10.4131835"><ele>491.0</ele><time>2026-04-04T10:12:47.788Z</time></trkpt><trkpt lat="44.1477085" lon="10.4131209"><ele>490.99999999999994</ele><time>2026-04-04T10:12:50.78Z</time></trkpt><trkpt lat="44.1476318" lon="10.4130811"><ele>491.0</ele><time>2026-04-04T10:12:53.781Z</time></trkpt><trkpt lat="44.1475626" lon="10.4130723"><ele>491.0</ele><time>2026-04-04T10:12:56.786Z</time></trkpt><trkpt lat="44.1474946" lon="10.4130882"><ele>490.99999999999994</ele><time>2026-04-04T10:12:59.783Z</time></trkpt><trkpt lat="44.147429" lon="10.4131037"><ele>491.0</ele><time>2026-04-04T10:13:02.783Z</time></trkpt><trkpt lat="44.1473595" lon="10.4131547"><ele>491.0</ele><time>2026-04-04T10:13:05.774Z</time></trkpt><trkpt lat="44.1473252" lon="10.4132374"><ele>490.3333333333333</ele><time>2026-04-04T10:13:07.796Z</time></trkpt><trkpt lat="44.1473045" lon="10.4133446"><ele>489.66666666666663</ele><time>2026-04-04T10:13:09.778Z</time></trkpt><trkpt lat="44.147255" lon="10.4134111"><ele>489.0</ele><time>2026-04-04T10:13:11.789Z</time></trkpt><trkpt lat="44.1471877" lon="10.4134221"><ele>488.33333333333337</ele><time>2026-04-04T10:13:12.79Z</time></trkpt><trkpt lat="44.1471192" lon="10.413439"><ele>487.6666666666667</ele><time>2026-04-04T10:13:13.795Z</time></trkpt><trkpt lat="44.1470354" lon="10.4134556"><ele>487.0</ele><time>2026-04-04T10:13:14.784Z</time></trkpt><trkpt lat="44.1469426" lon="10.4134706"><ele>487.00000000000006</ele><time>2026-04-04T10:13:15.784Z</time></trkpt><trkpt lat="44.1468594" lon="10.4134791"><ele>487.0</ele><time>2026-04-04T10:13:16.776Z</time></trkpt><trkpt lat="44.1467679" lon="10.4134972"><ele>487.0</ele><time>2026-04-04T10:13:18.775Z</time></trkpt><trkpt lat="44.1466843" lon="10.4135607"><ele>487.0</ele><time>2026-04-04T10:13:21.778Z</time></trkpt><trkpt lat="44.1466551" lon="10.4136547"><ele>487.00000000000006</ele><time>2026-04-04T10:13:23.785Z</time></trkpt><trkpt lat="44.1466072" lon="10.4137125"><ele>487.0</ele><time>2026-04-04T10:13:26.783Z</time></trkpt><trkpt lat="44.1465436" lon="10.4137202"><ele>484.00000000000006</ele><time>2026-04-04T10:13:28.771Z</time></trkpt><trkpt lat="44.1464382" lon="10.4136823"><ele>481.0</ele><time>2026-04-04T10:13:30.777Z</time></trkpt><trkpt lat="44.1463746" lon="10.4136331"><ele>478.0</ele><time>2026-04-04T10:13:32.783Z</time></trkpt><trkpt lat="44.1463097" lon="10.4136107"><ele>475.0</ele><time>2026-04-04T10:13:35.782Z</time></trkpt><trkpt lat="44.1462274" lon="10.4136162"><ele>472.00000000000006</ele><time>2026-04-04T10:13:38.779Z</time></trkpt><trkpt lat="44.1461633" lon="10.4135979"><ele>469.0</ele><time>2026-04-04T10:13:41.782Z</time></trkpt><trkpt lat="44.1460984" lon="10.4135913"><ele>469.00000000000006</ele><time>2026-04-04T10:13:44.769Z</time></trkpt><trkpt lat="44.1460694" lon="10.4136837"><ele>469.0</ele><time>2026-04-04T10:13:48.787Z</time></trkpt><trkpt lat="44.1460008" lon="10.4137123"><ele>469.0</ele><time>2026-04-04T10:13:52.771Z</time></trkpt><trkpt lat="44.1459253" lon="10.4137443"><ele>469.0</ele><time>2026-04-04T10:13:56.772Z</time></trkpt><trkpt lat="44.1458615" lon="10.4137253"><ele>469.00000000000006</ele><time>2026-04-04T10:13:58.78Z</time></trkpt><trkpt lat="44.1457794" lon="10.4137146"><ele>469.0</ele><time>2026-04-04T10:14:00.788Z</time></trkpt><trkpt lat="44.1456939" lon="10.4137186"><ele>465.83333333333337</ele><time>2026-04-04T10:14:02.788Z</time></trkpt><trkpt lat="44.1456263" lon="10.4137812"><ele>462.6666666666667</ele><time>2026-04-04T10:14:04.779Z</time></trkpt><trkpt lat="44.1456024" lon="10.4138977"><ele>459.5</ele><time>2026-04-04T10:14:07.784Z</time></trkpt><trkpt lat="44.1456007" lon="10.41402"><ele>456.33333333333337</ele><time>2026-04-04T10:14:09.788Z</time></trkpt><trkpt lat="44.1455655" lon="10.4141431"><ele>453.1666666666667</ele><time>2026-04-04T10:14:11.774Z</time></trkpt><trkpt lat="44.1455242" lon="10.4142558"><ele>450.0</ele><time>2026-04-04T10:14:13.78Z</time></trkpt><trkpt lat="44.1454816" lon="10.4143662"><ele>448.1666666666667</ele><time>2026-04-04T10:14:15.782Z</time></trkpt><trkpt lat="44.1454507" lon="10.4144638"><ele>446.33333333333337</ele><time>2026-04-04T10:14:17.772Z</time></trkpt><trkpt lat="44.1454069" lon="10.4145804"><ele>444.5</ele><time>2026-04-04T10:14:19.786Z</time></trkpt><trkpt lat="44.1453618" lon="10.4146908"><ele>442.6666666666667</ele><time>2026-04-04T10:14:21.779Z</time></trkpt><trkpt lat="44.145311" lon="10.4147844"><ele>440.83333333333337</ele><time>2026-04-04T10:14:23.772Z</time></trkpt><trkpt lat="44.1452531" lon="10.4148374"><ele>439.0</ele><time>2026-04-04T10:14:25.788Z</time></trkpt><trkpt lat="44.1451931" lon="10.4148746"><ele>437.33333333333337</ele><time>2026-04-04T10:14:27.779Z</time></trkpt><trkpt lat="44.1451191" lon="10.4149378"><ele>435.6666666666667</ele><time>2026-04-04T10:14:30.781Z</time></trkpt><trkpt lat="44.1450482" lon="10.4149769"><ele>434.0</ele><time>2026-04-04T10:14:33.79Z</time></trkpt><trkpt lat="44.144992" lon="10.4150295"><ele>432.33333333333337</ele><time>2026-04-04T10:14:36.78Z</time></trkpt><trkpt lat="44.1449291" lon="10.4150482"><ele>430.6666666666667</ele><time>2026-04-04T10:14:39.785Z</time></trkpt><trkpt lat="44.1448671" lon="10.4149846"><ele>429.0</ele><time>2026-04-04T10:14:44.782Z</time></trkpt><trkpt lat="44.1447649" lon="10.414936"><ele>427.3333333333333</ele><time>2026-04-04T10:14:46.787Z</time></trkpt><trkpt lat="44.1446684" lon="10.4148883"><ele>425.66666666666663</ele><time>2026-04-04T10:14:48.783Z</time></trkpt><trkpt lat="44.1445797" lon="10.4148504"><ele>424.0</ele><time>2026-04-04T10:14:50.782Z</time></trkpt><trkpt lat="44.1445179" lon="10.4148227"><ele>422.3333333333333</ele><time>2026-04-04T10:14:52.778Z</time></trkpt><trkpt lat="44.1444487" lon="10.4148141"><ele>420.66666666666663</ele><time>2026-04-04T10:14:55.78Z</time></trkpt><trkpt lat="44.144375" lon="10.4147914"><ele>419.0</ele><time>2026-04-04T10:14:58.784Z</time></trkpt><trkpt lat="44.1443005" lon="10.4147628"><ele>418.99999999999994</ele><time>2026-04-04T10:15:01.788Z</time></trkpt><trkpt lat="44.1442487" lon="10.4148305"><ele>419.0</ele><time>2026-04-04T10:15:05.787Z</time></trkpt><trkpt lat="44.1442006" lon="10.4148908"><ele>419.0</ele><time>2026-04-04T10:15:09.784Z</time></trkpt><trkpt lat="44.1441429" lon="10.4149725"><ele>419.0</ele><time>2026-04-04T10:15:13.798Z</time></trkpt><trkpt lat="44.144084" lon="10.4150515"><ele>418.99999999999994</ele><time>2026-04-04T10:15:15.783Z</time></trkpt><trkpt lat="44.1439763" lon="10.4150555"><ele>419.0</ele><time>2026-04-04T10:15:17.784Z</time></trkpt><trkpt lat="44.1438573" lon="10.4150276"><ele>418.4285714285714</ele><time>2026-04-04T10:15:19.78Z</time></trkpt><trkpt lat="44.1437955" lon="10.4150003"><ele>417.85714285714283</ele><time>2026-04-04T10:15:20.78Z</time></trkpt><trkpt lat="44.1437298" lon="10.414977"><ele>417.2857142857143</ele><time>2026-04-04T10:15:21.784Z</time></trkpt><trkpt lat="44.1436604" lon="10.4149538"><ele>416.71428571428567</ele><time>2026-04-04T10:15:22.783Z</time></trkpt><trkpt lat="44.1435884" lon="10.4149255"><ele>416.14285714285717</ele><time>2026-04-04T10:15:23.78Z</time></trkpt><trkpt lat="44.143512" lon="10.4149005"><ele>415.57142857142856</ele><time>2026-04-04T10:15:24.786Z</time></trkpt><trkpt lat="44.1434381" lon="10.4148659"><ele>415.0</ele><time>2026-04-04T10:15:25.782Z</time></trkpt><trkpt lat="44.1433591" lon="10.4148447"><ele>415.0</ele><time>2026-04-04T10:15:26.784Z</time></trkpt><trkpt lat="44.1432777" lon="10.4148261"><ele>415.0</ele><time>2026-04-04T10:15:27.785Z</time></trkpt><trkpt lat="44.1431864" lon="10.4148233"><ele>415.0</ele><time>2026-04-04T10:15:28.779Z</time></trkpt><trkpt lat="44.1430925" lon="10.4148359"><ele>415.0</ele><time>2026-04-04T10:15:29.784Z</time></trkpt><trkpt lat="44.1429989" lon="10.4148607"><ele>415.0</ele><time>2026-04-04T10:15:30.787Z</time></trkpt><trkpt lat="44.1429017" lon="10.4148853"><ele>412.6</ele><time>2026-04-04T10:15:31.787Z</time></trkpt><trkpt lat="44.1428017" lon="10.4149032"><ele>410.2</ele><time>2026-04-04T10:15:32.787Z</time></trkpt><trkpt lat="44.1426991" lon="10.4149102"><ele>407.79999999999995</ele><time>2026-04-04T10:15:33.783Z</time></trkpt><trkpt lat="44.1425924" lon="10.4149058"><ele>405.4</ele><time>2026-04-04T10:15:34.783Z</time></trkpt><trkpt lat="44.1424785" lon="10.4148923"><ele>403.0</ele><time>2026-04-04T10:15:35.783Z</time></trkpt><trkpt lat="44.1423671" lon="10.4148695"><ele>401.5</ele><time>2026-04-04T10:15:36.786Z</time></trkpt><trkpt lat="44.1422539" lon="10.4148455"><ele>400.0</ele><time>2026-04-04T10:15:37.771Z</time></trkpt><trkpt lat="44.1421422" lon="10.4148236"><ele>398.5</ele><time>2026-04-04T10:15:38.784Z</time></trkpt><trkpt lat="44.1420274" lon="10.4148028"><ele>397.0</ele><time>2026-04-04T10:15:39.782Z</time></trkpt><trkpt lat="44.1419094" lon="10.4147975"><ele>397.0</ele><time>2026-04-04T10:15:40.781Z</time></trkpt><trkpt lat="44.141794" lon="10.4148123"><ele>397.0</ele><time>2026-04-04T10:15:41.783Z</time></trkpt><trkpt lat="44.1416775" lon="10.4148403"><ele>397.0</ele><time>2026-04-04T10:15:42.786Z</time></trkpt><trkpt lat="44.1415615" lon="10.4148714"><ele>397.0</ele><time>2026-04-04T10:15:43.788Z</time></trkpt><trkpt lat="44.1414507" lon="10.4148906"><ele>396.20000000000005</ele><time>2026-04-04T10:15:44.804Z</time></trkpt><trkpt lat="44.1413506" lon="10.414902"><ele>395.4</ele><time>2026-04-04T10:15:45.787Z</time></trkpt><trkpt lat="44.1412603" lon="10.4148776"><ele>394.6</ele><time>2026-04-04T10:15:46.783Z</time></trkpt><trkpt lat="44.1411869" lon="10.4148129"><ele>393.79999999999995</ele><time>2026-04-04T10:15:47.797Z</time></trkpt><trkpt lat="44.1411339" lon="10.4147137"><ele>393.0</ele><time>2026-04-04T10:15:48.784Z</time></trkpt><trkpt lat="44.1411046" lon="10.4145934"><ele>393.0</ele><time>2026-04-04T10:15:49.779Z</time></trkpt><trkpt lat="44.1410916" lon="10.4144675"><ele>393.0</ele><time>2026-04-04T10:15:50.777Z</time></trkpt><trkpt lat="44.1410716" lon="10.414342"><ele>393.0</ele><time>2026-04-04T10:15:51.781Z</time></trkpt><trkpt lat="44.1410207" lon="10.4142314"><ele>393.0</ele><time>2026-04-04T10:15:52.789Z</time></trkpt><trkpt lat="44.1409429" lon="10.4141566"><ele>393.0</ele><time>2026-04-04T10:15:53.774Z</time></trkpt><trkpt lat="44.1408555" lon="10.4141246"><ele>393.0</ele><time>2026-04-04T10:15:54.782Z</time></trkpt><trkpt lat="44.1407698" lon="10.4141615"><ele>393.0</ele><time>2026-04-04T10:15:55.781Z</time></trkpt><trkpt lat="44.1407018" lon="10.4142451"><ele>393.0</ele><time>2026-04-04T10:15:56.788Z</time></trkpt><trkpt lat="44.1406634" lon="10.4143565"><ele>393.0</ele><time>2026-04-04T10:15:57.783Z</time></trkpt><trkpt lat="44.1406508" lon="10.4144774"><ele>393.0</ele><time>2026-04-04T10:15:58.776Z</time></trkpt><trkpt lat="44.1406514" lon="10.4146093"><ele>390.0</ele><time>2026-04-04T10:15:59.781Z</time></trkpt><trkpt lat="44.1406595" lon="10.4147358"><ele>387.0</ele><time>2026-04-04T10:16:00.788Z</time></trkpt><trkpt lat="44.1406639" lon="10.4148635"><ele>384.0</ele><time>2026-04-04T10:16:01.786Z</time></trkpt><trkpt lat="44.1406672" lon="10.4149881"><ele>381.0</ele><time>2026-04-04T10:16:02.785Z</time></trkpt><trkpt lat="44.1406715" lon="10.4151162"><ele>378.0</ele><time>2026-04-04T10:16:03.788Z</time></trkpt><trkpt lat="44.1406758" lon="10.4152466"><ele>378.0</ele><time>2026-04-04T10:16:04.782Z</time></trkpt><trkpt lat="44.14068" lon="10.4153743"><ele>378.0</ele><time>2026-04-04T10:16:05.785Z</time></trkpt><trkpt lat="44.1406807" lon="10.4155022"><ele>378.0</ele><time>2026-04-04T10:16:06.779Z</time></trkpt><trkpt lat="44.1406781" lon="10.4156318"><ele>378.0</ele><time>2026-04-04T10:16:07.787Z</time></trkpt><trkpt lat="44.1406661" lon="10.415752"><ele>378.0</ele><time>2026-04-04T10:16:08.778Z</time></trkpt><trkpt lat="44.1406487" lon="10.4158729"><ele>378.0</ele><time>2026-04-04T10:16:09.79Z</time></trkpt><trkpt lat="44.1406324" lon="10.4159842"><ele>378.0</ele><time>2026-04-04T10:16:10.777Z</time></trkpt><trkpt lat="44.1406184" lon="10.4160919"><ele>378.0</ele><time>2026-04-04T10:16:11.785Z</time></trkpt><trkpt lat="44.1406059" lon="10.4161998"><ele>378.0</ele><time>2026-04-04T10:16:12.783Z</time></trkpt><trkpt lat="44.1405869" lon="10.4163016"><ele>378.0</ele><time>2026-04-04T10:16:13.782Z</time></trkpt><trkpt lat="44.1405696" lon="10.4163988"><ele>378.0</ele><time>2026-04-04T10:16:14.784Z</time></trkpt><trkpt lat="44.1405543" lon="10.4164912"><ele>378.0</ele><time>2026-04-04T10:16:15.781Z</time></trkpt><trkpt lat="44.1405431" lon="10.4165825"><ele>378.0</ele><time>2026-04-04T10:16:16.787Z</time></trkpt><trkpt lat="44.1405347" lon="10.4166724"><ele>378.0</ele><time>2026-04-04T10:16:17.785Z</time></trkpt><trkpt lat="44.1405095" lon="10.4168403"><ele>378.0</ele><time>2026-04-04T10:16:19.788Z</time></trkpt><trkpt lat="44.140486" lon="10.4169985"><ele>378.0</ele><time>2026-04-04T10:16:21.776Z</time></trkpt><trkpt lat="44.1404678" lon="10.4171478"><ele>379.0</ele><time>2026-04-04T10:16:23.781Z</time></trkpt><trkpt lat="44.1404421" lon="10.4172836"><ele>380.0</ele><time>2026-04-04T10:16:25.777Z</time></trkpt><trkpt lat="44.1404209" lon="10.4174143"><ele>381.0</ele><time>2026-04-04T10:16:27.779Z</time></trkpt><trkpt lat="44.1404056" lon="10.417544"><ele>382.0</ele><time>2026-04-04T10:16:29.789Z</time></trkpt><trkpt lat="44.1403909" lon="10.4176594"><ele>383.0</ele><time>2026-04-04T10:16:31.773Z</time></trkpt><trkpt lat="44.1403722" lon="10.4177691"><ele>383.0</ele><time>2026-04-04T10:16:33.788Z</time></trkpt><trkpt lat="44.1403386" lon="10.4178569"><ele>383.0</ele><time>2026-04-04T10:16:35.783Z</time></trkpt><trkpt lat="44.1403048" lon="10.4179333"><ele>383.0</ele><time>2026-04-04T10:16:37.779Z</time></trkpt><trkpt lat="44.1402433" lon="10.4180146"><ele>383.0</ele><time>2026-04-04T10:16:40.779Z</time></trkpt><trkpt lat="44.1401732" lon="10.4180732"><ele>383.0</ele><time>2026-04-04T10:16:43.782Z</time></trkpt><trkpt lat="44.1400969" lon="10.4181133"><ele>383.0</ele><time>2026-04-04T10:16:46.793Z</time></trkpt><trkpt lat="44.1400142" lon="10.4181368"><ele>385.1666666666667</ele><time>2026-04-04T10:16:49.782Z</time></trkpt><trkpt lat="44.1399318" lon="10.4181534"><ele>387.33333333333337</ele><time>2026-04-04T10:16:52.771Z</time></trkpt><trkpt lat="44.1398515" lon="10.4181631"><ele>389.5</ele><time>2026-04-04T10:16:55.782Z</time></trkpt><trkpt lat="44.1397698" lon="10.4181697"><ele>391.6666666666667</ele><time>2026-04-04T10:16:58.781Z</time></trkpt><trkpt lat="44.1396872" lon="10.4181776"><ele>393.8333333333333</ele><time>2026-04-04T10:17:01.789Z</time></trkpt><trkpt lat="44.1396076" lon="10.4181909"><ele>396.0</ele><time>2026-04-04T10:17:04.778Z</time></trkpt><trkpt lat="44.1395277" lon="10.4181942"><ele>396.0</ele><time>2026-04-04T10:17:07.778Z</time></trkpt><trkpt lat="44.1394526" lon="10.4181971"><ele>396.0</ele><time>2026-04-04T10:17:10.79Z</time></trkpt><trkpt lat="44.1394269" lon="10.4181031"><ele>396.0</ele><time>2026-04-04T10:17:14.791Z</time></trkpt><trkpt lat="44.1394985" lon="10.4180355"><ele>396.0</ele><time>2026-04-04T10:17:17.79Z</time></trkpt><trkpt lat="44.1395692" lon="10.4180031"><ele>396.0</ele><time>2026-04-04T10:17:19.792Z</time></trkpt><trkpt lat="44.1396662" lon="10.4179372"><ele>396.0</ele><time>2026-04-04T10:17:21.771Z</time></trkpt><trkpt lat="44.1397276" lon="10.4178982"><ele>394.1666666666667</ele><time>2026-04-04T10:17:23.789Z</time></trkpt><trkpt lat="44.1397906" lon="10.4178332"><ele>392.33333333333337</ele><time>2026-04-04T10:17:25.775Z</time></trkpt><trkpt lat="44.1398245" lon="10.4177495"><ele>390.5</ele><time>2026-04-04T10:17:27.782Z</time></trkpt><trkpt lat="44.1398149" lon="10.4176396"><ele>388.6666666666667</ele><time>2026-04-04T10:17:29.773Z</time></trkpt><trkpt lat="44.1397767" lon="10.4175598"><ele>386.83333333333337</ele><time>2026-04-04T10:17:30.798Z</time></trkpt><trkpt lat="44.1397195" lon="10.4174638"><ele>385.0</ele><time>2026-04-04T10:17:32.779Z</time></trkpt><trkpt lat="44.1396238" lon="10.417394"><ele>385.0</ele><time>2026-04-04T10:17:34.783Z</time></trkpt><trkpt lat="44.1395094" lon="10.4173524"><ele>385.0</ele><time>2026-04-04T10:17:36.78Z</time></trkpt><trkpt lat="44.1394267" lon="10.4173092"><ele>385.0</ele><time>2026-04-04T10:17:38.782Z</time></trkpt><trkpt lat="44.139365" lon="10.4172504"><ele>385.0</ele><time>2026-04-04T10:17:40.777Z</time></trkpt><trkpt lat="44.1393464" lon="10.4171439"><ele>385.0</ele><time>2026-04-04T10:17:42.772Z</time></trkpt><trkpt lat="44.1392672" lon="10.4170437"><ele>385.2</ele><time>2026-04-04T10:17:44.775Z</time></trkpt><trkpt lat="44.1391678" lon="10.4169921"><ele>385.4</ele><time>2026-04-04T10:17:46.789Z</time></trkpt><trkpt lat="44.1391286" lon="10.4168827"><ele>385.6</ele><time>2026-04-04T10:17:48.777Z</time></trkpt><trkpt lat="44.1390694" lon="10.4167714"><ele>385.8</ele><time>2026-04-04T10:17:50.781Z</time></trkpt><trkpt lat="44.1389957" lon="10.4166873"><ele>386.0</ele><time>2026-04-04T10:17:52.785Z</time></trkpt><trkpt lat="44.1389272" lon="10.416602"><ele>385.99999999999994</ele><time>2026-04-04T10:17:54.776Z</time></trkpt><trkpt lat="44.1388687" lon="10.4165146"><ele>386.0</ele><time>2026-04-04T10:17:56.787Z</time></trkpt><trkpt lat="44.1387948" lon="10.4164574"><ele>386.0</ele><time>2026-04-04T10:17:58.783Z</time></trkpt><trkpt lat="44.138713" lon="10.4164162"><ele>386.0</ele><time>2026-04-04T10:18:00.792Z</time></trkpt><trkpt lat="44.1386422" lon="10.4163341"><ele>385.99999999999994</ele><time>2026-04-04T10:18:02.775Z</time></trkpt><trkpt lat="44.138595" lon="10.4162733"><ele>386.0</ele><time>2026-04-04T10:18:03.78Z</time></trkpt><trkpt lat="44.1385607" lon="10.4161424"><ele>385.8333333333333</ele><time>2026-04-04T10:18:05.776Z</time></trkpt><trkpt lat="44.1385135" lon="10.4160273"><ele>385.66666666666663</ele><time>2026-04-04T10:18:07.781Z</time></trkpt><trkpt lat="44.1384642" lon="10.4159361"><ele>385.5</ele><time>2026-04-04T10:18:09.773Z</time></trkpt><trkpt lat="44.138418" lon="10.4158611"><ele>385.33333333333337</ele><time>2026-04-04T10:18:11.783Z</time></trkpt><trkpt lat="44.1383438" lon="10.4157935"><ele>385.1666666666667</ele><time>2026-04-04T10:18:13.776Z</time></trkpt><trkpt lat="44.1382801" lon="10.4157121"><ele>385.0</ele><time>2026-04-04T10:18:15.793Z</time></trkpt><trkpt lat="44.1382128" lon="10.415624"><ele>385.00000000000006</ele><time>2026-04-04T10:18:17.771Z</time></trkpt><trkpt lat="44.1381621" lon="10.4155385"><ele>385.0</ele><time>2026-04-04T10:18:19.779Z</time></trkpt><trkpt lat="44.1381159" lon="10.4154649"><ele>385.0</ele><time>2026-04-04T10:18:21.788Z</time></trkpt><trkpt lat="44.138068" lon="10.4153377"><ele>385.0</ele><time>2026-04-04T10:18:23.779Z</time></trkpt><trkpt lat="44.1380433" lon="10.4152157"><ele>385.00000000000006</ele><time>2026-04-04T10:18:25.776Z</time></trkpt><trkpt lat="44.1380072" lon="10.4150949"><ele>385.0</ele><time>2026-04-04T10:18:27.777Z</time></trkpt><trkpt lat="44.1379375" lon="10.4150095"><ele>383.0</ele><time>2026-04-04T10:18:29.784Z</time></trkpt><trkpt lat="44.1378823" lon="10.4149"><ele>381.0</ele><time>2026-04-04T10:18:31.781Z</time></trkpt><trkpt lat="44.1378137" lon="10.4148022"><ele>379.0</ele><time>2026-04-04T10:18:33.778Z</time></trkpt><trkpt lat="44.1377053" lon="10.414763"><ele>377.0</ele><time>2026-04-04T10:18:35.787Z</time></trkpt><trkpt lat="44.1376015" lon="10.4147662"><ele>375.0</ele><time>2026-04-04T10:18:37.782Z</time></trkpt><trkpt lat="44.1375144" lon="10.4147355"><ele>375.0</ele><time>2026-04-04T10:18:39.776Z</time></trkpt><trkpt lat="44.1374369" lon="10.4147215"><ele>375.0</ele><time>2026-04-04T10:18:43.785Z</time></trkpt><trkpt lat="44.1373716" lon="10.4146876"><ele>375.0</ele><time>2026-04-04T10:19:28.787Z</time></trkpt><trkpt lat="44.1373371" lon="10.4145983"><ele>375.0</ele><time>2026-04-04T10:19:31.794Z</time></trkpt><trkpt lat="44.1373185" lon="10.4144971"><ele>375.0</ele><time>2026-04-04T10:19:34.783Z</time></trkpt><trkpt lat="44.1372725" lon="10.4144277"><ele>375.0</ele><time>2026-04-04T10:19:36.781Z</time></trkpt><trkpt lat="44.1371849" lon="10.4144144"><ele>376.42857142857144</ele><time>2026-04-04T10:19:38.783Z</time></trkpt><trkpt lat="44.1371137" lon="10.4144004"><ele>377.85714285714283</ele><time>2026-04-04T10:19:40.778Z</time></trkpt><trkpt lat="44.1370623" lon="10.4143431"><ele>379.2857142857143</ele><time>2026-04-04T10:19:43.784Z</time></trkpt><trkpt lat="44.1370307" lon="10.4142463"><ele>380.7142857142857</ele><time>2026-04-04T10:19:47.783Z</time></trkpt><trkpt lat="44.1369989" lon="10.4141618"><ele>382.1428571428571</ele><time>2026-04-04T10:19:53.775Z</time></trkpt><trkpt lat="44.1369645" lon="10.414066"><ele>383.57142857142856</ele><time>2026-04-04T10:19:58.777Z</time></trkpt><trkpt lat="44.1369533" lon="10.4139653"><ele>385.0</ele><time>2026-04-04T10:20:01.791Z</time></trkpt><trkpt lat="44.1369318" lon="10.4138671"><ele>383.85714285714283</ele><time>2026-04-04T10:20:04.77Z</time></trkpt><trkpt lat="44.1368798" lon="10.4137896"><ele>382.7142857142857</ele><time>2026-04-04T10:20:07.787Z</time></trkpt><trkpt lat="44.1368457" lon="10.4137012"><ele>381.57142857142856</ele><time>2026-04-04T10:20:11.775Z</time></trkpt><trkpt lat="44.1368256" lon="10.4136083"><ele>380.42857142857144</ele><time>2026-04-04T10:20:22.775Z</time></trkpt><trkpt lat="44.1367731" lon="10.4135238"><ele>379.2857142857143</ele><time>2026-04-04T10:20:25.775Z</time></trkpt><trkpt lat="44.1367641" lon="10.4134272"><ele>378.1428571428571</ele><time>2026-04-04T10:20:28.785Z</time></trkpt><trkpt lat="44.1367734" lon="10.4133227"><ele>377.0</ele><time>2026-04-04T10:20:31.769Z</time></trkpt><trkpt lat="44.1367451" lon="10.4132182"><ele>377.0</ele><time>2026-04-04T10:20:33.771Z</time></trkpt><trkpt lat="44.1366947" lon="10.4130905"><ele>377.0</ele><time>2026-04-04T10:20:35.767Z</time></trkpt><trkpt lat="44.1366206" lon="10.4129435"><ele>377.0</ele><time>2026-04-04T10:20:37.778Z</time></trkpt><trkpt lat="44.1365929" lon="10.4127886"><ele>377.0</ele><time>2026-04-04T10:20:39.774Z</time></trkpt><trkpt lat="44.1365373" lon="10.4127011"><ele>377.0</ele><time>2026-04-04T10:20:41.781Z</time></trkpt><trkpt lat="44.1364924" lon="10.4125793"><ele>377.83333333333337</ele><time>2026-04-04T10:20:43.777Z</time></trkpt><trkpt lat="44.1364457" lon="10.4124316"><ele>378.6666666666667</ele><time>2026-04-04T10:20:45.772Z</time></trkpt><trkpt lat="44.1364277" lon="10.4123352"><ele>379.5</ele><time>2026-04-04T10:20:47.786Z</time></trkpt><trkpt lat="44.1364469" lon="10.4122406"><ele>380.3333333333333</ele><time>2026-04-04T10:20:49.775Z</time></trkpt><trkpt lat="44.1365181" lon="10.4121692"><ele>381.16666666666663</ele><time>2026-04-04T10:20:51.776Z</time></trkpt><trkpt lat="44.1365683" lon="10.4120489"><ele>382.0</ele><time>2026-04-04T10:20:53.777Z</time></trkpt><trkpt lat="44.1365566" lon="10.4119195"><ele>380.8</ele><time>2026-04-04T10:20:55.775Z</time></trkpt><trkpt lat="44.1365005" lon="10.4118247"><ele>379.6</ele><time>2026-04-04T10:20:57.765Z</time></trkpt><trkpt lat="44.1364203" lon="10.4117282"><ele>378.40000000000003</ele><time>2026-04-04T10:20:59.77Z</time></trkpt><trkpt lat="44.1363828" lon="10.4116131"><ele>377.20000000000005</ele><time>2026-04-04T10:21:01.783Z</time></trkpt><trkpt lat="44.1363627" lon="10.4114634"><ele>376.0</ele><time>2026-04-04T10:21:03.774Z</time></trkpt><trkpt lat="44.1363435" lon="10.4113354"><ele>374.3333333333333</ele><time>2026-04-04T10:21:05.78Z</time></trkpt><trkpt lat="44.1362808" lon="10.4112583"><ele>372.66666666666663</ele><time>2026-04-04T10:21:07.786Z</time></trkpt><trkpt lat="44.1362419" lon="10.4111643"><ele>371.0</ele><time>2026-04-04T10:21:10.777Z</time></trkpt><trkpt lat="44.1362966" lon="10.4110763"><ele>369.3333333333333</ele><time>2026-04-04T10:21:12.777Z</time></trkpt><trkpt lat="44.1363302" lon="10.4109647"><ele>367.6666666666667</ele><time>2026-04-04T10:21:14.779Z</time></trkpt><trkpt lat="44.1362954" lon="10.4108737"><ele>366.0</ele><time>2026-04-04T10:21:16.782Z</time></trkpt><trkpt lat="44.1362513" lon="10.4108014"><ele>366.0</ele><time>2026-04-04T10:21:18.769Z</time></trkpt><trkpt lat="44.1362115" lon="10.410724"><ele>366.0</ele><time>2026-04-04T10:21:20.78Z</time></trkpt><trkpt lat="44.1361649" lon="10.4106369"><ele>366.0</ele><time>2026-04-04T10:21:22.781Z</time></trkpt><trkpt lat="44.1361288" lon="10.4105415"><ele>366.0</ele><time>2026-04-04T10:21:24.787Z</time></trkpt><trkpt lat="44.136113" lon="10.410448"><ele>366.0</ele><time>2026-04-04T10:21:26.772Z</time></trkpt><trkpt lat="44.1360695" lon="10.4103708"><ele>366.0</ele><time>2026-04-04T10:21:27.791Z</time></trkpt><trkpt lat="44.135989" lon="10.4103077"><ele>364.0</ele><time>2026-04-04T10:21:29.787Z</time></trkpt><trkpt lat="44.1359526" lon="10.410186"><ele>362.0</ele><time>2026-04-04T10:21:31.793Z</time></trkpt><trkpt lat="44.1359173" lon="10.4100522"><ele>360.0</ele><time>2026-04-04T10:21:33.769Z</time></trkpt><trkpt lat="44.1358821" lon="10.4099131"><ele>358.0</ele><time>2026-04-04T10:21:35.792Z</time></trkpt><trkpt lat="44.1359076" lon="10.409789"><ele>356.0</ele><time>2026-04-04T10:21:37.782Z</time></trkpt><trkpt lat="44.1359801" lon="10.4097059"><ele>354.8</ele><time>2026-04-04T10:21:39.777Z</time></trkpt><trkpt lat="44.1359992" lon="10.4096014"><ele>353.6</ele><time>2026-04-04T10:21:41.782Z</time></trkpt><trkpt lat="44.1359867" lon="10.4094738"><ele>352.4</ele><time>2026-04-04T10:21:43.784Z</time></trkpt><trkpt lat="44.1359962" lon="10.4093455"><ele>351.2</ele><time>2026-04-04T10:21:45.78Z</time></trkpt><trkpt lat="44.1359622" lon="10.409219"><ele>350.0</ele><time>2026-04-04T10:21:47.775Z</time></trkpt><trkpt lat="44.1359317" lon="10.4090863"><ele>350.0</ele><time>2026-04-04T10:21:49.776Z</time></trkpt><trkpt lat="44.1359294" lon="10.4089493"><ele>350.0</ele><time>2026-04-04T10:21:51.777Z</time></trkpt><trkpt lat="44.1359841" lon="10.4088631"><ele>350.0</ele><time>2026-04-04T10:21:53.778Z</time></trkpt><trkpt lat="44.1360278" lon="10.4087677"><ele>350.0</ele><time>2026-04-04T10:21:55.779Z</time></trkpt><trkpt lat="44.1360248" lon="10.4086676"><ele>350.0</ele><time>2026-04-04T10:21:57.775Z</time></trkpt><trkpt lat="44.1359786" lon="10.4085854"><ele>350.0</ele><time>2026-04-04T10:21:59.778Z</time></trkpt><trkpt lat="44.1359146" lon="10.4085137"><ele>349.0</ele><time>2026-04-04T10:22:01.779Z</time></trkpt><trkpt lat="44.135869" lon="10.4083904"><ele>348.0</ele><time>2026-04-04T10:22:03.78Z</time></trkpt><trkpt lat="44.1358753" lon="10.408255"><ele>347.0</ele><time>2026-04-04T10:22:05.775Z</time></trkpt><trkpt lat="44.1358889" lon="10.4081405"><ele>346.0</ele><time>2026-04-04T10:22:07.784Z</time></trkpt><trkpt lat="44.1358176" lon="10.4080784"><ele>345.0</ele><time>2026-04-04T10:22:09.78Z</time></trkpt><trkpt lat="44.1357608" lon="10.408014"><ele>344.0</ele><time>2026-04-04T10:22:11.785Z</time></trkpt><trkpt lat="44.1357066" lon="10.4079232"><ele>344.0</ele><time>2026-04-04T10:22:13.774Z</time></trkpt><trkpt lat="44.1356315" lon="10.4078099"><ele>344.0</ele><time>2026-04-04T10:22:15.791Z</time></trkpt><trkpt lat="44.135568" lon="10.4077269"><ele>344.0</ele><time>2026-04-04T10:22:17.776Z</time></trkpt><trkpt lat="44.1354931" lon="10.4077417"><ele>344.0</ele><time>2026-04-04T10:22:19.775Z</time></trkpt><trkpt lat="44.1354116" lon="10.4077762"><ele>344.0</ele><time>2026-04-04T10:22:21.78Z</time></trkpt><trkpt lat="44.1353153" lon="10.4078148"><ele>344.0</ele><time>2026-04-04T10:22:23.771Z</time></trkpt><trkpt lat="44.1352461" lon="10.4078522"><ele>344.0</ele><time>2026-04-04T10:22:25.787Z</time></trkpt><trkpt lat="44.1351743" lon="10.4078833"><ele>344.0</ele><time>2026-04-04T10:22:28.785Z</time></trkpt><trkpt lat="44.135113" lon="10.4079424"><ele>344.0</ele><time>2026-04-04T10:22:31.785Z</time></trkpt><trkpt lat="44.135065" lon="10.4080223"><ele>344.0</ele><time>2026-04-04T10:22:34.772Z</time></trkpt><trkpt lat="44.1350189" lon="10.4081208"><ele>344.0</ele><time>2026-04-04T10:22:38.772Z</time></trkpt><trkpt lat="44.1349916" lon="10.4082053"><ele>344.5714285714286</ele><time>2026-04-04T10:22:41.777Z</time></trkpt><trkpt lat="44.1349965" lon="10.4083152"><ele>345.14285714285717</ele><time>2026-04-04T10:22:45.771Z</time></trkpt><trkpt lat="44.1349853" lon="10.408407"><ele>345.7142857142857</ele><time>2026-04-04T10:22:48.779Z</time></trkpt><trkpt lat="44.1349502" lon="10.4084832"><ele>346.28571428571433</ele><time>2026-04-04T10:22:51.779Z</time></trkpt><trkpt lat="44.1348814" lon="10.4085417"><ele>346.8571428571429</ele><time>2026-04-04T10:22:55.779Z</time></trkpt><trkpt lat="44.134805" lon="10.4085622"><ele>347.42857142857144</ele><time>2026-04-04T10:22:59.776Z</time></trkpt><trkpt lat="44.1347395" lon="10.4085586"><ele>348.0</ele><time>2026-04-04T10:23:02.781Z</time></trkpt><trkpt lat="44.1346837" lon="10.4085083"><ele>349.85714285714283</ele><time>2026-04-04T10:23:05.783Z</time></trkpt><trkpt lat="44.1346324" lon="10.4084496"><ele>351.7142857142857</ele><time>2026-04-04T10:23:08.777Z</time></trkpt><trkpt lat="44.1345759" lon="10.40841"><ele>353.57142857142856</ele><time>2026-04-04T10:23:11.79Z</time></trkpt><trkpt lat="44.1345028" lon="10.4083562"><ele>355.42857142857144</ele><time>2026-04-04T10:23:15.785Z</time></trkpt><trkpt lat="44.1344446" lon="10.4083121"><ele>357.2857142857143</ele><time>2026-04-04T10:23:18.777Z</time></trkpt><trkpt lat="44.1343866" lon="10.4082636"><ele>359.14285714285717</ele><time>2026-04-04T10:23:21.781Z</time></trkpt><trkpt lat="44.1343303" lon="10.4082154"><ele>361.0</ele><time>2026-04-04T10:23:24.785Z</time></trkpt><trkpt lat="44.1342718" lon="10.4081729"><ele>361.0</ele><time>2026-04-04T10:23:27.772Z</time></trkpt><trkpt lat="44.1342142" lon="10.4081338"><ele>361.0</ele><time>2026-04-04T10:23:30.787Z</time></trkpt><trkpt lat="44.1341586" lon="10.4080907"><ele>361.0</ele><time>2026-04-04T10:23:33.783Z</time></trkpt><trkpt lat="44.1340982" lon="10.4080408"><ele>361.0</ele><time>2026-04-04T10:23:36.783Z</time></trkpt><trkpt lat="44.1340431" lon="10.4079789"><ele>361.0</ele><time>2026-04-04T10:23:39.78Z</time></trkpt><trkpt lat="44.1339882" lon="10.4079175"><ele>361.0</ele><time>2026-04-04T10:23:42.784Z</time></trkpt><trkpt lat="44.1339404" lon="10.4078541"><ele>361.0</ele><time>2026-04-04T10:23:45.78Z</time></trkpt><trkpt lat="44.1338909" lon="10.407792"><ele>361.16666666666663</ele><time>2026-04-04T10:23:48.786Z</time></trkpt><trkpt lat="44.1338275" lon="10.4077114"><ele>361.3333333333333</ele><time>2026-04-04T10:23:52.791Z</time></trkpt><trkpt lat="44.1337808" lon="10.4076416"><ele>361.5</ele><time>2026-04-04T10:23:55.778Z</time></trkpt><trkpt lat="44.1337325" lon="10.407579"><ele>361.6666666666667</ele><time>2026-04-04T10:23:58.783Z</time></trkpt><trkpt lat="44.1336752" lon="10.4075124"><ele>361.83333333333337</ele><time>2026-04-04T10:24:01.77Z</time></trkpt><trkpt lat="44.1336128" lon="10.4074491"><ele>362.0</ele><time>2026-04-04T10:24:04.78Z</time></trkpt><trkpt lat="44.1335494" lon="10.4073771"><ele>362.0</ele><time>2026-04-04T10:24:07.776Z</time></trkpt><trkpt lat="44.1334835" lon="10.4073039"><ele>362.0</ele><time>2026-04-04T10:24:10.783Z</time></trkpt><trkpt lat="44.1334123" lon="10.4072515"><ele>362.0</ele><time>2026-04-04T10:24:13.78Z</time></trkpt><trkpt lat="44.1333473" lon="10.4072043"><ele>362.0</ele><time>2026-04-04T10:24:16.773Z</time></trkpt><trkpt lat="44.1332703" lon="10.4071362"><ele>362.0</ele><time>2026-04-04T10:24:19.785Z</time></trkpt><trkpt lat="44.1332207" lon="10.407081"><ele>362.0</ele><time>2026-04-04T10:24:21.778Z</time></trkpt><trkpt lat="44.1331724" lon="10.4070165"><ele>361.0</ele><time>2026-04-04T10:24:23.782Z</time></trkpt><trkpt lat="44.1331101" lon="10.4069233"><ele>360.0</ele><time>2026-04-04T10:24:26.78Z</time></trkpt><trkpt lat="44.133068" lon="10.4068345"><ele>359.0</ele><time>2026-04-04T10:24:29.79Z</time></trkpt><trkpt lat="44.1330212" lon="10.4067443"><ele>358.0</ele><time>2026-04-04T10:24:32.773Z</time></trkpt><trkpt lat="44.1329734" lon="10.4066574"><ele>357.0</ele><time>2026-04-04T10:24:35.781Z</time></trkpt><trkpt lat="44.1329325" lon="10.4065797"><ele>356.0</ele><time>2026-04-04T10:24:38.78Z</time></trkpt><trkpt lat="44.132887" lon="10.4064967"><ele>356.0</ele><time>2026-04-04T10:24:41.779Z</time></trkpt><trkpt lat="44.1328516" lon="10.4064199"><ele>356.0</ele><time>2026-04-04T10:24:45.783Z</time></trkpt><trkpt lat="44.1327902" lon="10.4063974"><ele>356.0</ele><time>2026-04-04T10:24:50.772Z</time></trkpt><trkpt lat="44.1327208" lon="10.4064769"><ele>356.0</ele><time>2026-04-04T10:24:54.768Z</time></trkpt><trkpt lat="44.132655" lon="10.4065423"><ele>356.0</ele><time>2026-04-04T10:24:57.776Z</time></trkpt><trkpt lat="44.1325979" lon="10.4066055"><ele>356.0</ele><time>2026-04-04T10:25:00.771Z</time></trkpt><trkpt lat="44.1325364" lon="10.4066759"><ele>356.0</ele><time>2026-04-04T10:25:03.781Z</time></trkpt><trkpt lat="44.1324735" lon="10.4067565"><ele>356.0</ele><time>2026-04-04T10:25:06.775Z</time></trkpt><trkpt lat="44.1324143" lon="10.4068334"><ele>356.0</ele><time>2026-04-04T10:25:09.781Z</time></trkpt><trkpt lat="44.132362" lon="10.4069139"><ele>356.0</ele><time>2026-04-04T10:25:12.776Z</time></trkpt><trkpt lat="44.132301" lon="10.4069952"><ele>356.0</ele><time>2026-04-04T10:25:15.781Z</time></trkpt><trkpt lat="44.1322454" lon="10.4070819"><ele>356.0</ele><time>2026-04-04T10:25:18.77Z</time></trkpt><trkpt lat="44.1321884" lon="10.4071624"><ele>356.33333333333337</ele><time>2026-04-04T10:25:21.78Z</time></trkpt><trkpt lat="44.132133" lon="10.4072421"><ele>356.6666666666667</ele><time>2026-04-04T10:25:24.778Z</time></trkpt><trkpt lat="44.1320766" lon="10.4073198"><ele>357.0</ele><time>2026-04-04T10:25:27.776Z</time></trkpt><trkpt lat="44.1320253" lon="10.4074064"><ele>357.3333333333333</ele><time>2026-04-04T10:25:30.783Z</time></trkpt><trkpt lat="44.1319694" lon="10.4074829"><ele>357.66666666666663</ele><time>2026-04-04T10:25:33.77Z</time></trkpt><trkpt lat="44.1319263" lon="10.407576"><ele>358.0</ele><time>2026-04-04T10:25:36.781Z</time></trkpt><trkpt lat="44.1318835" lon="10.4076702"><ele>358.0</ele><time>2026-04-04T10:25:39.777Z</time></trkpt><trkpt lat="44.1318401" lon="10.4077611"><ele>358.0</ele><time>2026-04-04T10:25:42.775Z</time></trkpt><trkpt lat="44.1317939" lon="10.4078533"><ele>358.0</ele><time>2026-04-04T10:25:45.774Z</time></trkpt><trkpt lat="44.1317506" lon="10.4079452"><ele>358.0</ele><time>2026-04-04T10:25:48.783Z</time></trkpt><trkpt lat="44.1317055" lon="10.4080345"><ele>358.0</ele><time>2026-04-04T10:25:51.772Z</time></trkpt><trkpt lat="44.1316499" lon="10.4081096"><ele>358.0</ele><time>2026-04-04T10:25:54.784Z</time></trkpt><trkpt lat="44.1315867" lon="10.408178"><ele>358.00000000000006</ele><time>2026-04-04T10:25:57.77Z</time></trkpt><trkpt lat="44.1315271" lon="10.4082401"><ele>358.0</ele><time>2026-04-04T10:26:00.776Z</time></trkpt><trkpt lat="44.1314635" lon="10.4082473"><ele>358.0</ele><time>2026-04-04T10:26:03.767Z</time></trkpt><trkpt lat="44.131415" lon="10.4081545"><ele>358.0</ele><time>2026-04-04T10:26:06.775Z</time></trkpt><trkpt lat="44.1313699" lon="10.4080827"><ele>358.0</ele><time>2026-04-04T10:26:08.775Z</time></trkpt><trkpt lat="44.1313295" lon="10.407995"><ele>358.00000000000006</ele><time>2026-04-04T10:26:10.767Z</time></trkpt><trkpt lat="44.1312724" lon="10.4079177"><ele>358.0</ele><time>2026-04-04T10:26:12.766Z</time></trkpt><trkpt lat="44.1312054" lon="10.4078241"><ele>357.5</ele><time>2026-04-04T10:26:14.794Z</time></trkpt><trkpt lat="44.1311308" lon="10.4077232"><ele>357.0</ele><time>2026-04-04T10:26:16.773Z</time></trkpt><trkpt lat="44.1310535" lon="10.4076182"><ele>356.5</ele><time>2026-04-04T10:26:18.789Z</time></trkpt><trkpt lat="44.1309711" lon="10.407501"><ele>356.0</ele><time>2026-04-04T10:26:20.784Z</time></trkpt><trkpt lat="44.1308899" lon="10.4073704"><ele>356.0</ele><time>2026-04-04T10:26:22.788Z</time></trkpt><trkpt lat="44.1307972" lon="10.4072541"><ele>356.0</ele><time>2026-04-04T10:26:24.789Z</time></trkpt><trkpt lat="44.1307505" lon="10.4071907"><ele>356.0</ele><time>2026-04-04T10:26:25.772Z</time></trkpt><trkpt lat="44.130702" lon="10.4071228"><ele>356.0</ele><time>2026-04-04T10:26:26.773Z</time></trkpt><trkpt lat="44.1306581" lon="10.4070547"><ele>356.0</ele><time>2026-04-04T10:26:27.776Z</time></trkpt><trkpt lat="44.130612" lon="10.4069807"><ele>356.0</ele><time>2026-04-04T10:26:28.772Z</time></trkpt><trkpt lat="44.1305637" lon="10.4069096"><ele>355.2857142857143</ele><time>2026-04-04T10:26:29.766Z</time></trkpt><trkpt lat="44.1305137" lon="10.4068414"><ele>354.57142857142856</ele><time>2026-04-04T10:26:30.784Z</time></trkpt><trkpt lat="44.1304612" lon="10.4067719"><ele>353.8571428571429</ele><time>2026-04-04T10:26:31.771Z</time></trkpt><trkpt lat="44.1304093" lon="10.4066954"><ele>353.1428571428571</ele><time>2026-04-04T10:26:32.774Z</time></trkpt><trkpt lat="44.1303538" lon="10.4066212"><ele>352.42857142857144</ele><time>2026-04-04T10:26:33.787Z</time></trkpt><trkpt lat="44.1302976" lon="10.4065472"><ele>351.7142857142857</ele><time>2026-04-04T10:26:34.769Z</time></trkpt><trkpt lat="44.1302424" lon="10.4064743"><ele>351.0</ele><time>2026-04-04T10:26:35.789Z</time></trkpt><trkpt lat="44.1301862" lon="10.4063938"><ele>350.8333333333333</ele><time>2026-04-04T10:26:36.776Z</time></trkpt><trkpt lat="44.1301285" lon="10.4063116"><ele>350.6666666666667</ele><time>2026-04-04T10:26:37.773Z</time></trkpt><trkpt lat="44.1300697" lon="10.406232"><ele>350.5</ele><time>2026-04-04T10:26:38.769Z</time></trkpt><trkpt lat="44.1300033" lon="10.4061572"><ele>350.33333333333337</ele><time>2026-04-04T10:26:39.771Z</time></trkpt><trkpt lat="44.1299346" lon="10.406082"><ele>350.1666666666667</ele><time>2026-04-04T10:26:40.787Z</time></trkpt><trkpt lat="44.1298658" lon="10.4060108"><ele>350.0</ele><time>2026-04-04T10:26:41.775Z</time></trkpt><trkpt lat="44.1297937" lon="10.4059358"><ele>349.0</ele><time>2026-04-04T10:26:42.779Z</time></trkpt><trkpt lat="44.1297212" lon="10.4058634"><ele>348.0</ele><time>2026-04-04T10:26:43.778Z</time></trkpt><trkpt lat="44.1296478" lon="10.4057851"><ele>347.0</ele><time>2026-04-04T10:26:44.768Z</time></trkpt><trkpt lat="44.1295761" lon="10.4057104"><ele>346.0</ele><time>2026-04-04T10:26:45.773Z</time></trkpt><trkpt lat="44.1295029" lon="10.4056324"><ele>345.0</ele><time>2026-04-04T10:26:46.782Z</time></trkpt><trkpt lat="44.1294295" lon="10.4055567"><ele>344.6</ele><time>2026-04-04T10:26:47.778Z</time></trkpt><trkpt lat="44.1293525" lon="10.4054748"><ele>344.2</ele><time>2026-04-04T10:26:48.777Z</time></trkpt><trkpt lat="44.1292773" lon="10.4053961"><ele>343.79999999999995</ele><time>2026-04-04T10:26:49.779Z</time></trkpt><trkpt lat="44.1291993" lon="10.4053195"><ele>343.4</ele><time>2026-04-04T10:26:50.766Z</time></trkpt><trkpt lat="44.1291256" lon="10.4052415"><ele>343.0</ele><time>2026-04-04T10:26:51.778Z</time></trkpt><trkpt lat="44.1290564" lon="10.4051565"><ele>342.79999999999995</ele><time>2026-04-04T10:26:52.774Z</time></trkpt><trkpt lat="44.1289885" lon="10.4050606"><ele>342.6</ele><time>2026-04-04T10:26:53.774Z</time></trkpt><trkpt lat="44.128921" lon="10.4049627"><ele>342.4</ele><time>2026-04-04T10:26:54.781Z</time></trkpt><trkpt lat="44.1288549" lon="10.4048653"><ele>342.20000000000005</ele><time>2026-04-04T10:26:55.773Z</time></trkpt><trkpt lat="44.1287868" lon="10.4047692"><ele>342.0</ele><time>2026-04-04T10:26:56.769Z</time></trkpt><trkpt lat="44.1287182" lon="10.4046706"><ele>341.6</ele><time>2026-04-04T10:26:57.782Z</time></trkpt><trkpt lat="44.1286504" lon="10.4045728"><ele>341.20000000000005</ele><time>2026-04-04T10:26:58.77Z</time></trkpt><trkpt lat="44.1285813" lon="10.4044745"><ele>340.8</ele><time>2026-04-04T10:26:59.773Z</time></trkpt><trkpt lat="44.1285145" lon="10.4043778"><ele>340.4</ele><time>2026-04-04T10:27:00.769Z</time></trkpt><trkpt lat="44.1284519" lon="10.4042813"><ele>340.0</ele><time>2026-04-04T10:27:01.773Z</time></trkpt><trkpt lat="44.1283861" lon="10.4041848"><ele>340.0</ele><time>2026-04-04T10:27:02.788Z</time></trkpt><trkpt lat="44.1283247" lon="10.4041048"><ele>340.0</ele><time>2026-04-04T10:27:03.773Z</time></trkpt><trkpt lat="44.1282584" lon="10.4040201"><ele>340.0</ele><time>2026-04-04T10:27:04.779Z</time></trkpt><trkpt lat="44.1281969" lon="10.4039273"><ele>340.0</ele><time>2026-04-04T10:27:05.77Z</time></trkpt><trkpt lat="44.1281402" lon="10.4038367"><ele>340.0</ele><time>2026-04-04T10:27:06.775Z</time></trkpt><trkpt lat="44.1280774" lon="10.4037419"><ele>340.0</ele><time>2026-04-04T10:27:07.779Z</time></trkpt><trkpt lat="44.1280162" lon="10.4036517"><ele>338.8</ele><time>2026-04-04T10:27:08.783Z</time></trkpt><trkpt lat="44.127953" lon="10.4035608"><ele>337.6</ele><time>2026-04-04T10:27:09.782Z</time></trkpt><trkpt lat="44.1278899" lon="10.4034721"><ele>336.4</ele><time>2026-04-04T10:27:10.772Z</time></trkpt><trkpt lat="44.1278241" lon="10.4033846"><ele>335.2</ele><time>2026-04-04T10:27:11.772Z</time></trkpt><trkpt lat="44.1277592" lon="10.4032955"><ele>334.0</ele><time>2026-04-04T10:27:12.777Z</time></trkpt><trkpt lat="44.1276937" lon="10.4032074"><ele>334.0</ele><time>2026-04-04T10:27:13.771Z</time></trkpt><trkpt lat="44.1276258" lon="10.4031192"><ele>334.0</ele><time>2026-04-04T10:27:14.771Z</time></trkpt><trkpt lat="44.1275618" lon="10.4030246"><ele>334.0</ele><time>2026-04-04T10:27:15.769Z</time></trkpt><trkpt lat="44.127498" lon="10.4029282"><ele>334.0</ele><time>2026-04-04T10:27:16.779Z</time></trkpt><trkpt lat="44.127432" lon="10.4028282"><ele>334.0</ele><time>2026-04-04T10:27:17.788Z</time></trkpt><trkpt lat="44.1273672" lon="10.4027309"><ele>333.4</ele><time>2026-04-04T10:27:18.776Z</time></trkpt><trkpt lat="44.1272995" lon="10.4026322"><ele>332.79999999999995</ele><time>2026-04-04T10:27:19.779Z</time></trkpt><trkpt lat="44.1272306" lon="10.4025406"><ele>332.20000000000005</ele><time>2026-04-04T10:27:20.769Z</time></trkpt><trkpt lat="44.1271589" lon="10.40245"><ele>331.6</ele><time>2026-04-04T10:27:21.783Z</time></trkpt><trkpt lat="44.127092" lon="10.4023548"><ele>331.0</ele><time>2026-04-04T10:27:22.772Z</time></trkpt><trkpt lat="44.1270268" lon="10.4022535"><ele>330.8</ele><time>2026-04-04T10:27:23.789Z</time></trkpt><trkpt lat="44.1269666" lon="10.4021431"><ele>330.6</ele><time>2026-04-04T10:27:24.769Z</time></trkpt><trkpt lat="44.1269111" lon="10.4020276"><ele>330.4</ele><time>2026-04-04T10:27:25.778Z</time></trkpt><trkpt lat="44.1268561" lon="10.4019134"><ele>330.2</ele><time>2026-04-04T10:27:26.773Z</time></trkpt><trkpt lat="44.1268024" lon="10.4017982"><ele>330.0</ele><time>2026-04-04T10:27:27.782Z</time></trkpt><trkpt lat="44.1267491" lon="10.401679"><ele>330.0</ele><time>2026-04-04T10:27:28.773Z</time></trkpt><trkpt lat="44.1266962" lon="10.4015596"><ele>330.0</ele><time>2026-04-04T10:27:29.768Z</time></trkpt><trkpt lat="44.1266408" lon="10.4014441"><ele>330.0</ele><time>2026-04-04T10:27:30.775Z</time></trkpt><trkpt lat="44.1265787" lon="10.4013347"><ele>330.0</ele><time>2026-04-04T10:27:31.779Z</time></trkpt><trkpt lat="44.1265165" lon="10.4012243"><ele>330.0</ele><time>2026-04-04T10:27:32.772Z</time></trkpt><trkpt lat="44.1264517" lon="10.4011158"><ele>328.6</ele><time>2026-04-04T10:27:33.771Z</time></trkpt><trkpt lat="44.1263897" lon="10.4010018"><ele>327.2</ele><time>2026-04-04T10:27:34.778Z</time></trkpt><trkpt lat="44.1263203" lon="10.4008892"><ele>325.79999999999995</ele><time>2026-04-04T10:27:35.785Z</time></trkpt><trkpt lat="44.1262498" lon="10.4007766"><ele>324.4</ele><time>2026-04-04T10:27:36.782Z</time></trkpt><trkpt lat="44.1261843" lon="10.4006753"><ele>323.0</ele><time>2026-04-04T10:27:37.773Z</time></trkpt><trkpt lat="44.126123" lon="10.4005776"><ele>322.5</ele><time>2026-04-04T10:27:38.78Z</time></trkpt><trkpt lat="44.1260627" lon="10.4004939"><ele>322.0</ele><time>2026-04-04T10:27:39.776Z</time></trkpt><trkpt lat="44.1260016" lon="10.4004226"><ele>321.5</ele><time>2026-04-04T10:27:40.781Z</time></trkpt><trkpt lat="44.1259544" lon="10.4003509"><ele>321.0</ele><time>2026-04-04T10:27:41.784Z</time></trkpt><trkpt lat="44.1258825" lon="10.4002381"><ele>320.5</ele><time>2026-04-04T10:27:43.788Z</time></trkpt><trkpt lat="44.1258706" lon="10.4001225"><ele>320.0</ele><time>2026-04-04T10:27:45.772Z</time></trkpt><trkpt lat="44.1259418" lon="10.4000315"><ele>320.0</ele><time>2026-04-04T10:27:47.796Z</time></trkpt><trkpt lat="44.1260339" lon="10.3999522"><ele>320.0</ele><time>2026-04-04T10:27:49.778Z</time></trkpt><trkpt lat="44.126144" lon="10.3998745"><ele>320.0</ele><time>2026-04-04T10:27:51.772Z</time></trkpt><trkpt lat="44.1262087" lon="10.3998405"><ele>320.0</ele><time>2026-04-04T10:27:52.77Z</time></trkpt><trkpt lat="44.1262741" lon="10.3998124"><ele>320.0</ele><time>2026-04-04T10:27:53.783Z</time></trkpt><trkpt lat="44.1263414" lon="10.3997812"><ele>320.0</ele><time>2026-04-04T10:27:54.771Z</time></trkpt><trkpt lat="44.1264127" lon="10.3997482"><ele>320.0</ele><time>2026-04-04T10:27:55.789Z</time></trkpt><trkpt lat="44.1264823" lon="10.3997125"><ele>320.0</ele><time>2026-04-04T10:27:56.781Z</time></trkpt><trkpt lat="44.1265567" lon="10.3996827"><ele>320.0</ele><time>2026-04-04T10:27:57.767Z</time></trkpt><trkpt lat="44.126633" lon="10.3996552"><ele>320.0</ele><time>2026-04-04T10:27:58.779Z</time></trkpt><trkpt lat="44.1267129" lon="10.3996215"><ele>320.0</ele><time>2026-04-04T10:27:59.791Z</time></trkpt><trkpt lat="44.1267905" lon="10.3995923"><ele>320.0</ele><time>2026-04-04T10:28:00.78Z</time></trkpt><trkpt lat="44.1268742" lon="10.3995527"><ele>319.0</ele><time>2026-04-04T10:28:01.775Z</time></trkpt><trkpt lat="44.1269424" lon="10.3995036"><ele>318.0</ele><time>2026-04-04T10:28:02.771Z</time></trkpt><trkpt lat="44.1269957" lon="10.3994198"><ele>317.0</ele><time>2026-04-04T10:28:03.776Z</time></trkpt><trkpt lat="44.1270246" lon="10.3993287"><ele>316.0</ele><time>2026-04-04T10:28:04.768Z</time></trkpt><trkpt lat="44.1270417" lon="10.3992317"><ele>315.0</ele><time>2026-04-04T10:28:05.768Z</time></trkpt><trkpt lat="44.1270194" lon="10.3991489"><ele>314.0</ele><time>2026-04-04T10:28:06.787Z</time></trkpt><trkpt lat="44.1269733" lon="10.3990001"><ele>314.0</ele><time>2026-04-04T10:28:08.775Z</time></trkpt><trkpt lat="44.1269309" lon="10.3988854"><ele>314.0</ele><time>2026-04-04T10:28:10.785Z</time></trkpt><trkpt lat="44.1269066" lon="10.3987913"><ele>314.0</ele><time>2026-04-04T10:28:12.773Z</time></trkpt><trkpt lat="44.126868" lon="10.3986917"><ele>314.0</ele><time>2026-04-04T10:28:15.773Z</time></trkpt><trkpt lat="44.1268265" lon="10.3986031"><ele>314.0</ele><time>2026-04-04T10:28:18.776Z</time></trkpt><trkpt lat="44.1267941" lon="10.3985202"><ele>314.0</ele><time>2026-04-04T10:28:21.769Z</time></trkpt><trkpt lat="44.1267663" lon="10.3984403"><ele>315.1428571428571</ele><time>2026-04-04T10:28:24.776Z</time></trkpt><trkpt lat="44.1267356" lon="10.3983635"><ele>316.2857142857143</ele><time>2026-04-04T10:28:27.775Z</time></trkpt><trkpt lat="44.1267056" lon="10.3982791"><ele>317.42857142857144</ele><time>2026-04-04T10:28:30.782Z</time></trkpt><trkpt lat="44.1266689" lon="10.3981991"><ele>318.57142857142856</ele><time>2026-04-04T10:28:33.79Z</time></trkpt><trkpt lat="44.1266377" lon="10.3981161"><ele>319.7142857142857</ele><time>2026-04-04T10:28:36.78Z</time></trkpt><trkpt lat="44.1266037" lon="10.3980313"><ele>320.85714285714283</ele><time>2026-04-04T10:28:39.773Z</time></trkpt><trkpt lat="44.1265773" lon="10.3979472"><ele>322.0</ele><time>2026-04-04T10:28:42.772Z</time></trkpt><trkpt lat="44.1265715" lon="10.3978547"><ele>322.42857142857144</ele><time>2026-04-04T10:28:45.777Z</time></trkpt><trkpt lat="44.1265828" lon="10.3977654"><ele>322.8571428571429</ele><time>2026-04-04T10:28:48.78Z</time></trkpt><trkpt lat="44.1266033" lon="10.3976762"><ele>323.2857142857143</ele><time>2026-04-04T10:28:51.778Z</time></trkpt><trkpt lat="44.1266405" lon="10.3975971"><ele>323.7142857142857</ele><time>2026-04-04T10:28:54.779Z</time></trkpt><trkpt lat="44.1266855" lon="10.3975245"><ele>324.14285714285717</ele><time>2026-04-04T10:28:57.777Z</time></trkpt><trkpt lat="44.1267289" lon="10.3974496"><ele>324.57142857142856</ele><time>2026-04-04T10:29:00.779Z</time></trkpt><trkpt lat="44.1267706" lon="10.3973737"><ele>325.0</ele><time>2026-04-04T10:29:03.772Z</time></trkpt><trkpt lat="44.1268052" lon="10.3972948"><ele>325.0</ele><time>2026-04-04T10:29:06.776Z</time></trkpt><trkpt lat="44.1268401" lon="10.397216"><ele>325.0</ele><time>2026-04-04T10:29:09.776Z</time></trkpt><trkpt lat="44.1268756" lon="10.3971413"><ele>325.0</ele><time>2026-04-04T10:29:12.775Z</time></trkpt><trkpt lat="44.1269122" lon="10.3970611"><ele>325.0</ele><time>2026-04-04T10:29:15.774Z</time></trkpt><trkpt lat="44.1269442" lon="10.3969763"><ele>325.0</ele><time>2026-04-04T10:29:18.773Z</time></trkpt><trkpt lat="44.1269722" lon="10.3968967"><ele>325.0</ele><time>2026-04-04T10:29:21.774Z</time></trkpt><trkpt lat="44.1270037" lon="10.3968116"><ele>325.0</ele><time>2026-04-04T10:29:24.784Z</time></trkpt><trkpt lat="44.1270449" lon="10.3967335"><ele>324.0</ele><time>2026-04-04T10:29:27.779Z</time></trkpt><trkpt lat="44.1270857" lon="10.3966541"><ele>323.0</ele><time>2026-04-04T10:29:30.775Z</time></trkpt><trkpt lat="44.1271283" lon="10.3965829"><ele>322.0</ele><time>2026-04-04T10:29:33.779Z</time></trkpt><trkpt lat="44.127174" lon="10.396511"><ele>321.0</ele><time>2026-04-04T10:29:36.778Z</time></trkpt><trkpt lat="44.1272163" lon="10.3964351"><ele>320.0</ele><time>2026-04-04T10:29:39.782Z</time></trkpt><trkpt lat="44.1272562" lon="10.3963535"><ele>319.0</ele><time>2026-04-04T10:29:42.791Z</time></trkpt><trkpt lat="44.127299" lon="10.3962695"><ele>318.0</ele><time>2026-04-04T10:29:45.788Z</time></trkpt><trkpt lat="44.1273403" lon="10.3961881"><ele>317.7142857142857</ele><time>2026-04-04T10:29:48.779Z</time></trkpt><trkpt lat="44.1273815" lon="10.3961031"><ele>317.42857142857144</ele><time>2026-04-04T10:29:51.778Z</time></trkpt><trkpt lat="44.1274198" lon="10.3960206"><ele>317.14285714285717</ele><time>2026-04-04T10:29:54.781Z</time></trkpt><trkpt lat="44.1274559" lon="10.3959314"><ele>316.8571428571429</ele><time>2026-04-04T10:29:57.793Z</time></trkpt><trkpt lat="44.1274851" lon="10.3958362"><ele>316.57142857142856</ele><time>2026-04-04T10:30:00.771Z</time></trkpt><trkpt lat="44.127506" lon="10.3957382"><ele>316.28571428571433</ele><time>2026-04-04T10:30:03.781Z</time></trkpt><trkpt lat="44.1275283" lon="10.395643"><ele>316.0</ele><time>2026-04-04T10:30:06.789Z</time></trkpt><trkpt lat="44.1275412" lon="10.3955478"><ele>317.28571428571433</ele><time>2026-04-04T10:30:09.782Z</time></trkpt><trkpt lat="44.1275488" lon="10.3954515"><ele>318.57142857142856</ele><time>2026-04-04T10:30:12.774Z</time></trkpt><trkpt lat="44.1275585" lon="10.3953554"><ele>319.8571428571429</ele><time>2026-04-04T10:30:15.769Z</time></trkpt><trkpt lat="44.1275681" lon="10.3952575"><ele>321.14285714285717</ele><time>2026-04-04T10:30:18.781Z</time></trkpt><trkpt lat="44.1275825" lon="10.395156"><ele>322.42857142857144</ele><time>2026-04-04T10:30:21.792Z</time></trkpt><trkpt lat="44.1275926" lon="10.3950597"><ele>323.7142857142857</ele><time>2026-04-04T10:30:24.784Z</time></trkpt><trkpt lat="44.1276059" lon="10.3949686"><ele>325.0</ele><time>2026-04-04T10:30:27.792Z</time></trkpt><trkpt lat="44.1276176" lon="10.394881"><ele>325.0</ele><time>2026-04-04T10:30:30.793Z</time></trkpt><trkpt lat="44.1276243" lon="10.3947867"><ele>325.0</ele><time>2026-04-04T10:30:33.771Z</time></trkpt><trkpt lat="44.1276347" lon="10.3946894"><ele>325.0</ele><time>2026-04-04T10:30:36.78Z</time></trkpt><trkpt lat="44.1276507" lon="10.3945982"><ele>325.0</ele><time>2026-04-04T10:30:39.775Z</time></trkpt><trkpt lat="44.1276605" lon="10.3945032"><ele>325.0</ele><time>2026-04-04T10:30:42.781Z</time></trkpt><trkpt lat="44.1276753" lon="10.3944118"><ele>325.0</ele><time>2026-04-04T10:30:45.781Z</time></trkpt><trkpt lat="44.1276898" lon="10.3943185"><ele>325.0</ele><time>2026-04-04T10:30:48.799Z</time></trkpt><trkpt lat="44.1277019" lon="10.3942184"><ele>324.85714285714283</ele><time>2026-04-04T10:30:51.78Z</time></trkpt><trkpt lat="44.1277238" lon="10.3941218"><ele>324.7142857142857</ele><time>2026-04-04T10:30:54.767Z</time></trkpt><trkpt lat="44.1277567" lon="10.3940319"><ele>324.57142857142856</ele><time>2026-04-04T10:30:57.769Z</time></trkpt><trkpt lat="44.1277939" lon="10.3939534"><ele>324.42857142857144</ele><time>2026-04-04T10:31:00.775Z</time></trkpt><trkpt lat="44.1278457" lon="10.393883"><ele>324.2857142857143</ele><time>2026-04-04T10:31:03.785Z</time></trkpt><trkpt lat="44.1279031" lon="10.3938295"><ele>324.14285714285717</ele><time>2026-04-04T10:31:06.79Z</time></trkpt><trkpt lat="44.1279692" lon="10.3937885"><ele>324.0</ele><time>2026-04-04T10:31:09.78Z</time></trkpt><trkpt lat="44.1280367" lon="10.393747"><ele>323.8571428571429</ele><time>2026-04-04T10:31:12.792Z</time></trkpt><trkpt lat="44.1281063" lon="10.3937215"><ele>323.7142857142857</ele><time>2026-04-04T10:31:15.776Z</time></trkpt><trkpt lat="44.1281739" lon="10.3937001"><ele>323.57142857142856</ele><time>2026-04-04T10:31:18.788Z</time></trkpt><trkpt lat="44.1282394" lon="10.3936744"><ele>323.42857142857144</ele><time>2026-04-04T10:31:21.775Z</time></trkpt><trkpt lat="44.1283055" lon="10.3936431"><ele>323.2857142857143</ele><time>2026-04-04T10:31:24.783Z</time></trkpt><trkpt lat="44.1283697" lon="10.3936139"><ele>323.14285714285717</ele><time>2026-04-04T10:31:27.785Z</time></trkpt><trkpt lat="44.1284343" lon="10.3935829"><ele>323.0</ele><time>2026-04-04T10:31:30.775Z</time></trkpt><trkpt lat="44.1284996" lon="10.3935562"><ele>324.42857142857144</ele><time>2026-04-04T10:31:33.778Z</time></trkpt><trkpt lat="44.1285644" lon="10.3935287"><ele>325.8571428571429</ele><time>2026-04-04T10:31:36.776Z</time></trkpt><trkpt lat="44.1286304" lon="10.3935052"><ele>327.28571428571433</ele><time>2026-04-04T10:31:39.777Z</time></trkpt><trkpt lat="44.1286989" lon="10.3934701"><ele>328.7142857142857</ele><time>2026-04-04T10:31:42.785Z</time></trkpt><trkpt lat="44.128764" lon="10.3934299"><ele>330.1428571428571</ele><time>2026-04-04T10:31:45.778Z</time></trkpt><trkpt lat="44.128826" lon="10.3933799"><ele>331.5714285714286</ele><time>2026-04-04T10:31:48.796Z</time></trkpt><trkpt lat="44.1288834" lon="10.3933345"><ele>333.0</ele><time>2026-04-04T10:31:51.786Z</time></trkpt><trkpt lat="44.1289412" lon="10.3932876"><ele>333.0</ele><time>2026-04-04T10:31:54.781Z</time></trkpt><trkpt lat="44.1290012" lon="10.3932349"><ele>333.0</ele><time>2026-04-04T10:31:57.778Z</time></trkpt><trkpt lat="44.1290597" lon="10.3931767"><ele>333.0</ele><time>2026-04-04T10:32:00.775Z</time></trkpt><trkpt lat="44.1291124" lon="10.3931173"><ele>333.0</ele><time>2026-04-04T10:32:03.782Z</time></trkpt><trkpt lat="44.1291644" lon="10.3930578"><ele>333.0</ele><time>2026-04-04T10:32:06.794Z</time></trkpt><trkpt lat="44.1292146" lon="10.3929917"><ele>333.0</ele><time>2026-04-04T10:32:09.784Z</time></trkpt><trkpt lat="44.1292619" lon="10.3929208"><ele>333.0</ele><time>2026-04-04T10:32:12.786Z</time></trkpt><trkpt lat="44.1293083" lon="10.3928476"><ele>333.2857142857143</ele><time>2026-04-04T10:32:15.78Z</time></trkpt><trkpt lat="44.1293569" lon="10.3927778"><ele>333.57142857142856</ele><time>2026-04-04T10:32:18.787Z</time></trkpt><trkpt lat="44.1294061" lon="10.3927065"><ele>333.85714285714283</ele><time>2026-04-04T10:32:21.771Z</time></trkpt><trkpt lat="44.1294555" lon="10.3926365"><ele>334.1428571428571</ele><time>2026-04-04T10:32:24.775Z</time></trkpt><trkpt lat="44.1294989" lon="10.3925619"><ele>334.42857142857144</ele><time>2026-04-04T10:32:27.778Z</time></trkpt><trkpt lat="44.1295435" lon="10.3924873"><ele>334.71428571428567</ele><time>2026-04-04T10:32:30.775Z</time></trkpt><trkpt lat="44.1295883" lon="10.3924113"><ele>335.0</ele><time>2026-04-04T10:32:33.79Z</time></trkpt><trkpt lat="44.1296352" lon="10.3923488"><ele>334.99999999999994</ele><time>2026-04-04T10:32:36.784Z</time></trkpt><trkpt lat="44.1296937" lon="10.392292"><ele>335.0</ele><time>2026-04-04T10:32:39.779Z</time></trkpt><trkpt lat="44.1297521" lon="10.3922413"><ele>335.0</ele><time>2026-04-04T10:32:42.788Z</time></trkpt><trkpt lat="44.1298157" lon="10.3922057"><ele>335.0</ele><time>2026-04-04T10:32:45.785Z</time></trkpt><trkpt lat="44.129881" lon="10.3921822"><ele>335.0</ele><time>2026-04-04T10:32:48.78Z</time></trkpt><trkpt lat="44.1299483" lon="10.3921637"><ele>334.99999999999994</ele><time>2026-04-04T10:32:51.779Z</time></trkpt><trkpt lat="44.1300175" lon="10.3921412"><ele>335.0</ele><time>2026-04-04T10:32:54.775Z</time></trkpt><trkpt lat="44.1300837" lon="10.3921269"><ele>335.4285714285714</ele><time>2026-04-04T10:32:57.777Z</time></trkpt><trkpt lat="44.130152" lon="10.3921103"><ele>335.85714285714283</ele><time>2026-04-04T10:33:00.776Z</time></trkpt><trkpt lat="44.1302238" lon="10.3920918"><ele>336.2857142857143</ele><time>2026-04-04T10:33:03.786Z</time></trkpt><trkpt lat="44.1302882" lon="10.3920749"><ele>336.71428571428567</ele><time>2026-04-04T10:33:06.784Z</time></trkpt><trkpt lat="44.1303566" lon="10.3920602"><ele>337.1428571428571</ele><time>2026-04-04T10:33:09.778Z</time></trkpt><trkpt lat="44.1304236" lon="10.3920418"><ele>337.57142857142856</ele><time>2026-04-04T10:33:12.781Z</time></trkpt><trkpt lat="44.1304923" lon="10.3920232"><ele>338.0</ele><time>2026-04-04T10:33:15.776Z</time></trkpt><trkpt lat="44.1305647" lon="10.3919994"><ele>338.0</ele><time>2026-04-04T10:33:18.774Z</time></trkpt><trkpt lat="44.13064" lon="10.3919905"><ele>338.0</ele><time>2026-04-04T10:33:21.78Z</time></trkpt><trkpt lat="44.1307151" lon="10.3919893"><ele>338.0</ele><time>2026-04-04T10:33:24.775Z</time></trkpt><trkpt lat="44.1307895" lon="10.3919935"><ele>338.0</ele><time>2026-04-04T10:33:27.777Z</time></trkpt><trkpt lat="44.1308545" lon="10.3919474"><ele>338.0</ele><time>2026-04-04T10:33:31.776Z</time></trkpt><trkpt lat="44.1308952" lon="10.391837"><ele>338.0</ele><time>2026-04-04T10:33:34.786Z</time></trkpt><trkpt lat="44.1309233" lon="10.3917109"><ele>337.59999999999997</ele><time>2026-04-04T10:33:36.783Z</time></trkpt><trkpt lat="44.1309405" lon="10.3915711"><ele>337.2</ele><time>2026-04-04T10:33:38.788Z</time></trkpt><trkpt lat="44.1309246" lon="10.3914166"><ele>336.8</ele><time>2026-04-04T10:33:40.782Z</time></trkpt><trkpt lat="44.1308856" lon="10.3912584"><ele>336.4</ele><time>2026-04-04T10:33:42.775Z</time></trkpt><trkpt lat="44.1308561" lon="10.3911808"><ele>336.0</ele><time>2026-04-04T10:33:43.778Z</time></trkpt><trkpt lat="44.1308198" lon="10.3911021"><ele>336.0</ele><time>2026-04-04T10:33:44.779Z</time></trkpt><trkpt lat="44.1307775" lon="10.3910279"><ele>336.0</ele><time>2026-04-04T10:33:45.784Z</time></trkpt><trkpt lat="44.1307324" lon="10.3909549"><ele>336.0</ele><time>2026-04-04T10:33:46.783Z</time></trkpt><trkpt lat="44.1306913" lon="10.3908741"><ele>336.0</ele><time>2026-04-04T10:33:47.785Z</time></trkpt><trkpt lat="44.1306603" lon="10.3907829"><ele>336.0</ele><time>2026-04-04T10:33:48.777Z</time></trkpt><trkpt lat="44.1306321" lon="10.390684"><ele>336.0</ele><time>2026-04-04T10:33:49.784Z</time></trkpt><trkpt lat="44.1306191" lon="10.3905793"><ele>336.0</ele><time>2026-04-04T10:33:50.783Z</time></trkpt><trkpt lat="44.1306161" lon="10.3904667"><ele>334.8333333333333</ele><time>2026-04-04T10:33:51.79Z</time></trkpt><trkpt lat="44.130619" lon="10.3903488"><ele>333.6666666666667</ele><time>2026-04-04T10:33:52.779Z</time></trkpt><trkpt lat="44.1306237" lon="10.3902366"><ele>332.5</ele><time>2026-04-04T10:33:53.775Z</time></trkpt><trkpt lat="44.1306347" lon="10.3901383"><ele>331.33333333333337</ele><time>2026-04-04T10:33:54.782Z</time></trkpt><trkpt lat="44.1306601" lon="10.3900424"><ele>330.1666666666667</ele><time>2026-04-04T10:33:55.78Z</time></trkpt><trkpt lat="44.1307002" lon="10.3899517"><ele>329.0</ele><time>2026-04-04T10:33:56.777Z</time></trkpt><trkpt lat="44.1307471" lon="10.3898674"><ele>329.0</ele><time>2026-04-04T10:33:57.778Z</time></trkpt><trkpt lat="44.1308047" lon="10.3897951"><ele>329.0</ele><time>2026-04-04T10:33:58.779Z</time></trkpt><trkpt lat="44.1308635" lon="10.3897308"><ele>329.0</ele><time>2026-04-04T10:33:59.776Z</time></trkpt><trkpt lat="44.1309271" lon="10.3896568"><ele>329.0</ele><time>2026-04-04T10:34:00.78Z</time></trkpt><trkpt lat="44.1309888" lon="10.3895864"><ele>329.0</ele><time>2026-04-04T10:34:01.779Z</time></trkpt><trkpt lat="44.1310582" lon="10.3895096"><ele>329.0</ele><time>2026-04-04T10:34:02.776Z</time></trkpt><trkpt lat="44.1311264" lon="10.3894383"><ele>328.0</ele><time>2026-04-04T10:34:03.787Z</time></trkpt><trkpt lat="44.131193" lon="10.3893638"><ele>327.0</ele><time>2026-04-04T10:34:04.789Z</time></trkpt><trkpt lat="44.1312635" lon="10.3892878"><ele>326.0</ele><time>2026-04-04T10:34:05.785Z</time></trkpt><trkpt lat="44.1313284" lon="10.38922"><ele>325.0</ele><time>2026-04-04T10:34:06.781Z</time></trkpt><trkpt lat="44.1314158" lon="10.3891436"><ele>324.0</ele><time>2026-04-04T10:34:08.785Z</time></trkpt><trkpt lat="44.131495" lon="10.3890924"><ele>323.0</ele><time>2026-04-04T10:34:10.772Z</time></trkpt><trkpt lat="44.131579" lon="10.3890295"><ele>323.0</ele><time>2026-04-04T10:34:12.79Z</time></trkpt><trkpt lat="44.1316538" lon="10.3889723"><ele>323.0</ele><time>2026-04-04T10:34:14.777Z</time></trkpt><trkpt lat="44.1317088" lon="10.3888851"><ele>323.0</ele><time>2026-04-04T10:34:16.778Z</time></trkpt><trkpt lat="44.1317257" lon="10.3887975"><ele>323.0</ele><time>2026-04-04T10:34:18.783Z</time></trkpt><trkpt lat="44.1317056" lon="10.3887005"><ele>323.0</ele><time>2026-04-04T10:34:20.783Z</time></trkpt><trkpt lat="44.1316301" lon="10.388652"><ele>323.0</ele><time>2026-04-04T10:34:22.783Z</time></trkpt><trkpt lat="44.1315779" lon="10.3885969"><ele>321.59999999999997</ele><time>2026-04-04T10:34:24.788Z</time></trkpt><trkpt lat="44.1316015" lon="10.3884704"><ele>320.2</ele><time>2026-04-04T10:34:26.794Z</time></trkpt><trkpt lat="44.131696" lon="10.3883864"><ele>318.8</ele><time>2026-04-04T10:34:28.78Z</time></trkpt><trkpt lat="44.1317567" lon="10.388256"><ele>317.4</ele><time>2026-04-04T10:34:30.776Z</time></trkpt><trkpt lat="44.1318003" lon="10.3881446"><ele>316.0</ele><time>2026-04-04T10:34:32.773Z</time></trkpt><trkpt lat="44.1318262" lon="10.3880639"><ele>315.7142857142857</ele><time>2026-04-04T10:34:35.773Z</time></trkpt><trkpt lat="44.1318552" lon="10.3879844"><ele>315.42857142857144</ele><time>2026-04-04T10:34:39.774Z</time></trkpt><trkpt lat="44.1318769" lon="10.3878922"><ele>315.1428571428571</ele><time>2026-04-04T10:34:44.782Z</time></trkpt><trkpt lat="44.131897" lon="10.3877874"><ele>314.8571428571429</ele><time>2026-04-04T10:34:46.779Z</time></trkpt><trkpt lat="44.1319192" lon="10.3876784"><ele>314.57142857142856</ele><time>2026-04-04T10:34:48.781Z</time></trkpt><trkpt lat="44.1319401" lon="10.3875912"><ele>314.2857142857143</ele><time>2026-04-04T10:34:50.779Z</time></trkpt><trkpt lat="44.131967" lon="10.3875085"><ele>314.0</ele><time>2026-04-04T10:34:53.775Z</time></trkpt><trkpt lat="44.1319877" lon="10.3874246"><ele>313.99999999999994</ele><time>2026-04-04T10:34:58.775Z</time></trkpt><trkpt lat="44.1319849" lon="10.3873348"><ele>314.0</ele><time>2026-04-04T10:35:02.778Z</time></trkpt><trkpt lat="44.1319652" lon="10.3872387"><ele>314.0</ele><time>2026-04-04T10:35:07.775Z</time></trkpt><trkpt lat="44.1319357" lon="10.3871456"><ele>314.0</ele><time>2026-04-04T10:35:12.77Z</time></trkpt><trkpt lat="44.1319391" lon="10.3870352"><ele>314.0</ele><time>2026-04-04T10:35:16.77Z</time></trkpt><trkpt lat="44.1319714" lon="10.386954"><ele>313.99999999999994</ele><time>2026-04-04T10:35:18.782Z</time></trkpt><trkpt lat="44.1320107" lon="10.3868584"><ele>314.0</ele><time>2026-04-04T10:35:20.777Z</time></trkpt><trkpt lat="44.1320494" lon="10.38673"><ele>313.59999999999997</ele><time>2026-04-04T10:35:22.777Z</time></trkpt><trkpt lat="44.1320903" lon="10.3865899"><ele>313.2</ele><time>2026-04-04T10:35:24.784Z</time></trkpt><trkpt lat="44.1321195" lon="10.3865089"><ele>312.79999999999995</ele><time>2026-04-04T10:35:25.782Z</time></trkpt><trkpt lat="44.132173" lon="10.3863634"><ele>312.4</ele><time>2026-04-04T10:35:27.781Z</time></trkpt><trkpt lat="44.1322243" lon="10.3862128"><ele>312.0</ele><time>2026-04-04T10:35:29.78Z</time></trkpt><trkpt lat="44.1322583" lon="10.3860543"><ele>311.6</ele><time>2026-04-04T10:35:31.783Z</time></trkpt><trkpt lat="44.1322954" lon="10.385897"><ele>311.2</ele><time>2026-04-04T10:35:33.779Z</time></trkpt><trkpt lat="44.1323317" lon="10.3857433"><ele>310.8</ele><time>2026-04-04T10:35:35.783Z</time></trkpt><trkpt lat="44.1323628" lon="10.3856033"><ele>310.4</ele><time>2026-04-04T10:35:37.786Z</time></trkpt><trkpt lat="44.1323843" lon="10.3854962"><ele>310.0</ele><time>2026-04-04T10:35:39.774Z</time></trkpt><trkpt lat="44.1323692" lon="10.3853977"><ele>309.8333333333333</ele><time>2026-04-04T10:35:41.773Z</time></trkpt><trkpt lat="44.1323537" lon="10.3852931"><ele>309.66666666666663</ele><time>2026-04-04T10:35:43.771Z</time></trkpt><trkpt lat="44.132351" lon="10.3851821"><ele>309.5</ele><time>2026-04-04T10:35:45.791Z</time></trkpt><trkpt lat="44.1323529" lon="10.3850709"><ele>309.3333333333333</ele><time>2026-04-04T10:35:47.773Z</time></trkpt><trkpt lat="44.1323534" lon="10.3849655"><ele>309.1666666666667</ele><time>2026-04-04T10:35:49.779Z</time></trkpt><trkpt lat="44.1323569" lon="10.3848657"><ele>309.0</ele><time>2026-04-04T10:35:51.783Z</time></trkpt><trkpt lat="44.1323625" lon="10.3847651"><ele>309.0</ele><time>2026-04-04T10:35:53.778Z</time></trkpt><trkpt lat="44.1323667" lon="10.3846683"><ele>309.0</ele><time>2026-04-04T10:35:55.777Z</time></trkpt><trkpt lat="44.1323754" lon="10.3845795"><ele>309.0</ele><time>2026-04-04T10:35:57.781Z</time></trkpt><trkpt lat="44.1323867" lon="10.3844517"><ele>309.0</ele><time>2026-04-04T10:36:00.772Z</time></trkpt><trkpt lat="44.1323905" lon="10.3843361"><ele>309.0</ele><time>2026-04-04T10:36:03.781Z</time></trkpt><trkpt lat="44.1323871" lon="10.3842344"><ele>309.0</ele><time>2026-04-04T10:36:06.774Z</time></trkpt><trkpt lat="44.1324071" lon="10.3841383"><ele>309.42857142857144</ele><time>2026-04-04T10:36:10.78Z</time></trkpt><trkpt lat="44.1324059" lon="10.3840275"><ele>309.8571428571429</ele><time>2026-04-04T10:36:15.782Z</time></trkpt><trkpt lat="44.1323925" lon="10.3839359"><ele>310.28571428571433</ele><time>2026-04-04T10:36:19.78Z</time></trkpt><trkpt lat="44.1323902" lon="10.3838388"><ele>310.7142857142857</ele><time>2026-04-04T10:36:23.784Z</time></trkpt><trkpt lat="44.1323747" lon="10.3837326"><ele>311.1428571428571</ele><time>2026-04-04T10:36:28.783Z</time></trkpt><trkpt lat="44.1323531" lon="10.3836398"><ele>311.5714285714286</ele><time>2026-04-04T10:36:34.78Z</time></trkpt><trkpt lat="44.1323277" lon="10.3835447"><ele>312.0</ele><time>2026-04-04T10:36:38.785Z</time></trkpt><trkpt lat="44.1323096" lon="10.3834542"><ele>312.0</ele><time>2026-04-04T10:36:42.781Z</time></trkpt><trkpt lat="44.1322856" lon="10.3833489"><ele>312.0</ele><time>2026-04-04T10:36:47.775Z</time></trkpt><trkpt lat="44.1322623" lon="10.3832629"><ele>312.0</ele><time>2026-04-04T10:36:51.784Z</time></trkpt><trkpt lat="44.1322464" lon="10.3831738"><ele>312.0</ele><time>2026-04-04T10:36:55.786Z</time></trkpt><trkpt lat="44.1322119" lon="10.3830783"><ele>312.0</ele><time>2026-04-04T10:37:00.776Z</time></trkpt><trkpt lat="44.13217" lon="10.382985"><ele>312.0</ele><time>2026-04-04T10:37:03.778Z</time></trkpt><trkpt lat="44.1321317" lon="10.3828875"><ele>312.0</ele><time>2026-04-04T10:37:06.772Z</time></trkpt><trkpt lat="44.1320974" lon="10.3828006"><ele>313.0</ele><time>2026-04-04T10:37:09.776Z</time></trkpt><trkpt lat="44.1320648" lon="10.3827225"><ele>314.0</ele><time>2026-04-04T10:37:12.779Z</time></trkpt><trkpt lat="44.1320258" lon="10.3826344"><ele>315.0</ele><time>2026-04-04T10:37:16.773Z</time></trkpt><trkpt lat="44.131993" lon="10.3825457"><ele>316.0</ele><time>2026-04-04T10:37:20.786Z</time></trkpt><trkpt lat="44.131963" lon="10.3824661"><ele>317.0</ele><time>2026-04-04T10:37:24.779Z</time></trkpt><trkpt lat="44.1319835" lon="10.3823811"><ele>318.0</ele><time>2026-04-04T10:37:31.766Z</time></trkpt><trkpt lat="44.132043" lon="10.3823453"><ele>319.0</ele><time>2026-04-04T10:37:37.776Z</time></trkpt><trkpt lat="44.1320581" lon="10.3822517"><ele>320.14285714285717</ele><time>2026-04-04T10:37:42.776Z</time></trkpt><trkpt lat="44.1320526" lon="10.3821603"><ele>321.2857142857143</ele><time>2026-04-04T10:37:47.775Z</time></trkpt><trkpt lat="44.1320133" lon="10.3820854"><ele>322.42857142857144</ele><time>2026-04-04T10:37:52.774Z</time></trkpt><trkpt lat="44.1319921" lon="10.3819976"><ele>323.57142857142856</ele><time>2026-04-04T10:37:57.773Z</time></trkpt><trkpt lat="44.1319533" lon="10.3819099"><ele>324.7142857142857</ele><time>2026-04-04T10:38:03.774Z</time></trkpt><trkpt lat="44.1319194" lon="10.3818323"><ele>325.85714285714283</ele><time>2026-04-04T10:38:08.775Z</time></trkpt><trkpt lat="44.1318665" lon="10.3817586"><ele>327.0</ele><time>2026-04-04T10:38:14.768Z</time></trkpt><trkpt lat="44.1318164" lon="10.3816825"><ele>327.0</ele><time>2026-04-04T10:38:20.788Z</time></trkpt><trkpt lat="44.13175" lon="10.3816636"><ele>327.0</ele><time>2026-04-04T10:38:26.79Z</time></trkpt><trkpt lat="44.1316871" lon="10.3816917"><ele>327.0</ele><time>2026-04-04T10:38:31.78Z</time></trkpt><trkpt lat="44.1316221" lon="10.3817345"><ele>327.0</ele><time>2026-04-04T10:38:36.784Z</time></trkpt><trkpt lat="44.1315525" lon="10.3817128"><ele>327.0</ele><time>2026-04-04T10:38:41.774Z</time></trkpt><trkpt lat="44.1315035" lon="10.3816519"><ele>327.0</ele><time>2026-04-04T10:38:46.783Z</time></trkpt><trkpt lat="44.1314498" lon="10.3816037"><ele>327.0</ele><time>2026-04-04T10:38:51.789Z</time></trkpt><trkpt lat="44.131383" lon="10.3815718"><ele>328.2857142857143</ele><time>2026-04-04T10:38:56.781Z</time></trkpt><trkpt lat="44.1313102" lon="10.3815765"><ele>329.57142857142856</ele><time>2026-04-04T10:39:01.777Z</time></trkpt><trkpt lat="44.1312322" lon="10.3815935"><ele>330.8571428571429</ele><time>2026-04-04T10:39:06.795Z</time></trkpt><trkpt lat="44.1311616" lon="10.3816082"><ele>332.1428571428571</ele><time>2026-04-04T10:39:11.778Z</time></trkpt><trkpt lat="44.1310928" lon="10.3816122"><ele>333.42857142857144</ele><time>2026-04-04T10:39:16.785Z</time></trkpt><trkpt lat="44.131019" lon="10.3816087"><ele>334.7142857142857</ele><time>2026-04-04T10:39:21.781Z</time></trkpt><trkpt lat="44.1309568" lon="10.3815751"><ele>336.0</ele><time>2026-04-04T10:39:25.783Z</time></trkpt><trkpt lat="44.130894" lon="10.3815384"><ele>336.0</ele><time>2026-04-04T10:39:29.779Z</time></trkpt><trkpt lat="44.1308236" lon="10.3814927"><ele>336.0</ele><time>2026-04-04T10:39:34.781Z</time></trkpt><trkpt lat="44.1307528" lon="10.3814499"><ele>336.0</ele><time>2026-04-04T10:39:39.776Z</time></trkpt><trkpt lat="44.1306828" lon="10.3814037"><ele>336.0</ele><time>2026-04-04T10:39:44.784Z</time></trkpt><trkpt lat="44.1306162" lon="10.3813561"><ele>336.0</ele><time>2026-04-04T10:39:49.774Z</time></trkpt><trkpt lat="44.1305493" lon="10.381314"><ele>336.0</ele><time>2026-04-04T10:39:54.78Z</time></trkpt><trkpt lat="44.1304831" lon="10.3812738"><ele>338.7142857142857</ele><time>2026-04-04T10:39:59.771Z</time></trkpt><trkpt lat="44.1304178" lon="10.3812241"><ele>341.42857142857144</ele><time>2026-04-04T10:40:04.789Z</time></trkpt><trkpt lat="44.130352" lon="10.3811822"><ele>344.1428571428571</ele><time>2026-04-04T10:40:09.778Z</time></trkpt><trkpt lat="44.1302764" lon="10.3811909"><ele>346.8571428571429</ele><time>2026-04-04T10:40:14.786Z</time></trkpt><trkpt lat="44.1302139" lon="10.3812105"><ele>349.57142857142856</ele><time>2026-04-04T10:40:18.771Z</time></trkpt><trkpt lat="44.1301434" lon="10.3812446"><ele>352.2857142857143</ele><time>2026-04-04T10:40:23.782Z</time></trkpt><trkpt lat="44.1300826" lon="10.3812761"><ele>355.0</ele><time>2026-04-04T10:40:27.774Z</time></trkpt><trkpt lat="44.1300217" lon="10.381313"><ele>354.42857142857144</ele><time>2026-04-04T10:40:31.779Z</time></trkpt><trkpt lat="44.1299581" lon="10.3813571"><ele>353.8571428571429</ele><time>2026-04-04T10:40:35.789Z</time></trkpt><trkpt lat="44.1298942" lon="10.3813969"><ele>353.28571428571433</ele><time>2026-04-04T10:40:39.783Z</time></trkpt><trkpt lat="44.1298465" lon="10.3814652"><ele>352.7142857142857</ele><time>2026-04-04T10:40:43.777Z</time></trkpt><trkpt lat="44.129801" lon="10.3815372"><ele>352.14285714285717</ele><time>2026-04-04T10:40:47.774Z</time></trkpt><trkpt lat="44.1297634" lon="10.381615"><ele>351.5714285714286</ele><time>2026-04-04T10:40:51.771Z</time></trkpt><trkpt lat="44.1297452" lon="10.381704"><ele>351.0</ele><time>2026-04-04T10:40:55.774Z</time></trkpt><trkpt lat="44.1297213" lon="10.3817894"><ele>352.00000000000006</ele><time>2026-04-04T10:40:59.779Z</time></trkpt><trkpt lat="44.1296894" lon="10.3818767"><ele>353.0</ele><time>2026-04-04T10:41:03.783Z</time></trkpt><trkpt lat="44.1296658" lon="10.3819592"><ele>354.0</ele><time>2026-04-04T10:41:07.788Z</time></trkpt><trkpt lat="44.1296381" lon="10.382043"><ele>355.0</ele><time>2026-04-04T10:41:11.783Z</time></trkpt><trkpt lat="44.1296" lon="10.3821356"><ele>356.0</ele><time>2026-04-04T10:41:16.777Z</time></trkpt><trkpt lat="44.1295639" lon="10.382232"><ele>357.00000000000006</ele><time>2026-04-04T10:41:21.773Z</time></trkpt><trkpt lat="44.1295227" lon="10.3823209"><ele>358.0</ele><time>2026-04-04T10:41:26.775Z</time></trkpt><trkpt lat="44.1294934" lon="10.3822383"><ele>359.16666666666663</ele><time>2026-04-04T10:41:32.792Z</time></trkpt><trkpt lat="44.1295213" lon="10.3821516"><ele>360.3333333333333</ele><time>2026-04-04T10:41:36.78Z</time></trkpt><trkpt lat="44.1295507" lon="10.3820496"><ele>361.5</ele><time>2026-04-04T10:41:40.778Z</time></trkpt><trkpt lat="44.1295774" lon="10.3819429"><ele>362.6666666666667</ele><time>2026-04-04T10:41:44.776Z</time></trkpt><trkpt lat="44.1296035" lon="10.38184"><ele>363.83333333333337</ele><time>2026-04-04T10:41:48.78Z</time></trkpt><trkpt lat="44.1296228" lon="10.381734"><ele>365.0</ele><time>2026-04-04T10:41:52.782Z</time></trkpt><trkpt lat="44.1296396" lon="10.3816308"><ele>365.0</ele><time>2026-04-04T10:41:56.787Z</time></trkpt><trkpt lat="44.1296596" lon="10.3815248"><ele>365.0</ele><time>2026-04-04T10:42:00.767Z</time></trkpt><trkpt lat="44.1296786" lon="10.3814405"><ele>365.0</ele><time>2026-04-04T10:42:03.776Z</time></trkpt><trkpt lat="44.1297039" lon="10.3813367"><ele>365.0</ele><time>2026-04-04T10:42:07.775Z</time></trkpt><trkpt lat="44.1297349" lon="10.3812351"><ele>365.0</ele><time>2026-04-04T10:42:11.768Z</time></trkpt><trkpt lat="44.1297636" lon="10.3811337"><ele>365.0</ele><time>2026-04-04T10:42:15.767Z</time></trkpt><trkpt lat="44.1297856" lon="10.3810331"><ele>366.00000000000006</ele><time>2026-04-04T10:42:19.771Z</time></trkpt><trkpt lat="44.1298062" lon="10.3809298"><ele>367.0</ele><time>2026-04-04T10:42:23.769Z</time></trkpt><trkpt lat="44.1298254" lon="10.3808234"><ele>368.0</ele><time>2026-04-04T10:42:27.771Z</time></trkpt><trkpt lat="44.1298345" lon="10.3807332"><ele>369.0</ele><time>2026-04-04T10:42:30.772Z</time></trkpt><trkpt lat="44.1298191" lon="10.3806208"><ele>370.0</ele><time>2026-04-04T10:42:34.782Z</time></trkpt><trkpt lat="44.129783" lon="10.3805251"><ele>371.00000000000006</ele><time>2026-04-04T10:42:38.771Z</time></trkpt><trkpt lat="44.1297479" lon="10.3804508"><ele>372.0</ele><time>2026-04-04T10:42:41.77Z</time></trkpt><trkpt lat="44.1296887" lon="10.3803657"><ele>372.7142857142857</ele><time>2026-04-04T10:42:45.782Z</time></trkpt><trkpt lat="44.1296342" lon="10.3802802"><ele>373.42857142857144</ele><time>2026-04-04T10:42:49.775Z</time></trkpt><trkpt lat="44.1295835" lon="10.3801867"><ele>374.1428571428571</ele><time>2026-04-04T10:42:53.784Z</time></trkpt><trkpt lat="44.1295438" lon="10.3801044"><ele>374.8571428571429</ele><time>2026-04-04T10:42:56.774Z</time></trkpt><trkpt lat="44.1295198" lon="10.3800198"><ele>375.57142857142856</ele><time>2026-04-04T10:42:59.778Z</time></trkpt><trkpt lat="44.1294984" lon="10.3799338"><ele>376.2857142857143</ele><time>2026-04-04T10:43:02.779Z</time></trkpt><trkpt lat="44.1294744" lon="10.3798329"><ele>377.0</ele><time>2026-04-04T10:43:05.769Z</time></trkpt><trkpt lat="44.1294502" lon="10.3797382"><ele>376.5</ele><time>2026-04-04T10:43:08.78Z</time></trkpt><trkpt lat="44.1294262" lon="10.3796512"><ele>376.0</ele><time>2026-04-04T10:43:11.784Z</time></trkpt><trkpt lat="44.1293971" lon="10.3795495"><ele>375.5</ele><time>2026-04-04T10:43:14.779Z</time></trkpt><trkpt lat="44.1293698" lon="10.3794442"><ele>375.0</ele><time>2026-04-04T10:43:17.785Z</time></trkpt><trkpt lat="44.1293452" lon="10.3793434"><ele>374.5</ele><time>2026-04-04T10:43:20.779Z</time></trkpt><trkpt lat="44.129326" lon="10.3792469"><ele>374.0</ele><time>2026-04-04T10:43:23.779Z</time></trkpt><trkpt lat="44.1293187" lon="10.3791297"><ele>374.0</ele><time>2026-04-04T10:43:26.784Z</time></trkpt><trkpt lat="44.1293121" lon="10.3790017"><ele>374.0</ele><time>2026-04-04T10:43:29.769Z</time></trkpt><trkpt lat="44.1293137" lon="10.3788863"><ele>374.0</ele><time>2026-04-04T10:43:32.773Z</time></trkpt><trkpt lat="44.1293151" lon="10.378792"><ele>374.0</ele><time>2026-04-04T10:43:35.782Z</time></trkpt><trkpt lat="44.1293088" lon="10.3786731"><ele>374.0</ele><time>2026-04-04T10:43:39.78Z</time></trkpt><trkpt lat="44.1292916" lon="10.3785753"><ele>374.0</ele><time>2026-04-04T10:43:42.784Z</time></trkpt><trkpt lat="44.1292707" lon="10.3784785"><ele>373.2857142857143</ele><time>2026-04-04T10:43:45.782Z</time></trkpt><trkpt lat="44.1292377" lon="10.3783863"><ele>372.5714285714286</ele><time>2026-04-04T10:43:48.776Z</time></trkpt><trkpt lat="44.1291985" lon="10.3782995"><ele>371.8571428571429</ele><time>2026-04-04T10:43:51.767Z</time></trkpt><trkpt lat="44.1291598" lon="10.3782123"><ele>371.1428571428571</ele><time>2026-04-04T10:43:54.772Z</time></trkpt><trkpt lat="44.1291202" lon="10.3781292"><ele>370.42857142857144</ele><time>2026-04-04T10:43:57.777Z</time></trkpt><trkpt lat="44.1290827" lon="10.3780428"><ele>369.7142857142857</ele><time>2026-04-04T10:44:00.776Z</time></trkpt><trkpt lat="44.1290473" lon="10.3779572"><ele>369.0</ele><time>2026-04-04T10:44:03.775Z</time></trkpt><trkpt lat="44.1290169" lon="10.3778649"><ele>369.3333333333333</ele><time>2026-04-04T10:44:06.769Z</time></trkpt><trkpt lat="44.129008" lon="10.3777691"><ele>369.6666666666667</ele><time>2026-04-04T10:44:09.773Z</time></trkpt><trkpt lat="44.1290143" lon="10.3776734"><ele>370.0</ele><time>2026-04-04T10:44:12.775Z</time></trkpt><trkpt lat="44.1290523" lon="10.3775842"><ele>370.33333333333337</ele><time>2026-04-04T10:44:15.777Z</time></trkpt><trkpt lat="44.1291193" lon="10.3775212"><ele>370.6666666666667</ele><time>2026-04-04T10:44:18.778Z</time></trkpt><trkpt lat="44.1292011" lon="10.3774911"><ele>371.0</ele><time>2026-04-04T10:44:21.773Z</time></trkpt><trkpt lat="44.1292897" lon="10.3774802"><ele>371.0</ele><time>2026-04-04T10:44:24.78Z</time></trkpt><trkpt lat="44.1293737" lon="10.3774733"><ele>371.0</ele><time>2026-04-04T10:44:27.773Z</time></trkpt><trkpt lat="44.1294547" lon="10.3774647"><ele>371.0</ele><time>2026-04-04T10:44:30.773Z</time></trkpt><trkpt lat="44.1295346" lon="10.3774571"><ele>371.0</ele><time>2026-04-04T10:44:33.783Z</time></trkpt><trkpt lat="44.1296178" lon="10.3774377"><ele>371.0</ele><time>2026-04-04T10:44:36.779Z</time></trkpt><trkpt lat="44.1296963" lon="10.3773975"><ele>371.0</ele><time>2026-04-04T10:44:39.779Z</time></trkpt><trkpt lat="44.1297706" lon="10.3773378"><ele>371.0</ele><time>2026-04-04T10:44:42.79Z</time></trkpt><trkpt lat="44.1298296" lon="10.3772536"><ele>371.0</ele><time>2026-04-04T10:44:45.778Z</time></trkpt><trkpt lat="44.129881" lon="10.3771596"><ele>371.0</ele><time>2026-04-04T10:44:48.782Z</time></trkpt><trkpt lat="44.1299314" lon="10.3770636"><ele>371.0</ele><time>2026-04-04T10:44:51.781Z</time></trkpt><trkpt lat="44.1299795" lon="10.3769727"><ele>371.0</ele><time>2026-04-04T10:44:54.79Z</time></trkpt><trkpt lat="44.1300243" lon="10.3768848"><ele>371.0</ele><time>2026-04-04T10:44:57.784Z</time></trkpt><trkpt lat="44.1300684" lon="10.3768016"><ele>372.0</ele><time>2026-04-04T10:45:00.778Z</time></trkpt><trkpt lat="44.1301064" lon="10.376709"><ele>373.0</ele><time>2026-04-04T10:45:03.777Z</time></trkpt><trkpt lat="44.1301459" lon="10.3766238"><ele>374.0</ele><time>2026-04-04T10:45:06.788Z</time></trkpt><trkpt lat="44.1301939" lon="10.3765338"><ele>375.0</ele><time>2026-04-04T10:45:09.774Z</time></trkpt><trkpt lat="44.1302525" lon="10.3764419"><ele>376.0</ele><time>2026-04-04T10:45:12.781Z</time></trkpt><trkpt lat="44.1303144" lon="10.3763848"><ele>377.0</ele><time>2026-04-04T10:45:14.78Z</time></trkpt><trkpt lat="44.1303993" lon="10.3763226"><ele>374.75</ele><time>2026-04-04T10:45:16.777Z</time></trkpt><trkpt lat="44.13049" lon="10.3762496"><ele>372.5</ele><time>2026-04-04T10:45:18.778Z</time></trkpt><trkpt lat="44.1305824" lon="10.376165"><ele>370.25</ele><time>2026-04-04T10:45:20.778Z</time></trkpt><trkpt lat="44.1306773" lon="10.3760646"><ele>368.0</ele><time>2026-04-04T10:45:22.782Z</time></trkpt><trkpt lat="44.130773" lon="10.3759651"><ele>368.0</ele><time>2026-04-04T10:45:24.79Z</time></trkpt><trkpt lat="44.1308648" lon="10.375868"><ele>368.0</ele><time>2026-04-04T10:45:26.781Z</time></trkpt><trkpt lat="44.1309428" lon="10.3757802"><ele>368.0</ele><time>2026-04-04T10:45:28.789Z</time></trkpt><trkpt lat="44.131008" lon="10.3756859"><ele>368.0</ele><time>2026-04-04T10:45:30.783Z</time></trkpt><trkpt lat="44.1310696" lon="10.3756008"><ele>368.0</ele><time>2026-04-04T10:45:32.786Z</time></trkpt><trkpt lat="44.1311335" lon="10.3755061"><ele>370.4</ele><time>2026-04-04T10:45:34.778Z</time></trkpt><trkpt lat="44.1312018" lon="10.3754001"><ele>372.79999999999995</ele><time>2026-04-04T10:45:36.787Z</time></trkpt><trkpt lat="44.1312737" lon="10.3752936"><ele>375.2</ele><time>2026-04-04T10:45:38.78Z</time></trkpt><trkpt lat="44.1313534" lon="10.3751849"><ele>377.6</ele><time>2026-04-04T10:45:40.783Z</time></trkpt><trkpt lat="44.1314326" lon="10.3750794"><ele>380.0</ele><time>2026-04-04T10:45:42.776Z</time></trkpt><trkpt lat="44.1315106" lon="10.3749634"><ele>379.6</ele><time>2026-04-04T10:45:44.775Z</time></trkpt><trkpt lat="44.1315916" lon="10.3748395"><ele>379.2</ele><time>2026-04-04T10:45:46.779Z</time></trkpt><trkpt lat="44.1316802" lon="10.3747065"><ele>378.79999999999995</ele><time>2026-04-04T10:45:48.776Z</time></trkpt><trkpt lat="44.1317248" lon="10.3746404"><ele>378.4</ele><time>2026-04-04T10:45:49.777Z</time></trkpt><trkpt lat="44.1317693" lon="10.3745765"><ele>378.0</ele><time>2026-04-04T10:45:50.78Z</time></trkpt><trkpt lat="44.1318161" lon="10.3745017"><ele>378.0</ele><time>2026-04-04T10:45:51.782Z</time></trkpt><trkpt lat="44.1318686" lon="10.3744317"><ele>378.0</ele><time>2026-04-04T10:45:52.777Z</time></trkpt><trkpt lat="44.1319197" lon="10.3743612"><ele>378.0</ele><time>2026-04-04T10:45:53.787Z</time></trkpt><trkpt lat="44.1319736" lon="10.3743136"><ele>378.0</ele><time>2026-04-04T10:45:54.776Z</time></trkpt><trkpt lat="44.1320355" lon="10.3742854"><ele>378.0</ele><time>2026-04-04T10:45:55.774Z</time></trkpt><trkpt lat="44.1321022" lon="10.3742618"><ele>378.0</ele><time>2026-04-04T10:45:56.775Z</time></trkpt><trkpt lat="44.1321683" lon="10.3742458"><ele>378.0</ele><time>2026-04-04T10:45:57.772Z</time></trkpt><trkpt lat="44.1322305" lon="10.3742259"><ele>378.0</ele><time>2026-04-04T10:45:58.78Z</time></trkpt><trkpt lat="44.1323502" lon="10.3741866"><ele>378.0</ele><time>2026-04-04T10:46:00.775Z</time></trkpt><trkpt lat="44.1324645" lon="10.3741549"><ele>378.0</ele><time>2026-04-04T10:46:02.772Z</time></trkpt><trkpt lat="44.1325743" lon="10.3741235"><ele>378.0</ele><time>2026-04-04T10:46:04.781Z</time></trkpt><trkpt lat="44.1326813" lon="10.3740793"><ele>377.1666666666667</ele><time>2026-04-04T10:46:06.779Z</time></trkpt><trkpt lat="44.1327908" lon="10.3740116"><ele>376.3333333333333</ele><time>2026-04-04T10:46:08.781Z</time></trkpt><trkpt lat="44.1328471" lon="10.3739698"><ele>375.5</ele><time>2026-04-04T10:46:09.782Z</time></trkpt><trkpt lat="44.1329018" lon="10.3739131"><ele>374.66666666666663</ele><time>2026-04-04T10:46:10.782Z</time></trkpt><trkpt lat="44.1329489" lon="10.3738469"><ele>373.8333333333333</ele><time>2026-04-04T10:46:11.768Z</time></trkpt><trkpt lat="44.1329903" lon="10.3737572"><ele>373.0</ele><time>2026-04-04T10:46:12.77Z</time></trkpt><trkpt lat="44.1330231" lon="10.3736598"><ele>373.0</ele><time>2026-04-04T10:46:13.781Z</time></trkpt><trkpt lat="44.1330561" lon="10.3735626"><ele>373.0</ele><time>2026-04-04T10:46:14.772Z</time></trkpt><trkpt lat="44.133086" lon="10.3734582"><ele>373.0</ele><time>2026-04-04T10:46:15.768Z</time></trkpt><trkpt lat="44.1331111" lon="10.373353"><ele>373.0</ele><time>2026-04-04T10:46:16.792Z</time></trkpt><trkpt lat="44.1331431" lon="10.3732558"><ele>373.0</ele><time>2026-04-04T10:46:17.781Z</time></trkpt><trkpt lat="44.1331757" lon="10.373155"><ele>373.0</ele><time>2026-04-04T10:46:18.773Z</time></trkpt><trkpt lat="44.1332073" lon="10.3730524"><ele>371.8571428571429</ele><time>2026-04-04T10:46:19.776Z</time></trkpt><trkpt lat="44.1332465" lon="10.3729537"><ele>370.7142857142857</ele><time>2026-04-04T10:46:20.779Z</time></trkpt><trkpt lat="44.1332947" lon="10.3728659"><ele>369.57142857142856</ele><time>2026-04-04T10:46:21.782Z</time></trkpt><trkpt lat="44.1333457" lon="10.3727911"><ele>368.42857142857144</ele><time>2026-04-04T10:46:22.783Z</time></trkpt><trkpt lat="44.1334001" lon="10.3727228"><ele>367.2857142857143</ele><time>2026-04-04T10:46:23.776Z</time></trkpt><trkpt lat="44.1334523" lon="10.3726619"><ele>366.14285714285717</ele><time>2026-04-04T10:46:24.782Z</time></trkpt><trkpt lat="44.1335033" lon="10.3725952"><ele>365.0</ele><time>2026-04-04T10:46:25.78Z</time></trkpt><trkpt lat="44.1335508" lon="10.3725369"><ele>365.0</ele><time>2026-04-04T10:46:26.776Z</time></trkpt><trkpt lat="44.1336441" lon="10.3724315"><ele>365.0</ele><time>2026-04-04T10:46:28.78Z</time></trkpt><trkpt lat="44.1337175" lon="10.3723185"><ele>365.0</ele><time>2026-04-04T10:46:30.77Z</time></trkpt><trkpt lat="44.1337692" lon="10.3721979"><ele>365.0</ele><time>2026-04-04T10:46:32.772Z</time></trkpt><trkpt lat="44.1338325" lon="10.3720793"><ele>365.0</ele><time>2026-04-04T10:46:34.777Z</time></trkpt><trkpt lat="44.1338942" lon="10.3719488"><ele>366.2</ele><time>2026-04-04T10:46:36.777Z</time></trkpt><trkpt lat="44.1339558" lon="10.3718171"><ele>367.4</ele><time>2026-04-04T10:46:38.774Z</time></trkpt><trkpt lat="44.13402" lon="10.3716659"><ele>368.6</ele><time>2026-04-04T10:46:40.78Z</time></trkpt><trkpt lat="44.1340852" lon="10.3715165"><ele>369.8</ele><time>2026-04-04T10:46:42.774Z</time></trkpt><trkpt lat="44.1341205" lon="10.371436"><ele>371.0</ele><time>2026-04-04T10:46:43.779Z</time></trkpt><trkpt lat="44.1341553" lon="10.3713614"><ele>369.57142857142856</ele><time>2026-04-04T10:46:44.786Z</time></trkpt><trkpt lat="44.134191" lon="10.3712854"><ele>368.1428571428571</ele><time>2026-04-04T10:46:45.785Z</time></trkpt><trkpt lat="44.1342296" lon="10.3712116"><ele>366.7142857142857</ele><time>2026-04-04T10:46:46.771Z</time></trkpt><trkpt lat="44.1342626" lon="10.3711356"><ele>365.2857142857143</ele><time>2026-04-04T10:46:47.776Z</time></trkpt><trkpt lat="44.1342985" lon="10.371057"><ele>363.85714285714283</ele><time>2026-04-04T10:46:48.768Z</time></trkpt><trkpt lat="44.1343358" lon="10.3709807"><ele>362.42857142857144</ele><time>2026-04-04T10:46:49.773Z</time></trkpt><trkpt lat="44.1344068" lon="10.3708437"><ele>361.0</ele><time>2026-04-04T10:46:51.779Z</time></trkpt><trkpt lat="44.134496" lon="10.3707193"><ele>361.0</ele><time>2026-04-04T10:46:53.773Z</time></trkpt><trkpt lat="44.1345893" lon="10.3706146"><ele>361.0</ele><time>2026-04-04T10:46:55.775Z</time></trkpt><trkpt lat="44.1346951" lon="10.3705301"><ele>361.0</ele><time>2026-04-04T10:46:57.779Z</time></trkpt><trkpt lat="44.1347909" lon="10.3704461"><ele>361.0</ele><time>2026-04-04T10:46:59.78Z</time></trkpt><trkpt lat="44.1348775" lon="10.3703679"><ele>360.8333333333333</ele><time>2026-04-04T10:47:01.784Z</time></trkpt><trkpt lat="44.1349534" lon="10.3702868"><ele>360.66666666666663</ele><time>2026-04-04T10:47:03.773Z</time></trkpt><trkpt lat="44.1350265" lon="10.3702184"><ele>360.5</ele><time>2026-04-04T10:47:05.782Z</time></trkpt><trkpt lat="44.1350971" lon="10.3701534"><ele>360.3333333333333</ele><time>2026-04-04T10:47:07.789Z</time></trkpt><trkpt lat="44.1351518" lon="10.3700659"><ele>360.1666666666667</ele><time>2026-04-04T10:47:09.78Z</time></trkpt><trkpt lat="44.1351559" lon="10.3699746"><ele>360.0</ele><time>2026-04-04T10:47:11.786Z</time></trkpt><trkpt lat="44.1351146" lon="10.3698704"><ele>360.0</ele><time>2026-04-04T10:47:14.778Z</time></trkpt><trkpt lat="44.1350737" lon="10.3697746"><ele>360.0</ele><time>2026-04-04T10:47:18.782Z</time></trkpt><trkpt lat="44.1350541" lon="10.3696834"><ele>360.0</ele><time>2026-04-04T10:47:22.777Z</time></trkpt><trkpt lat="44.135027" lon="10.3695824"><ele>360.0</ele><time>2026-04-04T10:47:27.78Z</time></trkpt><trkpt lat="44.1349856" lon="10.3695085"><ele>360.0</ele><time>2026-04-04T10:47:31.787Z</time></trkpt><trkpt lat="44.1349403" lon="10.369426"><ele>360.0</ele><time>2026-04-04T10:47:36.779Z</time></trkpt><trkpt lat="44.1348675" lon="10.3694268"><ele>360.0</ele><time>2026-04-04T10:47:40.775Z</time></trkpt><trkpt lat="44.1348114" lon="10.369484"><ele>361.2857142857143</ele><time>2026-04-04T10:47:44.775Z</time></trkpt><trkpt lat="44.1347734" lon="10.3695785"><ele>362.5714285714286</ele><time>2026-04-04T10:47:49.782Z</time></trkpt><trkpt lat="44.1347363" lon="10.3696611"><ele>363.8571428571429</ele><time>2026-04-04T10:47:53.785Z</time></trkpt><trkpt lat="44.1346995" lon="10.3697446"><ele>365.1428571428571</ele><time>2026-04-04T10:47:57.767Z</time></trkpt><trkpt lat="44.1346557" lon="10.3698276"><ele>366.42857142857144</ele><time>2026-04-04T10:48:01.779Z</time></trkpt><trkpt lat="44.1345947" lon="10.3698821"><ele>367.7142857142857</ele><time>2026-04-04T10:48:05.781Z</time></trkpt><trkpt lat="44.1345266" lon="10.3698754"><ele>369.0</ele><time>2026-04-04T10:48:09.791Z</time></trkpt><trkpt lat="44.1344642" lon="10.3698411"><ele>369.0</ele><time>2026-04-04T10:48:13.772Z</time></trkpt><trkpt lat="44.1344031" lon="10.3698062"><ele>369.0</ele><time>2026-04-04T10:48:17.788Z</time></trkpt><trkpt lat="44.1343439" lon="10.3697519"><ele>369.0</ele><time>2026-04-04T10:48:22.777Z</time></trkpt><trkpt lat="44.1343137" lon="10.3696722"><ele>369.0</ele><time>2026-04-04T10:48:26.777Z</time></trkpt><trkpt lat="44.1342898" lon="10.369584"><ele>369.0</ele><time>2026-04-04T10:48:30.774Z</time></trkpt><trkpt lat="44.134267" lon="10.3694974"><ele>369.0</ele><time>2026-04-04T10:48:34.779Z</time></trkpt><trkpt lat="44.1342746" lon="10.3694049"><ele>369.0</ele><time>2026-04-04T10:48:38.765Z</time></trkpt><trkpt lat="44.1342684" lon="10.3692957"><ele>370.42857142857144</ele><time>2026-04-04T10:48:43.771Z</time></trkpt><trkpt lat="44.1342625" lon="10.3692064"><ele>371.85714285714283</ele><time>2026-04-04T10:48:47.775Z</time></trkpt><trkpt lat="44.1342358" lon="10.3691016"><ele>373.28571428571433</ele><time>2026-04-04T10:48:52.772Z</time></trkpt><trkpt lat="44.1341803" lon="10.3690583"><ele>374.7142857142857</ele><time>2026-04-04T10:48:56.768Z</time></trkpt><trkpt lat="44.1341143" lon="10.3690642"><ele>376.14285714285717</ele><time>2026-04-04T10:49:00.775Z</time></trkpt><trkpt lat="44.1340447" lon="10.3690647"><ele>377.5714285714286</ele><time>2026-04-04T10:49:04.773Z</time></trkpt><trkpt lat="44.133976" lon="10.3690611"><ele>379.0</ele><time>2026-04-04T10:49:08.785Z</time></trkpt><trkpt lat="44.1339116" lon="10.3690597"><ele>380.7142857142857</ele><time>2026-04-04T10:49:12.785Z</time></trkpt><trkpt lat="44.1338448" lon="10.3690683"><ele>382.42857142857144</ele><time>2026-04-04T10:49:16.782Z</time></trkpt><trkpt lat="44.1337734" lon="10.3690863"><ele>384.1428571428571</ele><time>2026-04-04T10:49:20.768Z</time></trkpt><trkpt lat="44.1337056" lon="10.3690976"><ele>385.8571428571429</ele><time>2026-04-04T10:49:24.78Z</time></trkpt><trkpt lat="44.1336364" lon="10.3691201"><ele>387.57142857142856</ele><time>2026-04-04T10:49:28.772Z</time></trkpt><trkpt lat="44.1335675" lon="10.3691502"><ele>389.2857142857143</ele><time>2026-04-04T10:49:32.786Z</time></trkpt><trkpt lat="44.1335006" lon="10.3691765"><ele>391.0</ele><time>2026-04-04T10:49:36.775Z</time></trkpt><trkpt lat="44.133428" lon="10.3692197"><ele>390.99999999999994</ele><time>2026-04-04T10:49:41.784Z</time></trkpt><trkpt lat="44.1333602" lon="10.3692582"><ele>391.0</ele><time>2026-04-04T10:49:45.784Z</time></trkpt><trkpt lat="44.1332961" lon="10.3693026"><ele>391.0</ele><time>2026-04-04T10:49:49.776Z</time></trkpt><trkpt lat="44.1332329" lon="10.3693413"><ele>391.0</ele><time>2026-04-04T10:49:53.773Z</time></trkpt><trkpt lat="44.1331625" lon="10.3693874"><ele>391.0</ele><time>2026-04-04T10:49:58.766Z</time></trkpt><trkpt lat="44.1330994" lon="10.369409"><ele>390.99999999999994</ele><time>2026-04-04T10:50:02.767Z</time></trkpt><trkpt lat="44.1330328" lon="10.3694111"><ele>391.0</ele><time>2026-04-04T10:50:06.772Z</time></trkpt><trkpt lat="44.1329643" lon="10.3693987"><ele>392.99999999999994</ele><time>2026-04-04T10:50:10.772Z</time></trkpt><trkpt lat="44.1328999" lon="10.3693936"><ele>395.0</ele><time>2026-04-04T10:50:14.775Z</time></trkpt><trkpt lat="44.1328326" lon="10.3693854"><ele>397.0</ele><time>2026-04-04T10:50:18.784Z</time></trkpt><trkpt lat="44.1327662" lon="10.3693786"><ele>399.0</ele><time>2026-04-04T10:50:22.769Z</time></trkpt><trkpt lat="44.1327004" lon="10.3693886"><ele>401.0</ele><time>2026-04-04T10:50:26.777Z</time></trkpt><trkpt lat="44.1326369" lon="10.3694322"><ele>402.99999999999994</ele><time>2026-04-04T10:50:30.778Z</time></trkpt><trkpt lat="44.1325846" lon="10.3695004"><ele>405.0</ele><time>2026-04-04T10:50:34.776Z</time></trkpt><trkpt lat="44.1325313" lon="10.3695659"><ele>404.99999999999994</ele><time>2026-04-04T10:50:38.775Z</time></trkpt><trkpt lat="44.1324802" lon="10.369627"><ele>405.0</ele><time>2026-04-04T10:50:42.779Z</time></trkpt><trkpt lat="44.1324247" lon="10.3696904"><ele>405.0</ele><time>2026-04-04T10:50:46.777Z</time></trkpt><trkpt lat="44.1323525" lon="10.3697127"><ele>405.0</ele><time>2026-04-04T10:50:50.769Z</time></trkpt><trkpt lat="44.13229" lon="10.3696642"><ele>405.0</ele><time>2026-04-04T10:50:54.786Z</time></trkpt><trkpt lat="44.1322366" lon="10.3695999"><ele>404.99999999999994</ele><time>2026-04-04T10:50:58.774Z</time></trkpt><trkpt lat="44.1321812" lon="10.3695372"><ele>405.0</ele><time>2026-04-04T10:51:02.771Z</time></trkpt><trkpt lat="44.1321252" lon="10.3694893"><ele>406.71428571428567</ele><time>2026-04-04T10:51:06.774Z</time></trkpt><trkpt lat="44.132052" lon="10.3694832"><ele>408.42857142857144</ele><time>2026-04-04T10:51:10.785Z</time></trkpt><trkpt lat="44.1319814" lon="10.3695055"><ele>410.1428571428571</ele><time>2026-04-04T10:51:14.787Z</time></trkpt><trkpt lat="44.1319135" lon="10.3695388"><ele>411.85714285714283</ele><time>2026-04-04T10:51:18.781Z</time></trkpt><trkpt lat="44.1318511" lon="10.3695799"><ele>413.57142857142856</ele><time>2026-04-04T10:51:22.772Z</time></trkpt><trkpt lat="44.1317869" lon="10.3696159"><ele>415.2857142857143</ele><time>2026-04-04T10:51:26.77Z</time></trkpt><trkpt lat="44.1317173" lon="10.369643"><ele>417.0</ele><time>2026-04-04T10:51:30.767Z</time></trkpt><trkpt lat="44.1316447" lon="10.3696816"><ele>416.42857142857144</ele><time>2026-04-04T10:51:34.775Z</time></trkpt><trkpt lat="44.1315789" lon="10.3697196"><ele>415.85714285714283</ele><time>2026-04-04T10:51:37.769Z</time></trkpt><trkpt lat="44.131503" lon="10.3697614"><ele>415.2857142857143</ele><time>2026-04-04T10:51:40.784Z</time></trkpt><trkpt lat="44.1314182" lon="10.3698052"><ele>414.7142857142857</ele><time>2026-04-04T10:51:43.789Z</time></trkpt><trkpt lat="44.1313581" lon="10.3698348"><ele>414.1428571428571</ele><time>2026-04-04T10:51:46.767Z</time></trkpt><trkpt lat="44.1312964" lon="10.3698661"><ele>413.57142857142856</ele><time>2026-04-04T10:51:50.769Z</time></trkpt><trkpt lat="44.1312327" lon="10.3698927"><ele>413.0</ele><time>2026-04-04T10:51:54.778Z</time></trkpt><trkpt lat="44.1311683" lon="10.3699201"><ele>413.0</ele><time>2026-04-04T10:51:58.777Z</time></trkpt><trkpt lat="44.1310991" lon="10.3699517"><ele>413.0</ele><time>2026-04-04T10:52:02.777Z</time></trkpt><trkpt lat="44.1310296" lon="10.3699725"><ele>413.0</ele><time>2026-04-04T10:52:06.774Z</time></trkpt><trkpt lat="44.1309608" lon="10.3699847"><ele>413.0</ele><time>2026-04-04T10:52:10.766Z</time></trkpt><trkpt lat="44.1308934" lon="10.370009"><ele>413.0</ele><time>2026-04-04T10:52:14.776Z</time></trkpt><trkpt lat="44.1308216" lon="10.3700293"><ele>413.0</ele><time>2026-04-04T10:52:18.78Z</time></trkpt><trkpt lat="44.1307525" lon="10.3700568"><ele>413.0</ele><time>2026-04-04T10:52:22.778Z</time></trkpt><trkpt lat="44.1306878" lon="10.3700938"><ele>415.0</ele><time>2026-04-04T10:52:26.765Z</time></trkpt><trkpt lat="44.1306163" lon="10.370114"><ele>417.0</ele><time>2026-04-04T10:52:30.768Z</time></trkpt><trkpt lat="44.1305454" lon="10.370133"><ele>419.0</ele><time>2026-04-04T10:52:34.773Z</time></trkpt><trkpt lat="44.1304811" lon="10.3701538"><ele>421.0</ele><time>2026-04-04T10:52:38.788Z</time></trkpt><trkpt lat="44.1304133" lon="10.3701755"><ele>423.0</ele><time>2026-04-04T10:52:42.767Z</time></trkpt><trkpt lat="44.1303473" lon="10.3701995"><ele>425.0</ele><time>2026-04-04T10:52:46.773Z</time></trkpt><trkpt lat="44.1302758" lon="10.3702181"><ele>427.0</ele><time>2026-04-04T10:52:51.782Z</time></trkpt><trkpt lat="44.1302053" lon="10.3702117"><ele>427.0</ele><time>2026-04-04T10:52:55.784Z</time></trkpt><trkpt lat="44.1301485" lon="10.370156"><ele>427.0</ele><time>2026-04-04T10:52:59.779Z</time></trkpt><trkpt lat="44.1301518" lon="10.3700684"><ele>427.0</ele><time>2026-04-04T10:53:03.767Z</time></trkpt><trkpt lat="44.1301884" lon="10.3699913"><ele>427.0</ele><time>2026-04-04T10:53:07.776Z</time></trkpt><trkpt lat="44.1302155" lon="10.369903"><ele>427.0</ele><time>2026-04-04T10:53:11.783Z</time></trkpt><trkpt lat="44.1302285" lon="10.3697994"><ele>427.0</ele><time>2026-04-04T10:53:16.769Z</time></trkpt><trkpt lat="44.1302108" lon="10.3697143"><ele>427.0</ele><time>2026-04-04T10:53:20.787Z</time></trkpt><trkpt lat="44.1301686" lon="10.3696268"><ele>428.14285714285717</ele><time>2026-04-04T10:53:24.786Z</time></trkpt><trkpt lat="44.1301114" lon="10.3695489"><ele>429.2857142857143</ele><time>2026-04-04T10:53:29.768Z</time></trkpt><trkpt lat="44.1300507" lon="10.3695044"><ele>430.42857142857144</ele><time>2026-04-04T10:53:33.805Z</time></trkpt><trkpt lat="44.1299718" lon="10.3694833"><ele>431.57142857142856</ele><time>2026-04-04T10:53:38.782Z</time></trkpt><trkpt lat="44.1298986" lon="10.3694924"><ele>432.7142857142857</ele><time>2026-04-04T10:53:42.778Z</time></trkpt><trkpt lat="44.1298326" lon="10.369515"><ele>433.8571428571429</ele><time>2026-04-04T10:53:46.779Z</time></trkpt><trkpt lat="44.1297657" lon="10.3695498"><ele>435.0</ele><time>2026-04-04T10:53:50.778Z</time></trkpt><trkpt lat="44.1296991" lon="10.3695775"><ele>436.7142857142857</ele><time>2026-04-04T10:53:54.775Z</time></trkpt><trkpt lat="44.1296332" lon="10.3696006"><ele>438.42857142857144</ele><time>2026-04-04T10:53:58.775Z</time></trkpt><trkpt lat="44.1295721" lon="10.3696418"><ele>440.1428571428571</ele><time>2026-04-04T10:54:02.764Z</time></trkpt><trkpt lat="44.1295155" lon="10.3696994"><ele>441.8571428571429</ele><time>2026-04-04T10:54:06.782Z</time></trkpt><trkpt lat="44.1294645" lon="10.3697527"><ele>443.57142857142856</ele><time>2026-04-04T10:54:10.778Z</time></trkpt><trkpt lat="44.1294117" lon="10.3698044"><ele>445.2857142857143</ele><time>2026-04-04T10:54:14.767Z</time></trkpt><trkpt lat="44.1293543" lon="10.3698554"><ele>447.0</ele><time>2026-04-04T10:54:18.785Z</time></trkpt><trkpt lat="44.1293001" lon="10.3699167"><ele>446.99999999999994</ele><time>2026-04-04T10:54:22.769Z</time></trkpt><trkpt lat="44.129241" lon="10.3699664"><ele>447.0</ele><time>2026-04-04T10:54:26.771Z</time></trkpt><trkpt lat="44.129168" lon="10.3699593"><ele>447.0</ele><time>2026-04-04T10:54:31.784Z</time></trkpt><trkpt lat="44.1291469" lon="10.3698563"><ele>447.0</ele><time>2026-04-04T10:54:36.777Z</time></trkpt><trkpt lat="44.1291367" lon="10.3697692"><ele>447.0</ele><time>2026-04-04T10:54:40.78Z</time></trkpt><trkpt lat="44.1291288" lon="10.3696767"><ele>446.99999999999994</ele><time>2026-04-04T10:54:44.77Z</time></trkpt><trkpt lat="44.1291063" lon="10.3695933"><ele>447.0</ele><time>2026-04-04T10:54:48.78Z</time></trkpt><trkpt lat="44.129086" lon="10.3694924"><ele>447.1428571428571</ele><time>2026-04-04T10:54:53.779Z</time></trkpt><trkpt lat="44.1290835" lon="10.3694037"><ele>447.2857142857143</ele><time>2026-04-04T10:54:57.776Z</time></trkpt><trkpt lat="44.1290735" lon="10.3693045"><ele>447.42857142857144</ele><time>2026-04-04T10:55:01.769Z</time></trkpt><trkpt lat="44.1290689" lon="10.3692089"><ele>447.57142857142856</ele><time>2026-04-04T10:55:05.778Z</time></trkpt><trkpt lat="44.1290754" lon="10.3691156"><ele>447.7142857142857</ele><time>2026-04-04T10:55:09.791Z</time></trkpt><trkpt lat="44.1290991" lon="10.3690227"><ele>447.85714285714283</ele><time>2026-04-04T10:55:13.778Z</time></trkpt><trkpt lat="44.1291215" lon="10.3689181"><ele>448.0</ele><time>2026-04-04T10:55:17.78Z</time></trkpt><trkpt lat="44.129137" lon="10.3688096"><ele>449.57142857142856</ele><time>2026-04-04T10:55:21.784Z</time></trkpt><trkpt lat="44.1291604" lon="10.3687081"><ele>451.1428571428571</ele><time>2026-04-04T10:55:25.786Z</time></trkpt><trkpt lat="44.1291802" lon="10.3686173"><ele>452.7142857142857</ele><time>2026-04-04T10:55:29.777Z</time></trkpt><trkpt lat="44.1292143" lon="10.368526"><ele>454.2857142857143</ele><time>2026-04-04T10:55:34.77Z</time></trkpt><trkpt lat="44.1292534" lon="10.3684515"><ele>455.85714285714283</ele><time>2026-04-04T10:55:38.777Z</time></trkpt><trkpt lat="44.1292993" lon="10.3683797"><ele>457.42857142857144</ele><time>2026-04-04T10:55:42.779Z</time></trkpt><trkpt lat="44.1293542" lon="10.3683006"><ele>459.0</ele><time>2026-04-04T10:55:47.774Z</time></trkpt><trkpt lat="44.1294092" lon="10.3682437"><ele>459.0</ele><time>2026-04-04T10:55:51.77Z</time></trkpt><trkpt lat="44.1294638" lon="10.3681829"><ele>459.0</ele><time>2026-04-04T10:55:55.785Z</time></trkpt><trkpt lat="44.1295215" lon="10.3681116"><ele>459.0</ele><time>2026-04-04T10:55:59.773Z</time></trkpt><trkpt lat="44.1295765" lon="10.3680468"><ele>459.0</ele><time>2026-04-04T10:56:03.775Z</time></trkpt><trkpt lat="44.129631" lon="10.3679768"><ele>459.0</ele><time>2026-04-04T10:56:07.77Z</time></trkpt><trkpt lat="44.1296869" lon="10.3679116"><ele>459.0</ele><time>2026-04-04T10:56:11.769Z</time></trkpt><trkpt lat="44.1297469" lon="10.3678519"><ele>459.0</ele><time>2026-04-04T10:56:15.794Z</time></trkpt><trkpt lat="44.1298116" lon="10.3677974"><ele>459.42857142857144</ele><time>2026-04-04T10:56:19.783Z</time></trkpt><trkpt lat="44.1298765" lon="10.3677575"><ele>459.85714285714283</ele><time>2026-04-04T10:56:23.785Z</time></trkpt><trkpt lat="44.1299485" lon="10.3677343"><ele>460.2857142857143</ele><time>2026-04-04T10:56:27.788Z</time></trkpt><trkpt lat="44.1300185" lon="10.3677128"><ele>460.7142857142857</ele><time>2026-04-04T10:56:31.789Z</time></trkpt><trkpt lat="44.1300838" lon="10.3677032"><ele>461.1428571428571</ele><time>2026-04-04T10:56:35.772Z</time></trkpt><trkpt lat="44.1301477" lon="10.3676569"><ele>461.57142857142856</ele><time>2026-04-04T10:56:39.792Z</time></trkpt><trkpt lat="44.1301889" lon="10.3675779"><ele>462.0</ele><time>2026-04-04T10:56:43.778Z</time></trkpt><trkpt lat="44.1301949" lon="10.3674809"><ele>462.0</ele><time>2026-04-04T10:56:47.778Z</time></trkpt><trkpt lat="44.1301505" lon="10.3674058"><ele>462.0</ele><time>2026-04-04T10:56:51.798Z</time></trkpt><trkpt lat="44.1300886" lon="10.3673592"><ele>462.0</ele><time>2026-04-04T10:56:55.778Z</time></trkpt><trkpt lat="44.1300272" lon="10.367321"><ele>462.0</ele><time>2026-04-04T10:56:59.798Z</time></trkpt><trkpt lat="44.129965" lon="10.3672827"><ele>462.0</ele><time>2026-04-04T10:57:03.775Z</time></trkpt><trkpt lat="44.1298997" lon="10.3672421"><ele>462.0</ele><time>2026-04-04T10:57:07.795Z</time></trkpt><trkpt lat="44.1298316" lon="10.3672099"><ele>462.0</ele><time>2026-04-04T10:57:11.786Z</time></trkpt><trkpt lat="44.1297696" lon="10.3671762"><ele>466.57142857142856</ele><time>2026-04-04T10:57:15.803Z</time></trkpt><trkpt lat="44.12971" lon="10.3671258"><ele>471.1428571428571</ele><time>2026-04-04T10:57:19.784Z</time></trkpt><trkpt lat="44.1296502" lon="10.3670669"><ele>475.7142857142857</ele><time>2026-04-04T10:57:23.787Z</time></trkpt><trkpt lat="44.1295968" lon="10.3670056"><ele>480.2857142857143</ele><time>2026-04-04T10:57:27.782Z</time></trkpt><trkpt lat="44.12954" lon="10.3669587"><ele>484.85714285714283</ele><time>2026-04-04T10:57:31.795Z</time></trkpt><trkpt lat="44.1294933" lon="10.366883"><ele>489.42857142857144</ele><time>2026-04-04T10:57:35.764Z</time></trkpt><trkpt lat="44.1294738" lon="10.3667851"><ele>494.0</ele><time>2026-04-04T10:57:40.778Z</time></trkpt><trkpt lat="44.1294874" lon="10.3666866"><ele>494.0</ele><time>2026-04-04T10:57:45.775Z</time></trkpt><trkpt lat="44.1295196" lon="10.3666018"><ele>494.0</ele><time>2026-04-04T10:57:50.776Z</time></trkpt><trkpt lat="44.1295686" lon="10.3665244"><ele>494.0</ele><time>2026-04-04T10:57:55.789Z</time></trkpt><trkpt lat="44.12962" lon="10.36644"><ele>494.0</ele><time>2026-04-04T10:58:00.769Z</time></trkpt><trkpt lat="44.1296598" lon="10.3663655"><ele>494.0</ele><time>2026-04-04T10:58:04.805Z</time></trkpt><trkpt lat="44.1296744" lon="10.3662669"><ele>494.0</ele><time>2026-04-04T10:58:09.783Z</time></trkpt><trkpt lat="44.1296824" lon="10.3661597"><ele>494.0</ele><time>2026-04-04T10:58:15.797Z</time></trkpt><trkpt lat="44.1296921" lon="10.3660522"><ele>497.0</ele><time>2026-04-04T10:58:20.777Z</time></trkpt><trkpt lat="44.1296936" lon="10.3659637"><ele>500.0</ele><time>2026-04-04T10:58:24.79Z</time></trkpt><trkpt lat="44.1296996" lon="10.3658761"><ele>503.0</ele><time>2026-04-04T10:58:28.791Z</time></trkpt><trkpt lat="44.129707" lon="10.3657706"><ele>506.0</ele><time>2026-04-04T10:58:33.78Z</time></trkpt><trkpt lat="44.1297059" lon="10.3656766"><ele>509.0</ele><time>2026-04-04T10:58:37.785Z</time></trkpt><trkpt lat="44.1296998" lon="10.3655705"><ele>512.0</ele><time>2026-04-04T10:58:42.793Z</time></trkpt><trkpt lat="44.1297103" lon="10.3654806"><ele>515.0</ele><time>2026-04-04T10:58:46.794Z</time></trkpt><trkpt lat="44.1297309" lon="10.3653907"><ele>513.7142857142858</ele><time>2026-04-04T10:58:50.79Z</time></trkpt><trkpt lat="44.1297687" lon="10.3653046"><ele>512.4285714285714</ele><time>2026-04-04T10:58:54.793Z</time></trkpt><trkpt lat="44.1298061" lon="10.365231"><ele>511.14285714285717</ele><time>2026-04-04T10:58:58.792Z</time></trkpt><trkpt lat="44.1298562" lon="10.3651762"><ele>509.8571428571429</ele><time>2026-04-04T10:59:02.791Z</time></trkpt><trkpt lat="44.1299211" lon="10.3651399"><ele>508.57142857142856</ele><time>2026-04-04T10:59:06.784Z</time></trkpt><trkpt lat="44.1299891" lon="10.3651226"><ele>507.28571428571433</ele><time>2026-04-04T10:59:10.797Z</time></trkpt><trkpt lat="44.1300621" lon="10.3651275"><ele>506.00000000000006</ele><time>2026-04-04T10:59:14.791Z</time></trkpt><trkpt lat="44.1301342" lon="10.3651238"><ele>506.00000000000006</ele><time>2026-04-04T10:59:18.791Z</time></trkpt><trkpt lat="44.130204" lon="10.365122"><ele>506.0</ele><time>2026-04-04T10:59:22.776Z</time></trkpt><trkpt lat="44.1302782" lon="10.3651267"><ele>506.00000000000006</ele><time>2026-04-04T10:59:26.793Z</time></trkpt><trkpt lat="44.1303497" lon="10.3651263"><ele>506.00000000000006</ele><time>2026-04-04T10:59:30.781Z</time></trkpt><trkpt lat="44.1304175" lon="10.365114"><ele>506.0</ele><time>2026-04-04T10:59:34.79Z</time></trkpt><trkpt lat="44.1304869" lon="10.3650915"><ele>506.00000000000006</ele><time>2026-04-04T10:59:38.79Z</time></trkpt><trkpt lat="44.1305506" lon="10.3650488"><ele>506.00000000000006</ele><time>2026-04-04T10:59:42.796Z</time></trkpt><trkpt lat="44.1306061" lon="10.3649998"><ele>506.00000000000006</ele><time>2026-04-04T10:59:46.781Z</time></trkpt><trkpt lat="44.1306538" lon="10.3649339"><ele>506.0</ele><time>2026-04-04T10:59:50.813Z</time></trkpt><trkpt lat="44.1307001" lon="10.3648572"><ele>506.00000000000006</ele><time>2026-04-04T10:59:54.775Z</time></trkpt><trkpt lat="44.1307526" lon="10.3647939"><ele>506.00000000000006</ele><time>2026-04-04T10:59:57.794Z</time></trkpt><trkpt lat="44.1307958" lon="10.3647182"><ele>506.0</ele><time>2026-04-04T11:00:00.773Z</time></trkpt><trkpt lat="44.1308616" lon="10.364661"><ele>506.00000000000006</ele><time>2026-04-04T11:00:04.784Z</time></trkpt><trkpt lat="44.1309217" lon="10.3646268"><ele>506.00000000000006</ele><time>2026-04-04T11:00:08.781Z</time></trkpt><trkpt lat="44.1309875" lon="10.3645915"><ele>507.4285714285715</ele><time>2026-04-04T11:00:12.781Z</time></trkpt><trkpt lat="44.1310568" lon="10.3645501"><ele>508.8571428571429</ele><time>2026-04-04T11:00:16.777Z</time></trkpt><trkpt lat="44.1311274" lon="10.3645221"><ele>510.2857142857143</ele><time>2026-04-04T11:00:20.785Z</time></trkpt><trkpt lat="44.1311897" lon="10.3644924"><ele>511.7142857142857</ele><time>2026-04-04T11:00:24.788Z</time></trkpt><trkpt lat="44.1312616" lon="10.3644558"><ele>513.1428571428571</ele><time>2026-04-04T11:00:29.793Z</time></trkpt><trkpt lat="44.1313261" lon="10.3644451"><ele>514.5714285714286</ele><time>2026-04-04T11:00:33.772Z</time></trkpt><trkpt lat="44.1313909" lon="10.3644315"><ele>516.0</ele><time>2026-04-04T11:00:37.795Z</time></trkpt><trkpt lat="44.1314603" lon="10.3644405"><ele>515.9999999999999</ele><time>2026-04-04T11:00:41.785Z</time></trkpt><trkpt lat="44.1315254" lon="10.3644432"><ele>516.0</ele><time>2026-04-04T11:00:45.789Z</time></trkpt><trkpt lat="44.131601" lon="10.3644605"><ele>516.0</ele><time>2026-04-04T11:00:49.789Z</time></trkpt><trkpt lat="44.1316671" lon="10.3644704"><ele>516.0</ele><time>2026-04-04T11:00:53.784Z</time></trkpt><trkpt lat="44.1317389" lon="10.3644551"><ele>516.0</ele><time>2026-04-04T11:00:57.793Z</time></trkpt><trkpt lat="44.1318039" lon="10.3644309"><ele>515.9999999999999</ele><time>2026-04-04T11:01:01.774Z</time></trkpt><trkpt lat="44.1318745" lon="10.364378"><ele>516.0</ele><time>2026-04-04T11:01:06.772Z</time></trkpt><trkpt lat="44.1319302" lon="10.3643259"><ele>516.2857142857142</ele><time>2026-04-04T11:01:10.772Z</time></trkpt><trkpt lat="44.1319847" lon="10.3642529"><ele>516.5714285714286</ele><time>2026-04-04T11:01:14.782Z</time></trkpt><trkpt lat="44.132017" lon="10.3641714"><ele>516.8571428571429</ele><time>2026-04-04T11:01:18.779Z</time></trkpt><trkpt lat="44.1320525" lon="10.3640878"><ele>517.1428571428571</ele><time>2026-04-04T11:01:22.77Z</time></trkpt><trkpt lat="44.1320986" lon="10.3639977"><ele>517.4285714285714</ele><time>2026-04-04T11:01:26.78Z</time></trkpt><trkpt lat="44.1321631" lon="10.3639557"><ele>517.7142857142857</ele><time>2026-04-04T11:01:29.773Z</time></trkpt><trkpt lat="44.1322426" lon="10.3639351"><ele>518.0</ele><time>2026-04-04T11:01:33.779Z</time></trkpt><trkpt lat="44.1323121" lon="10.3639259"><ele>516.4285714285714</ele><time>2026-04-04T11:01:37.796Z</time></trkpt><trkpt lat="44.1323904" lon="10.3639027"><ele>514.8571428571429</ele><time>2026-04-04T11:01:41.793Z</time></trkpt><trkpt lat="44.1324596" lon="10.3638541"><ele>513.2857142857142</ele><time>2026-04-04T11:01:45.782Z</time></trkpt><trkpt lat="44.1325263" lon="10.3637935"><ele>511.7142857142857</ele><time>2026-04-04T11:01:49.771Z</time></trkpt><trkpt lat="44.132582" lon="10.3637457"><ele>510.14285714285717</ele><time>2026-04-04T11:01:53.767Z</time></trkpt><trkpt lat="44.1326413" lon="10.3636862"><ele>508.57142857142856</ele><time>2026-04-04T11:01:57.777Z</time></trkpt><trkpt lat="44.132699" lon="10.3636244"><ele>507.0</ele><time>2026-04-04T11:02:01.776Z</time></trkpt><trkpt lat="44.1327567" lon="10.363555"><ele>510.2857142857143</ele><time>2026-04-04T11:02:05.775Z</time></trkpt><trkpt lat="44.1328129" lon="10.363483"><ele>513.5714285714286</ele><time>2026-04-04T11:02:09.785Z</time></trkpt><trkpt lat="44.1328508" lon="10.3634013"><ele>516.8571428571429</ele><time>2026-04-04T11:02:13.782Z</time></trkpt><trkpt lat="44.1328949" lon="10.363323"><ele>520.1428571428571</ele><time>2026-04-04T11:02:17.788Z</time></trkpt><trkpt lat="44.132942" lon="10.3632549"><ele>523.4285714285714</ele><time>2026-04-04T11:02:21.771Z</time></trkpt><trkpt lat="44.1329849" lon="10.3631859"><ele>526.7142857142857</ele><time>2026-04-04T11:02:25.784Z</time></trkpt><trkpt lat="44.1330292" lon="10.3631187"><ele>530.0</ele><time>2026-04-04T11:02:29.773Z</time></trkpt><trkpt lat="44.1330757" lon="10.3630525"><ele>529.5714285714286</ele><time>2026-04-04T11:02:33.781Z</time></trkpt><trkpt lat="44.1331237" lon="10.3629832"><ele>529.1428571428571</ele><time>2026-04-04T11:02:37.785Z</time></trkpt><trkpt lat="44.1331782" lon="10.3629199"><ele>528.7142857142858</ele><time>2026-04-04T11:02:41.778Z</time></trkpt><trkpt lat="44.1332297" lon="10.3628514"><ele>528.2857142857142</ele><time>2026-04-04T11:02:45.781Z</time></trkpt><trkpt lat="44.133265" lon="10.3627699"><ele>527.8571428571429</ele><time>2026-04-04T11:02:49.777Z</time></trkpt><trkpt lat="44.1332843" lon="10.3626776"><ele>527.4285714285714</ele><time>2026-04-04T11:02:53.767Z</time></trkpt><trkpt lat="44.1332975" lon="10.3625879"><ele>527.0</ele><time>2026-04-04T11:02:57.778Z</time></trkpt><trkpt lat="44.1332964" lon="10.3624842"><ele>527.0000000000001</ele><time>2026-04-04T11:03:02.776Z</time></trkpt><trkpt lat="44.1332915" lon="10.3623912"><ele>527.0</ele><time>2026-04-04T11:03:06.776Z</time></trkpt><trkpt lat="44.1332691" lon="10.3622916"><ele>527.0</ele><time>2026-04-04T11:03:11.775Z</time></trkpt><trkpt lat="44.1332457" lon="10.3621944"><ele>527.0</ele><time>2026-04-04T11:03:16.77Z</time></trkpt><trkpt lat="44.1332289" lon="10.3621097"><ele>527.0</ele><time>2026-04-04T11:03:20.779Z</time></trkpt><trkpt lat="44.1332171" lon="10.3620085"><ele>527.0000000000001</ele><time>2026-04-04T11:03:24.779Z</time></trkpt><trkpt lat="44.1332086" lon="10.3619049"><ele>527.0</ele><time>2026-04-04T11:03:28.785Z</time></trkpt><trkpt lat="44.1331953" lon="10.3617944"><ele>529.5714285714287</ele><time>2026-04-04T11:03:32.774Z</time></trkpt><trkpt lat="44.1331913" lon="10.3616875"><ele>532.1428571428571</ele><time>2026-04-04T11:03:36.781Z</time></trkpt><trkpt lat="44.1331916" lon="10.3615957"><ele>534.7142857142858</ele><time>2026-04-04T11:03:40.785Z</time></trkpt><trkpt lat="44.1331751" lon="10.3615071"><ele>537.2857142857143</ele><time>2026-04-04T11:03:44.779Z</time></trkpt><trkpt lat="44.1331156" lon="10.3614571"><ele>539.8571428571429</ele><time>2026-04-04T11:03:48.778Z</time></trkpt><trkpt lat="44.1330383" lon="10.3614748"><ele>542.4285714285714</ele><time>2026-04-04T11:03:52.776Z</time></trkpt><trkpt lat="44.1329778" lon="10.361528"><ele>545.0</ele><time>2026-04-04T11:03:56.778Z</time></trkpt><trkpt lat="44.1329221" lon="10.3615894"><ele>545.0</ele><time>2026-04-04T11:04:00.775Z</time></trkpt><trkpt lat="44.1328796" lon="10.3616572"><ele>545.0</ele><time>2026-04-04T11:04:04.773Z</time></trkpt><trkpt lat="44.1328398" lon="10.361744"><ele>545.0</ele><time>2026-04-04T11:04:08.772Z</time></trkpt><trkpt lat="44.132792" lon="10.3618083"><ele>545.0</ele><time>2026-04-04T11:04:12.779Z</time></trkpt><trkpt lat="44.1327431" lon="10.3618891"><ele>545.0</ele><time>2026-04-04T11:04:17.769Z</time></trkpt><trkpt lat="44.1326884" lon="10.3619546"><ele>545.0</ele><time>2026-04-04T11:04:21.774Z</time></trkpt><trkpt lat="44.1326293" lon="10.3620118"><ele>545.0</ele><time>2026-04-04T11:04:25.766Z</time></trkpt><trkpt lat="44.1325731" lon="10.3620698"><ele>545.0</ele><time>2026-04-04T11:04:29.775Z</time></trkpt><trkpt lat="44.1325125" lon="10.362126"><ele>545.0</ele><time>2026-04-04T11:04:33.772Z</time></trkpt><trkpt lat="44.132453" lon="10.3621665"><ele>545.0</ele><time>2026-04-04T11:04:37.779Z</time></trkpt><trkpt lat="44.1323867" lon="10.3621951"><ele>545.0</ele><time>2026-04-04T11:04:41.774Z</time></trkpt><trkpt lat="44.1323181" lon="10.3622122"><ele>545.0</ele><time>2026-04-04T11:04:46.774Z</time></trkpt><trkpt lat="44.1322475" lon="10.3622226"><ele>545.0</ele><time>2026-04-04T11:04:51.775Z</time></trkpt><trkpt lat="44.1321713" lon="10.3622255"><ele>545.0</ele><time>2026-04-04T11:04:55.772Z</time></trkpt><trkpt lat="44.1321029" lon="10.3622293"><ele>545.5714285714286</ele><time>2026-04-04T11:04:59.78Z</time></trkpt><trkpt lat="44.1320319" lon="10.3622264"><ele>546.1428571428572</ele><time>2026-04-04T11:05:03.783Z</time></trkpt><trkpt lat="44.1319557" lon="10.3622272"><ele>546.7142857142858</ele><time>2026-04-04T11:05:07.784Z</time></trkpt><trkpt lat="44.1318845" lon="10.3622109"><ele>547.2857142857143</ele><time>2026-04-04T11:05:11.782Z</time></trkpt><trkpt lat="44.1318157" lon="10.3621965"><ele>547.8571428571429</ele><time>2026-04-04T11:05:15.782Z</time></trkpt><trkpt lat="44.1317448" lon="10.3621799"><ele>548.4285714285714</ele><time>2026-04-04T11:05:19.784Z</time></trkpt><trkpt lat="44.1316768" lon="10.3621502"><ele>549.0</ele><time>2026-04-04T11:05:23.776Z</time></trkpt><trkpt lat="44.1316152" lon="10.3621234"><ele>550.8571428571429</ele><time>2026-04-04T11:05:27.777Z</time></trkpt><trkpt lat="44.1315496" lon="10.3621063"><ele>552.7142857142858</ele><time>2026-04-04T11:05:31.774Z</time></trkpt><trkpt lat="44.1314857" lon="10.3620837"><ele>554.5714285714287</ele><time>2026-04-04T11:05:35.776Z</time></trkpt><trkpt lat="44.1314239" lon="10.3620375"><ele>556.4285714285714</ele><time>2026-04-04T11:05:39.779Z</time></trkpt><trkpt lat="44.1313605" lon="10.3619897"><ele>558.2857142857143</ele><time>2026-04-04T11:05:43.789Z</time></trkpt><trkpt lat="44.1312899" lon="10.3619555"><ele>560.1428571428572</ele><time>2026-04-04T11:05:47.776Z</time></trkpt><trkpt lat="44.1312226" lon="10.3619171"><ele>562.0</ele><time>2026-04-04T11:05:51.785Z</time></trkpt><trkpt lat="44.1311628" lon="10.3618715"><ele>562.0000000000001</ele><time>2026-04-04T11:05:55.78Z</time></trkpt><trkpt lat="44.1311045" lon="10.3618162"><ele>562.0</ele><time>2026-04-04T11:05:59.778Z</time></trkpt><trkpt lat="44.1310494" lon="10.361762"><ele>562.0</ele><time>2026-04-04T11:06:03.787Z</time></trkpt><trkpt lat="44.1309979" lon="10.3616917"><ele>562.0</ele><time>2026-04-04T11:06:07.773Z</time></trkpt><trkpt lat="44.1309308" lon="10.3616344"><ele>562.0</ele><time>2026-04-04T11:06:11.789Z</time></trkpt><trkpt lat="44.1308707" lon="10.3615787"><ele>562.0000000000001</ele><time>2026-04-04T11:06:15.776Z</time></trkpt><trkpt lat="44.1308107" lon="10.3615279"><ele>562.0</ele><time>2026-04-04T11:06:19.78Z</time></trkpt><trkpt lat="44.1307484" lon="10.3614765"><ele>563.4285714285714</ele><time>2026-04-04T11:06:23.778Z</time></trkpt><trkpt lat="44.1306918" lon="10.3614175"><ele>564.8571428571429</ele><time>2026-04-04T11:06:27.784Z</time></trkpt><trkpt lat="44.1306174" lon="10.3613798"><ele>566.2857142857142</ele><time>2026-04-04T11:06:32.775Z</time></trkpt><trkpt lat="44.1305509" lon="10.361332"><ele>567.7142857142858</ele><time>2026-04-04T11:06:36.772Z</time></trkpt><trkpt lat="44.1304758" lon="10.3612974"><ele>569.1428571428571</ele><time>2026-04-04T11:06:41.77Z</time></trkpt><trkpt lat="44.1304049" lon="10.3612808"><ele>570.5714285714286</ele><time>2026-04-04T11:06:46.776Z</time></trkpt><trkpt lat="44.1303414" lon="10.3612685"><ele>572.0</ele><time>2026-04-04T11:06:50.775Z</time></trkpt><trkpt lat="44.1302627" lon="10.3612527"><ele>574.1666666666666</ele><time>2026-04-04T11:06:55.781Z</time></trkpt><trkpt lat="44.1301871" lon="10.361234"><ele>576.3333333333333</ele><time>2026-04-04T11:06:59.776Z</time></trkpt><trkpt lat="44.1301095" lon="10.3612086"><ele>578.5</ele><time>2026-04-04T11:07:03.783Z</time></trkpt><trkpt lat="44.130033" lon="10.3611882"><ele>580.6666666666666</ele><time>2026-04-04T11:07:07.773Z</time></trkpt><trkpt lat="44.1299631" lon="10.3611529"><ele>582.8333333333334</ele><time>2026-04-04T11:07:11.777Z</time></trkpt><trkpt lat="44.1298941" lon="10.361119"><ele>585.0</ele><time>2026-04-04T11:07:15.777Z</time></trkpt><trkpt lat="44.1298271" lon="10.36108"><ele>585.5714285714286</ele><time>2026-04-04T11:07:19.774Z</time></trkpt><trkpt lat="44.1297643" lon="10.3610471"><ele>586.1428571428571</ele><time>2026-04-04T11:07:23.775Z</time></trkpt><trkpt lat="44.1297" lon="10.361006"><ele>586.7142857142857</ele><time>2026-04-04T11:07:27.787Z</time></trkpt><trkpt lat="44.1296358" lon="10.3609615"><ele>587.2857142857142</ele><time>2026-04-04T11:07:31.773Z</time></trkpt><trkpt lat="44.1295717" lon="10.3609208"><ele>587.8571428571428</ele><time>2026-04-04T11:07:35.774Z</time></trkpt><trkpt lat="44.1295071" lon="10.3608856"><ele>588.4285714285714</ele><time>2026-04-04T11:07:39.778Z</time></trkpt><trkpt lat="44.1294414" lon="10.3608657"><ele>589.0</ele><time>2026-04-04T11:07:43.774Z</time></trkpt><trkpt lat="44.129365" lon="10.3608329"><ele>589.0</ele><time>2026-04-04T11:07:48.782Z</time></trkpt><trkpt lat="44.1293006" lon="10.3607903"><ele>589.0</ele><time>2026-04-04T11:07:52.767Z</time></trkpt><trkpt lat="44.1292307" lon="10.3607392"><ele>589.0</ele><time>2026-04-04T11:07:56.778Z</time></trkpt><trkpt lat="44.1291562" lon="10.3607001"><ele>589.0</ele><time>2026-04-04T11:08:00.77Z</time></trkpt><trkpt lat="44.1290971" lon="10.3606693"><ele>589.0</ele><time>2026-04-04T11:08:03.771Z</time></trkpt><trkpt lat="44.1290268" lon="10.3606282"><ele>589.0</ele><time>2026-04-04T11:08:07.778Z</time></trkpt><trkpt lat="44.1289649" lon="10.3606025"><ele>589.0</ele><time>2026-04-04T11:08:11.774Z</time></trkpt><trkpt lat="44.1288964" lon="10.3605736"><ele>590.8333333333334</ele><time>2026-04-04T11:08:15.784Z</time></trkpt><trkpt lat="44.1288289" lon="10.3605391"><ele>592.6666666666667</ele><time>2026-04-04T11:08:19.774Z</time></trkpt><trkpt lat="44.1287641" lon="10.360508"><ele>594.5</ele><time>2026-04-04T11:08:23.77Z</time></trkpt><trkpt lat="44.1286907" lon="10.3604778"><ele>596.3333333333334</ele><time>2026-04-04T11:08:27.779Z</time></trkpt><trkpt lat="44.128621" lon="10.3604329"><ele>598.1666666666666</ele><time>2026-04-04T11:08:31.778Z</time></trkpt><trkpt lat="44.128549" lon="10.3603814"><ele>600.0</ele><time>2026-04-04T11:08:35.771Z</time></trkpt><trkpt lat="44.1284832" lon="10.3603199"><ele>602.0</ele><time>2026-04-04T11:08:39.77Z</time></trkpt><trkpt lat="44.128406" lon="10.3602733"><ele>604.0</ele><time>2026-04-04T11:08:43.767Z</time></trkpt><trkpt lat="44.1283258" lon="10.3602364"><ele>606.0</ele><time>2026-04-04T11:08:47.78Z</time></trkpt><trkpt lat="44.1282466" lon="10.3602071"><ele>608.0</ele><time>2026-04-04T11:08:51.781Z</time></trkpt><trkpt lat="44.1281857" lon="10.3601681"><ele>610.0</ele><time>2026-04-04T11:08:54.777Z</time></trkpt><trkpt lat="44.1281136" lon="10.3601059"><ele>612.0</ele><time>2026-04-04T11:08:59.781Z</time></trkpt><trkpt lat="44.1280344" lon="10.3600879"><ele>613.4285714285714</ele><time>2026-04-04T11:09:03.769Z</time></trkpt><trkpt lat="44.1279707" lon="10.3601109"><ele>614.8571428571429</ele><time>2026-04-04T11:09:06.773Z</time></trkpt><trkpt lat="44.1279106" lon="10.360155"><ele>616.2857142857142</ele><time>2026-04-04T11:09:09.782Z</time></trkpt><trkpt lat="44.1278574" lon="10.3602113"><ele>617.7142857142858</ele><time>2026-04-04T11:09:12.778Z</time></trkpt><trkpt lat="44.1277856" lon="10.3602714"><ele>619.1428571428572</ele><time>2026-04-04T11:09:16.776Z</time></trkpt><trkpt lat="44.1277318" lon="10.3603326"><ele>620.5714285714286</ele><time>2026-04-04T11:09:20.77Z</time></trkpt><trkpt lat="44.1276735" lon="10.3603783"><ele>622.0</ele><time>2026-04-04T11:09:24.767Z</time></trkpt><trkpt lat="44.1276045" lon="10.3604393"><ele>622.0</ele><time>2026-04-04T11:09:28.774Z</time></trkpt><trkpt lat="44.127548" lon="10.3604786"><ele>622.0</ele><time>2026-04-04T11:09:31.781Z</time></trkpt><trkpt lat="44.1274719" lon="10.3605208"><ele>622.0</ele><time>2026-04-04T11:09:35.768Z</time></trkpt><trkpt lat="44.1273987" lon="10.3605474"><ele>622.0</ele><time>2026-04-04T11:09:39.782Z</time></trkpt><trkpt lat="44.1273222" lon="10.3605504"><ele>622.0</ele><time>2026-04-04T11:09:43.774Z</time></trkpt><trkpt lat="44.1272421" lon="10.3605665"><ele>622.0</ele><time>2026-04-04T11:09:47.779Z</time></trkpt><trkpt lat="44.1271675" lon="10.3605656"><ele>619.0</ele><time>2026-04-04T11:09:51.774Z</time></trkpt><trkpt lat="44.1270846" lon="10.3605595"><ele>616.0</ele><time>2026-04-04T11:09:55.774Z</time></trkpt><trkpt lat="44.1270142" lon="10.3605625"><ele>613.0</ele><time>2026-04-04T11:09:59.778Z</time></trkpt><trkpt lat="44.1269479" lon="10.3605849"><ele>610.0</ele><time>2026-04-04T11:10:03.777Z</time></trkpt><trkpt lat="44.1268812" lon="10.3605865"><ele>607.0</ele><time>2026-04-04T11:10:06.777Z</time></trkpt><trkpt lat="44.1267815" lon="10.3605816"><ele>604.0</ele><time>2026-04-04T11:10:09.767Z</time></trkpt><trkpt lat="44.1266894" lon="10.3605582"><ele>606.0</ele><time>2026-04-04T11:10:11.78Z</time></trkpt><trkpt lat="44.1265824" lon="10.3605252"><ele>608.0</ele><time>2026-04-04T11:10:13.783Z</time></trkpt><trkpt lat="44.1264635" lon="10.3604742"><ele>610.0</ele><time>2026-04-04T11:10:15.781Z</time></trkpt><trkpt lat="44.1264008" lon="10.360437"><ele>612.0</ele><time>2026-04-04T11:10:16.779Z</time></trkpt><trkpt lat="44.1263389" lon="10.3604089"><ele>614.0</ele><time>2026-04-04T11:10:17.779Z</time></trkpt><trkpt lat="44.1262741" lon="10.3603804"><ele>616.0</ele><time>2026-04-04T11:10:18.779Z</time></trkpt><trkpt lat="44.126206" lon="10.3603627"><ele>616.0</ele><time>2026-04-04T11:10:19.768Z</time></trkpt><trkpt lat="44.126135" lon="10.360355"><ele>616.0</ele><time>2026-04-04T11:10:20.77Z</time></trkpt><trkpt lat="44.1260681" lon="10.3603495"><ele>616.0</ele><time>2026-04-04T11:10:21.779Z</time></trkpt><trkpt lat="44.1259971" lon="10.3603415"><ele>616.0</ele><time>2026-04-04T11:10:22.78Z</time></trkpt><trkpt lat="44.1259294" lon="10.3603326"><ele>616.0</ele><time>2026-04-04T11:10:23.78Z</time></trkpt><trkpt lat="44.12586" lon="10.3603387"><ele>616.0</ele><time>2026-04-04T11:10:24.767Z</time></trkpt><trkpt lat="44.1257936" lon="10.3603533"><ele>616.0</ele><time>2026-04-04T11:10:25.777Z</time></trkpt><trkpt lat="44.125729" lon="10.3603691"><ele>617.0</ele><time>2026-04-04T11:10:26.785Z</time></trkpt><trkpt lat="44.1256055" lon="10.3604051"><ele>618.0</ele><time>2026-04-04T11:10:28.78Z</time></trkpt><trkpt lat="44.1254897" lon="10.3604396"><ele>619.0</ele><time>2026-04-04T11:10:30.794Z</time></trkpt><trkpt lat="44.1253849" lon="10.3604985"><ele>620.0</ele><time>2026-04-04T11:10:32.784Z</time></trkpt><trkpt lat="44.125292" lon="10.3605901"><ele>617.8333333333333</ele><time>2026-04-04T11:10:34.779Z</time></trkpt><trkpt lat="44.1252315" lon="10.360695"><ele>615.6666666666666</ele><time>2026-04-04T11:10:36.778Z</time></trkpt><trkpt lat="44.1252011" lon="10.3607924"><ele>613.5</ele><time>2026-04-04T11:10:38.773Z</time></trkpt><trkpt lat="44.1251842" lon="10.3608962"><ele>611.3333333333334</ele><time>2026-04-04T11:10:41.767Z</time></trkpt><trkpt lat="44.1251588" lon="10.3609906"><ele>609.1666666666667</ele><time>2026-04-04T11:10:45.785Z</time></trkpt><trkpt lat="44.125121" lon="10.3610773"><ele>607.0</ele><time>2026-04-04T11:10:49.776Z</time></trkpt><trkpt lat="44.1250708" lon="10.3611532"><ele>606.9999999999999</ele><time>2026-04-04T11:10:53.772Z</time></trkpt><trkpt lat="44.1250152" lon="10.361237"><ele>607.0</ele><time>2026-04-04T11:10:57.784Z</time></trkpt><trkpt lat="44.1249646" lon="10.361292"><ele>607.0</ele><time>2026-04-04T11:11:00.789Z</time></trkpt><trkpt lat="44.1248902" lon="10.3613356"><ele>607.0</ele><time>2026-04-04T11:11:04.768Z</time></trkpt><trkpt lat="44.1248169" lon="10.3613605"><ele>607.0</ele><time>2026-04-04T11:11:08.777Z</time></trkpt><trkpt lat="44.1247542" lon="10.361334"><ele>606.9999999999999</ele><time>2026-04-04T11:11:12.776Z</time></trkpt><trkpt lat="44.1246836" lon="10.3613343"><ele>607.0</ele><time>2026-04-04T11:11:16.774Z</time></trkpt><trkpt lat="44.1246031" lon="10.3613252"><ele>609.1428571428571</ele><time>2026-04-04T11:11:20.767Z</time></trkpt><trkpt lat="44.1245333" lon="10.3612987"><ele>611.2857142857142</ele><time>2026-04-04T11:11:24.777Z</time></trkpt><trkpt lat="44.1244647" lon="10.3612722"><ele>613.4285714285713</ele><time>2026-04-04T11:11:28.779Z</time></trkpt><trkpt lat="44.1243934" lon="10.3612439"><ele>615.5714285714286</ele><time>2026-04-04T11:11:32.775Z</time></trkpt><trkpt lat="44.1243315" lon="10.3612008"><ele>617.7142857142858</ele><time>2026-04-04T11:11:36.778Z</time></trkpt><trkpt lat="44.1242835" lon="10.3611398"><ele>619.8571428571428</ele><time>2026-04-04T11:11:40.77Z</time></trkpt><trkpt lat="44.124226" lon="10.361089"><ele>622.0</ele><time>2026-04-04T11:11:44.789Z</time></trkpt><trkpt lat="44.1241632" lon="10.3610429"><ele>622.0</ele><time>2026-04-04T11:11:48.776Z</time></trkpt><trkpt lat="44.1241034" lon="10.3609932"><ele>622.0</ele><time>2026-04-04T11:11:52.775Z</time></trkpt><trkpt lat="44.1240471" lon="10.3609412"><ele>622.0</ele><time>2026-04-04T11:11:56.781Z</time></trkpt><trkpt lat="44.1239906" lon="10.3608988"><ele>622.0</ele><time>2026-04-04T11:12:00.789Z</time></trkpt><trkpt lat="44.1239267" lon="10.3608686"><ele>622.0</ele><time>2026-04-04T11:12:04.77Z</time></trkpt><trkpt lat="44.1238602" lon="10.3608536"><ele>622.0</ele><time>2026-04-04T11:12:08.782Z</time></trkpt><trkpt lat="44.1237829" lon="10.3608313"><ele>622.0</ele><time>2026-04-04T11:12:13.79Z</time></trkpt><trkpt lat="44.123722" lon="10.3608035"><ele>621.1428571428571</ele><time>2026-04-04T11:12:17.782Z</time></trkpt><trkpt lat="44.123655" lon="10.3607623"><ele>620.2857142857143</ele><time>2026-04-04T11:12:22.774Z</time></trkpt><trkpt lat="44.1235897" lon="10.3607297"><ele>619.4285714285714</ele><time>2026-04-04T11:12:26.773Z</time></trkpt><trkpt lat="44.1235251" lon="10.3606916"><ele>618.5714285714286</ele><time>2026-04-04T11:12:30.787Z</time></trkpt><trkpt lat="44.1234614" lon="10.360645"><ele>617.7142857142858</ele><time>2026-04-04T11:12:35.777Z</time></trkpt><trkpt lat="44.1234025" lon="10.3605958"><ele>616.8571428571429</ele><time>2026-04-04T11:12:39.78Z</time></trkpt><trkpt lat="44.1233447" lon="10.3605472"><ele>616.0</ele><time>2026-04-04T11:12:43.78Z</time></trkpt><trkpt lat="44.1232751" lon="10.3605197"><ele>618.0</ele><time>2026-04-04T11:12:47.767Z</time></trkpt><trkpt lat="44.1232058" lon="10.3605074"><ele>620.0</ele><time>2026-04-04T11:12:51.764Z</time></trkpt><trkpt lat="44.1231421" lon="10.3604695"><ele>622.0</ele><time>2026-04-04T11:12:55.789Z</time></trkpt><trkpt lat="44.1230771" lon="10.3604297"><ele>624.0</ele><time>2026-04-04T11:12:59.791Z</time></trkpt><trkpt lat="44.1230126" lon="10.3603951"><ele>626.0</ele><time>2026-04-04T11:13:03.781Z</time></trkpt><trkpt lat="44.122947" lon="10.3603519"><ele>628.0</ele><time>2026-04-04T11:13:07.779Z</time></trkpt><trkpt lat="44.1228806" lon="10.360331"><ele>630.0</ele><time>2026-04-04T11:13:11.777Z</time></trkpt><trkpt lat="44.1228036" lon="10.3603512"><ele>630.0</ele><time>2026-04-04T11:13:14.777Z</time></trkpt><trkpt lat="44.1227248" lon="10.3603733"><ele>630.0</ele><time>2026-04-04T11:13:17.773Z</time></trkpt><trkpt lat="44.1226617" lon="10.3603788"><ele>630.0</ele><time>2026-04-04T11:13:19.775Z</time></trkpt><trkpt lat="44.1225862" lon="10.360392"><ele>630.0</ele><time>2026-04-04T11:13:21.78Z</time></trkpt><trkpt lat="44.1225012" lon="10.3603848"><ele>630.0</ele><time>2026-04-04T11:13:23.77Z</time></trkpt><trkpt lat="44.1224329" lon="10.3603704"><ele>630.0</ele><time>2026-04-04T11:13:26.793Z</time></trkpt><trkpt lat="44.1223686" lon="10.3603667"><ele>630.0</ele><time>2026-04-04T11:13:30.795Z</time></trkpt><trkpt lat="44.1223034" lon="10.3603593"><ele>632.7142857142857</ele><time>2026-04-04T11:13:34.774Z</time></trkpt><trkpt lat="44.1222404" lon="10.3603503"><ele>635.4285714285714</ele><time>2026-04-04T11:13:38.777Z</time></trkpt><trkpt lat="44.1221768" lon="10.3603383"><ele>638.1428571428571</ele><time>2026-04-04T11:13:42.771Z</time></trkpt><trkpt lat="44.122114" lon="10.360332"><ele>640.8571428571429</ele><time>2026-04-04T11:13:46.775Z</time></trkpt><trkpt lat="44.1220466" lon="10.3603334"><ele>643.5714285714286</ele><time>2026-04-04T11:13:50.769Z</time></trkpt><trkpt lat="44.1219698" lon="10.3603113"><ele>646.2857142857142</ele><time>2026-04-04T11:13:55.773Z</time></trkpt><trkpt lat="44.1218936" lon="10.3602854"><ele>649.0</ele><time>2026-04-04T11:14:00.789Z</time></trkpt><trkpt lat="44.121826" lon="10.3602687"><ele>648.9999999999999</ele><time>2026-04-04T11:14:04.779Z</time></trkpt><trkpt lat="44.1217633" lon="10.3602455"><ele>649.0</ele><time>2026-04-04T11:14:09.778Z</time></trkpt><trkpt lat="44.1218145" lon="10.3601699"><ele>649.0</ele><time>2026-04-04T11:14:23.776Z</time></trkpt><trkpt lat="44.1218445" lon="10.3600778"><ele>649.0</ele><time>2026-04-04T11:14:29.777Z</time></trkpt><trkpt lat="44.1218779" lon="10.3599833"><ele>649.0</ele><time>2026-04-04T11:14:35.773Z</time></trkpt><trkpt lat="44.1219125" lon="10.3598878"><ele>648.9999999999999</ele><time>2026-04-04T11:14:41.769Z</time></trkpt><trkpt lat="44.1219367" lon="10.3597922"><ele>649.0</ele><time>2026-04-04T11:14:46.774Z</time></trkpt><trkpt lat="44.1219914" lon="10.3597342"><ele>648.9999999999999</ele><time>2026-04-04T11:14:52.77Z</time></trkpt><trkpt lat="44.1220629" lon="10.3597253"><ele>649.0</ele><time>2026-04-04T11:14:58.776Z</time></trkpt><trkpt lat="44.1221372" lon="10.3597255"><ele>649.0</ele><time>2026-04-04T11:15:05.78Z</time></trkpt><trkpt lat="44.1222088" lon="10.3597318"><ele>649.0</ele><time>2026-04-04T11:15:10.788Z</time></trkpt><trkpt lat="44.1222721" lon="10.3597219"><ele>649.0</ele><time>2026-04-04T11:15:17.763Z</time></trkpt><trkpt lat="44.1223411" lon="10.3597016"><ele>648.9999999999999</ele><time>2026-04-04T11:15:23.768Z</time></trkpt><trkpt lat="44.1224062" lon="10.3596675"><ele>649.0</ele><time>2026-04-04T11:15:27.78Z</time></trkpt><trkpt lat="44.1224721" lon="10.3596163"><ele>650.6</ele><time>2026-04-04T11:15:32.773Z</time></trkpt><trkpt lat="44.1225285" lon="10.3595573"><ele>652.2</ele><time>2026-04-04T11:15:37.777Z</time></trkpt><trkpt lat="44.1225731" lon="10.3594521"><ele>653.8000000000001</ele><time>2026-04-04T11:15:41.77Z</time></trkpt><trkpt lat="44.1226354" lon="10.3593753"><ele>655.4000000000001</ele><time>2026-04-04T11:15:43.77Z</time></trkpt><trkpt lat="44.1227599" lon="10.3593978"><ele>657.0</ele><time>2026-04-04T11:15:45.781Z</time></trkpt><trkpt lat="44.122852" lon="10.3594841"><ele>657.0</ele><time>2026-04-04T11:15:47.774Z</time></trkpt><trkpt lat="44.1229232" lon="10.3595285"><ele>657.0</ele><time>2026-04-04T11:15:49.776Z</time></trkpt><trkpt lat="44.12299" lon="10.3595702"><ele>657.0</ele><time>2026-04-04T11:15:53.778Z</time></trkpt><trkpt lat="44.1230504" lon="10.3596023"><ele>657.0</ele><time>2026-04-04T11:15:58.78Z</time></trkpt><trkpt lat="44.1231152" lon="10.3596222"><ele>657.0</ele><time>2026-04-04T11:16:03.765Z</time></trkpt><trkpt lat="44.1231798" lon="10.3596209"><ele>657.0</ele><time>2026-04-04T11:16:08.777Z</time></trkpt><trkpt lat="44.1232422" lon="10.3595912"><ele>657.0</ele><time>2026-04-04T11:16:13.775Z</time></trkpt><trkpt lat="44.1232881" lon="10.3595308"><ele>656.1428571428571</ele><time>2026-04-04T11:16:18.777Z</time></trkpt><trkpt lat="44.1233364" lon="10.3594577"><ele>655.2857142857143</ele><time>2026-04-04T11:16:24.772Z</time></trkpt><trkpt lat="44.1233557" lon="10.3593655"><ele>654.4285714285714</ele><time>2026-04-04T11:16:29.777Z</time></trkpt><trkpt lat="44.1233659" lon="10.3592675"><ele>653.5714285714286</ele><time>2026-04-04T11:16:34.773Z</time></trkpt><trkpt lat="44.1233606" lon="10.3591706"><ele>652.7142857142858</ele><time>2026-04-04T11:16:39.777Z</time></trkpt><trkpt lat="44.12334" lon="10.3590822"><ele>651.8571428571429</ele><time>2026-04-04T11:16:44.785Z</time></trkpt><trkpt lat="44.1233463" lon="10.3589801"><ele>651.0</ele><time>2026-04-04T11:16:49.767Z</time></trkpt><trkpt lat="44.1233542" lon="10.358875"><ele>652.5714285714286</ele><time>2026-04-04T11:16:54.785Z</time></trkpt><trkpt lat="44.1233531" lon="10.3587823"><ele>654.1428571428571</ele><time>2026-04-04T11:16:59.783Z</time></trkpt><trkpt lat="44.1233565" lon="10.3586933"><ele>655.7142857142858</ele><time>2026-04-04T11:17:04.771Z</time></trkpt><trkpt lat="44.1233176" lon="10.3586162"><ele>657.2857142857142</ele><time>2026-04-04T11:17:10.781Z</time></trkpt><trkpt lat="44.1232646" lon="10.3585509"><ele>658.8571428571429</ele><time>2026-04-04T11:17:16.767Z</time></trkpt><trkpt lat="44.1232208" lon="10.3584722"><ele>660.4285714285714</ele><time>2026-04-04T11:17:21.782Z</time></trkpt><trkpt lat="44.1231953" lon="10.358389"><ele>662.0</ele><time>2026-04-04T11:17:26.773Z</time></trkpt><trkpt lat="44.1231607" lon="10.358311"><ele>664.2857142857143</ele><time>2026-04-04T11:17:31.797Z</time></trkpt><trkpt lat="44.1231246" lon="10.3582316"><ele>666.5714285714286</ele><time>2026-04-04T11:17:36.775Z</time></trkpt><trkpt lat="44.1230867" lon="10.3581588"><ele>668.8571428571429</ele><time>2026-04-04T11:17:40.784Z</time></trkpt><trkpt lat="44.1230521" lon="10.3580799"><ele>671.1428571428571</ele><time>2026-04-04T11:17:45.779Z</time></trkpt><trkpt lat="44.1230413" lon="10.3579873"><ele>673.4285714285714</ele><time>2026-04-04T11:17:50.769Z</time></trkpt><trkpt lat="44.1230954" lon="10.3579295"><ele>675.7142857142857</ele><time>2026-04-04T11:17:56.772Z</time></trkpt><trkpt lat="44.1231534" lon="10.3578699"><ele>678.0</ele><time>2026-04-04T11:18:02.77Z</time></trkpt><trkpt lat="44.1231991" lon="10.3578"><ele>677.5714285714286</ele><time>2026-04-04T11:18:07.764Z</time></trkpt><trkpt lat="44.1232609" lon="10.3577323"><ele>677.1428571428572</ele><time>2026-04-04T11:18:12.784Z</time></trkpt><trkpt lat="44.1233228" lon="10.3577113"><ele>676.7142857142858</ele><time>2026-04-04T11:18:16.778Z</time></trkpt><trkpt lat="44.1233878" lon="10.3577353"><ele>676.2857142857142</ele><time>2026-04-04T11:18:20.771Z</time></trkpt><trkpt lat="44.1234326" lon="10.3578062"><ele>675.8571428571429</ele><time>2026-04-04T11:18:24.768Z</time></trkpt><trkpt lat="44.1234691" lon="10.3578934"><ele>675.4285714285714</ele><time>2026-04-04T11:18:29.775Z</time></trkpt><trkpt lat="44.1235201" lon="10.3579903"><ele>675.0</ele><time>2026-04-04T11:18:32.777Z</time></trkpt><trkpt lat="44.1235691" lon="10.358056"><ele>672.8333333333334</ele><time>2026-04-04T11:18:34.772Z</time></trkpt><trkpt lat="44.123628" lon="10.3581"><ele>670.6666666666666</ele><time>2026-04-04T11:18:36.777Z</time></trkpt><trkpt lat="44.1236946" lon="10.3581451"><ele>668.5</ele><time>2026-04-04T11:18:38.782Z</time></trkpt><trkpt lat="44.1237479" lon="10.3581976"><ele>666.3333333333333</ele><time>2026-04-04T11:18:40.765Z</time></trkpt><trkpt lat="44.1238267" lon="10.3582572"><ele>664.1666666666666</ele><time>2026-04-04T11:18:43.779Z</time></trkpt><trkpt lat="44.1239103" lon="10.3582757"><ele>662.0</ele><time>2026-04-04T11:18:46.784Z</time></trkpt><trkpt lat="44.1239875" lon="10.3582738"><ele>662.0</ele><time>2026-04-04T11:18:49.797Z</time></trkpt><trkpt lat="44.1240524" lon="10.3582643"><ele>662.0</ele><time>2026-04-04T11:18:53.774Z</time></trkpt><trkpt lat="44.1241137" lon="10.3582383"><ele>662.0</ele><time>2026-04-04T11:18:58.788Z</time></trkpt><trkpt lat="44.1241763" lon="10.3582254"><ele>662.0</ele><time>2026-04-04T11:19:02.772Z</time></trkpt><trkpt lat="44.1242499" lon="10.3582121"><ele>662.0</ele><time>2026-04-04T11:19:06.774Z</time></trkpt><trkpt lat="44.1243183" lon="10.3581906"><ele>662.0</ele><time>2026-04-04T11:19:10.78Z</time></trkpt><trkpt lat="44.1243897" lon="10.3581605"><ele>662.0</ele><time>2026-04-04T11:19:14.768Z</time></trkpt><trkpt lat="44.124455" lon="10.3581106"><ele>661.5714285714286</ele><time>2026-04-04T11:19:18.783Z</time></trkpt><trkpt lat="44.1245217" lon="10.3580591"><ele>661.1428571428571</ele><time>2026-04-04T11:19:23.765Z</time></trkpt><trkpt lat="44.1245847" lon="10.3580074"><ele>660.7142857142858</ele><time>2026-04-04T11:19:27.775Z</time></trkpt><trkpt lat="44.1246326" lon="10.3579436"><ele>660.2857142857142</ele><time>2026-04-04T11:19:31.773Z</time></trkpt><trkpt lat="44.1246719" lon="10.3578631"><ele>659.8571428571428</ele><time>2026-04-04T11:19:36.775Z</time></trkpt><trkpt lat="44.1246594" lon="10.3577645"><ele>659.4285714285714</ele><time>2026-04-04T11:19:44.772Z</time></trkpt><trkpt lat="44.1246322" lon="10.3576696"><ele>659.0</ele><time>2026-04-04T11:19:50.767Z</time></trkpt><trkpt lat="44.1246134" lon="10.3575847"><ele>660.8571428571429</ele><time>2026-04-04T11:19:54.77Z</time></trkpt><trkpt lat="44.1245952" lon="10.357483"><ele>662.7142857142857</ele><time>2026-04-04T11:19:59.774Z</time></trkpt><trkpt lat="44.1245685" lon="10.3573953"><ele>664.5714285714286</ele><time>2026-04-04T11:20:05.77Z</time></trkpt><trkpt lat="44.1245266" lon="10.3573224"><ele>666.4285714285714</ele><time>2026-04-04T11:20:10.783Z</time></trkpt><trkpt lat="44.1244777" lon="10.3572566"><ele>668.2857142857142</ele><time>2026-04-04T11:20:15.766Z</time></trkpt><trkpt lat="44.1244142" lon="10.3572281"><ele>670.1428571428571</ele><time>2026-04-04T11:20:21.768Z</time></trkpt><trkpt lat="44.1243496" lon="10.3572372"><ele>672.0</ele><time>2026-04-04T11:20:27.769Z</time></trkpt><trkpt lat="44.1242807" lon="10.3572871"><ele>672.0</ele><time>2026-04-04T11:20:32.769Z</time></trkpt><trkpt lat="44.1242184" lon="10.3573333"><ele>672.0</ele><time>2026-04-04T11:20:37.778Z</time></trkpt><trkpt lat="44.1241403" lon="10.3573628"><ele>672.0</ele><time>2026-04-04T11:20:42.371Z</time></trkpt><trkpt lat="44.1240693" lon="10.3573047"><ele>672.0</ele><time>2026-04-04T11:20:46.791Z</time></trkpt><trkpt lat="44.1240089" lon="10.3572782"><ele>672.0</ele><time>2026-04-04T11:20:51.779Z</time></trkpt><trkpt lat="44.1239848" lon="10.3571816"><ele>672.0</ele><time>2026-04-04T11:20:59.772Z</time></trkpt><trkpt lat="44.1239994" lon="10.3570907"><ele>672.0</ele><time>2026-04-04T11:21:04.772Z</time></trkpt><trkpt lat="44.1240022" lon="10.356995"><ele>675.1428571428571</ele><time>2026-04-04T11:21:09.768Z</time></trkpt><trkpt lat="44.1240029" lon="10.3568947"><ele>678.2857142857142</ele><time>2026-04-04T11:21:15.771Z</time></trkpt><trkpt lat="44.1239878" lon="10.3567925"><ele>681.4285714285714</ele><time>2026-04-04T11:21:21.77Z</time></trkpt><trkpt lat="44.1239695" lon="10.3566941"><ele>684.5714285714286</ele><time>2026-04-04T11:21:26.763Z</time></trkpt><trkpt lat="44.1239514" lon="10.3566006"><ele>687.7142857142857</ele><time>2026-04-04T11:21:31.784Z</time></trkpt><trkpt lat="44.1239191" lon="10.3565217"><ele>690.8571428571429</ele><time>2026-04-04T11:21:36.776Z</time></trkpt><trkpt lat="44.1238795" lon="10.3564342"><ele>694.0</ele><time>2026-04-04T11:21:41.77Z</time></trkpt><trkpt lat="44.1238373" lon="10.3563634"><ele>696.0</ele><time>2026-04-04T11:21:45.778Z</time></trkpt><trkpt lat="44.1237862" lon="10.3562788"><ele>698.0</ele><time>2026-04-04T11:21:50.768Z</time></trkpt><trkpt lat="44.1237412" lon="10.356197"><ele>700.0</ele><time>2026-04-04T11:21:55.775Z</time></trkpt><trkpt lat="44.1236982" lon="10.3561174"><ele>702.0</ele><time>2026-04-04T11:22:01.768Z</time></trkpt><trkpt lat="44.1236584" lon="10.3560296"><ele>704.0</ele><time>2026-04-04T11:22:07.766Z</time></trkpt><trkpt lat="44.1236212" lon="10.3559382"><ele>706.0</ele><time>2026-04-04T11:22:12.772Z</time></trkpt><trkpt lat="44.1235946" lon="10.3558441"><ele>708.0</ele><time>2026-04-04T11:22:17.787Z</time></trkpt><trkpt lat="44.1235656" lon="10.3557615"><ele>708.0</ele><time>2026-04-04T11:22:21.765Z</time></trkpt><trkpt lat="44.1235271" lon="10.3556868"><ele>708.0</ele><time>2026-04-04T11:22:25.761Z</time></trkpt><trkpt lat="44.1234664" lon="10.3556435"><ele>708.0</ele><time>2026-04-04T11:22:29.794Z</time></trkpt><trkpt lat="44.1233992" lon="10.3555808"><ele>708.0</ele><time>2026-04-04T11:22:34.781Z</time></trkpt><trkpt lat="44.1233661" lon="10.3554913"><ele>708.0</ele><time>2026-04-04T11:22:39.774Z</time></trkpt><trkpt lat="44.1233528" lon="10.3553908"><ele>708.0</ele><time>2026-04-04T11:22:44.764Z</time></trkpt><trkpt lat="44.1233382" lon="10.3552964"><ele>708.0</ele><time>2026-04-04T11:22:49.777Z</time></trkpt><trkpt lat="44.1233054" lon="10.3552204"><ele>709.7142857142858</ele><time>2026-04-04T11:22:53.782Z</time></trkpt><trkpt lat="44.1232675" lon="10.3551288"><ele>711.4285714285713</ele><time>2026-04-04T11:22:58.777Z</time></trkpt><trkpt lat="44.1232485" lon="10.3550252"><ele>713.1428571428571</ele><time>2026-04-04T11:23:03.771Z</time></trkpt><trkpt lat="44.1232259" lon="10.3549315"><ele>714.8571428571429</ele><time>2026-04-04T11:23:08.776Z</time></trkpt><trkpt lat="44.1232003" lon="10.3548408"><ele>716.5714285714287</ele><time>2026-04-04T11:23:13.768Z</time></trkpt><trkpt lat="44.1231799" lon="10.3547532"><ele>718.2857142857142</ele><time>2026-04-04T11:23:17.776Z</time></trkpt><trkpt lat="44.1231506" lon="10.3546612"><ele>720.0</ele><time>2026-04-04T11:23:22.773Z</time></trkpt><trkpt lat="44.1231358" lon="10.3545522"><ele>726.0</ele><time>2026-04-04T11:23:27.772Z</time></trkpt><trkpt lat="44.1231278" lon="10.3544573"><ele>732.0</ele><time>2026-04-04T11:23:31.769Z</time></trkpt><trkpt lat="44.1231228" lon="10.3543601"><ele>738.0</ele><time>2026-04-04T11:23:36.768Z</time></trkpt><trkpt lat="44.1231231" lon="10.3542589"><ele>744.0</ele><time>2026-04-04T11:23:41.775Z</time></trkpt><trkpt lat="44.1231137" lon="10.3541574"><ele>750.0</ele><time>2026-04-04T11:23:46.777Z</time></trkpt><trkpt lat="44.1230856" lon="10.3540767"><ele>756.0</ele><time>2026-04-04T11:23:50.769Z</time></trkpt><trkpt lat="44.123067" lon="10.3539819"><ele>762.0</ele><time>2026-04-04T11:23:55.763Z</time></trkpt><trkpt lat="44.1230493" lon="10.3538851"><ele>763.0</ele><time>2026-04-04T11:24:00.781Z</time></trkpt><trkpt lat="44.123043" lon="10.3537916"><ele>764.0</ele><time>2026-04-04T11:24:04.77Z</time></trkpt><trkpt lat="44.1230541" lon="10.353698"><ele>765.0</ele><time>2026-04-04T11:24:08.769Z</time></trkpt><trkpt lat="44.1230637" lon="10.3536063"><ele>766.0</ele><time>2026-04-04T11:24:12.768Z</time></trkpt><trkpt lat="44.1230603" lon="10.3535139"><ele>767.0</ele><time>2026-04-04T11:24:16.77Z</time></trkpt><trkpt lat="44.1230447" lon="10.3534137"><ele>768.0</ele><time>2026-04-04T11:24:21.781Z</time></trkpt><trkpt lat="44.1230188" lon="10.353318"><ele>769.0</ele><time>2026-04-04T11:24:26.775Z</time></trkpt><trkpt lat="44.1230091" lon="10.3532131"><ele>769.0</ele><time>2026-04-04T11:24:31.789Z</time></trkpt><trkpt lat="44.1229983" lon="10.3531071"><ele>769.0</ele><time>2026-04-04T11:24:36.795Z</time></trkpt><trkpt lat="44.1229923" lon="10.3530163"><ele>769.0</ele><time>2026-04-04T11:24:40.778Z</time></trkpt><trkpt lat="44.1229734" lon="10.352917"><ele>769.0</ele><time>2026-04-04T11:24:46.787Z</time></trkpt><trkpt lat="44.1229303" lon="10.3528217"><ele>769.0</ele><time>2026-04-04T11:24:52.776Z</time></trkpt><trkpt lat="44.1228826" lon="10.3527525"><ele>769.0</ele><time>2026-04-04T11:24:56.771Z</time></trkpt><trkpt lat="44.1228311" lon="10.3526913"><ele>769.0</ele><time>2026-04-04T11:25:00.782Z</time></trkpt><trkpt lat="44.1228017" lon="10.3526103"><ele>769.0</ele><time>2026-04-04T11:25:06.781Z</time></trkpt><trkpt lat="44.1227428" lon="10.3525425"><ele>769.0</ele><time>2026-04-04T11:25:12.772Z</time></trkpt><trkpt lat="44.1226782" lon="10.352516"><ele>769.0</ele><time>2026-04-04T11:25:16.775Z</time></trkpt><trkpt lat="44.1226152" lon="10.3525282"><ele>769.0</ele><time>2026-04-04T11:25:20.779Z</time></trkpt><trkpt lat="44.1225542" lon="10.3525765"><ele>769.0</ele><time>2026-04-04T11:25:25.77Z</time></trkpt><trkpt lat="44.122504" lon="10.3526408"><ele>769.0</ele><time>2026-04-04T11:25:29.781Z</time></trkpt><trkpt lat="44.1224667" lon="10.3527189"><ele>769.0</ele><time>2026-04-04T11:25:34.783Z</time></trkpt><trkpt lat="44.1224283" lon="10.3528125"><ele>771.4285714285714</ele><time>2026-04-04T11:25:39.791Z</time></trkpt><trkpt lat="44.1223926" lon="10.35289"><ele>773.8571428571429</ele><time>2026-04-04T11:25:43.796Z</time></trkpt><trkpt lat="44.1223636" lon="10.3529805"><ele>776.2857142857143</ele><time>2026-04-04T11:25:49.77Z</time></trkpt><trkpt lat="44.1223516" lon="10.3530808"><ele>778.7142857142858</ele><time>2026-04-04T11:25:55.779Z</time></trkpt><trkpt lat="44.1223258" lon="10.353183"><ele>781.1428571428571</ele><time>2026-04-04T11:26:00.77Z</time></trkpt><trkpt lat="44.1223004" lon="10.3532829"><ele>783.5714285714287</ele><time>2026-04-04T11:26:05.764Z</time></trkpt><trkpt lat="44.1223164" lon="10.3533779"><ele>786.0</ele><time>2026-04-04T11:26:09.77Z</time></trkpt><trkpt lat="44.122337" lon="10.353463"><ele>786.0000000000001</ele><time>2026-04-04T11:26:13.771Z</time></trkpt><trkpt lat="44.1223381" lon="10.3535534"><ele>786.0</ele><time>2026-04-04T11:26:17.777Z</time></trkpt><trkpt lat="44.1223392" lon="10.3536414"><ele>786.0</ele><time>2026-04-04T11:26:21.778Z</time></trkpt><trkpt lat="44.1223237" lon="10.3537387"><ele>786.0</ele><time>2026-04-04T11:26:26.777Z</time></trkpt><trkpt lat="44.1223011" lon="10.3538424"><ele>786.0</ele><time>2026-04-04T11:26:32.773Z</time></trkpt><trkpt lat="44.1222705" lon="10.3539422"><ele>786.0000000000001</ele><time>2026-04-04T11:26:37.784Z</time></trkpt><trkpt lat="44.1222209" lon="10.3540106"><ele>786.0</ele><time>2026-04-04T11:26:42.78Z</time></trkpt><trkpt lat="44.1221842" lon="10.3540881"><ele>785.2857142857143</ele><time>2026-04-04T11:26:47.771Z</time></trkpt><trkpt lat="44.1221407" lon="10.3541587"><ele>784.5714285714286</ele><time>2026-04-04T11:26:51.769Z</time></trkpt><trkpt lat="44.1220952" lon="10.354226"><ele>783.8571428571429</ele><time>2026-04-04T11:26:56.769Z</time></trkpt><trkpt lat="44.1220509" lon="10.3542991"><ele>783.1428571428571</ele><time>2026-04-04T11:27:01.782Z</time></trkpt><trkpt lat="44.1219948" lon="10.3543584"><ele>782.4285714285714</ele><time>2026-04-04T11:27:06.779Z</time></trkpt><trkpt lat="44.1219427" lon="10.3544477"><ele>781.7142857142858</ele><time>2026-04-04T11:27:11.77Z</time></trkpt><trkpt lat="44.1218994" lon="10.3545245"><ele>781.0</ele><time>2026-04-04T11:27:15.774Z</time></trkpt><trkpt lat="44.1218446" lon="10.3545879"><ele>781.0</ele><time>2026-04-04T11:27:20.771Z</time></trkpt><trkpt lat="44.1217944" lon="10.3546493"><ele>781.0</ele><time>2026-04-04T11:27:24.778Z</time></trkpt><trkpt lat="44.1217439" lon="10.3547158"><ele>781.0</ele><time>2026-04-04T11:27:29.776Z</time></trkpt><trkpt lat="44.1217035" lon="10.3547919"><ele>781.0</ele><time>2026-04-04T11:27:34.791Z</time></trkpt><trkpt lat="44.1216523" lon="10.3548673"><ele>781.0</ele><time>2026-04-04T11:27:38.768Z</time></trkpt><trkpt lat="44.1215991" lon="10.3549198"><ele>781.0</ele><time>2026-04-04T11:27:42.773Z</time></trkpt><trkpt lat="44.1215505" lon="10.3549871"><ele>781.0</ele><time>2026-04-04T11:27:47.779Z</time></trkpt><trkpt lat="44.1214902" lon="10.355051"><ele>784.0</ele><time>2026-04-04T11:27:52.78Z</time></trkpt><trkpt lat="44.1214407" lon="10.3551235"><ele>787.0</ele><time>2026-04-04T11:27:57.801Z</time></trkpt><trkpt lat="44.1213785" lon="10.3551766"><ele>790.0</ele><time>2026-04-04T11:28:02.778Z</time></trkpt><trkpt lat="44.1213137" lon="10.3552027"><ele>793.0</ele><time>2026-04-04T11:28:07.791Z</time></trkpt><trkpt lat="44.1212485" lon="10.355199"><ele>796.0</ele><time>2026-04-04T11:28:12.774Z</time></trkpt><trkpt lat="44.1211862" lon="10.3551661"><ele>799.0</ele><time>2026-04-04T11:28:16.792Z</time></trkpt><trkpt lat="44.1211239" lon="10.3551211"><ele>802.0</ele><time>2026-04-04T11:28:20.777Z</time></trkpt><trkpt lat="44.1210588" lon="10.3550996"><ele>802.0</ele><time>2026-04-04T11:28:24.767Z</time></trkpt><trkpt lat="44.1209959" lon="10.3550917"><ele>802.0</ele><time>2026-04-04T11:28:28.77Z</time></trkpt><trkpt lat="44.1209275" lon="10.3551031"><ele>802.0</ele><time>2026-04-04T11:28:33.781Z</time></trkpt><trkpt lat="44.120858" lon="10.3551101"><ele>802.0</ele><time>2026-04-04T11:28:38.779Z</time></trkpt><trkpt lat="44.120799" lon="10.3551478"><ele>802.0</ele><time>2026-04-04T11:28:42.766Z</time></trkpt><trkpt lat="44.1207454" lon="10.355198"><ele>802.0</ele><time>2026-04-04T11:28:46.787Z</time></trkpt><trkpt lat="44.1206945" lon="10.3552819"><ele>802.0</ele><time>2026-04-04T11:28:50.775Z</time></trkpt><trkpt lat="44.1206425" lon="10.3553657"><ele>801.8571428571429</ele><time>2026-04-04T11:28:53.767Z</time></trkpt><trkpt lat="44.1206118" lon="10.355444"><ele>801.7142857142858</ele><time>2026-04-04T11:28:56.772Z</time></trkpt><trkpt lat="44.1205686" lon="10.3555398"><ele>801.5714285714286</ele><time>2026-04-04T11:29:00.773Z</time></trkpt><trkpt lat="44.1205184" lon="10.3556271"><ele>801.4285714285714</ele><time>2026-04-04T11:29:05.781Z</time></trkpt><trkpt lat="44.1204684" lon="10.3556815"><ele>801.2857142857142</ele><time>2026-04-04T11:29:09.778Z</time></trkpt><trkpt lat="44.1204138" lon="10.3557501"><ele>801.1428571428571</ele><time>2026-04-04T11:31:31.777Z</time></trkpt><trkpt lat="44.1203511" lon="10.3558144"><ele>801.0</ele><time>2026-04-04T11:31:36.8Z</time></trkpt><trkpt lat="44.1203031" lon="10.3558913"><ele>801.0</ele><time>2026-04-04T11:31:40.764Z</time></trkpt><trkpt lat="44.1202467" lon="10.3559357"><ele>801.0</ele><time>2026-04-04T11:31:44.788Z</time></trkpt><trkpt lat="44.1201757" lon="10.3559669"><ele>801.0</ele><time>2026-04-04T11:31:48.779Z</time></trkpt><trkpt lat="44.1201063" lon="10.3559929"><ele>801.0</ele><time>2026-04-04T11:31:52.798Z</time></trkpt><trkpt lat="44.1200336" lon="10.3560268"><ele>801.0</ele><time>2026-04-04T11:31:56.786Z</time></trkpt><trkpt lat="44.1199605" lon="10.3560489"><ele>801.0</ele><time>2026-04-04T11:32:00.777Z</time></trkpt><trkpt lat="44.1198852" lon="10.3560499"><ele>801.0</ele><time>2026-04-04T11:32:04.787Z</time></trkpt><trkpt lat="44.1198148" lon="10.3560569"><ele>799.8571428571429</ele><time>2026-04-04T11:32:08.769Z</time></trkpt><trkpt lat="44.1197417" lon="10.3560717"><ele>798.7142857142857</ele><time>2026-04-04T11:32:13.769Z</time></trkpt><trkpt lat="44.1196702" lon="10.3560795"><ele>797.5714285714287</ele><time>2026-04-04T11:32:17.791Z</time></trkpt><trkpt lat="44.1195925" lon="10.356081"><ele>796.4285714285714</ele><time>2026-04-04T11:32:21.781Z</time></trkpt><trkpt lat="44.119525" lon="10.3560753"><ele>795.2857142857143</ele><time>2026-04-04T11:32:25.777Z</time></trkpt><trkpt lat="44.1194645" lon="10.356039"><ele>794.1428571428572</ele><time>2026-04-04T11:32:29.776Z</time></trkpt><trkpt lat="44.1194303" lon="10.355964"><ele>793.0</ele><time>2026-04-04T11:32:33.776Z</time></trkpt><trkpt lat="44.1194009" lon="10.3558844"><ele>793.0000000000001</ele><time>2026-04-04T11:32:37.775Z</time></trkpt><trkpt lat="44.1193829" lon="10.3557947"><ele>793.0</ele><time>2026-04-04T11:32:41.783Z</time></trkpt><trkpt lat="44.1193772" lon="10.3557002"><ele>793.0</ele><time>2026-04-04T11:32:45.772Z</time></trkpt><trkpt lat="44.1193784" lon="10.3556023"><ele>793.0</ele><time>2026-04-04T11:32:49.777Z</time></trkpt><trkpt lat="44.119381" lon="10.355504"><ele>793.0</ele><time>2026-04-04T11:32:53.775Z</time></trkpt><trkpt lat="44.119365" lon="10.3554113"><ele>793.0000000000001</ele><time>2026-04-04T11:32:57.765Z</time></trkpt><trkpt lat="44.1193459" lon="10.3552955"><ele>793.0</ele><time>2026-04-04T11:33:01.766Z</time></trkpt><trkpt lat="44.1193031" lon="10.3552045"><ele>793.4285714285714</ele><time>2026-04-04T11:33:06.765Z</time></trkpt><trkpt lat="44.119259" lon="10.355131"><ele>793.8571428571429</ele><time>2026-04-04T11:33:10.772Z</time></trkpt><trkpt lat="44.119208" lon="10.3550742"><ele>794.2857142857142</ele><time>2026-04-04T11:33:14.773Z</time></trkpt><trkpt lat="44.1191456" lon="10.3550381"><ele>794.7142857142858</ele><time>2026-04-04T11:33:18.772Z</time></trkpt><trkpt lat="44.1190787" lon="10.3549728"><ele>795.1428571428571</ele><time>2026-04-04T11:33:22.777Z</time></trkpt><trkpt lat="44.1190214" lon="10.3549281"><ele>795.5714285714286</ele><time>2026-04-04T11:33:25.786Z</time></trkpt><trkpt lat="44.1189537" lon="10.3548783"><ele>796.0</ele><time>2026-04-04T11:33:28.766Z</time></trkpt><trkpt lat="44.1188896" lon="10.3548094"><ele>795.9999999999999</ele><time>2026-04-04T11:33:32.773Z</time></trkpt><trkpt lat="44.1188205" lon="10.3547345"><ele>796.0</ele><time>2026-04-04T11:33:35.768Z</time></trkpt><trkpt lat="44.1187488" lon="10.3546726"><ele>796.0</ele><time>2026-04-04T11:33:38.783Z</time></trkpt><trkpt lat="44.118676" lon="10.3546076"><ele>796.0</ele><time>2026-04-04T11:33:41.763Z</time></trkpt><trkpt lat="44.1186142" lon="10.3545687"><ele>795.9999999999999</ele><time>2026-04-04T11:33:43.781Z</time></trkpt><trkpt lat="44.1185401" lon="10.3545319"><ele>796.0</ele><time>2026-04-04T11:33:45.782Z</time></trkpt><trkpt lat="44.1184578" lon="10.3544837"><ele>797.1666666666666</ele><time>2026-04-04T11:33:48.794Z</time></trkpt><trkpt lat="44.1183859" lon="10.3544687"><ele>798.3333333333333</ele><time>2026-04-04T11:33:50.775Z</time></trkpt><trkpt lat="44.1183175" lon="10.3544441"><ele>799.5</ele><time>2026-04-04T11:33:52.771Z</time></trkpt><trkpt lat="44.1182453" lon="10.3543923"><ele>800.6666666666667</ele><time>2026-04-04T11:33:54.787Z</time></trkpt><trkpt lat="44.1181795" lon="10.3543157"><ele>801.8333333333334</ele><time>2026-04-04T11:33:56.767Z</time></trkpt><trkpt lat="44.1180957" lon="10.354289"><ele>803.0</ele><time>2026-04-04T11:33:58.781Z</time></trkpt><trkpt lat="44.1180076" lon="10.3542541"><ele>803.0000000000001</ele><time>2026-04-04T11:34:01.785Z</time></trkpt><trkpt lat="44.1179478" lon="10.3541867"><ele>803.0</ele><time>2026-04-04T11:34:04.78Z</time></trkpt><trkpt lat="44.1178858" lon="10.3540762"><ele>803.0</ele><time>2026-04-04T11:34:07.775Z</time></trkpt><trkpt lat="44.1178203" lon="10.3540295"><ele>803.0</ele><time>2026-04-04T11:34:09.771Z</time></trkpt><trkpt lat="44.1177366" lon="10.3540207"><ele>803.0000000000001</ele><time>2026-04-04T11:34:12.772Z</time></trkpt><trkpt lat="44.1176545" lon="10.3539819"><ele>803.0</ele><time>2026-04-04T11:34:15.779Z</time></trkpt><trkpt lat="44.1175971" lon="10.3539357"><ele>803.0000000000001</ele><time>2026-04-04T11:34:17.776Z</time></trkpt><trkpt lat="44.1175376" lon="10.353886"><ele>803.0</ele><time>2026-04-04T11:34:19.78Z</time></trkpt><trkpt lat="44.1174568" lon="10.3538525"><ele>803.0</ele><time>2026-04-04T11:34:21.775Z</time></trkpt><trkpt lat="44.1173836" lon="10.3538575"><ele>803.0</ele><time>2026-04-04T11:34:23.775Z</time></trkpt><trkpt lat="44.1172986" lon="10.3538624"><ele>803.0000000000001</ele><time>2026-04-04T11:34:26.781Z</time></trkpt><trkpt lat="44.1172135" lon="10.3538669"><ele>803.0</ele><time>2026-04-04T11:34:30.77Z</time></trkpt><trkpt lat="44.1171511" lon="10.3538854"><ele>803.5714285714286</ele><time>2026-04-04T11:34:33.773Z</time></trkpt><trkpt lat="44.1170835" lon="10.3538915"><ele>804.1428571428571</ele><time>2026-04-04T11:34:36.78Z</time></trkpt><trkpt lat="44.1170162" lon="10.3538934"><ele>804.7142857142858</ele><time>2026-04-04T11:34:39.767Z</time></trkpt><trkpt lat="44.1169488" lon="10.3538829"><ele>805.2857142857142</ele><time>2026-04-04T11:34:42.776Z</time></trkpt><trkpt lat="44.1168846" lon="10.3538692"><ele>805.8571428571429</ele><time>2026-04-04T11:34:45.785Z</time></trkpt><trkpt lat="44.1168022" lon="10.353868"><ele>806.4285714285714</ele><time>2026-04-04T11:34:48.779Z</time></trkpt><trkpt lat="44.1167326" lon="10.3538521"><ele>807.0</ele><time>2026-04-04T11:34:51.778Z</time></trkpt><trkpt lat="44.1166581" lon="10.3538242"><ele>810.7142857142858</ele><time>2026-04-04T11:34:54.774Z</time></trkpt><trkpt lat="44.1165887" lon="10.3538156"><ele>814.4285714285714</ele><time>2026-04-04T11:34:57.778Z</time></trkpt><trkpt lat="44.1165224" lon="10.3538154"><ele>818.1428571428571</ele><time>2026-04-04T11:35:00.769Z</time></trkpt><trkpt lat="44.1164753" lon="10.353879"><ele>821.8571428571429</ele><time>2026-04-04T11:35:04.777Z</time></trkpt><trkpt lat="44.1164681" lon="10.3539998"><ele>825.5714285714286</ele><time>2026-04-04T11:35:08.772Z</time></trkpt><trkpt lat="44.1164755" lon="10.3540989"><ele>829.2857142857143</ele><time>2026-04-04T11:35:11.775Z</time></trkpt><trkpt lat="44.116496" lon="10.354184"><ele>833.0</ele><time>2026-04-04T11:35:14.77Z</time></trkpt><trkpt lat="44.1165368" lon="10.3542827"><ele>832.7142857142857</ele><time>2026-04-04T11:35:18.773Z</time></trkpt><trkpt lat="44.116564" lon="10.3543723"><ele>832.4285714285714</ele><time>2026-04-04T11:35:21.796Z</time></trkpt><trkpt lat="44.1165688" lon="10.3544703"><ele>832.1428571428571</ele><time>2026-04-04T11:35:25.771Z</time></trkpt><trkpt lat="44.1165428" lon="10.3545508"><ele>831.8571428571429</ele><time>2026-04-04T11:35:29.774Z</time></trkpt><trkpt lat="44.1165216" lon="10.3546417"><ele>831.5714285714286</ele><time>2026-04-04T11:35:33.776Z</time></trkpt><trkpt lat="44.1165053" lon="10.3547467"><ele>831.2857142857142</ele><time>2026-04-04T11:35:37.773Z</time></trkpt><trkpt lat="44.1164819" lon="10.354845"><ele>831.0</ele><time>2026-04-04T11:35:41.774Z</time></trkpt><trkpt lat="44.1164641" lon="10.3549485"><ele>830.9999999999999</ele><time>2026-04-04T11:35:45.769Z</time></trkpt><trkpt lat="44.1164359" lon="10.3550382"><ele>831.0</ele><time>2026-04-04T11:35:49.773Z</time></trkpt><trkpt lat="44.1164101" lon="10.3551213"><ele>831.0</ele><time>2026-04-04T11:35:53.79Z</time></trkpt><trkpt lat="44.1163732" lon="10.3551977"><ele>831.0</ele><time>2026-04-04T11:35:56.773Z</time></trkpt><trkpt lat="44.1163223" lon="10.3552767"><ele>831.0</ele><time>2026-04-04T11:36:00.77Z</time></trkpt><trkpt lat="44.1162709" lon="10.3553508"><ele>830.9999999999999</ele><time>2026-04-04T11:36:04.779Z</time></trkpt><trkpt lat="44.1162312" lon="10.3554311"><ele>831.0</ele><time>2026-04-04T11:36:08.763Z</time></trkpt><trkpt lat="44.1161892" lon="10.3555127"><ele>829.9999999999999</ele><time>2026-04-04T11:36:12.777Z</time></trkpt><trkpt lat="44.1161498" lon="10.3556012"><ele>829.0</ele><time>2026-04-04T11:36:16.788Z</time></trkpt><trkpt lat="44.1161176" lon="10.3556942"><ele>828.0</ele><time>2026-04-04T11:36:20.772Z</time></trkpt><trkpt lat="44.11609" lon="10.3557736"><ele>827.0</ele><time>2026-04-04T11:36:23.775Z</time></trkpt><trkpt lat="44.1160681" lon="10.3558581"><ele>826.0</ele><time>2026-04-04T11:36:26.773Z</time></trkpt><trkpt lat="44.1160327" lon="10.3559466"><ele>824.9999999999999</ele><time>2026-04-04T11:36:31.772Z</time></trkpt><trkpt lat="44.1159814" lon="10.3560158"><ele>824.0</ele><time>2026-04-04T11:36:35.777Z</time></trkpt><trkpt lat="44.1159101" lon="10.3560583"><ele>823.9999999999999</ele><time>2026-04-04T11:36:39.774Z</time></trkpt><trkpt lat="44.1158358" lon="10.3560684"><ele>824.0</ele><time>2026-04-04T11:36:43.765Z</time></trkpt><trkpt lat="44.1157648" lon="10.356109"><ele>824.0</ele><time>2026-04-04T11:36:47.763Z</time></trkpt><trkpt lat="44.1157434" lon="10.3561975"><ele>824.0</ele><time>2026-04-04T11:36:51.78Z</time></trkpt><trkpt lat="44.1157602" lon="10.3563045"><ele>824.0</ele><time>2026-04-04T11:36:55.774Z</time></trkpt><trkpt lat="44.1157801" lon="10.3563937"><ele>823.9999999999999</ele><time>2026-04-04T11:36:58.77Z</time></trkpt><trkpt lat="44.1157938" lon="10.3564807"><ele>824.0</ele><time>2026-04-04T11:37:01.77Z</time></trkpt><trkpt lat="44.1157867" lon="10.3565846"><ele>821.8571428571428</ele><time>2026-04-04T11:37:05.776Z</time></trkpt><trkpt lat="44.1157416" lon="10.3566769"><ele>819.7142857142857</ele><time>2026-04-04T11:37:09.774Z</time></trkpt><trkpt lat="44.1156953" lon="10.3567446"><ele>817.5714285714286</ele><time>2026-04-04T11:37:13.779Z</time></trkpt><trkpt lat="44.1156438" lon="10.3568259"><ele>815.4285714285713</ele><time>2026-04-04T11:37:17.761Z</time></trkpt><trkpt lat="44.1155902" lon="10.3568848"><ele>813.2857142857143</ele><time>2026-04-04T11:37:21.78Z</time></trkpt><trkpt lat="44.1155317" lon="10.3569702"><ele>811.1428571428571</ele><time>2026-04-04T11:37:25.774Z</time></trkpt><trkpt lat="44.1154924" lon="10.3570397"><ele>809.0</ele><time>2026-04-04T11:37:28.776Z</time></trkpt><trkpt lat="44.1154574" lon="10.3571285"><ele>814.0000000000001</ele><time>2026-04-04T11:37:32.774Z</time></trkpt><trkpt lat="44.1154276" lon="10.3572186"><ele>819.0</ele><time>2026-04-04T11:37:36.776Z</time></trkpt><trkpt lat="44.1154066" lon="10.3573251"><ele>824.0</ele><time>2026-04-04T11:37:40.774Z</time></trkpt><trkpt lat="44.1153902" lon="10.3574252"><ele>829.0</ele><time>2026-04-04T11:37:45.768Z</time></trkpt><trkpt lat="44.1153724" lon="10.3575365"><ele>834.0000000000001</ele><time>2026-04-04T11:37:49.788Z</time></trkpt><trkpt lat="44.1153605" lon="10.3576241"><ele>839.0</ele><time>2026-04-04T11:37:52.777Z</time></trkpt><trkpt lat="44.1153563" lon="10.357739"><ele>839.0000000000001</ele><time>2026-04-04T11:37:56.774Z</time></trkpt><trkpt lat="44.115357" lon="10.3578494"><ele>839.0</ele><time>2026-04-04T11:38:00.779Z</time></trkpt><trkpt lat="44.115358" lon="10.3579457"><ele>839.0</ele><time>2026-04-04T11:38:03.771Z</time></trkpt><trkpt lat="44.1153611" lon="10.3580531"><ele>839.0</ele><time>2026-04-04T11:38:07.772Z</time></trkpt><trkpt lat="44.1153588" lon="10.3581742"><ele>839.0000000000001</ele><time>2026-04-04T11:38:11.765Z</time></trkpt><trkpt lat="44.1153574" lon="10.3582686"><ele>839.0</ele><time>2026-04-04T11:38:14.773Z</time></trkpt><trkpt lat="44.1153543" lon="10.3583777"><ele>839.0000000000001</ele><time>2026-04-04T11:38:18.776Z</time></trkpt><trkpt lat="44.1153286" lon="10.3584709"><ele>839.0</ele><time>2026-04-04T11:38:23.772Z</time></trkpt><trkpt lat="44.1153226" lon="10.3585592"><ele>839.0</ele><time>2026-04-04T11:38:26.77Z</time></trkpt><trkpt lat="44.1154088" lon="10.3586465"><ele>839.0</ele><time>2026-04-04T11:38:29.776Z</time></trkpt><trkpt lat="44.1154826" lon="10.3586929"><ele>839.0000000000001</ele><time>2026-04-04T11:38:30.772Z</time></trkpt><trkpt lat="44.1155458" lon="10.3587275"><ele>839.0</ele><time>2026-04-04T11:38:31.779Z</time></trkpt><trkpt lat="44.115651" lon="10.3588106"><ele>839.0000000000001</ele><time>2026-04-04T11:38:33.777Z</time></trkpt><trkpt lat="44.1157204" lon="10.3589001"><ele>839.0</ele><time>2026-04-04T11:38:35.775Z</time></trkpt><trkpt lat="44.1158009" lon="10.3589229"><ele>839.0</ele><time>2026-04-04T11:38:37.766Z</time></trkpt><trkpt lat="44.1159037" lon="10.3589082"><ele>839.0</ele><time>2026-04-04T11:38:39.767Z</time></trkpt><trkpt lat="44.1159679" lon="10.358897"><ele>839.0000000000001</ele><time>2026-04-04T11:38:40.768Z</time></trkpt><trkpt lat="44.1160364" lon="10.3588888"><ele>839.0</ele><time>2026-04-04T11:38:41.777Z</time></trkpt><trkpt lat="44.1161117" lon="10.3588905"><ele>834.6</ele><time>2026-04-04T11:38:42.778Z</time></trkpt><trkpt lat="44.1161925" lon="10.3588971"><ele>830.2</ele><time>2026-04-04T11:38:43.771Z</time></trkpt><trkpt lat="44.116278" lon="10.3589188"><ele>825.8000000000001</ele><time>2026-04-04T11:38:44.771Z</time></trkpt><trkpt lat="44.1163654" lon="10.3589575"><ele>821.4000000000001</ele><time>2026-04-04T11:38:45.772Z</time></trkpt><trkpt lat="44.1164524" lon="10.3590111"><ele>817.0</ele><time>2026-04-04T11:38:46.767Z</time></trkpt><trkpt lat="44.1165431" lon="10.3590635"><ele>813.4000000000001</ele><time>2026-04-04T11:38:47.776Z</time></trkpt><trkpt lat="44.1166373" lon="10.3591154"><ele>809.8000000000001</ele><time>2026-04-04T11:38:48.77Z</time></trkpt><trkpt lat="44.1167366" lon="10.3591673"><ele>806.2</ele><time>2026-04-04T11:38:49.775Z</time></trkpt><trkpt lat="44.1168381" lon="10.3592084"><ele>802.6</ele><time>2026-04-04T11:38:50.789Z</time></trkpt><trkpt lat="44.1169431" lon="10.359254"><ele>799.0</ele><time>2026-04-04T11:38:51.775Z</time></trkpt><trkpt lat="44.1170294" lon="10.3592951"><ele>799.0</ele><time>2026-04-04T11:38:52.781Z</time></trkpt><trkpt lat="44.1171099" lon="10.3593227"><ele>799.0</ele><time>2026-04-04T11:38:53.771Z</time></trkpt><trkpt lat="44.1171817" lon="10.3593385"><ele>799.0</ele><time>2026-04-04T11:38:54.77Z</time></trkpt><trkpt lat="44.1172489" lon="10.3593613"><ele>799.0</ele><time>2026-04-04T11:38:55.774Z</time></trkpt><trkpt lat="44.1173094" lon="10.359401"><ele>799.0</ele><time>2026-04-04T11:38:56.77Z</time></trkpt><trkpt lat="44.1173671" lon="10.359457"><ele>799.0</ele><time>2026-04-04T11:38:57.78Z</time></trkpt><trkpt lat="44.1174099" lon="10.3595236"><ele>799.0</ele><time>2026-04-04T11:38:58.773Z</time></trkpt><trkpt lat="44.1174526" lon="10.3595957"><ele>798.9999999999999</ele><time>2026-04-04T11:38:59.773Z</time></trkpt><trkpt lat="44.1174724" lon="10.3597594"><ele>799.0</ele><time>2026-04-04T11:39:01.769Z</time></trkpt><trkpt lat="44.1174308" lon="10.3599077"><ele>799.0</ele><time>2026-04-04T11:39:03.781Z</time></trkpt><trkpt lat="44.1173789" lon="10.3599654"><ele>799.0</ele><time>2026-04-04T11:39:04.777Z</time></trkpt><trkpt lat="44.1173207" lon="10.3600155"><ele>798.9999999999999</ele><time>2026-04-04T11:39:05.778Z</time></trkpt><trkpt lat="44.1172413" lon="10.3600209"><ele>799.0</ele><time>2026-04-04T11:39:06.776Z</time></trkpt><trkpt lat="44.1171566" lon="10.3600178"><ele>798.9999999999999</ele><time>2026-04-04T11:39:07.772Z</time></trkpt><trkpt lat="44.1170704" lon="10.3600073"><ele>799.0</ele><time>2026-04-04T11:39:08.788Z</time></trkpt><trkpt lat="44.1169758" lon="10.3599963"><ele>799.0</ele><time>2026-04-04T11:39:09.769Z</time></trkpt><trkpt lat="44.1168835" lon="10.3599771"><ele>799.0</ele><time>2026-04-04T11:39:10.771Z</time></trkpt><trkpt lat="44.1168012" lon="10.3599599"><ele>798.9999999999999</ele><time>2026-04-04T11:39:11.772Z</time></trkpt><trkpt lat="44.1167316" lon="10.3599526"><ele>799.0</ele><time>2026-04-04T11:39:12.774Z</time></trkpt><trkpt lat="44.1166329" lon="10.3600299"><ele>799.0</ele><time>2026-04-04T11:39:14.77Z</time></trkpt><trkpt lat="44.1166386" lon="10.3601924"><ele>799.0</ele><time>2026-04-04T11:39:16.768Z</time></trkpt><trkpt lat="44.1167153" lon="10.36033"><ele>799.0</ele><time>2026-04-04T11:39:18.78Z</time></trkpt><trkpt lat="44.1167602" lon="10.3604221"><ele>799.0</ele><time>2026-04-04T11:39:19.769Z</time></trkpt><trkpt lat="44.116786" lon="10.3605216"><ele>799.0</ele><time>2026-04-04T11:39:20.776Z</time></trkpt><trkpt lat="44.1167973" lon="10.3606439"><ele>797.3333333333333</ele><time>2026-04-04T11:39:21.779Z</time></trkpt><trkpt lat="44.116818" lon="10.3607691"><ele>795.6666666666666</ele><time>2026-04-04T11:39:22.782Z</time></trkpt><trkpt lat="44.1168155" lon="10.3609008"><ele>794.0</ele><time>2026-04-04T11:39:23.769Z</time></trkpt><trkpt lat="44.1167814" lon="10.3610129"><ele>792.3333333333333</ele><time>2026-04-04T11:39:24.766Z</time></trkpt><trkpt lat="44.1167259" lon="10.3610997"><ele>790.6666666666666</ele><time>2026-04-04T11:39:25.774Z</time></trkpt><trkpt lat="44.1166658" lon="10.3611634"><ele>789.0</ele><time>2026-04-04T11:39:26.776Z</time></trkpt><trkpt lat="44.1165709" lon="10.3611999"><ele>791.8000000000001</ele><time>2026-04-04T11:39:27.768Z</time></trkpt><trkpt lat="44.116494" lon="10.3612263"><ele>794.6</ele><time>2026-04-04T11:39:28.774Z</time></trkpt><trkpt lat="44.1164035" lon="10.3612626"><ele>797.4</ele><time>2026-04-04T11:39:29.779Z</time></trkpt><trkpt lat="44.1163075" lon="10.3613044"><ele>800.2</ele><time>2026-04-04T11:39:30.781Z</time></trkpt><trkpt lat="44.1162141" lon="10.3613468"><ele>803.0</ele><time>2026-04-04T11:39:31.775Z</time></trkpt><trkpt lat="44.1161141" lon="10.3613769"><ele>797.5999999999999</ele><time>2026-04-04T11:39:32.774Z</time></trkpt><trkpt lat="44.1160074" lon="10.3614121"><ele>792.1999999999999</ele><time>2026-04-04T11:39:33.772Z</time></trkpt><trkpt lat="44.1158994" lon="10.361447"><ele>786.8</ele><time>2026-04-04T11:39:34.768Z</time></trkpt><trkpt lat="44.1157949" lon="10.3614849"><ele>781.4</ele><time>2026-04-04T11:39:35.794Z</time></trkpt><trkpt lat="44.1156897" lon="10.3615122"><ele>776.0</ele><time>2026-04-04T11:39:36.773Z</time></trkpt><trkpt lat="44.1155801" lon="10.3615413"><ele>776.0000000000001</ele><time>2026-04-04T11:39:37.772Z</time></trkpt><trkpt lat="44.1154767" lon="10.36158"><ele>776.0</ele><time>2026-04-04T11:39:38.772Z</time></trkpt><trkpt lat="44.1153785" lon="10.3616193"><ele>776.0</ele><time>2026-04-04T11:39:39.775Z</time></trkpt><trkpt lat="44.115294" lon="10.3616516"><ele>776.0</ele><time>2026-04-04T11:39:40.768Z</time></trkpt><trkpt lat="44.1152194" lon="10.3616759"><ele>776.0000000000001</ele><time>2026-04-04T11:39:41.771Z</time></trkpt><trkpt lat="44.1151535" lon="10.361704"><ele>776.0</ele><time>2026-04-04T11:39:42.778Z</time></trkpt><trkpt lat="44.1150863" lon="10.3617197"><ele>776.0000000000001</ele><time>2026-04-04T11:39:43.778Z</time></trkpt><trkpt lat="44.1150139" lon="10.3617113"><ele>776.0</ele><time>2026-04-04T11:39:44.77Z</time></trkpt><trkpt lat="44.1149377" lon="10.3616977"><ele>776.0</ele><time>2026-04-04T11:39:45.768Z</time></trkpt><trkpt lat="44.1148703" lon="10.3616645"><ele>776.0</ele><time>2026-04-04T11:39:46.783Z</time></trkpt><trkpt lat="44.1147685" lon="10.3616498"><ele>776.0000000000001</ele><time>2026-04-04T11:39:48.779Z</time></trkpt><trkpt lat="44.1147148" lon="10.3617102"><ele>776.0</ele><time>2026-04-04T11:39:50.763Z</time></trkpt><trkpt lat="44.1146907" lon="10.3618086"><ele>775.0</ele><time>2026-04-04T11:39:52.775Z</time></trkpt><trkpt lat="44.1146735" lon="10.361911"><ele>774.0</ele><time>2026-04-04T11:39:54.773Z</time></trkpt><trkpt lat="44.1146565" lon="10.3620077"><ele>773.0</ele><time>2026-04-04T11:39:56.782Z</time></trkpt><trkpt lat="44.1146479" lon="10.3621101"><ele>772.0</ele><time>2026-04-04T11:39:58.769Z</time></trkpt><trkpt lat="44.1146304" lon="10.3622031"><ele>771.0</ele><time>2026-04-04T11:40:00.767Z</time></trkpt><trkpt lat="44.1145925" lon="10.3622935"><ele>770.0</ele><time>2026-04-04T11:40:02.769Z</time></trkpt><trkpt lat="44.1145296" lon="10.3623699"><ele>769.0</ele><time>2026-04-04T11:40:04.773Z</time></trkpt><trkpt lat="44.1144301" lon="10.3624437"><ele>769.0</ele><time>2026-04-04T11:40:06.766Z</time></trkpt><trkpt lat="44.1143247" lon="10.3624793"><ele>769.0</ele><time>2026-04-04T11:40:08.77Z</time></trkpt><trkpt lat="44.1142026" lon="10.3625234"><ele>769.0</ele><time>2026-04-04T11:40:10.767Z</time></trkpt><trkpt lat="44.1141395" lon="10.3625518"><ele>769.0</ele><time>2026-04-04T11:40:11.764Z</time></trkpt><trkpt lat="44.1140688" lon="10.3625787"><ele>769.0</ele><time>2026-04-04T11:40:12.77Z</time></trkpt><trkpt lat="44.1139956" lon="10.3626113"><ele>769.2857142857142</ele><time>2026-04-04T11:40:13.774Z</time></trkpt><trkpt lat="44.1139193" lon="10.3626377"><ele>769.5714285714287</ele><time>2026-04-04T11:40:14.785Z</time></trkpt><trkpt lat="44.1138446" lon="10.3626709"><ele>769.8571428571429</ele><time>2026-04-04T11:40:15.771Z</time></trkpt><trkpt lat="44.1137767" lon="10.3627081"><ele>770.1428571428571</ele><time>2026-04-04T11:40:16.777Z</time></trkpt><trkpt lat="44.1137298" lon="10.3627675"><ele>770.4285714285713</ele><time>2026-04-04T11:40:17.77Z</time></trkpt><trkpt lat="44.1137061" lon="10.3628524"><ele>770.7142857142858</ele><time>2026-04-04T11:40:18.771Z</time></trkpt><trkpt lat="44.1137132" lon="10.3629443"><ele>771.0</ele><time>2026-04-04T11:40:19.782Z</time></trkpt><trkpt lat="44.1137387" lon="10.3630369"><ele>771.0</ele><time>2026-04-04T11:40:20.79Z</time></trkpt><trkpt lat="44.1137733" lon="10.3631222"><ele>771.0</ele><time>2026-04-04T11:40:21.783Z</time></trkpt><trkpt lat="44.1137953" lon="10.3632245"><ele>771.0</ele><time>2026-04-04T11:40:22.77Z</time></trkpt><trkpt lat="44.1138139" lon="10.3633293"><ele>771.0</ele><time>2026-04-04T11:40:23.783Z</time></trkpt><trkpt lat="44.1138189" lon="10.3634285"><ele>771.0</ele><time>2026-04-04T11:40:24.763Z</time></trkpt><trkpt lat="44.1138073" lon="10.3635272"><ele>771.0</ele><time>2026-04-04T11:40:25.777Z</time></trkpt><trkpt lat="44.1137695" lon="10.3636115"><ele>771.0</ele><time>2026-04-04T11:40:26.772Z</time></trkpt><trkpt lat="44.1137183" lon="10.3636902"><ele>771.0</ele><time>2026-04-04T11:40:27.769Z</time></trkpt><trkpt lat="44.1136435" lon="10.3637689"><ele>771.0</ele><time>2026-04-04T11:40:28.766Z</time></trkpt><trkpt lat="44.1135783" lon="10.363863"><ele>771.0</ele><time>2026-04-04T11:40:29.78Z</time></trkpt><trkpt lat="44.1135226" lon="10.3639662"><ele>771.0</ele><time>2026-04-04T11:40:30.767Z</time></trkpt><trkpt lat="44.1134693" lon="10.3640772"><ele>771.0</ele><time>2026-04-04T11:40:31.777Z</time></trkpt><trkpt lat="44.11342" lon="10.3642015"><ele>770.6666666666666</ele><time>2026-04-04T11:40:32.77Z</time></trkpt><trkpt lat="44.1133766" lon="10.3643251"><ele>770.3333333333333</ele><time>2026-04-04T11:40:33.78Z</time></trkpt><trkpt lat="44.1133395" lon="10.3644466"><ele>770.0</ele><time>2026-04-04T11:40:34.778Z</time></trkpt><trkpt lat="44.1133096" lon="10.3645635"><ele>769.6666666666666</ele><time>2026-04-04T11:40:35.782Z</time></trkpt><trkpt lat="44.1132756" lon="10.3646603"><ele>769.3333333333333</ele><time>2026-04-04T11:40:36.772Z</time></trkpt><trkpt lat="44.1132101" lon="10.3646729"><ele>769.0</ele><time>2026-04-04T11:40:37.787Z</time></trkpt><trkpt lat="44.1131143" lon="10.3646556"><ele>769.0</ele><time>2026-04-04T11:40:39.77Z</time></trkpt><trkpt lat="44.1130397" lon="10.3646058"><ele>769.0</ele><time>2026-04-04T11:40:41.771Z</time></trkpt><trkpt lat="44.1129736" lon="10.3645722"><ele>769.0</ele><time>2026-04-04T11:40:43.771Z</time></trkpt><trkpt lat="44.1128875" lon="10.3645619"><ele>769.0</ele><time>2026-04-04T11:40:46.775Z</time></trkpt><trkpt lat="44.1128209" lon="10.3645806"><ele>769.0</ele><time>2026-04-04T11:40:49.765Z</time></trkpt><trkpt lat="44.1127561" lon="10.3646007"><ele>769.0</ele><time>2026-04-04T11:40:52.776Z</time></trkpt><trkpt lat="44.1126894" lon="10.3646043"><ele>769.0</ele><time>2026-04-04T11:40:55.77Z</time></trkpt><trkpt lat="44.1126183" lon="10.3646141"><ele>769.0</ele><time>2026-04-04T11:40:58.768Z</time></trkpt><trkpt lat="44.1125434" lon="10.3646154"><ele>769.0</ele><time>2026-04-04T11:41:01.775Z</time></trkpt><trkpt lat="44.1124457" lon="10.3646071"><ele>769.0</ele><time>2026-04-04T11:41:04.767Z</time></trkpt><trkpt lat="44.1123492" lon="10.364608"><ele>769.0</ele><time>2026-04-04T11:41:06.783Z</time></trkpt><trkpt lat="44.1122311" lon="10.3646317"><ele>769.0</ele><time>2026-04-04T11:41:08.782Z</time></trkpt><trkpt lat="44.1121661" lon="10.3646457"><ele>768.1666666666666</ele><time>2026-04-04T11:41:09.777Z</time></trkpt><trkpt lat="44.1120932" lon="10.3646757"><ele>767.3333333333333</ele><time>2026-04-04T11:41:10.772Z</time></trkpt><trkpt lat="44.1120227" lon="10.3646986"><ele>766.5</ele><time>2026-04-04T11:41:11.776Z</time></trkpt><trkpt lat="44.1119389" lon="10.3646827"><ele>765.6666666666666</ele><time>2026-04-04T11:41:12.772Z</time></trkpt><trkpt lat="44.111858" lon="10.3646273"><ele>764.8333333333333</ele><time>2026-04-04T11:41:13.777Z</time></trkpt><trkpt lat="44.1117734" lon="10.3645882"><ele>764.0</ele><time>2026-04-04T11:41:14.775Z</time></trkpt><trkpt lat="44.111688" lon="10.3645444"><ele>764.0</ele><time>2026-04-04T11:41:15.776Z</time></trkpt><trkpt lat="44.1116057" lon="10.3644855"><ele>764.0</ele><time>2026-04-04T11:41:16.776Z</time></trkpt><trkpt lat="44.1115334" lon="10.3644034"><ele>764.0</ele><time>2026-04-04T11:41:17.774Z</time></trkpt><trkpt lat="44.1114676" lon="10.3643155"><ele>764.0</ele><time>2026-04-04T11:41:18.779Z</time></trkpt><trkpt lat="44.1114045" lon="10.3642341"><ele>764.0</ele><time>2026-04-04T11:41:19.779Z</time></trkpt><trkpt lat="44.1113386" lon="10.3641744"><ele>764.0</ele><time>2026-04-04T11:41:20.777Z</time></trkpt><trkpt lat="44.1112675" lon="10.3641544"><ele>764.8333333333333</ele><time>2026-04-04T11:41:21.781Z</time></trkpt><trkpt lat="44.1111977" lon="10.3641775"><ele>765.6666666666666</ele><time>2026-04-04T11:41:22.784Z</time></trkpt><trkpt lat="44.1111424" lon="10.3642375"><ele>766.5</ele><time>2026-04-04T11:41:23.767Z</time></trkpt><trkpt lat="44.1111135" lon="10.3643174"><ele>767.3333333333333</ele><time>2026-04-04T11:41:24.772Z</time></trkpt><trkpt lat="44.1111084" lon="10.364411"><ele>768.1666666666666</ele><time>2026-04-04T11:41:25.782Z</time></trkpt><trkpt lat="44.1110885" lon="10.3645779"><ele>769.0</ele><time>2026-04-04T11:41:27.775Z</time></trkpt><trkpt lat="44.1110645" lon="10.3647165"><ele>765.9999999999999</ele><time>2026-04-04T11:41:29.773Z</time></trkpt><trkpt lat="44.1110536" lon="10.3648123"><ele>763.0</ele><time>2026-04-04T11:41:30.777Z</time></trkpt><trkpt lat="44.1110465" lon="10.3649075"><ele>760.0</ele><time>2026-04-04T11:41:31.77Z</time></trkpt><trkpt lat="44.1110532" lon="10.3650103"><ele>757.0</ele><time>2026-04-04T11:41:32.785Z</time></trkpt><trkpt lat="44.1110721" lon="10.3651166"><ele>754.0</ele><time>2026-04-04T11:41:33.777Z</time></trkpt><trkpt lat="44.1110973" lon="10.3652388"><ele>751.0</ele><time>2026-04-04T11:41:34.78Z</time></trkpt><trkpt lat="44.1111269" lon="10.3653491"><ele>751.0000000000001</ele><time>2026-04-04T11:41:35.794Z</time></trkpt><trkpt lat="44.1111613" lon="10.3654361"><ele>751.0</ele><time>2026-04-04T11:41:36.78Z</time></trkpt><trkpt lat="44.1111905" lon="10.365524"><ele>751.0</ele><time>2026-04-04T11:41:37.778Z</time></trkpt><trkpt lat="44.1111586" lon="10.3656082"><ele>751.0</ele><time>2026-04-04T11:41:38.773Z</time></trkpt><trkpt lat="44.1111037" lon="10.3656732"><ele>751.0</ele><time>2026-04-04T11:41:39.775Z</time></trkpt><trkpt lat="44.1110416" lon="10.365699"><ele>751.0000000000001</ele><time>2026-04-04T11:41:40.774Z</time></trkpt><trkpt lat="44.1109632" lon="10.3657344"><ele>751.0</ele><time>2026-04-04T11:41:41.776Z</time></trkpt><trkpt lat="44.1109025" lon="10.3657751"><ele>748.8333333333334</ele><time>2026-04-04T11:41:42.769Z</time></trkpt><trkpt lat="44.1108659" lon="10.3658585"><ele>746.6666666666667</ele><time>2026-04-04T11:41:43.771Z</time></trkpt><trkpt lat="44.1108608" lon="10.3659577"><ele>744.5</ele><time>2026-04-04T11:41:44.777Z</time></trkpt><trkpt lat="44.1108802" lon="10.3660536"><ele>742.3333333333334</ele><time>2026-04-04T11:41:45.767Z</time></trkpt><trkpt lat="44.1109251" lon="10.3661486"><ele>740.1666666666666</ele><time>2026-04-04T11:41:46.779Z</time></trkpt><trkpt lat="44.1109702" lon="10.3662558"><ele>738.0</ele><time>2026-04-04T11:41:47.781Z</time></trkpt><trkpt lat="44.1110188" lon="10.3663643"><ele>737.5999999999999</ele><time>2026-04-04T11:41:48.774Z</time></trkpt><trkpt lat="44.1110586" lon="10.3664969"><ele>737.1999999999999</ele><time>2026-04-04T11:41:49.777Z</time></trkpt><trkpt lat="44.1110782" lon="10.36664"><ele>736.8</ele><time>2026-04-04T11:41:50.782Z</time></trkpt><trkpt lat="44.111094" lon="10.3668011"><ele>736.4</ele><time>2026-04-04T11:41:51.779Z</time></trkpt><trkpt lat="44.1111105" lon="10.3669635"><ele>736.0</ele><time>2026-04-04T11:41:52.777Z</time></trkpt><trkpt lat="44.1111326" lon="10.367134"><ele>735.0</ele><time>2026-04-04T11:41:53.778Z</time></trkpt><trkpt lat="44.1111555" lon="10.3673059"><ele>734.0</ele><time>2026-04-04T11:41:54.78Z</time></trkpt><trkpt lat="44.111182" lon="10.3674802"><ele>733.0</ele><time>2026-04-04T11:41:55.77Z</time></trkpt><trkpt lat="44.1112079" lon="10.3676277"><ele>732.0</ele><time>2026-04-04T11:41:56.774Z</time></trkpt><trkpt lat="44.111229" lon="10.3677467"><ele>732.0</ele><time>2026-04-04T11:41:57.765Z</time></trkpt><trkpt lat="44.1112451" lon="10.3678459"><ele>732.0</ele><time>2026-04-04T11:41:58.773Z</time></trkpt><trkpt lat="44.1112012" lon="10.3680105"><ele>732.0</ele><time>2026-04-04T11:42:00.779Z</time></trkpt><trkpt lat="44.1111462" lon="10.3680865"><ele>732.0</ele><time>2026-04-04T11:42:01.771Z</time></trkpt><trkpt lat="44.1110852" lon="10.3681632"><ele>732.0</ele><time>2026-04-04T11:42:02.774Z</time></trkpt><trkpt lat="44.1110198" lon="10.3682409"><ele>732.0</ele><time>2026-04-04T11:42:03.778Z</time></trkpt><trkpt lat="44.1109517" lon="10.3683325"><ele>729.6</ele><time>2026-04-04T11:42:04.779Z</time></trkpt><trkpt lat="44.1109036" lon="10.3684481"><ele>727.2</ele><time>2026-04-04T11:42:05.77Z</time></trkpt><trkpt lat="44.1108764" lon="10.3685901"><ele>724.8</ele><time>2026-04-04T11:42:06.782Z</time></trkpt><trkpt lat="44.1108715" lon="10.3687486"><ele>722.4</ele><time>2026-04-04T11:42:07.778Z</time></trkpt><trkpt lat="44.1108941" lon="10.3688996"><ele>720.0</ele><time>2026-04-04T11:42:08.778Z</time></trkpt><trkpt lat="44.1109141" lon="10.3690547"><ele>717.6</ele><time>2026-04-04T11:42:09.779Z</time></trkpt><trkpt lat="44.1109331" lon="10.3692153"><ele>715.2</ele><time>2026-04-04T11:42:10.782Z</time></trkpt><trkpt lat="44.1109539" lon="10.3693657"><ele>712.8</ele><time>2026-04-04T11:42:11.777Z</time></trkpt><trkpt lat="44.1109656" lon="10.3694841"><ele>710.4</ele><time>2026-04-04T11:42:12.776Z</time></trkpt><trkpt lat="44.1109644" lon="10.3696085"><ele>708.0</ele><time>2026-04-04T11:42:13.778Z</time></trkpt><trkpt lat="44.1109348" lon="10.3697253"><ele>704.8</ele><time>2026-04-04T11:42:14.78Z</time></trkpt><trkpt lat="44.1108836" lon="10.3698468"><ele>701.5999999999999</ele><time>2026-04-04T11:42:15.769Z</time></trkpt><trkpt lat="44.1108429" lon="10.3699716"><ele>698.4000000000001</ele><time>2026-04-04T11:42:16.771Z</time></trkpt><trkpt lat="44.1108061" lon="10.3701078"><ele>695.2</ele><time>2026-04-04T11:42:17.781Z</time></trkpt><trkpt lat="44.1107749" lon="10.3702538"><ele>692.0</ele><time>2026-04-04T11:42:18.783Z</time></trkpt><trkpt lat="44.1107419" lon="10.37039"><ele>693.6</ele><time>2026-04-04T11:42:19.782Z</time></trkpt><trkpt lat="44.1107002" lon="10.3705141"><ele>695.2</ele><time>2026-04-04T11:42:20.771Z</time></trkpt><trkpt lat="44.1106308" lon="10.3705954"><ele>696.8</ele><time>2026-04-04T11:42:21.776Z</time></trkpt><trkpt lat="44.1105425" lon="10.3706476"><ele>698.4</ele><time>2026-04-04T11:42:22.785Z</time></trkpt><trkpt lat="44.1104521" lon="10.3706878"><ele>700.0</ele><time>2026-04-04T11:42:23.773Z</time></trkpt><trkpt lat="44.1103547" lon="10.3707283"><ele>700.0</ele><time>2026-04-04T11:42:24.789Z</time></trkpt><trkpt lat="44.1102608" lon="10.3707768"><ele>700.0</ele><time>2026-04-04T11:42:25.772Z</time></trkpt><trkpt lat="44.1101691" lon="10.3708799"><ele>700.0</ele><time>2026-04-04T11:42:26.776Z</time></trkpt><trkpt lat="44.1100879" lon="10.3709936"><ele>700.0</ele><time>2026-04-04T11:42:27.793Z</time></trkpt><trkpt lat="44.1100202" lon="10.3711203"><ele>700.0</ele><time>2026-04-04T11:42:28.771Z</time></trkpt><trkpt lat="44.1099567" lon="10.3712433"><ele>697.2</ele><time>2026-04-04T11:42:29.776Z</time></trkpt><trkpt lat="44.1099133" lon="10.3713853"><ele>694.4</ele><time>2026-04-04T11:42:30.774Z</time></trkpt><trkpt lat="44.1098895" lon="10.3715324"><ele>691.5999999999999</ele><time>2026-04-04T11:42:31.766Z</time></trkpt><trkpt lat="44.1098602" lon="10.3716808"><ele>688.8</ele><time>2026-04-04T11:42:32.764Z</time></trkpt><trkpt lat="44.109821" lon="10.3718123"><ele>686.0</ele><time>2026-04-04T11:42:33.775Z</time></trkpt><trkpt lat="44.1097375" lon="10.3719205"><ele>686.0</ele><time>2026-04-04T11:42:34.778Z</time></trkpt><trkpt lat="44.1096434" lon="10.3720049"><ele>686.0</ele><time>2026-04-04T11:42:35.773Z</time></trkpt><trkpt lat="44.1095431" lon="10.3720817"><ele>686.0</ele><time>2026-04-04T11:42:36.773Z</time></trkpt><trkpt lat="44.1094361" lon="10.3721494"><ele>686.0</ele><time>2026-04-04T11:42:37.775Z</time></trkpt><trkpt lat="44.1093173" lon="10.3721809"><ele>679.0</ele><time>2026-04-04T11:42:38.766Z</time></trkpt><trkpt lat="44.1092004" lon="10.3722122"><ele>672.0</ele><time>2026-04-04T11:42:39.785Z</time></trkpt><trkpt lat="44.1090796" lon="10.3722576"><ele>665.0</ele><time>2026-04-04T11:42:40.774Z</time></trkpt><trkpt lat="44.1089684" lon="10.3723317"><ele>658.0</ele><time>2026-04-04T11:42:41.773Z</time></trkpt><trkpt lat="44.1088554" lon="10.3724114"><ele>658.0</ele><time>2026-04-04T11:42:42.778Z</time></trkpt><trkpt lat="44.1087352" lon="10.3724886"><ele>658.0</ele><time>2026-04-04T11:42:43.776Z</time></trkpt><trkpt lat="44.1086172" lon="10.3725629"><ele>658.0</ele><time>2026-04-04T11:42:44.766Z</time></trkpt><trkpt lat="44.108483" lon="10.3726024"><ele>658.0</ele><time>2026-04-04T11:42:45.776Z</time></trkpt><trkpt lat="44.1083532" lon="10.3726561"><ele>655.75</ele><time>2026-04-04T11:42:46.782Z</time></trkpt><trkpt lat="44.1082261" lon="10.3727517"><ele>653.5</ele><time>2026-04-04T11:42:47.773Z</time></trkpt><trkpt lat="44.1081103" lon="10.3728599"><ele>651.25</ele><time>2026-04-04T11:42:48.777Z</time></trkpt><trkpt lat="44.1079964" lon="10.3729931"><ele>649.0</ele><time>2026-04-04T11:42:49.78Z</time></trkpt><trkpt lat="44.1078831" lon="10.3731148"><ele>649.0</ele><time>2026-04-04T11:42:50.776Z</time></trkpt><trkpt lat="44.1077607" lon="10.3732216"><ele>649.0</ele><time>2026-04-04T11:42:51.78Z</time></trkpt><trkpt lat="44.1076356" lon="10.3733224"><ele>649.0</ele><time>2026-04-04T11:42:52.779Z</time></trkpt><trkpt lat="44.1075038" lon="10.3734185"><ele>649.0</ele><time>2026-04-04T11:42:53.778Z</time></trkpt><trkpt lat="44.1073743" lon="10.3735293"><ele>649.6666666666667</ele><time>2026-04-04T11:42:54.778Z</time></trkpt><trkpt lat="44.1072417" lon="10.3736483"><ele>650.3333333333334</ele><time>2026-04-04T11:42:55.771Z</time></trkpt><trkpt lat="44.1071112" lon="10.3737548"><ele>651.0</ele><time>2026-04-04T11:42:56.785Z</time></trkpt><trkpt lat="44.1069699" lon="10.3738617"><ele>642.3333333333334</ele><time>2026-04-04T11:42:57.784Z</time></trkpt><trkpt lat="44.1068283" lon="10.3739387"><ele>633.6666666666667</ele><time>2026-04-04T11:42:58.775Z</time></trkpt><trkpt lat="44.1066864" lon="10.3740169"><ele>625.0</ele><time>2026-04-04T11:42:59.775Z</time></trkpt><trkpt lat="44.1065568" lon="10.3741078"><ele>622.6</ele><time>2026-04-04T11:43:00.77Z</time></trkpt><trkpt lat="44.1064446" lon="10.3741829"><ele>620.2</ele><time>2026-04-04T11:43:01.774Z</time></trkpt><trkpt lat="44.1063442" lon="10.3742526"><ele>617.8</ele><time>2026-04-04T11:43:02.776Z</time></trkpt><trkpt lat="44.1062516" lon="10.3743152"><ele>615.4</ele><time>2026-04-04T11:43:03.776Z</time></trkpt><trkpt lat="44.1061607" lon="10.3743679"><ele>613.0</ele><time>2026-04-04T11:43:04.778Z</time></trkpt><trkpt lat="44.1060789" lon="10.374399"><ele>613.0</ele><time>2026-04-04T11:43:05.785Z</time></trkpt><trkpt lat="44.1060088" lon="10.3744276"><ele>613.0</ele><time>2026-04-04T11:43:06.782Z</time></trkpt><trkpt lat="44.1059378" lon="10.3745427"><ele>613.0</ele><time>2026-04-04T11:43:08.776Z</time></trkpt><trkpt lat="44.1059979" lon="10.3746801"><ele>613.0</ele><time>2026-04-04T11:43:10.781Z</time></trkpt><trkpt lat="44.1060625" lon="10.3746941"><ele>613.0</ele><time>2026-04-04T11:43:11.762Z</time></trkpt><trkpt lat="44.1061296" lon="10.3746823"><ele>613.0</ele><time>2026-04-04T11:43:12.771Z</time></trkpt><trkpt lat="44.1061987" lon="10.3746585"><ele>613.0</ele><time>2026-04-04T11:43:13.781Z</time></trkpt><trkpt lat="44.1062723" lon="10.3746206"><ele>613.0</ele><time>2026-04-04T11:43:14.775Z</time></trkpt><trkpt lat="44.1063414" lon="10.3745897"><ele>613.0</ele><time>2026-04-04T11:43:15.772Z</time></trkpt><trkpt lat="44.1064146" lon="10.3745495"><ele>613.0</ele><time>2026-04-04T11:43:16.78Z</time></trkpt><trkpt lat="44.106493" lon="10.3745147"><ele>613.0</ele><time>2026-04-04T11:43:17.767Z</time></trkpt><trkpt lat="44.106579" lon="10.3744773"><ele>613.0</ele><time>2026-04-04T11:43:18.772Z</time></trkpt><trkpt lat="44.1066695" lon="10.3744453"><ele>615.4</ele><time>2026-04-04T11:43:19.776Z</time></trkpt><trkpt lat="44.1067639" lon="10.3744294"><ele>617.8</ele><time>2026-04-04T11:43:20.775Z</time></trkpt><trkpt lat="44.1068551" lon="10.3744131"><ele>620.2</ele><time>2026-04-04T11:43:21.767Z</time></trkpt><trkpt lat="44.1069502" lon="10.3743875"><ele>622.6</ele><time>2026-04-04T11:43:22.767Z</time></trkpt><trkpt lat="44.1070449" lon="10.3743395"><ele>625.0</ele><time>2026-04-04T11:43:23.765Z</time></trkpt><trkpt lat="44.1071355" lon="10.3742771"><ele>625.0</ele><time>2026-04-04T11:43:24.778Z</time></trkpt><trkpt lat="44.1072429" lon="10.3742283"><ele>625.0</ele><time>2026-04-04T11:43:25.77Z</time></trkpt><trkpt lat="44.107347" lon="10.3742068"><ele>625.0</ele><time>2026-04-04T11:43:26.763Z</time></trkpt><trkpt lat="44.1074792" lon="10.3742317"><ele>625.0</ele><time>2026-04-04T11:43:27.774Z</time></trkpt><trkpt lat="44.107584" lon="10.3742403"><ele>623.0</ele><time>2026-04-04T11:43:28.765Z</time></trkpt><trkpt lat="44.1077149" lon="10.3742805"><ele>621.0</ele><time>2026-04-04T11:43:29.765Z</time></trkpt><trkpt lat="44.1078439" lon="10.374315"><ele>619.0</ele><time>2026-04-04T11:43:30.766Z</time></trkpt><trkpt lat="44.1079752" lon="10.3743451"><ele>617.0</ele><time>2026-04-04T11:43:31.765Z</time></trkpt><trkpt lat="44.1081125" lon="10.3743828"><ele>613.75</ele><time>2026-04-04T11:43:32.769Z</time></trkpt><trkpt lat="44.1082475" lon="10.3744236"><ele>610.5</ele><time>2026-04-04T11:43:33.779Z</time></trkpt><trkpt lat="44.1083697" lon="10.3744689"><ele>607.25</ele><time>2026-04-04T11:43:34.779Z</time></trkpt><trkpt lat="44.1084826" lon="10.3745225"><ele>604.0</ele><time>2026-04-04T11:43:35.763Z</time></trkpt><trkpt lat="44.1085912" lon="10.3745889"><ele>604.0</ele><time>2026-04-04T11:43:36.765Z</time></trkpt><trkpt lat="44.1086998" lon="10.3746551"><ele>604.0</ele><time>2026-04-04T11:43:37.778Z</time></trkpt><trkpt lat="44.1088274" lon="10.3746637"><ele>604.0</ele><time>2026-04-04T11:43:38.777Z</time></trkpt><trkpt lat="44.1089478" lon="10.3746627"><ele>604.0</ele><time>2026-04-04T11:43:39.774Z</time></trkpt><trkpt lat="44.1090518" lon="10.3746591"><ele>603.6</ele><time>2026-04-04T11:43:40.775Z</time></trkpt><trkpt lat="44.1091478" lon="10.3746416"><ele>603.2</ele><time>2026-04-04T11:43:41.775Z</time></trkpt><trkpt lat="44.1092335" lon="10.3745882"><ele>602.8000000000001</ele><time>2026-04-04T11:43:42.775Z</time></trkpt><trkpt lat="44.1092956" lon="10.3745083"><ele>602.4</ele><time>2026-04-04T11:43:43.773Z</time></trkpt><trkpt lat="44.109363" lon="10.3744106"><ele>602.0</ele><time>2026-04-04T11:43:44.777Z</time></trkpt><trkpt lat="44.1094409" lon="10.374318"><ele>602.0</ele><time>2026-04-04T11:43:45.776Z</time></trkpt><trkpt lat="44.1095238" lon="10.3742268"><ele>602.0</ele><time>2026-04-04T11:43:46.765Z</time></trkpt><trkpt lat="44.109592" lon="10.3741466"><ele>602.0</ele><time>2026-04-04T11:43:47.774Z</time></trkpt><trkpt lat="44.109652" lon="10.3740732"><ele>602.0</ele><time>2026-04-04T11:43:48.773Z</time></trkpt><trkpt lat="44.1097164" lon="10.3740365"><ele>602.0</ele><time>2026-04-04T11:43:49.777Z</time></trkpt><trkpt lat="44.109825" lon="10.3741011"><ele>602.0</ele><time>2026-04-04T11:43:51.765Z</time></trkpt><trkpt lat="44.1098539" lon="10.3741868"><ele>602.0</ele><time>2026-04-04T11:43:52.775Z</time></trkpt><trkpt lat="44.1098638" lon="10.3742917"><ele>602.0</ele><time>2026-04-04T11:43:53.782Z</time></trkpt><trkpt lat="44.1098503" lon="10.3743972"><ele>602.0</ele><time>2026-04-04T11:43:54.785Z</time></trkpt><trkpt lat="44.1098232" lon="10.3745109"><ele>602.0</ele><time>2026-04-04T11:43:55.768Z</time></trkpt><trkpt lat="44.1097871" lon="10.3746247"><ele>602.0</ele><time>2026-04-04T11:43:56.774Z</time></trkpt><trkpt lat="44.1097688" lon="10.3747505"><ele>597.3333333333333</ele><time>2026-04-04T11:43:57.778Z</time></trkpt><trkpt lat="44.1097775" lon="10.3748661"><ele>592.6666666666666</ele><time>2026-04-04T11:43:58.778Z</time></trkpt><trkpt lat="44.1098124" lon="10.374966"><ele>588.0</ele><time>2026-04-04T11:43:59.782Z</time></trkpt><trkpt lat="44.1098766" lon="10.3750359"><ele>583.3333333333334</ele><time>2026-04-04T11:44:00.772Z</time></trkpt><trkpt lat="44.109934" lon="10.3750976"><ele>578.6666666666667</ele><time>2026-04-04T11:44:01.774Z</time></trkpt><trkpt lat="44.1100341" lon="10.3750639"><ele>574.0</ele><time>2026-04-04T11:44:02.777Z</time></trkpt><trkpt lat="44.1101097" lon="10.3750219"><ele>572.6666666666667</ele><time>2026-04-04T11:44:03.774Z</time></trkpt><trkpt lat="44.1101779" lon="10.3749401"><ele>571.3333333333334</ele><time>2026-04-04T11:44:04.778Z</time></trkpt><trkpt lat="44.1102296" lon="10.374836"><ele>570.0</ele><time>2026-04-04T11:44:05.78Z</time></trkpt><trkpt lat="44.1102714" lon="10.3747483"><ele>568.6666666666666</ele><time>2026-04-04T11:44:06.778Z</time></trkpt><trkpt lat="44.110329" lon="10.3747082"><ele>567.3333333333333</ele><time>2026-04-04T11:44:07.775Z</time></trkpt><trkpt lat="44.1104415" lon="10.3747377"><ele>566.0</ele><time>2026-04-04T11:44:09.775Z</time></trkpt><trkpt lat="44.1105168" lon="10.3748613"><ele>566.0</ele><time>2026-04-04T11:44:11.773Z</time></trkpt><trkpt lat="44.1105713" lon="10.3749183"><ele>566.0</ele><time>2026-04-04T11:44:12.779Z</time></trkpt><trkpt lat="44.1106393" lon="10.374937"><ele>566.0</ele><time>2026-04-04T11:44:13.779Z</time></trkpt><trkpt lat="44.110714" lon="10.3749396"><ele>566.0</ele><time>2026-04-04T11:44:14.767Z</time></trkpt><trkpt lat="44.1107866" lon="10.3749145"><ele>566.0</ele><time>2026-04-04T11:44:15.77Z</time></trkpt><trkpt lat="44.1108591" lon="10.3748679"><ele>566.0</ele><time>2026-04-04T11:44:16.775Z</time></trkpt><trkpt lat="44.1109237" lon="10.374829"><ele>566.0</ele><time>2026-04-04T11:44:17.778Z</time></trkpt><trkpt lat="44.1109877" lon="10.3747911"><ele>565.4285714285714</ele><time>2026-04-04T11:44:18.78Z</time></trkpt><trkpt lat="44.111052" lon="10.3747835"><ele>564.8571428571429</ele><time>2026-04-04T11:44:19.777Z</time></trkpt><trkpt lat="44.111114" lon="10.3748134"><ele>564.2857142857143</ele><time>2026-04-04T11:44:20.761Z</time></trkpt><trkpt lat="44.1111603" lon="10.3748887"><ele>563.7142857142858</ele><time>2026-04-04T11:44:21.766Z</time></trkpt><trkpt lat="44.1111747" lon="10.374985"><ele>563.1428571428571</ele><time>2026-04-04T11:44:22.778Z</time></trkpt><trkpt lat="44.1111617" lon="10.3750833"><ele>562.5714285714287</ele><time>2026-04-04T11:44:23.764Z</time></trkpt><trkpt lat="44.1111468" lon="10.3751872"><ele>562.0</ele><time>2026-04-04T11:44:24.77Z</time></trkpt><trkpt lat="44.1111457" lon="10.3752964"><ele>562.0000000000001</ele><time>2026-04-04T11:44:25.776Z</time></trkpt><trkpt lat="44.1111494" lon="10.3754084"><ele>562.0</ele><time>2026-04-04T11:44:26.77Z</time></trkpt><trkpt lat="44.1111598" lon="10.3755091"><ele>562.0</ele><time>2026-04-04T11:44:27.776Z</time></trkpt><trkpt lat="44.1111708" lon="10.3756108"><ele>562.0</ele><time>2026-04-04T11:44:28.777Z</time></trkpt><trkpt lat="44.1111835" lon="10.3757098"><ele>562.0</ele><time>2026-04-04T11:44:29.762Z</time></trkpt><trkpt lat="44.1111957" lon="10.3758048"><ele>562.0000000000001</ele><time>2026-04-04T11:44:30.783Z</time></trkpt><trkpt lat="44.1112104" lon="10.3758978"><ele>562.0</ele><time>2026-04-04T11:44:31.771Z</time></trkpt><trkpt lat="44.1112181" lon="10.3759898"><ele>558.6</ele><time>2026-04-04T11:44:32.774Z</time></trkpt><trkpt lat="44.1112281" lon="10.3760772"><ele>555.2</ele><time>2026-04-04T11:44:33.771Z</time></trkpt><trkpt lat="44.1112412" lon="10.3762417"><ele>551.8</ele><time>2026-04-04T11:44:35.771Z</time></trkpt><trkpt lat="44.1112385" lon="10.3763901"><ele>548.4</ele><time>2026-04-04T11:44:37.776Z</time></trkpt><trkpt lat="44.1112145" lon="10.3765222"><ele>545.0</ele><time>2026-04-04T11:44:39.777Z</time></trkpt><trkpt lat="44.1111936" lon="10.3766534"><ele>543.6666666666666</ele><time>2026-04-04T11:44:41.775Z</time></trkpt><trkpt lat="44.1111723" lon="10.3767767"><ele>542.3333333333333</ele><time>2026-04-04T11:44:43.774Z</time></trkpt><trkpt lat="44.1111579" lon="10.3768929"><ele>541.0</ele><time>2026-04-04T11:44:45.776Z</time></trkpt><trkpt lat="44.1111473" lon="10.3769924"><ele>539.6666666666666</ele><time>2026-04-04T11:44:47.776Z</time></trkpt><trkpt lat="44.1111372" lon="10.377083"><ele>538.3333333333334</ele><time>2026-04-04T11:44:49.772Z</time></trkpt><trkpt lat="44.1111362" lon="10.3771764"><ele>537.0</ele><time>2026-04-04T11:44:51.767Z</time></trkpt><trkpt lat="44.1111523" lon="10.3772724"><ele>535.0</ele><time>2026-04-04T11:44:53.772Z</time></trkpt><trkpt lat="44.1111728" lon="10.3773661"><ele>533.0</ele><time>2026-04-04T11:44:55.772Z</time></trkpt><trkpt lat="44.1112078" lon="10.3774556"><ele>531.0</ele><time>2026-04-04T11:44:57.78Z</time></trkpt><trkpt lat="44.111248" lon="10.3775598"><ele>529.0</ele><time>2026-04-04T11:44:59.781Z</time></trkpt><trkpt lat="44.1113315" lon="10.3776637"><ele>527.0</ele><time>2026-04-04T11:45:01.766Z</time></trkpt><trkpt lat="44.1114339" lon="10.3777695"><ele>527.0</ele><time>2026-04-04T11:45:03.782Z</time></trkpt><trkpt lat="44.1115499" lon="10.3777518"><ele>527.0</ele><time>2026-04-04T11:45:05.774Z</time></trkpt><trkpt lat="44.1115965" lon="10.3776877"><ele>527.0</ele><time>2026-04-04T11:45:06.782Z</time></trkpt><trkpt lat="44.1116287" lon="10.3776034"><ele>527.0</ele><time>2026-04-04T11:45:07.781Z</time></trkpt><trkpt lat="44.1116301" lon="10.3774877"><ele>527.0</ele><time>2026-04-04T11:45:08.78Z</time></trkpt><trkpt lat="44.1116431" lon="10.3773752"><ele>527.0</ele><time>2026-04-04T11:45:09.785Z</time></trkpt><trkpt lat="44.1116667" lon="10.3772528"><ele>531.6</ele><time>2026-04-04T11:45:10.774Z</time></trkpt><trkpt lat="44.1117141" lon="10.3771446"><ele>536.2</ele><time>2026-04-04T11:45:11.772Z</time></trkpt><trkpt lat="44.1117639" lon="10.3770292"><ele>540.8</ele><time>2026-04-04T11:45:12.773Z</time></trkpt><trkpt lat="44.1118092" lon="10.3769015"><ele>545.4</ele><time>2026-04-04T11:45:13.78Z</time></trkpt><trkpt lat="44.1118595" lon="10.3767769"><ele>550.0</ele><time>2026-04-04T11:45:14.778Z</time></trkpt><trkpt lat="44.1119146" lon="10.3766435"><ele>550.0</ele><time>2026-04-04T11:45:15.778Z</time></trkpt><trkpt lat="44.1119686" lon="10.3765154"><ele>550.0</ele><time>2026-04-04T11:45:16.772Z</time></trkpt><trkpt lat="44.1120196" lon="10.3764065"><ele>550.0</ele><time>2026-04-04T11:45:17.776Z</time></trkpt><trkpt lat="44.1120635" lon="10.3763097"><ele>550.0</ele><time>2026-04-04T11:45:18.773Z</time></trkpt><trkpt lat="44.1121023" lon="10.3762292"><ele>550.0</ele><time>2026-04-04T11:45:19.777Z</time></trkpt><trkpt lat="44.1121526" lon="10.3761749"><ele>550.0</ele><time>2026-04-04T11:45:20.78Z</time></trkpt><trkpt lat="44.1122628" lon="10.3761762"><ele>550.0</ele><time>2026-04-04T11:45:22.771Z</time></trkpt><trkpt lat="44.1123154" lon="10.3762908"><ele>550.0</ele><time>2026-04-04T11:45:24.798Z</time></trkpt><trkpt lat="44.1122718" lon="10.3764247"><ele>550.0</ele><time>2026-04-04T11:45:26.772Z</time></trkpt><trkpt lat="44.1121851" lon="10.3765334"><ele>550.0</ele><time>2026-04-04T11:45:28.779Z</time></trkpt><trkpt lat="44.1121325" lon="10.3765864"><ele>550.0</ele><time>2026-04-04T11:45:29.783Z</time></trkpt><trkpt lat="44.1120836" lon="10.3766588"><ele>550.0</ele><time>2026-04-04T11:45:30.773Z</time></trkpt><trkpt lat="44.112037" lon="10.3767484"><ele>550.0</ele><time>2026-04-04T11:45:31.767Z</time></trkpt><trkpt lat="44.1119974" lon="10.3768449"><ele>550.0</ele><time>2026-04-04T11:45:32.765Z</time></trkpt><trkpt lat="44.1119725" lon="10.3769533"><ele>550.0</ele><time>2026-04-04T11:45:33.78Z</time></trkpt><trkpt lat="44.1119539" lon="10.3770703"><ele>550.0</ele><time>2026-04-04T11:45:34.78Z</time></trkpt><trkpt lat="44.1119537" lon="10.3771742"><ele>550.0</ele><time>2026-04-04T11:45:35.771Z</time></trkpt><trkpt lat="44.1119588" lon="10.3772753"><ele>547.8333333333334</ele><time>2026-04-04T11:45:36.769Z</time></trkpt><trkpt lat="44.1119605" lon="10.377372"><ele>545.6666666666667</ele><time>2026-04-04T11:45:37.774Z</time></trkpt><trkpt lat="44.1119593" lon="10.3774645"><ele>543.5</ele><time>2026-04-04T11:45:38.779Z</time></trkpt><trkpt lat="44.1119588" lon="10.3776313"><ele>541.3333333333334</ele><time>2026-04-04T11:45:40.78Z</time></trkpt><trkpt lat="44.1119687" lon="10.3777844"><ele>539.1666666666666</ele><time>2026-04-04T11:45:42.776Z</time></trkpt><trkpt lat="44.1119744" lon="10.3778974"><ele>537.0</ele><time>2026-04-04T11:45:44.779Z</time></trkpt><trkpt lat="44.1120102" lon="10.3779767"><ele>535.1666666666666</ele><time>2026-04-04T11:45:47.782Z</time></trkpt><trkpt lat="44.1120373" lon="10.378059"><ele>533.3333333333334</ele><time>2026-04-04T11:45:53.772Z</time></trkpt><trkpt lat="44.1120663" lon="10.3781406"><ele>531.5</ele><time>2026-04-04T11:47:53.781Z</time></trkpt><trkpt lat="44.112071" lon="10.3782733"><ele>529.6666666666667</ele><time>2026-04-04T11:47:56.774Z</time></trkpt><trkpt lat="44.1120717" lon="10.3784129"><ele>527.8333333333334</ele><time>2026-04-04T11:47:58.773Z</time></trkpt><trkpt lat="44.1120518" lon="10.3785781"><ele>526.0</ele><time>2026-04-04T11:48:00.781Z</time></trkpt><trkpt lat="44.1120384" lon="10.3786708"><ele>526.0</ele><time>2026-04-04T11:48:01.785Z</time></trkpt><trkpt lat="44.1120168" lon="10.3787728"><ele>526.0</ele><time>2026-04-04T11:48:02.776Z</time></trkpt><trkpt lat="44.1119941" lon="10.3788758"><ele>526.0</ele><time>2026-04-04T11:48:03.777Z</time></trkpt><trkpt lat="44.1119781" lon="10.3789792"><ele>526.0</ele><time>2026-04-04T11:48:04.791Z</time></trkpt><trkpt lat="44.1119683" lon="10.3790917"><ele>526.0</ele><time>2026-04-04T11:48:05.775Z</time></trkpt><trkpt lat="44.1119647" lon="10.3792042"><ele>526.0</ele><time>2026-04-04T11:48:06.775Z</time></trkpt><trkpt lat="44.1119669" lon="10.3793186"><ele>524.1666666666667</ele><time>2026-04-04T11:48:07.803Z</time></trkpt><trkpt lat="44.1119758" lon="10.379431"><ele>522.3333333333334</ele><time>2026-04-04T11:48:08.781Z</time></trkpt><trkpt lat="44.111982" lon="10.3795395"><ele>520.5</ele><time>2026-04-04T11:48:09.784Z</time></trkpt><trkpt lat="44.1119859" lon="10.3796551"><ele>518.6666666666666</ele><time>2026-04-04T11:48:10.769Z</time></trkpt><trkpt lat="44.1119869" lon="10.379766"><ele>516.8333333333333</ele><time>2026-04-04T11:48:11.764Z</time></trkpt><trkpt lat="44.111987" lon="10.3798836"><ele>515.0</ele><time>2026-04-04T11:48:12.794Z</time></trkpt><trkpt lat="44.1119853" lon="10.3799931"><ele>514.4285714285714</ele><time>2026-04-04T11:48:13.766Z</time></trkpt><trkpt lat="44.1119766" lon="10.3801028"><ele>513.8571428571429</ele><time>2026-04-04T11:48:14.771Z</time></trkpt><trkpt lat="44.1119698" lon="10.380204"><ele>513.2857142857142</ele><time>2026-04-04T11:48:15.776Z</time></trkpt><trkpt lat="44.111963" lon="10.380306"><ele>512.7142857142858</ele><time>2026-04-04T11:48:16.775Z</time></trkpt><trkpt lat="44.1119572" lon="10.3804033"><ele>512.1428571428571</ele><time>2026-04-04T11:48:17.769Z</time></trkpt><trkpt lat="44.1119471" lon="10.3805037"><ele>511.57142857142856</ele><time>2026-04-04T11:48:18.767Z</time></trkpt><trkpt lat="44.1119372" lon="10.380592"><ele>511.0</ele><time>2026-04-04T11:48:19.766Z</time></trkpt><trkpt lat="44.1119304" lon="10.3806835"><ele>510.20000000000005</ele><time>2026-04-04T11:48:20.779Z</time></trkpt><trkpt lat="44.1119472" lon="10.3808568"><ele>509.40000000000003</ele><time>2026-04-04T11:48:22.78Z</time></trkpt><trkpt lat="44.1120013" lon="10.3810032"><ele>508.6</ele><time>2026-04-04T11:48:24.772Z</time></trkpt><trkpt lat="44.1120781" lon="10.3811338"><ele>507.8</ele><time>2026-04-04T11:48:26.77Z</time></trkpt><trkpt lat="44.1121175" lon="10.3812053"><ele>507.0</ele><time>2026-04-04T11:48:27.774Z</time></trkpt><trkpt lat="44.1121495" lon="10.3812809"><ele>508.40000000000003</ele><time>2026-04-04T11:48:28.784Z</time></trkpt><trkpt lat="44.1121909" lon="10.38144"><ele>509.80000000000007</ele><time>2026-04-04T11:48:30.795Z</time></trkpt><trkpt lat="44.112196" lon="10.3815321"><ele>511.2</ele><time>2026-04-04T11:48:31.769Z</time></trkpt><trkpt lat="44.1121825" lon="10.381724"><ele>512.6</ele><time>2026-04-04T11:48:33.778Z</time></trkpt><trkpt lat="44.1121705" lon="10.3818244"><ele>514.0</ele><time>2026-04-04T11:48:34.773Z</time></trkpt><trkpt lat="44.1121566" lon="10.3819359"><ele>514.0</ele><time>2026-04-04T11:48:35.778Z</time></trkpt><trkpt lat="44.1121406" lon="10.3820448"><ele>514.0</ele><time>2026-04-04T11:48:36.772Z</time></trkpt><trkpt lat="44.1121228" lon="10.3821487"><ele>514.0</ele><time>2026-04-04T11:48:37.765Z</time></trkpt><trkpt lat="44.1121064" lon="10.3822665"><ele>514.0</ele><time>2026-04-04T11:48:38.765Z</time></trkpt><trkpt lat="44.1120898" lon="10.3823854"><ele>514.0</ele><time>2026-04-04T11:48:39.767Z</time></trkpt><trkpt lat="44.1120762" lon="10.3825077"><ele>514.0</ele><time>2026-04-04T11:48:40.776Z</time></trkpt><trkpt lat="44.1120642" lon="10.3826283"><ele>514.0</ele><time>2026-04-04T11:48:41.774Z</time></trkpt><trkpt lat="44.112058" lon="10.3827638"><ele>514.0</ele><time>2026-04-04T11:48:42.778Z</time></trkpt><trkpt lat="44.1120699" lon="10.3828976"><ele>514.0</ele><time>2026-04-04T11:48:43.775Z</time></trkpt><trkpt lat="44.1120908" lon="10.3830318"><ele>514.0</ele><time>2026-04-04T11:48:44.77Z</time></trkpt><trkpt lat="44.1121152" lon="10.3831621"><ele>514.0</ele><time>2026-04-04T11:48:45.773Z</time></trkpt><trkpt lat="44.1121471" lon="10.3832961"><ele>511.79999999999995</ele><time>2026-04-04T11:48:46.768Z</time></trkpt><trkpt lat="44.1121845" lon="10.3834213"><ele>509.59999999999997</ele><time>2026-04-04T11:48:47.782Z</time></trkpt><trkpt lat="44.1122284" lon="10.3835408"><ele>507.4</ele><time>2026-04-04T11:48:48.764Z</time></trkpt><trkpt lat="44.1122742" lon="10.3836549"><ele>505.2</ele><time>2026-04-04T11:48:49.779Z</time></trkpt><trkpt lat="44.1123208" lon="10.3837684"><ele>503.0</ele><time>2026-04-04T11:48:50.784Z</time></trkpt><trkpt lat="44.1123689" lon="10.383879"><ele>501.2</ele><time>2026-04-04T11:48:51.776Z</time></trkpt><trkpt lat="44.1124142" lon="10.3839909"><ele>499.4</ele><time>2026-04-04T11:48:52.783Z</time></trkpt><trkpt lat="44.1124597" lon="10.3841055"><ele>497.59999999999997</ele><time>2026-04-04T11:48:53.766Z</time></trkpt><trkpt lat="44.1125052" lon="10.3842187"><ele>495.79999999999995</ele><time>2026-04-04T11:48:54.765Z</time></trkpt><trkpt lat="44.1125496" lon="10.3843392"><ele>494.0</ele><time>2026-04-04T11:48:55.786Z</time></trkpt><trkpt lat="44.1125908" lon="10.3844617"><ele>494.0</ele><time>2026-04-04T11:48:56.773Z</time></trkpt><trkpt lat="44.1126279" lon="10.3845875"><ele>494.0</ele><time>2026-04-04T11:48:57.777Z</time></trkpt><trkpt lat="44.1126626" lon="10.3847202"><ele>494.0</ele><time>2026-04-04T11:48:58.775Z</time></trkpt><trkpt lat="44.1126983" lon="10.3848544"><ele>494.0</ele><time>2026-04-04T11:48:59.786Z</time></trkpt><trkpt lat="44.1127291" lon="10.3849905"><ele>494.0</ele><time>2026-04-04T11:49:00.787Z</time></trkpt><trkpt lat="44.1127524" lon="10.3851334"><ele>492.79999999999995</ele><time>2026-04-04T11:49:01.786Z</time></trkpt><trkpt lat="44.1127611" lon="10.3852871"><ele>491.59999999999997</ele><time>2026-04-04T11:49:02.783Z</time></trkpt><trkpt lat="44.1127509" lon="10.3854416"><ele>490.4</ele><time>2026-04-04T11:49:03.786Z</time></trkpt><trkpt lat="44.1127172" lon="10.3855953"><ele>489.2</ele><time>2026-04-04T11:49:04.777Z</time></trkpt><trkpt lat="44.1126704" lon="10.3857323"><ele>488.0</ele><time>2026-04-04T11:49:05.775Z</time></trkpt><trkpt lat="44.1126259" lon="10.3858686"><ele>487.2</ele><time>2026-04-04T11:49:06.775Z</time></trkpt><trkpt lat="44.1125935" lon="10.3860135"><ele>486.4</ele><time>2026-04-04T11:49:07.768Z</time></trkpt><trkpt lat="44.1125735" lon="10.3861584"><ele>485.59999999999997</ele><time>2026-04-04T11:49:08.788Z</time></trkpt><trkpt lat="44.1125556" lon="10.3863018"><ele>484.79999999999995</ele><time>2026-04-04T11:49:09.776Z</time></trkpt><trkpt lat="44.1125398" lon="10.3864467"><ele>484.0</ele><time>2026-04-04T11:49:10.768Z</time></trkpt><trkpt lat="44.1125267" lon="10.3865877"><ele>484.0</ele><time>2026-04-04T11:49:11.793Z</time></trkpt><trkpt lat="44.1125137" lon="10.3867235"><ele>484.0</ele><time>2026-04-04T11:49:12.781Z</time></trkpt><trkpt lat="44.1125009" lon="10.3868482"><ele>484.0</ele><time>2026-04-04T11:49:13.777Z</time></trkpt><trkpt lat="44.112488" lon="10.3869754"><ele>484.0</ele><time>2026-04-04T11:49:14.785Z</time></trkpt><trkpt lat="44.1124757" lon="10.387098"><ele>484.0</ele><time>2026-04-04T11:49:15.775Z</time></trkpt><trkpt lat="44.1124631" lon="10.3872154"><ele>484.00000000000006</ele><time>2026-04-04T11:49:16.776Z</time></trkpt><trkpt lat="44.1124491" lon="10.3873333"><ele>484.0</ele><time>2026-04-04T11:49:17.78Z</time></trkpt><trkpt lat="44.1124369" lon="10.387445"><ele>484.0</ele><time>2026-04-04T11:49:18.774Z</time></trkpt><trkpt lat="44.1124208" lon="10.3875531"><ele>484.0</ele><time>2026-04-04T11:49:19.78Z</time></trkpt><trkpt lat="44.1124096" lon="10.3876514"><ele>484.00000000000006</ele><time>2026-04-04T11:49:20.779Z</time></trkpt><trkpt lat="44.1123972" lon="10.3877489"><ele>484.0</ele><time>2026-04-04T11:49:21.777Z</time></trkpt><trkpt lat="44.1123817" lon="10.3878412"><ele>481.33333333333337</ele><time>2026-04-04T11:49:22.775Z</time></trkpt><trkpt lat="44.112359" lon="10.3879274"><ele>478.6666666666667</ele><time>2026-04-04T11:49:23.77Z</time></trkpt><trkpt lat="44.1123291" lon="10.3880049"><ele>476.0</ele><time>2026-04-04T11:49:24.776Z</time></trkpt><trkpt lat="44.1122727" lon="10.3881432"><ele>473.33333333333337</ele><time>2026-04-04T11:49:26.783Z</time></trkpt><trkpt lat="44.1122437" lon="10.3882612"><ele>470.6666666666667</ele><time>2026-04-04T11:49:28.771Z</time></trkpt><trkpt lat="44.1122253" lon="10.3883671"><ele>468.0</ele><time>2026-04-04T11:49:30.774Z</time></trkpt><trkpt lat="44.1122122" lon="10.3884916"><ele>468.0</ele><time>2026-04-04T11:49:32.79Z</time></trkpt><trkpt lat="44.1122024" lon="10.3886219"><ele>467.99999999999994</ele><time>2026-04-04T11:49:34.782Z</time></trkpt><trkpt lat="44.112195" lon="10.3887405"><ele>467.99999999999994</ele><time>2026-04-04T11:49:36.777Z</time></trkpt><trkpt lat="44.1121853" lon="10.3888799"><ele>468.0</ele><time>2026-04-04T11:49:38.78Z</time></trkpt><trkpt lat="44.1121781" lon="10.389037"><ele>468.0</ele><time>2026-04-04T11:49:40.785Z</time></trkpt><trkpt lat="44.112173" lon="10.3891918"><ele>468.6666666666667</ele><time>2026-04-04T11:49:42.777Z</time></trkpt><trkpt lat="44.1121662" lon="10.3893486"><ele>469.33333333333337</ele><time>2026-04-04T11:49:44.778Z</time></trkpt><trkpt lat="44.1121611" lon="10.3895007"><ele>470.0</ele><time>2026-04-04T11:49:46.787Z</time></trkpt><trkpt lat="44.1121486" lon="10.389592"><ele>470.6666666666667</ele><time>2026-04-04T11:49:47.771Z</time></trkpt><trkpt lat="44.1121293" lon="10.3896876"><ele>471.33333333333337</ele><time>2026-04-04T11:49:48.772Z</time></trkpt><trkpt lat="44.1121073" lon="10.389783"><ele>472.0</ele><time>2026-04-04T11:49:49.786Z</time></trkpt><trkpt lat="44.1120718" lon="10.3898709"><ele>473.1666666666667</ele><time>2026-04-04T11:49:50.774Z</time></trkpt><trkpt lat="44.1120271" lon="10.3899514"><ele>474.33333333333337</ele><time>2026-04-04T11:49:51.779Z</time></trkpt><trkpt lat="44.1119773" lon="10.3900174"><ele>475.5</ele><time>2026-04-04T11:49:52.776Z</time></trkpt><trkpt lat="44.1119184" lon="10.3900684"><ele>476.66666666666663</ele><time>2026-04-04T11:49:53.778Z</time></trkpt><trkpt lat="44.1118649" lon="10.3901156"><ele>477.8333333333333</ele><time>2026-04-04T11:49:54.779Z</time></trkpt><trkpt lat="44.1117706" lon="10.3901966"><ele>479.0</ele><time>2026-04-04T11:49:56.778Z</time></trkpt><trkpt lat="44.1117027" lon="10.3903038"><ele>479.0</ele><time>2026-04-04T11:49:58.781Z</time></trkpt><trkpt lat="44.1116424" lon="10.3904079"><ele>479.0</ele><time>2026-04-04T11:50:00.78Z</time></trkpt><trkpt lat="44.1115766" lon="10.3905206"><ele>479.0</ele><time>2026-04-04T11:50:02.773Z</time></trkpt><trkpt lat="44.1115016" lon="10.3906131"><ele>479.0</ele><time>2026-04-04T11:50:04.768Z</time></trkpt><trkpt lat="44.1114098" lon="10.3906752"><ele>479.0</ele><time>2026-04-04T11:50:06.771Z</time></trkpt><trkpt lat="44.1113083" lon="10.3906936"><ele>479.3333333333333</ele><time>2026-04-04T11:50:08.78Z</time></trkpt><trkpt lat="44.1112117" lon="10.3906396"><ele>479.66666666666663</ele><time>2026-04-04T11:50:10.79Z</time></trkpt><trkpt lat="44.1111442" lon="10.3905652"><ele>480.0</ele><time>2026-04-04T11:50:12.772Z</time></trkpt><trkpt lat="44.111093" lon="10.3904985"><ele>480.33333333333337</ele><time>2026-04-04T11:50:14.777Z</time></trkpt><trkpt lat="44.1110453" lon="10.3904344"><ele>480.6666666666667</ele><time>2026-04-04T11:50:16.774Z</time></trkpt><trkpt lat="44.1109925" lon="10.3903802"><ele>481.0</ele><time>2026-04-04T11:50:18.778Z</time></trkpt><trkpt lat="44.1109021" lon="10.3903613"><ele>478.33333333333337</ele><time>2026-04-04T11:50:21.777Z</time></trkpt><trkpt lat="44.1108426" lon="10.3904006"><ele>475.6666666666667</ele><time>2026-04-04T11:50:23.776Z</time></trkpt><trkpt lat="44.1107888" lon="10.3904763"><ele>473.0</ele><time>2026-04-04T11:50:25.769Z</time></trkpt><trkpt lat="44.1107386" lon="10.3906005"><ele>470.33333333333337</ele><time>2026-04-04T11:50:27.769Z</time></trkpt><trkpt lat="44.1106649" lon="10.3907459"><ele>467.6666666666667</ele><time>2026-04-04T11:50:29.764Z</time></trkpt><trkpt lat="44.1106197" lon="10.3908264"><ele>465.0</ele><time>2026-04-04T11:50:30.771Z</time></trkpt><trkpt lat="44.110578" lon="10.3909143"><ele>463.6</ele><time>2026-04-04T11:50:31.768Z</time></trkpt><trkpt lat="44.1105434" lon="10.3910102"><ele>462.2</ele><time>2026-04-04T11:50:32.772Z</time></trkpt><trkpt lat="44.1105154" lon="10.3911212"><ele>460.79999999999995</ele><time>2026-04-04T11:50:33.771Z</time></trkpt><trkpt lat="44.1104874" lon="10.3912401"><ele>459.4</ele><time>2026-04-04T11:50:34.766Z</time></trkpt><trkpt lat="44.1104446" lon="10.3913614"><ele>458.0</ele><time>2026-04-04T11:50:35.772Z</time></trkpt><trkpt lat="44.1103853" lon="10.3914779"><ele>458.0</ele><time>2026-04-04T11:50:36.768Z</time></trkpt><trkpt lat="44.1103133" lon="10.3915763"><ele>457.99999999999994</ele><time>2026-04-04T11:50:37.771Z</time></trkpt><trkpt lat="44.1102465" lon="10.3916914"><ele>457.99999999999994</ele><time>2026-04-04T11:50:38.767Z</time></trkpt><trkpt lat="44.1102037" lon="10.3918372"><ele>458.0</ele><time>2026-04-04T11:50:39.776Z</time></trkpt><trkpt lat="44.1101661" lon="10.3919813"><ele>458.0</ele><time>2026-04-04T11:50:40.781Z</time></trkpt><trkpt lat="44.1101193" lon="10.3921357"><ele>459.0</ele><time>2026-04-04T11:50:41.775Z</time></trkpt><trkpt lat="44.1100736" lon="10.3922818"><ele>459.99999999999994</ele><time>2026-04-04T11:50:42.774Z</time></trkpt><trkpt lat="44.1100416" lon="10.3924062"><ele>460.99999999999994</ele><time>2026-04-04T11:50:43.774Z</time></trkpt><trkpt lat="44.1100231" lon="10.3925263"><ele>462.0</ele><time>2026-04-04T11:50:44.774Z</time></trkpt><trkpt lat="44.1100372" lon="10.3926371"><ele>463.0</ele><time>2026-04-04T11:50:45.776Z</time></trkpt><trkpt lat="44.1100581" lon="10.3927453"><ele>463.0</ele><time>2026-04-04T11:50:46.775Z</time></trkpt><trkpt lat="44.1101089" lon="10.392836"><ele>462.99999999999994</ele><time>2026-04-04T11:50:47.78Z</time></trkpt><trkpt lat="44.1102036" lon="10.392911"><ele>462.99999999999994</ele><time>2026-04-04T11:50:48.774Z</time></trkpt><trkpt lat="44.1102646" lon="10.3930007"><ele>463.0</ele><time>2026-04-04T11:50:49.778Z</time></trkpt><trkpt lat="44.1103244" lon="10.3931048"><ele>463.0</ele><time>2026-04-04T11:50:50.772Z</time></trkpt><trkpt lat="44.1103733" lon="10.3932273"><ele>461.5</ele><time>2026-04-04T11:50:51.769Z</time></trkpt><trkpt lat="44.1103974" lon="10.3933878"><ele>460.0</ele><time>2026-04-04T11:50:52.776Z</time></trkpt><trkpt lat="44.110426" lon="10.3935321"><ele>458.5</ele><time>2026-04-04T11:50:53.779Z</time></trkpt><trkpt lat="44.1104396" lon="10.3936876"><ele>457.0</ele><time>2026-04-04T11:50:54.774Z</time></trkpt><trkpt lat="44.1104603" lon="10.3938447"><ele>455.00000000000006</ele><time>2026-04-04T11:50:55.779Z</time></trkpt><trkpt lat="44.1104828" lon="10.393994"><ele>453.0</ele><time>2026-04-04T11:50:56.774Z</time></trkpt><trkpt lat="44.1105167" lon="10.3941173"><ele>451.0</ele><time>2026-04-04T11:50:57.773Z</time></trkpt><trkpt lat="44.1105579" lon="10.3942082"><ele>449.0</ele><time>2026-04-04T11:50:58.768Z</time></trkpt><trkpt lat="44.1106114" lon="10.3942633"><ele>447.00000000000006</ele><time>2026-04-04T11:50:59.781Z</time></trkpt><trkpt lat="44.1106738" lon="10.3942861"><ele>445.0</ele><time>2026-04-04T11:51:00.791Z</time></trkpt><trkpt lat="44.1107355" lon="10.3943946"><ele>445.0</ele><time>2026-04-04T11:51:02.788Z</time></trkpt><trkpt lat="44.1106558" lon="10.3944987"><ele>445.0</ele><time>2026-04-04T11:51:04.77Z</time></trkpt><trkpt lat="44.1105266" lon="10.3944999"><ele>445.0</ele><time>2026-04-04T11:51:06.776Z</time></trkpt><trkpt lat="44.1104616" lon="10.3945092"><ele>445.0</ele><time>2026-04-04T11:51:07.779Z</time></trkpt><trkpt lat="44.1103907" lon="10.394522"><ele>445.0</ele><time>2026-04-04T11:51:08.787Z</time></trkpt><trkpt lat="44.110317" lon="10.3945585"><ele>445.00000000000006</ele><time>2026-04-04T11:51:09.78Z</time></trkpt><trkpt lat="44.1102422" lon="10.3945996"><ele>445.0</ele><time>2026-04-04T11:51:10.785Z</time></trkpt><trkpt lat="44.1101648" lon="10.3946532"><ele>445.0</ele><time>2026-04-04T11:51:11.783Z</time></trkpt><trkpt lat="44.1100922" lon="10.3947017"><ele>445.0</ele><time>2026-04-04T11:51:12.774Z</time></trkpt><trkpt lat="44.110016" lon="10.3947462"><ele>445.00000000000006</ele><time>2026-04-04T11:51:13.774Z</time></trkpt><trkpt lat="44.1099415" lon="10.3947943"><ele>445.0</ele><time>2026-04-04T11:51:14.773Z</time></trkpt><trkpt lat="44.10987" lon="10.394833"><ele>445.1666666666667</ele><time>2026-04-04T11:51:15.778Z</time></trkpt><trkpt lat="44.1097999" lon="10.3948711"><ele>445.33333333333337</ele><time>2026-04-04T11:51:16.776Z</time></trkpt><trkpt lat="44.1097355" lon="10.3949171"><ele>445.5</ele><time>2026-04-04T11:51:17.777Z</time></trkpt><trkpt lat="44.109675" lon="10.3949553"><ele>445.66666666666663</ele><time>2026-04-04T11:51:18.775Z</time></trkpt><trkpt lat="44.1095706" lon="10.3950417"><ele>445.8333333333333</ele><time>2026-04-04T11:51:20.778Z</time></trkpt><trkpt lat="44.1094868" lon="10.3951329"><ele>446.0</ele><time>2026-04-04T11:51:22.779Z</time></trkpt><trkpt lat="44.1094146" lon="10.3952576"><ele>445.99999999999994</ele><time>2026-04-04T11:51:24.779Z</time></trkpt><trkpt lat="44.1093723" lon="10.3953265"><ele>446.0</ele><time>2026-04-04T11:51:25.779Z</time></trkpt><trkpt lat="44.1093218" lon="10.3954022"><ele>446.0</ele><time>2026-04-04T11:51:26.772Z</time></trkpt><trkpt lat="44.1092704" lon="10.3954915"><ele>446.0</ele><time>2026-04-04T11:51:27.773Z</time></trkpt><trkpt lat="44.1092138" lon="10.3955816"><ele>445.99999999999994</ele><time>2026-04-04T11:51:28.782Z</time></trkpt><trkpt lat="44.1091583" lon="10.3956923"><ele>446.0</ele><time>2026-04-04T11:51:29.782Z</time></trkpt><trkpt lat="44.1091193" lon="10.3958264"><ele>444.75</ele><time>2026-04-04T11:51:30.781Z</time></trkpt><trkpt lat="44.1091072" lon="10.395979"><ele>443.5</ele><time>2026-04-04T11:51:31.773Z</time></trkpt><trkpt lat="44.1091179" lon="10.3961309"><ele>442.25</ele><time>2026-04-04T11:51:32.775Z</time></trkpt><trkpt lat="44.109137" lon="10.3962914"><ele>441.0</ele><time>2026-04-04T11:51:33.777Z</time></trkpt><trkpt lat="44.109163" lon="10.3964549"><ele>439.25</ele><time>2026-04-04T11:51:34.779Z</time></trkpt><trkpt lat="44.1091838" lon="10.3966251"><ele>437.5</ele><time>2026-04-04T11:51:35.782Z</time></trkpt><trkpt lat="44.1092019" lon="10.3968047"><ele>435.75</ele><time>2026-04-04T11:51:36.78Z</time></trkpt><trkpt lat="44.1092165" lon="10.3969893"><ele>434.0</ele><time>2026-04-04T11:51:37.787Z</time></trkpt><trkpt lat="44.1092214" lon="10.3971828"><ele>431.5</ele><time>2026-04-04T11:51:38.784Z</time></trkpt><trkpt lat="44.1092116" lon="10.3973831"><ele>429.0</ele><time>2026-04-04T11:51:39.772Z</time></trkpt><trkpt lat="44.1091865" lon="10.3975671"><ele>426.5</ele><time>2026-04-04T11:51:40.782Z</time></trkpt><trkpt lat="44.1091593" lon="10.3977346"><ele>424.0</ele><time>2026-04-04T11:51:41.776Z</time></trkpt><trkpt lat="44.1091553" lon="10.397897"><ele>425.79999999999995</ele><time>2026-04-04T11:51:42.783Z</time></trkpt><trkpt lat="44.1091873" lon="10.398057"><ele>427.59999999999997</ele><time>2026-04-04T11:51:43.787Z</time></trkpt><trkpt lat="44.1092406" lon="10.3981915"><ele>429.4</ele><time>2026-04-04T11:51:44.78Z</time></trkpt><trkpt lat="44.1093033" lon="10.3983089"><ele>431.2</ele><time>2026-04-04T11:51:45.788Z</time></trkpt><trkpt lat="44.1093647" lon="10.3984218"><ele>433.0</ele><time>2026-04-04T11:51:46.77Z</time></trkpt><trkpt lat="44.1094254" lon="10.3985255"><ele>433.00000000000006</ele><time>2026-04-04T11:51:47.788Z</time></trkpt><trkpt lat="44.1094887" lon="10.3986371"><ele>433.0</ele><time>2026-04-04T11:51:48.776Z</time></trkpt><trkpt lat="44.1095392" lon="10.3987291"><ele>433.0</ele><time>2026-04-04T11:51:49.779Z</time></trkpt><trkpt lat="44.1095956" lon="10.3988228"><ele>433.0</ele><time>2026-04-04T11:51:50.781Z</time></trkpt><trkpt lat="44.1096511" lon="10.3989067"><ele>433.00000000000006</ele><time>2026-04-04T11:51:51.775Z</time></trkpt><trkpt lat="44.109701" lon="10.3989984"><ele>433.0</ele><time>2026-04-04T11:51:52.787Z</time></trkpt><trkpt lat="44.1097523" lon="10.3990805"><ele>435.0</ele><time>2026-04-04T11:51:53.779Z</time></trkpt><trkpt lat="44.1097682" lon="10.3991677"><ele>436.99999999999994</ele><time>2026-04-04T11:51:54.783Z</time></trkpt><trkpt lat="44.1098251" lon="10.3993354"><ele>438.99999999999994</ele><time>2026-04-04T11:51:56.772Z</time></trkpt><trkpt lat="44.1098541" lon="10.3995001"><ele>441.0</ele><time>2026-04-04T11:51:58.791Z</time></trkpt><trkpt lat="44.10988" lon="10.3996544"><ele>443.0</ele><time>2026-04-04T11:52:00.773Z</time></trkpt><trkpt lat="44.109929" lon="10.399794"><ele>438.4</ele><time>2026-04-04T11:52:02.781Z</time></trkpt><trkpt lat="44.1099835" lon="10.3999092"><ele>433.79999999999995</ele><time>2026-04-04T11:52:04.796Z</time></trkpt><trkpt lat="44.110035" lon="10.4000434"><ele>429.2</ele><time>2026-04-04T11:52:06.78Z</time></trkpt><trkpt lat="44.110091" lon="10.4001817"><ele>424.6</ele><time>2026-04-04T11:52:08.794Z</time></trkpt><trkpt lat="44.1101164" lon="10.4002656"><ele>420.0</ele><time>2026-04-04T11:52:09.779Z</time></trkpt><trkpt lat="44.1101251" lon="10.400357"><ele>420.0</ele><time>2026-04-04T11:52:10.771Z</time></trkpt><trkpt lat="44.1100993" lon="10.4004466"><ele>420.0</ele><time>2026-04-04T11:52:11.775Z</time></trkpt><trkpt lat="44.1100431" lon="10.4005573"><ele>420.0</ele><time>2026-04-04T11:52:12.778Z</time></trkpt><trkpt lat="44.1099883" lon="10.4006608"><ele>420.0</ele><time>2026-04-04T11:52:13.783Z</time></trkpt><trkpt lat="44.1099423" lon="10.4007757"><ele>420.0</ele><time>2026-04-04T11:52:14.776Z</time></trkpt><trkpt lat="44.1098908" lon="10.4009002"><ele>422.2</ele><time>2026-04-04T11:52:15.781Z</time></trkpt><trkpt lat="44.1098484" lon="10.401035"><ele>424.4</ele><time>2026-04-04T11:52:16.78Z</time></trkpt><trkpt lat="44.1098109" lon="10.4011731"><ele>426.6</ele><time>2026-04-04T11:52:17.78Z</time></trkpt><trkpt lat="44.1097742" lon="10.401326"><ele>428.8</ele><time>2026-04-04T11:52:18.776Z</time></trkpt><trkpt lat="44.1097441" lon="10.4014761"><ele>431.0</ele><time>2026-04-04T11:52:19.78Z</time></trkpt><trkpt lat="44.1097189" lon="10.4016316"><ele>431.0</ele><time>2026-04-04T11:52:20.778Z</time></trkpt><trkpt lat="44.109722" lon="10.4017818"><ele>431.0</ele><time>2026-04-04T11:52:21.777Z</time></trkpt><trkpt lat="44.1097434" lon="10.4019182"><ele>431.0</ele><time>2026-04-04T11:52:22.78Z</time></trkpt><trkpt lat="44.1097786" lon="10.4020412"><ele>431.0</ele><time>2026-04-04T11:52:23.778Z</time></trkpt><trkpt lat="44.1098075" lon="10.4021551"><ele>431.0</ele><time>2026-04-04T11:52:24.779Z</time></trkpt><trkpt lat="44.1098" lon="10.402258"><ele>427.8333333333333</ele><time>2026-04-04T11:52:25.792Z</time></trkpt><trkpt lat="44.1097626" lon="10.4023446"><ele>424.66666666666663</ele><time>2026-04-04T11:52:26.785Z</time></trkpt><trkpt lat="44.1097099" lon="10.4024149"><ele>421.5</ele><time>2026-04-04T11:52:27.773Z</time></trkpt><trkpt lat="44.1096326" lon="10.4024375"><ele>418.33333333333337</ele><time>2026-04-04T11:52:28.78Z</time></trkpt><trkpt lat="44.1095463" lon="10.4024274"><ele>415.1666666666667</ele><time>2026-04-04T11:52:29.769Z</time></trkpt><trkpt lat="44.109461" lon="10.4024134"><ele>412.0</ele><time>2026-04-04T11:52:30.797Z</time></trkpt><trkpt lat="44.1093767" lon="10.4023851"><ele>412.00000000000006</ele><time>2026-04-04T11:52:31.772Z</time></trkpt><trkpt lat="44.1092993" lon="10.4023716"><ele>412.0</ele><time>2026-04-04T11:52:32.78Z</time></trkpt><trkpt lat="44.1092308" lon="10.4024146"><ele>412.0</ele><time>2026-04-04T11:52:33.772Z</time></trkpt><trkpt lat="44.109184" lon="10.4024969"><ele>412.0</ele><time>2026-04-04T11:52:34.776Z</time></trkpt><trkpt lat="44.1091651" lon="10.4025991"><ele>412.00000000000006</ele><time>2026-04-04T11:52:35.778Z</time></trkpt><trkpt lat="44.1091669" lon="10.4027194"><ele>412.0</ele><time>2026-04-04T11:52:36.774Z</time></trkpt><trkpt lat="44.1091802" lon="10.4028369"><ele>412.0</ele><time>2026-04-04T11:52:37.787Z</time></trkpt><trkpt lat="44.1092017" lon="10.4029593"><ele>412.0</ele><time>2026-04-04T11:52:38.779Z</time></trkpt><trkpt lat="44.1092324" lon="10.4030959"><ele>412.0</ele><time>2026-04-04T11:52:39.771Z</time></trkpt><trkpt lat="44.1092699" lon="10.4032326"><ele>412.0</ele><time>2026-04-04T11:52:40.794Z</time></trkpt><trkpt lat="44.1093102" lon="10.4033796"><ele>412.0</ele><time>2026-04-04T11:52:41.775Z</time></trkpt><trkpt lat="44.1093567" lon="10.4035238"><ele>410.20000000000005</ele><time>2026-04-04T11:52:42.776Z</time></trkpt><trkpt lat="44.1093977" lon="10.4036518"><ele>408.4</ele><time>2026-04-04T11:52:43.788Z</time></trkpt><trkpt lat="44.1094318" lon="10.4037772"><ele>406.6</ele><time>2026-04-04T11:52:44.786Z</time></trkpt><trkpt lat="44.109454" lon="10.4039074"><ele>404.79999999999995</ele><time>2026-04-04T11:52:45.772Z</time></trkpt><trkpt lat="44.1094253" lon="10.4040378"><ele>403.0</ele><time>2026-04-04T11:52:46.771Z</time></trkpt><trkpt lat="44.1093996" lon="10.4041596"><ele>402.2</ele><time>2026-04-04T11:52:47.783Z</time></trkpt><trkpt lat="44.109337" lon="10.4042521"><ele>401.4</ele><time>2026-04-04T11:52:48.774Z</time></trkpt><trkpt lat="44.1092581" lon="10.4043364"><ele>400.59999999999997</ele><time>2026-04-04T11:52:49.773Z</time></trkpt><trkpt lat="44.1091641" lon="10.404396"><ele>399.79999999999995</ele><time>2026-04-04T11:52:50.769Z</time></trkpt><trkpt lat="44.1090757" lon="10.4044892"><ele>399.0</ele><time>2026-04-04T11:52:51.773Z</time></trkpt><trkpt lat="44.1090136" lon="10.4046193"><ele>398.6</ele><time>2026-04-04T11:52:52.771Z</time></trkpt><trkpt lat="44.1089602" lon="10.4047667"><ele>398.2</ele><time>2026-04-04T11:52:53.778Z</time></trkpt><trkpt lat="44.1089712" lon="10.4049066"><ele>397.8</ele><time>2026-04-04T11:52:54.793Z</time></trkpt><trkpt lat="44.108992" lon="10.4050194"><ele>397.40000000000003</ele><time>2026-04-04T11:52:55.777Z</time></trkpt><trkpt lat="44.1090224" lon="10.4051391"><ele>397.0</ele><time>2026-04-04T11:52:56.772Z</time></trkpt><trkpt lat="44.1090513" lon="10.4052443"><ele>397.00000000000006</ele><time>2026-04-04T11:52:57.795Z</time></trkpt><trkpt lat="44.1090506" lon="10.4053457"><ele>397.0</ele><time>2026-04-04T11:52:58.793Z</time></trkpt><trkpt lat="44.1090275" lon="10.4054441"><ele>397.0</ele><time>2026-04-04T11:52:59.776Z</time></trkpt><trkpt lat="44.1089678" lon="10.4055257"><ele>397.0</ele><time>2026-04-04T11:53:00.774Z</time></trkpt><trkpt lat="44.1089019" lon="10.4056103"><ele>397.00000000000006</ele><time>2026-04-04T11:53:01.778Z</time></trkpt><trkpt lat="44.1088503" lon="10.4057263"><ele>397.0</ele><time>2026-04-04T11:53:02.771Z</time></trkpt><trkpt lat="44.1088123" lon="10.4058577"><ele>391.83333333333337</ele><time>2026-04-04T11:53:03.789Z</time></trkpt><trkpt lat="44.1087863" lon="10.405994"><ele>386.6666666666667</ele><time>2026-04-04T11:53:04.785Z</time></trkpt><trkpt lat="44.1087631" lon="10.406116"><ele>381.5</ele><time>2026-04-04T11:53:05.773Z</time></trkpt><trkpt lat="44.1087277" lon="10.4062364"><ele>376.33333333333337</ele><time>2026-04-04T11:53:06.775Z</time></trkpt><trkpt lat="44.1086899" lon="10.4063362"><ele>371.1666666666667</ele><time>2026-04-04T11:53:07.773Z</time></trkpt><trkpt lat="44.1086572" lon="10.4064291"><ele>366.0</ele><time>2026-04-04T11:53:08.768Z</time></trkpt><trkpt lat="44.1086817" lon="10.4065495"><ele>366.0</ele><time>2026-04-04T11:53:10.769Z</time></trkpt><trkpt lat="44.1087589" lon="10.4065905"><ele>366.0</ele><time>2026-04-04T11:53:12.778Z</time></trkpt><trkpt lat="44.1088458" lon="10.4065083"><ele>366.0</ele><time>2026-04-04T11:53:14.777Z</time></trkpt><trkpt lat="44.1088978" lon="10.4063375"><ele>366.0</ele><time>2026-04-04T11:53:16.775Z</time></trkpt><trkpt lat="44.1089309" lon="10.4062346"><ele>366.0</ele><time>2026-04-04T11:53:17.78Z</time></trkpt><trkpt lat="44.1089692" lon="10.4061325"><ele>366.0</ele><time>2026-04-04T11:53:18.772Z</time></trkpt><trkpt lat="44.1090256" lon="10.4060211"><ele>366.0</ele><time>2026-04-04T11:53:19.77Z</time></trkpt><trkpt lat="44.1090923" lon="10.4059172"><ele>366.0</ele><time>2026-04-04T11:53:20.78Z</time></trkpt><trkpt lat="44.1091705" lon="10.4058391"><ele>366.0</ele><time>2026-04-04T11:53:21.78Z</time></trkpt><trkpt lat="44.1092617" lon="10.4057737"><ele>366.0</ele><time>2026-04-04T11:53:22.768Z</time></trkpt><trkpt lat="44.1093338" lon="10.4056734"><ele>367.6</ele><time>2026-04-04T11:53:23.768Z</time></trkpt><trkpt lat="44.1094017" lon="10.4055754"><ele>369.20000000000005</ele><time>2026-04-04T11:53:24.778Z</time></trkpt><trkpt lat="44.1094579" lon="10.405456"><ele>370.79999999999995</ele><time>2026-04-04T11:53:25.782Z</time></trkpt><trkpt lat="44.109513" lon="10.4053385"><ele>372.4</ele><time>2026-04-04T11:53:26.79Z</time></trkpt><trkpt lat="44.1095717" lon="10.4052456"><ele>374.0</ele><time>2026-04-04T11:53:27.771Z</time></trkpt><trkpt lat="44.1096268" lon="10.405163"><ele>374.0</ele><time>2026-04-04T11:53:28.78Z</time></trkpt><trkpt lat="44.1096965" lon="10.4051001"><ele>374.0</ele><time>2026-04-04T11:53:29.766Z</time></trkpt><trkpt lat="44.1097655" lon="10.4050263"><ele>374.0</ele><time>2026-04-04T11:53:30.781Z</time></trkpt><trkpt lat="44.1098422" lon="10.4049514"><ele>374.0</ele><time>2026-04-04T11:53:31.778Z</time></trkpt><trkpt lat="44.1099081" lon="10.4048831"><ele>374.0</ele><time>2026-04-04T11:53:32.778Z</time></trkpt><trkpt lat="44.1099849" lon="10.4048106"><ele>374.0</ele><time>2026-04-04T11:53:33.776Z</time></trkpt><trkpt lat="44.1100541" lon="10.4047353"><ele>371.0</ele><time>2026-04-04T11:53:34.778Z</time></trkpt><trkpt lat="44.1101215" lon="10.4046633"><ele>368.0</ele><time>2026-04-04T11:53:35.778Z</time></trkpt><trkpt lat="44.1101901" lon="10.404582"><ele>365.0</ele><time>2026-04-04T11:53:36.768Z</time></trkpt><trkpt lat="44.1102464" lon="10.4044892"><ele>362.0</ele><time>2026-04-04T11:53:37.774Z</time></trkpt><trkpt lat="44.110299" lon="10.404392"><ele>359.0</ele><time>2026-04-04T11:53:38.785Z</time></trkpt><trkpt lat="44.110344" lon="10.4042809"><ele>356.0</ele><time>2026-04-04T11:53:39.79Z</time></trkpt><trkpt lat="44.1103765" lon="10.4041825"><ele>356.0</ele><time>2026-04-04T11:53:40.777Z</time></trkpt><trkpt lat="44.1103994" lon="10.4040882"><ele>356.0</ele><time>2026-04-04T11:53:41.774Z</time></trkpt><trkpt lat="44.110459" lon="10.4039427"><ele>356.0</ele><time>2026-04-04T11:53:43.793Z</time></trkpt><trkpt lat="44.1105528" lon="10.403914"><ele>356.0</ele><time>2026-04-04T11:53:45.768Z</time></trkpt><trkpt lat="44.1106161" lon="10.4040311"><ele>356.0</ele><time>2026-04-04T11:53:47.78Z</time></trkpt><trkpt lat="44.1105864" lon="10.4041837"><ele>356.0</ele><time>2026-04-04T11:53:49.772Z</time></trkpt><trkpt lat="44.110559" lon="10.4042639"><ele>356.0</ele><time>2026-04-04T11:53:50.774Z</time></trkpt><trkpt lat="44.1105329" lon="10.4043481"><ele>356.0</ele><time>2026-04-04T11:53:51.774Z</time></trkpt><trkpt lat="44.1105028" lon="10.404449"><ele>356.0</ele><time>2026-04-04T11:53:52.768Z</time></trkpt><trkpt lat="44.1104773" lon="10.4045534"><ele>356.0</ele><time>2026-04-04T11:53:53.778Z</time></trkpt><trkpt lat="44.1104591" lon="10.4046725"><ele>356.0</ele><time>2026-04-04T11:53:54.788Z</time></trkpt><trkpt lat="44.1104368" lon="10.4048035"><ele>352.0</ele><time>2026-04-04T11:53:55.77Z</time></trkpt><trkpt lat="44.1104205" lon="10.4049361"><ele>348.0</ele><time>2026-04-04T11:53:56.793Z</time></trkpt><trkpt lat="44.1104029" lon="10.4050759"><ele>344.0</ele><time>2026-04-04T11:53:57.787Z</time></trkpt><trkpt lat="44.1103855" lon="10.4052026"><ele>340.0</ele><time>2026-04-04T11:53:58.777Z</time></trkpt><trkpt lat="44.1103749" lon="10.4053285"><ele>336.0</ele><time>2026-04-04T11:53:59.767Z</time></trkpt><trkpt lat="44.1103572" lon="10.4054552"><ele>331.6</ele><time>2026-04-04T11:54:00.772Z</time></trkpt><trkpt lat="44.1103406" lon="10.4055766"><ele>327.20000000000005</ele><time>2026-04-04T11:54:01.781Z</time></trkpt><trkpt lat="44.1103256" lon="10.4056998"><ele>322.79999999999995</ele><time>2026-04-04T11:54:02.774Z</time></trkpt><trkpt lat="44.110311" lon="10.4058294"><ele>318.4</ele><time>2026-04-04T11:54:03.782Z</time></trkpt><trkpt lat="44.1102953" lon="10.4059575"><ele>314.0</ele><time>2026-04-04T11:54:04.773Z</time></trkpt><trkpt lat="44.1102776" lon="10.4060744"><ele>313.99999999999994</ele><time>2026-04-04T11:54:05.777Z</time></trkpt><trkpt lat="44.1102671" lon="10.4061811"><ele>314.0</ele><time>2026-04-04T11:54:06.775Z</time></trkpt><trkpt lat="44.1102547" lon="10.4062839"><ele>314.0</ele><time>2026-04-04T11:54:07.771Z</time></trkpt><trkpt lat="44.1102441" lon="10.4063792"><ele>314.0</ele><time>2026-04-04T11:54:08.774Z</time></trkpt><trkpt lat="44.1102298" lon="10.4064761"><ele>314.0</ele><time>2026-04-04T11:54:09.777Z</time></trkpt><trkpt lat="44.1102181" lon="10.4065661"><ele>313.99999999999994</ele><time>2026-04-04T11:54:10.773Z</time></trkpt><trkpt lat="44.1102061" lon="10.4066609"><ele>314.0</ele><time>2026-04-04T11:54:11.779Z</time></trkpt><trkpt lat="44.1101923" lon="10.4067528"><ele>312.4285714285714</ele><time>2026-04-04T11:54:12.781Z</time></trkpt><trkpt lat="44.1101784" lon="10.4068395"><ele>310.85714285714283</ele><time>2026-04-04T11:54:13.777Z</time></trkpt><trkpt lat="44.1101635" lon="10.40693"><ele>309.2857142857143</ele><time>2026-04-04T11:54:14.784Z</time></trkpt><trkpt lat="44.1101494" lon="10.4070198"><ele>307.71428571428567</ele><time>2026-04-04T11:54:15.78Z</time></trkpt><trkpt lat="44.1101423" lon="10.4071744"><ele>306.1428571428571</ele><time>2026-04-04T11:54:17.781Z</time></trkpt><trkpt lat="44.1101331" lon="10.4072759"><ele>304.57142857142856</ele><time>2026-04-04T11:54:19.785Z</time></trkpt><trkpt lat="44.110118" lon="10.4073646"><ele>303.0</ele><time>2026-04-04T11:54:22.779Z</time></trkpt><trkpt lat="44.1100981" lon="10.4074607"><ele>301.3333333333333</ele><time>2026-04-04T11:54:25.777Z</time></trkpt><trkpt lat="44.1100875" lon="10.407552"><ele>299.6666666666667</ele><time>2026-04-04T11:54:30.771Z</time></trkpt><trkpt lat="44.1100647" lon="10.4076422"><ele>298.0</ele><time>2026-04-04T11:54:33.776Z</time></trkpt><trkpt lat="44.1100461" lon="10.4077536"><ele>296.33333333333337</ele><time>2026-04-04T11:54:35.776Z</time></trkpt><trkpt lat="44.1100222" lon="10.4078768"><ele>294.6666666666667</ele><time>2026-04-04T11:54:37.769Z</time></trkpt><trkpt lat="44.1099903" lon="10.4079887"><ele>293.0</ele><time>2026-04-04T11:54:39.788Z</time></trkpt><trkpt lat="44.10996" lon="10.4081109"><ele>292.1666666666667</ele><time>2026-04-04T11:54:41.782Z</time></trkpt><trkpt lat="44.109925" lon="10.4082412"><ele>291.33333333333337</ele><time>2026-04-04T11:54:43.781Z</time></trkpt><trkpt lat="44.1098851" lon="10.4083804"><ele>290.5</ele><time>2026-04-04T11:54:45.78Z</time></trkpt><trkpt lat="44.1098525" lon="10.4084984"><ele>289.6666666666667</ele><time>2026-04-04T11:54:47.776Z</time></trkpt><trkpt lat="44.1098408" lon="10.4085884"><ele>288.8333333333333</ele><time>2026-04-04T11:54:49.768Z</time></trkpt><trkpt lat="44.1098075" lon="10.4086776"><ele>288.0</ele><time>2026-04-04T11:54:52.776Z</time></trkpt><trkpt lat="44.1098722" lon="10.4086313"><ele>287.6666666666667</ele><time>2026-04-04T11:54:57.797Z</time></trkpt><trkpt lat="44.109916" lon="10.4085602"><ele>287.3333333333333</ele><time>2026-04-04T11:54:59.777Z</time></trkpt><trkpt lat="44.1099603" lon="10.4084901"><ele>287.0</ele><time>2026-04-04T11:55:01.764Z</time></trkpt><trkpt lat="44.1100183" lon="10.4083922"><ele>286.66666666666663</ele><time>2026-04-04T11:55:04.767Z</time></trkpt><trkpt lat="44.1100695" lon="10.4082675"><ele>286.3333333333333</ele><time>2026-04-04T11:55:06.784Z</time></trkpt><trkpt lat="44.1100888" lon="10.408131"><ele>286.0</ele><time>2026-04-04T11:55:08.786Z</time></trkpt><trkpt lat="44.1101222" lon="10.4080263"><ele>287.16666666666663</ele><time>2026-04-04T11:55:12.776Z</time></trkpt><trkpt lat="44.1101541" lon="10.4079261"><ele>288.3333333333333</ele><time>2026-04-04T11:55:16.776Z</time></trkpt><trkpt lat="44.1102286" lon="10.407833"><ele>289.5</ele><time>2026-04-04T11:55:20.782Z</time></trkpt><trkpt lat="44.1102849" lon="10.4077727"><ele>290.6666666666667</ele><time>2026-04-04T11:55:21.775Z</time></trkpt><trkpt lat="44.1103661" lon="10.4077046"><ele>291.83333333333337</ele><time>2026-04-04T11:55:22.768Z</time></trkpt><trkpt lat="44.1104523" lon="10.4076233"><ele>293.0</ele><time>2026-04-04T11:55:23.785Z</time></trkpt><trkpt lat="44.1105245" lon="10.4075373"><ele>293.0</ele><time>2026-04-04T11:55:24.784Z</time></trkpt><trkpt lat="44.1105934" lon="10.4074472"><ele>293.0</ele><time>2026-04-04T11:55:25.784Z</time></trkpt><trkpt lat="44.1106699" lon="10.4073852"><ele>293.0</ele><time>2026-04-04T11:55:26.786Z</time></trkpt><trkpt lat="44.1107431" lon="10.4073334"><ele>293.0</ele><time>2026-04-04T11:55:27.774Z</time></trkpt><trkpt lat="44.1108147" lon="10.4072969"><ele>293.0</ele><time>2026-04-04T11:55:28.776Z</time></trkpt><trkpt lat="44.1108863" lon="10.4072776"><ele>293.0</ele><time>2026-04-04T11:55:29.781Z</time></trkpt><trkpt lat="44.1109525" lon="10.4072553"><ele>290.1666666666667</ele><time>2026-04-04T11:55:30.78Z</time></trkpt><trkpt lat="44.1110146" lon="10.4072367"><ele>287.33333333333337</ele><time>2026-04-04T11:55:31.778Z</time></trkpt><trkpt lat="44.1111047" lon="10.4072209"><ele>284.5</ele><time>2026-04-04T11:55:33.776Z</time></trkpt><trkpt lat="44.1111924" lon="10.4072194"><ele>281.6666666666667</ele><time>2026-04-04T11:55:36.775Z</time></trkpt><trkpt lat="44.1112863" lon="10.4072203"><ele>278.8333333333333</ele><time>2026-04-04T11:55:39.759Z</time></trkpt><trkpt lat="44.1113496" lon="10.4072102"><ele>276.0</ele><time>2026-04-04T11:55:41.782Z</time></trkpt><trkpt lat="44.1114169" lon="10.4071861"><ele>276.0</ele><time>2026-04-04T11:55:43.769Z</time></trkpt><trkpt lat="44.1114862" lon="10.4071697"><ele>276.0</ele><time>2026-04-04T11:55:45.775Z</time></trkpt><trkpt lat="44.1115583" lon="10.4071468"><ele>276.0</ele><time>2026-04-04T11:55:47.779Z</time></trkpt><trkpt lat="44.1116252" lon="10.4071077"><ele>276.0</ele><time>2026-04-04T11:55:49.785Z</time></trkpt><trkpt lat="44.1116787" lon="10.4070481"><ele>276.0</ele><time>2026-04-04T11:55:51.775Z</time></trkpt><trkpt lat="44.1117232" lon="10.4069704"><ele>276.0</ele><time>2026-04-04T11:55:53.777Z</time></trkpt><trkpt lat="44.1117558" lon="10.4068797"><ele>276.0</ele><time>2026-04-04T11:55:55.773Z</time></trkpt><trkpt lat="44.1117803" lon="10.4067821"><ele>276.2857142857143</ele><time>2026-04-04T11:55:57.775Z</time></trkpt><trkpt lat="44.1118036" lon="10.4066869"><ele>276.5714285714286</ele><time>2026-04-04T11:55:59.772Z</time></trkpt><trkpt lat="44.1118217" lon="10.4065907"><ele>276.8571428571429</ele><time>2026-04-04T11:56:01.771Z</time></trkpt><trkpt lat="44.1118479" lon="10.406495"><ele>277.14285714285717</ele><time>2026-04-04T11:56:03.777Z</time></trkpt><trkpt lat="44.1118694" lon="10.406399"><ele>277.42857142857144</ele><time>2026-04-04T11:56:05.783Z</time></trkpt><trkpt lat="44.1118937" lon="10.4063054"><ele>277.7142857142857</ele><time>2026-04-04T11:56:07.774Z</time></trkpt><trkpt lat="44.1119169" lon="10.4062133"><ele>278.0</ele><time>2026-04-04T11:56:09.777Z</time></trkpt><trkpt lat="44.1119396" lon="10.406122"><ele>278.0</ele><time>2026-04-04T11:56:11.762Z</time></trkpt><trkpt lat="44.1119605" lon="10.4060317"><ele>278.0</ele><time>2026-04-04T11:56:13.775Z</time></trkpt><trkpt lat="44.111984" lon="10.4059394"><ele>278.0</ele><time>2026-04-04T11:56:15.777Z</time></trkpt><trkpt lat="44.1120083" lon="10.40585"><ele>278.0</ele><time>2026-04-04T11:56:17.773Z</time></trkpt><trkpt lat="44.1120318" lon="10.4057544"><ele>278.0</ele><time>2026-04-04T11:56:19.771Z</time></trkpt><trkpt lat="44.1120566" lon="10.4056611"><ele>278.0</ele><time>2026-04-04T11:56:21.764Z</time></trkpt><trkpt lat="44.1120813" lon="10.4055632"><ele>278.0</ele><time>2026-04-04T11:56:23.769Z</time></trkpt><trkpt lat="44.1121056" lon="10.4054665"><ele>279.1428571428571</ele><time>2026-04-04T11:56:25.766Z</time></trkpt><trkpt lat="44.1121312" lon="10.4053759"><ele>280.2857142857143</ele><time>2026-04-04T11:56:27.772Z</time></trkpt><trkpt lat="44.1121569" lon="10.4052874"><ele>281.42857142857144</ele><time>2026-04-04T11:56:29.764Z</time></trkpt><trkpt lat="44.1121845" lon="10.4052072"><ele>282.57142857142856</ele><time>2026-04-04T11:56:31.768Z</time></trkpt><trkpt lat="44.1122235" lon="10.4051227"><ele>283.7142857142857</ele><time>2026-04-04T11:56:33.787Z</time></trkpt><trkpt lat="44.1122656" lon="10.4050437"><ele>284.85714285714283</ele><time>2026-04-04T11:56:35.782Z</time></trkpt><trkpt lat="44.1123086" lon="10.4049654"><ele>286.0</ele><time>2026-04-04T11:56:37.773Z</time></trkpt><trkpt lat="44.1123584" lon="10.4049013"><ele>285.2857142857143</ele><time>2026-04-04T11:56:39.77Z</time></trkpt><trkpt lat="44.1124115" lon="10.4048488"><ele>284.57142857142856</ele><time>2026-04-04T11:56:41.784Z</time></trkpt><trkpt lat="44.1124628" lon="10.4047934"><ele>283.8571428571429</ele><time>2026-04-04T11:56:43.778Z</time></trkpt><trkpt lat="44.112512" lon="10.4047352"><ele>283.1428571428571</ele><time>2026-04-04T11:56:45.773Z</time></trkpt><trkpt lat="44.1125633" lon="10.4046806"><ele>282.42857142857144</ele><time>2026-04-04T11:56:47.769Z</time></trkpt><trkpt lat="44.112613" lon="10.4046256"><ele>281.7142857142857</ele><time>2026-04-04T11:56:49.776Z</time></trkpt><trkpt lat="44.1126864" lon="10.4045531"><ele>281.0</ele><time>2026-04-04T11:56:52.767Z</time></trkpt><trkpt lat="44.1127614" lon="10.404478"><ele>281.00000000000006</ele><time>2026-04-04T11:56:55.782Z</time></trkpt><trkpt lat="44.1128167" lon="10.4044219"><ele>281.0</ele><time>2026-04-04T11:56:57.771Z</time></trkpt><trkpt lat="44.1128726" lon="10.404366"><ele>281.0</ele><time>2026-04-04T11:56:59.77Z</time></trkpt><trkpt lat="44.112928" lon="10.4043113"><ele>281.0</ele><time>2026-04-04T11:57:01.77Z</time></trkpt><trkpt lat="44.1129817" lon="10.4042592"><ele>281.0</ele><time>2026-04-04T11:57:03.778Z</time></trkpt><trkpt lat="44.1130542" lon="10.4041782"><ele>281.00000000000006</ele><time>2026-04-04T11:57:06.776Z</time></trkpt><trkpt lat="44.1131044" lon="10.4041207"><ele>281.0</ele><time>2026-04-04T11:57:08.783Z</time></trkpt><trkpt lat="44.1131541" lon="10.4040574"><ele>281.00000000000006</ele><time>2026-04-04T11:57:10.789Z</time></trkpt><trkpt lat="44.1132067" lon="10.4040023"><ele>281.0</ele><time>2026-04-04T11:57:12.774Z</time></trkpt><trkpt lat="44.1132624" lon="10.4039404"><ele>281.0</ele><time>2026-04-04T11:57:14.761Z</time></trkpt><trkpt lat="44.1133129" lon="10.4038789"><ele>281.0</ele><time>2026-04-04T11:57:16.772Z</time></trkpt><trkpt lat="44.1133643" lon="10.4038238"><ele>281.0</ele><time>2026-04-04T11:57:18.775Z</time></trkpt><trkpt lat="44.1134162" lon="10.4037695"><ele>281.00000000000006</ele><time>2026-04-04T11:57:20.769Z</time></trkpt><trkpt lat="44.1134917" lon="10.403698"><ele>281.0</ele><time>2026-04-04T11:57:23.775Z</time></trkpt><trkpt lat="44.1135497" lon="10.4036532"><ele>280.42857142857144</ele><time>2026-04-04T11:57:25.782Z</time></trkpt><trkpt lat="44.1136089" lon="10.4036168"><ele>279.8571428571429</ele><time>2026-04-04T11:57:27.777Z</time></trkpt><trkpt lat="44.1136616" lon="10.4035614"><ele>279.2857142857143</ele><time>2026-04-04T11:57:29.772Z</time></trkpt><trkpt lat="44.1137155" lon="10.4035099"><ele>278.7142857142857</ele><time>2026-04-04T11:57:31.772Z</time></trkpt><trkpt lat="44.113771" lon="10.4034592"><ele>278.1428571428571</ele><time>2026-04-04T11:57:33.775Z</time></trkpt><trkpt lat="44.113824" lon="10.4034064"><ele>277.57142857142856</ele><time>2026-04-04T11:57:35.778Z</time></trkpt><trkpt lat="44.1138777" lon="10.4033551"><ele>277.0</ele><time>2026-04-04T11:57:37.774Z</time></trkpt><trkpt lat="44.1139542" lon="10.4032756"><ele>277.0</ele><time>2026-04-04T11:57:40.773Z</time></trkpt><trkpt lat="44.1140052" lon="10.4032224"><ele>277.0</ele><time>2026-04-04T11:57:42.766Z</time></trkpt><trkpt lat="44.1140576" lon="10.4031653"><ele>277.0</ele><time>2026-04-04T11:57:44.773Z</time></trkpt><trkpt lat="44.1141108" lon="10.4031172"><ele>277.0</ele><time>2026-04-04T11:57:46.778Z</time></trkpt><trkpt lat="44.1141626" lon="10.4030669"><ele>277.0</ele><time>2026-04-04T11:57:48.772Z</time></trkpt><trkpt lat="44.1142152" lon="10.4030129"><ele>277.0</ele><time>2026-04-04T11:57:50.763Z</time></trkpt><trkpt lat="44.1142693" lon="10.4029602"><ele>277.0</ele><time>2026-04-04T11:57:52.764Z</time></trkpt><trkpt lat="44.1143233" lon="10.4029103"><ele>276.7142857142857</ele><time>2026-04-04T11:57:54.776Z</time></trkpt><trkpt lat="44.1143778" lon="10.4028591"><ele>276.4285714285714</ele><time>2026-04-04T11:57:56.777Z</time></trkpt><trkpt lat="44.1144335" lon="10.4028098"><ele>276.1428571428571</ele><time>2026-04-04T11:57:58.78Z</time></trkpt><trkpt lat="44.1144881" lon="10.4027584"><ele>275.85714285714283</ele><time>2026-04-04T11:58:00.781Z</time></trkpt><trkpt lat="44.1145613" lon="10.4026933"><ele>275.57142857142856</ele><time>2026-04-04T11:58:03.771Z</time></trkpt><trkpt lat="44.1146236" lon="10.4026256"><ele>275.2857142857143</ele><time>2026-04-04T11:58:06.763Z</time></trkpt><trkpt lat="44.1146827" lon="10.4025611"><ele>275.0</ele><time>2026-04-04T11:58:09.773Z</time></trkpt><trkpt lat="44.1147472" lon="10.4024994"><ele>275.0</ele><time>2026-04-04T11:58:12.793Z</time></trkpt><trkpt lat="44.1148116" lon="10.4024323"><ele>275.0</ele><time>2026-04-04T11:58:15.775Z</time></trkpt><trkpt lat="44.1148731" lon="10.4023593"><ele>275.0</ele><time>2026-04-04T11:58:18.767Z</time></trkpt><trkpt lat="44.1149369" lon="10.4023026"><ele>275.0</ele><time>2026-04-04T11:58:21.776Z</time></trkpt><trkpt lat="44.1150018" lon="10.4022401"><ele>275.0</ele><time>2026-04-04T11:58:24.777Z</time></trkpt><trkpt lat="44.1150715" lon="10.4021661"><ele>275.0</ele><time>2026-04-04T11:58:27.777Z</time></trkpt><trkpt lat="44.1151235" lon="10.4021055"><ele>275.5</ele><time>2026-04-04T11:58:29.773Z</time></trkpt><trkpt lat="44.1151804" lon="10.402043"><ele>276.0</ele><time>2026-04-04T11:58:31.775Z</time></trkpt><trkpt lat="44.1152434" lon="10.4019827"><ele>276.5</ele><time>2026-04-04T11:58:33.775Z</time></trkpt><trkpt lat="44.1153104" lon="10.4019168"><ele>277.0</ele><time>2026-04-04T11:58:35.767Z</time></trkpt><trkpt lat="44.1153821" lon="10.4018448"><ele>277.5</ele><time>2026-04-04T11:58:37.771Z</time></trkpt><trkpt lat="44.1154554" lon="10.4017701"><ele>278.0</ele><time>2026-04-04T11:58:39.779Z</time></trkpt><trkpt lat="44.1155312" lon="10.4016949"><ele>278.0</ele><time>2026-04-04T11:58:41.795Z</time></trkpt><trkpt lat="44.1156031" lon="10.4016235"><ele>278.0</ele><time>2026-04-04T11:58:43.778Z</time></trkpt><trkpt lat="44.1156734" lon="10.4015549"><ele>278.0</ele><time>2026-04-04T11:58:45.772Z</time></trkpt><trkpt lat="44.1157428" lon="10.4014913"><ele>278.0</ele><time>2026-04-04T11:58:47.772Z</time></trkpt><trkpt lat="44.1158137" lon="10.4014331"><ele>278.0</ele><time>2026-04-04T11:58:49.774Z</time></trkpt><trkpt lat="44.1158871" lon="10.4014013"><ele>278.0</ele><time>2026-04-04T11:58:51.765Z</time></trkpt><trkpt lat="44.1159565" lon="10.4014007"><ele>277.83333333333337</ele><time>2026-04-04T11:58:53.76Z</time></trkpt><trkpt lat="44.1160232" lon="10.4014233"><ele>277.6666666666667</ele><time>2026-04-04T11:58:55.764Z</time></trkpt><trkpt lat="44.1160789" lon="10.401474"><ele>277.5</ele><time>2026-04-04T11:58:57.764Z</time></trkpt><trkpt lat="44.1161219" lon="10.4015396"><ele>277.3333333333333</ele><time>2026-04-04T11:58:59.764Z</time></trkpt><trkpt lat="44.1161779" lon="10.4016374"><ele>277.16666666666663</ele><time>2026-04-04T11:59:02.766Z</time></trkpt><trkpt lat="44.1162283" lon="10.4017288"><ele>277.0</ele><time>2026-04-04T11:59:05.768Z</time></trkpt><trkpt lat="44.1162768" lon="10.4018245"><ele>277.0</ele><time>2026-04-04T11:59:08.763Z</time></trkpt><trkpt lat="44.1163255" lon="10.4019177"><ele>277.0</ele><time>2026-04-04T11:59:11.766Z</time></trkpt><trkpt lat="44.1163709" lon="10.4020039"><ele>277.0</ele><time>2026-04-04T11:59:14.764Z</time></trkpt><trkpt lat="44.1164226" lon="10.4020945"><ele>277.0</ele><time>2026-04-04T11:59:17.771Z</time></trkpt><trkpt lat="44.1164806" lon="10.4021819"><ele>277.0</ele><time>2026-04-04T11:59:20.769Z</time></trkpt><trkpt lat="44.1165385" lon="10.4022689"><ele>277.0</ele><time>2026-04-04T11:59:23.77Z</time></trkpt><trkpt lat="44.1165889" lon="10.4023697"><ele>277.0</ele><time>2026-04-04T11:59:26.772Z</time></trkpt><trkpt lat="44.1166497" lon="10.4024612"><ele>277.0</ele><time>2026-04-04T11:59:29.769Z</time></trkpt><trkpt lat="44.116707" lon="10.4025468"><ele>277.0</ele><time>2026-04-04T11:59:32.768Z</time></trkpt><trkpt lat="44.1167632" lon="10.4026293"><ele>277.0</ele><time>2026-04-04T11:59:35.771Z</time></trkpt><trkpt lat="44.1168187" lon="10.4027173"><ele>277.0</ele><time>2026-04-04T11:59:38.781Z</time></trkpt><trkpt lat="44.116877" lon="10.4028082"><ele>277.0</ele><time>2026-04-04T11:59:41.774Z</time></trkpt><trkpt lat="44.1169334" lon="10.4028946"><ele>277.0</ele><time>2026-04-04T11:59:44.775Z</time></trkpt><trkpt lat="44.1169867" lon="10.4029845"><ele>277.0</ele><time>2026-04-04T11:59:47.774Z</time></trkpt><trkpt lat="44.1170433" lon="10.4030684"><ele>277.0</ele><time>2026-04-04T11:59:50.765Z</time></trkpt><trkpt lat="44.1170977" lon="10.4031552"><ele>277.0</ele><time>2026-04-04T11:59:53.768Z</time></trkpt><trkpt lat="44.1171532" lon="10.403243"><ele>277.0</ele><time>2026-04-04T11:59:56.779Z</time></trkpt><trkpt lat="44.1172112" lon="10.4033306"><ele>277.0</ele><time>2026-04-04T11:59:59.778Z</time></trkpt><trkpt lat="44.1172702" lon="10.4034247"><ele>276.8333333333333</ele><time>2026-04-04T12:00:02.771Z</time></trkpt><trkpt lat="44.1173309" lon="10.4035193"><ele>276.66666666666663</ele><time>2026-04-04T12:00:05.775Z</time></trkpt><trkpt lat="44.1173927" lon="10.4036139"><ele>276.5</ele><time>2026-04-04T12:00:08.785Z</time></trkpt><trkpt lat="44.1174352" lon="10.4036791"><ele>276.3333333333333</ele><time>2026-04-04T12:00:10.765Z</time></trkpt><trkpt lat="44.1174777" lon="10.4037441"><ele>276.1666666666667</ele><time>2026-04-04T12:00:12.771Z</time></trkpt><trkpt lat="44.1175229" lon="10.4038162"><ele>276.0</ele><time>2026-04-04T12:00:14.776Z</time></trkpt><trkpt lat="44.1175741" lon="10.4038978"><ele>276.40000000000003</ele><time>2026-04-04T12:00:16.772Z</time></trkpt><trkpt lat="44.1176369" lon="10.4039911"><ele>276.8</ele><time>2026-04-04T12:00:18.766Z</time></trkpt><trkpt lat="44.1177108" lon="10.4040979"><ele>277.20000000000005</ele><time>2026-04-04T12:00:20.768Z</time></trkpt><trkpt lat="44.1177872" lon="10.4042129"><ele>277.6</ele><time>2026-04-04T12:00:22.768Z</time></trkpt><trkpt lat="44.1178638" lon="10.4043299"><ele>278.0</ele><time>2026-04-04T12:00:24.77Z</time></trkpt><trkpt lat="44.1179421" lon="10.404444"><ele>278.0</ele><time>2026-04-04T12:00:26.785Z</time></trkpt><trkpt lat="44.1180172" lon="10.404559"><ele>278.0</ele><time>2026-04-04T12:00:28.773Z</time></trkpt><trkpt lat="44.1180901" lon="10.4046708"><ele>278.0</ele><time>2026-04-04T12:00:30.767Z</time></trkpt><trkpt lat="44.1181642" lon="10.4047864"><ele>278.0</ele><time>2026-04-04T12:00:32.777Z</time></trkpt><trkpt lat="44.1182322" lon="10.4048925"><ele>278.0</ele><time>2026-04-04T12:00:34.775Z</time></trkpt><trkpt lat="44.1182983" lon="10.4050057"><ele>277.8</ele><time>2026-04-04T12:00:36.779Z</time></trkpt><trkpt lat="44.1183642" lon="10.405113"><ele>277.6</ele><time>2026-04-04T12:00:38.777Z</time></trkpt><trkpt lat="44.1184266" lon="10.4052035"><ele>277.4</ele><time>2026-04-04T12:00:40.78Z</time></trkpt><trkpt lat="44.1184941" lon="10.4053032"><ele>277.2</ele><time>2026-04-04T12:00:42.775Z</time></trkpt><trkpt lat="44.1185536" lon="10.4054085"><ele>277.0</ele><time>2026-04-04T12:00:44.769Z</time></trkpt><trkpt lat="44.1186202" lon="10.4055109"><ele>277.0</ele><time>2026-04-04T12:00:46.775Z</time></trkpt><trkpt lat="44.118677" lon="10.4056169"><ele>277.0</ele><time>2026-04-04T12:00:48.778Z</time></trkpt><trkpt lat="44.1187313" lon="10.40572"><ele>277.0</ele><time>2026-04-04T12:00:50.773Z</time></trkpt><trkpt lat="44.1187856" lon="10.4058126"><ele>277.0</ele><time>2026-04-04T12:00:52.77Z</time></trkpt><trkpt lat="44.1188311" lon="10.4059024"><ele>277.0</ele><time>2026-04-04T12:00:54.771Z</time></trkpt><trkpt lat="44.1188791" lon="10.4059835"><ele>277.0</ele><time>2026-04-04T12:00:56.778Z</time></trkpt><trkpt lat="44.118922" lon="10.4060575"><ele>277.0</ele><time>2026-04-04T12:00:58.767Z</time></trkpt><trkpt lat="44.1189576" lon="10.4061302"><ele>277.0</ele><time>2026-04-04T12:01:00.772Z</time></trkpt><trkpt lat="44.1189911" lon="10.4062057"><ele>277.0</ele><time>2026-04-04T12:01:02.763Z</time></trkpt><trkpt lat="44.1190243" lon="10.4062979"><ele>277.0</ele><time>2026-04-04T12:01:05.771Z</time></trkpt><trkpt lat="44.1189767" lon="10.4063887"><ele>277.0</ele><time>2026-04-04T12:01:08.774Z</time></trkpt><trkpt lat="44.1189022" lon="10.4064671"><ele>277.0</ele><time>2026-04-04T12:01:11.774Z</time></trkpt><trkpt lat="44.1188261" lon="10.4065466"><ele>276.66666666666663</ele><time>2026-04-04T12:01:14.772Z</time></trkpt><trkpt lat="44.1187714" lon="10.4065979"><ele>276.3333333333333</ele><time>2026-04-04T12:01:16.778Z</time></trkpt><trkpt lat="44.1187168" lon="10.4066443"><ele>276.0</ele><time>2026-04-04T12:01:18.772Z</time></trkpt><trkpt lat="44.1186602" lon="10.4066857"><ele>275.6666666666667</ele><time>2026-04-04T12:01:20.78Z</time></trkpt><trkpt lat="44.1185784" lon="10.406745"><ele>275.33333333333337</ele><time>2026-04-04T12:01:23.767Z</time></trkpt><trkpt lat="44.1185003" lon="10.4068104"><ele>275.0</ele><time>2026-04-04T12:01:26.771Z</time></trkpt><trkpt lat="44.1184187" lon="10.406873"><ele>275.0</ele><time>2026-04-04T12:01:29.767Z</time></trkpt><trkpt lat="44.1183655" lon="10.4069229"><ele>275.0</ele><time>2026-04-04T12:01:31.77Z</time></trkpt><trkpt lat="44.118305" lon="10.4069676"><ele>275.0</ele><time>2026-04-04T12:01:33.771Z</time></trkpt><trkpt lat="44.1182498" lon="10.4070175"><ele>275.0</ele><time>2026-04-04T12:01:35.772Z</time></trkpt><trkpt lat="44.1181793" lon="10.407101"><ele>275.0</ele><time>2026-04-04T12:01:38.769Z</time></trkpt><trkpt lat="44.1181024" lon="10.4071673"><ele>275.0</ele><time>2026-04-04T12:01:41.768Z</time></trkpt><trkpt lat="44.118025" lon="10.407246"><ele>274.83333333333337</ele><time>2026-04-04T12:01:44.77Z</time></trkpt><trkpt lat="44.1179682" lon="10.4073001"><ele>274.6666666666667</ele><time>2026-04-04T12:01:46.772Z</time></trkpt><trkpt lat="44.1179077" lon="10.4073568"><ele>274.5</ele><time>2026-04-04T12:01:48.777Z</time></trkpt><trkpt lat="44.1178416" lon="10.4074116"><ele>274.3333333333333</ele><time>2026-04-04T12:01:50.771Z</time></trkpt><trkpt lat="44.1177745" lon="10.4074738"><ele>274.16666666666663</ele><time>2026-04-04T12:01:52.778Z</time></trkpt><trkpt lat="44.1177092" lon="10.4075412"><ele>274.0</ele><time>2026-04-04T12:01:54.776Z</time></trkpt><trkpt lat="44.1176514" lon="10.4076115"><ele>274.00000000000006</ele><time>2026-04-04T12:01:56.767Z</time></trkpt><trkpt lat="44.1175991" lon="10.407676"><ele>274.0</ele><time>2026-04-04T12:01:58.768Z</time></trkpt><trkpt lat="44.1175505" lon="10.4077382"><ele>274.0</ele><time>2026-04-04T12:02:00.771Z</time></trkpt><trkpt lat="44.1175018" lon="10.4077975"><ele>274.0</ele><time>2026-04-04T12:02:02.772Z</time></trkpt><trkpt lat="44.1174512" lon="10.4078576"><ele>274.0</ele><time>2026-04-04T12:02:04.776Z</time></trkpt><trkpt lat="44.1173981" lon="10.4079151"><ele>274.00000000000006</ele><time>2026-04-04T12:02:06.776Z</time></trkpt><trkpt lat="44.1173412" lon="10.4079696"><ele>274.0</ele><time>2026-04-04T12:02:08.773Z</time></trkpt><trkpt lat="44.1172848" lon="10.4080201"><ele>274.0</ele><time>2026-04-04T12:02:10.767Z</time></trkpt><trkpt lat="44.1172293" lon="10.408069"><ele>274.0</ele><time>2026-04-04T12:02:12.775Z</time></trkpt><trkpt lat="44.1171491" lon="10.408129"><ele>274.0</ele><time>2026-04-04T12:02:15.779Z</time></trkpt><trkpt lat="44.1170608" lon="10.4081468"><ele>274.0</ele><time>2026-04-04T12:02:18.772Z</time></trkpt><trkpt lat="44.1169728" lon="10.4081352"><ele>274.0</ele><time>2026-04-04T12:02:21.769Z</time></trkpt><trkpt lat="44.1168816" lon="10.4081634"><ele>274.0</ele><time>2026-04-04T12:02:24.772Z</time></trkpt><trkpt lat="44.1168104" lon="10.4082504"><ele>274.0</ele><time>2026-04-04T12:02:27.77Z</time></trkpt><trkpt lat="44.1167678" lon="10.4083161"><ele>274.0</ele><time>2026-04-04T12:02:29.781Z</time></trkpt><trkpt lat="44.1167121" lon="10.408371"><ele>274.0</ele><time>2026-04-04T12:02:31.769Z</time></trkpt><trkpt lat="44.1166471" lon="10.4084485"><ele>274.0</ele><time>2026-04-04T12:02:34.768Z</time></trkpt><trkpt lat="44.116585" lon="10.4085104"><ele>274.0</ele><time>2026-04-04T12:02:37.768Z</time></trkpt><trkpt lat="44.1165077" lon="10.4085638"><ele>274.0</ele><time>2026-04-04T12:02:40.768Z</time></trkpt><trkpt lat="44.1164281" lon="10.4086122"><ele>274.2</ele><time>2026-04-04T12:02:43.772Z</time></trkpt><trkpt lat="44.1163446" lon="10.4086588"><ele>274.4</ele><time>2026-04-04T12:02:46.774Z</time></trkpt><trkpt lat="44.1162586" lon="10.408708"><ele>274.6</ele><time>2026-04-04T12:02:49.764Z</time></trkpt><trkpt lat="44.1161749" lon="10.4087581"><ele>274.8</ele><time>2026-04-04T12:02:52.783Z</time></trkpt><trkpt lat="44.1160879" lon="10.4088039"><ele>275.0</ele><time>2026-04-04T12:02:55.768Z</time></trkpt><trkpt lat="44.1159966" lon="10.4088381"><ele>275.2857142857143</ele><time>2026-04-04T12:02:58.772Z</time></trkpt><trkpt lat="44.1159347" lon="10.4088562"><ele>275.57142857142856</ele><time>2026-04-04T12:03:00.763Z</time></trkpt><trkpt lat="44.1158741" lon="10.4088801"><ele>275.85714285714283</ele><time>2026-04-04T12:03:02.769Z</time></trkpt><trkpt lat="44.1158116" lon="10.4089021"><ele>276.1428571428571</ele><time>2026-04-04T12:03:04.764Z</time></trkpt><trkpt lat="44.1157471" lon="10.4089245"><ele>276.4285714285714</ele><time>2026-04-04T12:03:06.775Z</time></trkpt><trkpt lat="44.1156688" lon="10.4089923"><ele>276.7142857142857</ele><time>2026-04-04T12:03:09.769Z</time></trkpt><trkpt lat="44.1156106" lon="10.4090899"><ele>277.0</ele><time>2026-04-04T12:03:12.792Z</time></trkpt><trkpt lat="44.1155862" lon="10.4091711"><ele>277.0</ele><time>2026-04-04T12:03:14.776Z</time></trkpt><trkpt lat="44.1155682" lon="10.4092558"><ele>277.0</ele><time>2026-04-04T12:03:16.779Z</time></trkpt><trkpt lat="44.1155773" lon="10.4093762"><ele>277.0</ele><time>2026-04-04T12:03:19.779Z</time></trkpt><trkpt lat="44.115596" lon="10.4094685"><ele>277.0</ele><time>2026-04-04T12:03:22.78Z</time></trkpt><trkpt lat="44.115626" lon="10.4095653"><ele>277.0</ele><time>2026-04-04T12:03:25.773Z</time></trkpt><trkpt lat="44.1156679" lon="10.4096699"><ele>277.0</ele><time>2026-04-04T12:03:28.77Z</time></trkpt><trkpt lat="44.1157031" lon="10.4097785"><ele>278.66666666666663</ele><time>2026-04-04T12:03:31.767Z</time></trkpt><trkpt lat="44.1157527" lon="10.4098744"><ele>280.3333333333333</ele><time>2026-04-04T12:03:34.774Z</time></trkpt><trkpt lat="44.11581" lon="10.4099311"><ele>282.0</ele><time>2026-04-04T12:03:37.767Z</time></trkpt><trkpt lat="44.1158811" lon="10.4099607"><ele>283.6666666666667</ele><time>2026-04-04T12:03:40.767Z</time></trkpt><trkpt lat="44.1159544" lon="10.4099638"><ele>285.33333333333337</ele><time>2026-04-04T12:03:43.776Z</time></trkpt><trkpt lat="44.1160312" lon="10.4099402"><ele>287.0</ele><time>2026-04-04T12:03:46.777Z</time></trkpt><trkpt lat="44.1161107" lon="10.4098853"><ele>287.0</ele><time>2026-04-04T12:03:49.772Z</time></trkpt><trkpt lat="44.1161659" lon="10.4098367"><ele>287.0</ele><time>2026-04-04T12:03:51.782Z</time></trkpt><trkpt lat="44.11623" lon="10.409796"><ele>287.0</ele><time>2026-04-04T12:03:53.772Z</time></trkpt><trkpt lat="44.1163026" lon="10.4097681"><ele>287.0</ele><time>2026-04-04T12:03:55.774Z</time></trkpt><trkpt lat="44.1163791" lon="10.4097886"><ele>287.0</ele><time>2026-04-04T12:03:57.776Z</time></trkpt><trkpt lat="44.1164346" lon="10.4098568"><ele>287.0</ele><time>2026-04-04T12:03:59.773Z</time></trkpt><trkpt lat="44.1164825" lon="10.4099275"><ele>287.0</ele><time>2026-04-04T12:04:01.76Z</time></trkpt><trkpt lat="44.1165432" lon="10.4099613"><ele>287.6666666666667</ele><time>2026-04-04T12:04:03.771Z</time></trkpt><trkpt lat="44.116631" lon="10.4099434"><ele>288.33333333333337</ele><time>2026-04-04T12:04:06.762Z</time></trkpt><trkpt lat="44.116714" lon="10.4099189"><ele>289.0</ele><time>2026-04-04T12:04:09.775Z</time></trkpt><trkpt lat="44.1167957" lon="10.4098995"><ele>289.6666666666667</ele><time>2026-04-04T12:04:12.776Z</time></trkpt><trkpt lat="44.1168796" lon="10.4098727"><ele>290.3333333333333</ele><time>2026-04-04T12:04:15.77Z</time></trkpt><trkpt lat="44.1169658" lon="10.4098435"><ele>291.0</ele><time>2026-04-04T12:04:18.77Z</time></trkpt><trkpt lat="44.1170538" lon="10.4098184"><ele>291.0</ele><time>2026-04-04T12:04:21.767Z</time></trkpt><trkpt lat="44.1171397" lon="10.4097897"><ele>291.0</ele><time>2026-04-04T12:04:24.771Z</time></trkpt><trkpt lat="44.1172296" lon="10.4097616"><ele>291.0</ele><time>2026-04-04T12:04:27.778Z</time></trkpt><trkpt lat="44.1173155" lon="10.4097408"><ele>291.0</ele><time>2026-04-04T12:04:30.772Z</time></trkpt><trkpt lat="44.1174047" lon="10.4097137"><ele>291.0</ele><time>2026-04-04T12:04:33.773Z</time></trkpt><trkpt lat="44.1174677" lon="10.409694"><ele>291.0</ele><time>2026-04-04T12:04:35.78Z</time></trkpt><trkpt lat="44.1175535" lon="10.4096729"><ele>290.5</ele><time>2026-04-04T12:04:38.791Z</time></trkpt><trkpt lat="44.1176346" lon="10.4096467"><ele>290.0</ele><time>2026-04-04T12:04:41.772Z</time></trkpt><trkpt lat="44.1177156" lon="10.4096307"><ele>289.5</ele><time>2026-04-04T12:04:45.768Z</time></trkpt><trkpt lat="44.1177915" lon="10.4096277"><ele>289.0</ele><time>2026-04-04T12:04:49.776Z</time></trkpt><trkpt lat="44.1178677" lon="10.4096553"><ele>288.5</ele><time>2026-04-04T12:04:53.77Z</time></trkpt><trkpt lat="44.1179246" lon="10.4097051"><ele>288.0</ele><time>2026-04-04T12:04:56.773Z</time></trkpt><trkpt lat="44.1179972" lon="10.4097562"><ele>288.00000000000006</ele><time>2026-04-04T12:05:00.77Z</time></trkpt><trkpt lat="44.1180686" lon="10.4098145"><ele>288.0</ele><time>2026-04-04T12:05:04.773Z</time></trkpt><trkpt lat="44.1181265" lon="10.4098536"><ele>288.0</ele><time>2026-04-04T12:05:07.77Z</time></trkpt><trkpt lat="44.118181" lon="10.4098996"><ele>288.0</ele><time>2026-04-04T12:05:10.768Z</time></trkpt><trkpt lat="44.118243" lon="10.4099748"><ele>288.0</ele><time>2026-04-04T12:05:14.777Z</time></trkpt><trkpt lat="44.1182929" lon="10.4100612"><ele>288.00000000000006</ele><time>2026-04-04T12:05:18.769Z</time></trkpt><trkpt lat="44.1183233" lon="10.4101393"><ele>288.0</ele><time>2026-04-04T12:05:21.768Z</time></trkpt><trkpt lat="44.1183438" lon="10.4102414"><ele>289.14285714285717</ele><time>2026-04-04T12:05:25.769Z</time></trkpt><trkpt lat="44.1183588" lon="10.4103431"><ele>290.2857142857143</ele><time>2026-04-04T12:05:29.78Z</time></trkpt><trkpt lat="44.1183848" lon="10.4104558"><ele>291.42857142857144</ele><time>2026-04-04T12:05:33.77Z</time></trkpt><trkpt lat="44.118399" lon="10.4105479"><ele>292.57142857142856</ele><time>2026-04-04T12:05:36.769Z</time></trkpt><trkpt lat="44.1184145" lon="10.4106404"><ele>293.7142857142857</ele><time>2026-04-04T12:05:39.772Z</time></trkpt><trkpt lat="44.1184368" lon="10.4107298"><ele>294.8571428571429</ele><time>2026-04-04T12:05:42.77Z</time></trkpt><trkpt lat="44.1184763" lon="10.410806"><ele>296.0</ele><time>2026-04-04T12:05:45.766Z</time></trkpt><trkpt lat="44.1185262" lon="10.4108636"><ele>297.5</ele><time>2026-04-04T12:05:48.771Z</time></trkpt><trkpt lat="44.1185904" lon="10.410931"><ele>299.0</ele><time>2026-04-04T12:05:52.776Z</time></trkpt><trkpt lat="44.1186492" lon="10.4110004"><ele>300.5</ele><time>2026-04-04T12:05:56.779Z</time></trkpt><trkpt lat="44.1187243" lon="10.4110564"><ele>302.0</ele><time>2026-04-04T12:06:00.775Z</time></trkpt><trkpt lat="44.1187879" lon="10.4110856"><ele>303.5</ele><time>2026-04-04T12:06:03.777Z</time></trkpt><trkpt lat="44.1188655" lon="10.4111016"><ele>305.0</ele><time>2026-04-04T12:06:07.773Z</time></trkpt><trkpt lat="44.1189426" lon="10.4111032"><ele>305.0</ele><time>2026-04-04T12:06:11.771Z</time></trkpt><trkpt lat="44.1190173" lon="10.4111039"><ele>305.0</ele><time>2026-04-04T12:06:15.768Z</time></trkpt><trkpt lat="44.1190991" lon="10.4110881"><ele>305.0</ele><time>2026-04-04T12:06:19.773Z</time></trkpt><trkpt lat="44.1191815" lon="10.4110848"><ele>305.0</ele><time>2026-04-04T12:06:23.774Z</time></trkpt><trkpt lat="44.119247" lon="10.4110905"><ele>305.0</ele><time>2026-04-04T12:06:26.768Z</time></trkpt><trkpt lat="44.1193066" lon="10.4111506"><ele>305.0</ele><time>2026-04-04T12:06:30.777Z</time></trkpt><trkpt lat="44.1193079" lon="10.4112623"><ele>305.7142857142857</ele><time>2026-04-04T12:06:34.769Z</time></trkpt><trkpt lat="44.1193041" lon="10.4113642"><ele>306.4285714285714</ele><time>2026-04-04T12:06:38.771Z</time></trkpt><trkpt lat="44.1192757" lon="10.4114642"><ele>307.1428571428571</ele><time>2026-04-04T12:06:44.765Z</time></trkpt><trkpt lat="44.1192382" lon="10.4115375"><ele>307.8571428571429</ele><time>2026-04-04T12:06:48.778Z</time></trkpt><trkpt lat="44.1192246" lon="10.411625"><ele>308.57142857142856</ele><time>2026-04-04T12:06:52.766Z</time></trkpt><trkpt lat="44.119249" lon="10.4117159"><ele>309.2857142857143</ele><time>2026-04-04T12:06:55.764Z</time></trkpt><trkpt lat="44.1192822" lon="10.4118205"><ele>310.0</ele><time>2026-04-04T12:06:59.769Z</time></trkpt><trkpt lat="44.1193063" lon="10.4119082"><ele>310.0</ele><time>2026-04-04T12:07:03.761Z</time></trkpt><trkpt lat="44.1193367" lon="10.4119994"><ele>310.0</ele><time>2026-04-04T12:07:07.767Z</time></trkpt><trkpt lat="44.119356" lon="10.4120905"><ele>310.0</ele><time>2026-04-04T12:07:11.772Z</time></trkpt><trkpt lat="44.1193723" lon="10.4121755"><ele>310.0</ele><time>2026-04-04T12:07:15.775Z</time></trkpt><trkpt lat="44.1193916" lon="10.4122817"><ele>310.0</ele><time>2026-04-04T12:07:20.77Z</time></trkpt><trkpt lat="44.1193986" lon="10.4123863"><ele>310.0</ele><time>2026-04-04T12:07:25.764Z</time></trkpt><trkpt lat="44.1194021" lon="10.4124785"><ele>310.0</ele><time>2026-04-04T12:07:29.772Z</time></trkpt><trkpt lat="44.1193985" lon="10.4125767"><ele>311.0</ele><time>2026-04-04T12:07:33.776Z</time></trkpt><trkpt lat="44.1193859" lon="10.4126777"><ele>312.0</ele><time>2026-04-04T12:07:37.77Z</time></trkpt><trkpt lat="44.1194555" lon="10.4126661"><ele>313.0</ele><time>2026-04-04T12:07:43.781Z</time></trkpt><trkpt lat="44.1194768" lon="10.4125834"><ele>314.0</ele><time>2026-04-04T12:07:47.77Z</time></trkpt><trkpt lat="44.1194876" lon="10.4124814"><ele>315.0</ele><time>2026-04-04T12:07:52.777Z</time></trkpt><trkpt lat="44.1195162" lon="10.4123786"><ele>316.0</ele><time>2026-04-04T12:07:57.768Z</time></trkpt><trkpt lat="44.1195666" lon="10.4123253"><ele>317.0</ele><time>2026-04-04T12:08:01.769Z</time></trkpt><trkpt lat="44.1196381" lon="10.4123461"><ele>317.0</ele><time>2026-04-04T12:08:05.774Z</time></trkpt><trkpt lat="44.1196843" lon="10.4124126"><ele>317.0</ele><time>2026-04-04T12:08:09.767Z</time></trkpt><trkpt lat="44.119692" lon="10.4125102"><ele>317.0</ele><time>2026-04-04T12:08:13.766Z</time></trkpt><trkpt lat="44.1196662" lon="10.4125986"><ele>317.0</ele><time>2026-04-04T12:08:17.774Z</time></trkpt><trkpt lat="44.1196256" lon="10.4126877"><ele>317.0</ele><time>2026-04-04T12:08:22.775Z</time></trkpt><trkpt lat="44.1195988" lon="10.4127947"><ele>317.0</ele><time>2026-04-04T12:08:26.769Z</time></trkpt><trkpt lat="44.1195779" lon="10.4128964"><ele>317.0</ele><time>2026-04-04T12:08:30.775Z</time></trkpt><trkpt lat="44.119561" lon="10.4129959"><ele>318.0</ele><time>2026-04-04T12:08:34.773Z</time></trkpt><trkpt lat="44.1195517" lon="10.4130991"><ele>319.0</ele><time>2026-04-04T12:08:38.761Z</time></trkpt><trkpt lat="44.1195421" lon="10.4132004"><ele>320.0</ele><time>2026-04-04T12:08:42.779Z</time></trkpt><trkpt lat="44.1195363" lon="10.413309"><ele>321.0</ele><time>2026-04-04T12:08:46.779Z</time></trkpt><trkpt lat="44.1195316" lon="10.4134141"><ele>322.0</ele><time>2026-04-04T12:08:50.773Z</time></trkpt><trkpt lat="44.119521" lon="10.4135212"><ele>323.0</ele><time>2026-04-04T12:08:54.773Z</time></trkpt><trkpt lat="44.1194825" lon="10.4136235"><ele>323.00000000000006</ele><time>2026-04-04T12:08:58.763Z</time></trkpt><trkpt lat="44.119438" lon="10.4136939"><ele>323.0</ele><time>2026-04-04T12:09:01.773Z</time></trkpt><trkpt lat="44.1193919" lon="10.4137896"><ele>323.0</ele><time>2026-04-04T12:09:05.773Z</time></trkpt><trkpt lat="44.1193707" lon="10.4138727"><ele>323.0</ele><time>2026-04-04T12:09:08.747Z</time></trkpt><trkpt lat="44.1193652" lon="10.4139659"><ele>323.0</ele><time>2026-04-04T12:09:11.775Z</time></trkpt><trkpt lat="44.1193735" lon="10.4140806"><ele>323.00000000000006</ele><time>2026-04-04T12:09:15.77Z</time></trkpt><trkpt lat="44.1193845" lon="10.4141678"><ele>323.0</ele><time>2026-04-04T12:09:18.77Z</time></trkpt><trkpt lat="44.1193924" lon="10.4142561"><ele>323.42857142857144</ele><time>2026-04-04T12:09:21.775Z</time></trkpt><trkpt lat="44.1193959" lon="10.4143457"><ele>323.8571428571429</ele><time>2026-04-04T12:09:24.765Z</time></trkpt><trkpt lat="44.1193992" lon="10.4144382"><ele>324.28571428571433</ele><time>2026-04-04T12:09:27.772Z</time></trkpt><trkpt lat="44.1194118" lon="10.4145384"><ele>324.7142857142857</ele><time>2026-04-04T12:09:31.771Z</time></trkpt><trkpt lat="44.1193989" lon="10.4146531"><ele>325.1428571428571</ele><time>2026-04-04T12:09:35.777Z</time></trkpt><trkpt lat="44.1193839" lon="10.4147569"><ele>325.5714285714286</ele><time>2026-04-04T12:09:39.784Z</time></trkpt><trkpt lat="44.1194327" lon="10.4148176"><ele>326.0</ele><time>2026-04-04T12:09:43.769Z</time></trkpt><trkpt lat="44.1194928" lon="10.4148533"><ele>327.14285714285717</ele><time>2026-04-04T12:09:46.777Z</time></trkpt><trkpt lat="44.119564" lon="10.4148981"><ele>328.2857142857143</ele><time>2026-04-04T12:09:50.775Z</time></trkpt><trkpt lat="44.1196365" lon="10.4149502"><ele>329.42857142857144</ele><time>2026-04-04T12:09:54.765Z</time></trkpt><trkpt lat="44.1196909" lon="10.4149995"><ele>330.57142857142856</ele><time>2026-04-04T12:09:57.778Z</time></trkpt><trkpt lat="44.1197406" lon="10.4150635"><ele>331.7142857142857</ele><time>2026-04-04T12:10:00.767Z</time></trkpt><trkpt lat="44.1197898" lon="10.4151413"><ele>332.85714285714283</ele><time>2026-04-04T12:10:04.769Z</time></trkpt><trkpt lat="44.1198501" lon="10.4152148"><ele>334.0</ele><time>2026-04-04T12:10:08.778Z</time></trkpt><trkpt lat="44.1199134" lon="10.4152357"><ele>334.1428571428571</ele><time>2026-04-04T12:10:11.766Z</time></trkpt><trkpt lat="44.1199821" lon="10.4152424"><ele>334.2857142857143</ele><time>2026-04-04T12:10:14.771Z</time></trkpt><trkpt lat="44.1200569" lon="10.4152486"><ele>334.42857142857144</ele><time>2026-04-04T12:10:17.773Z</time></trkpt><trkpt lat="44.1201292" lon="10.4152579"><ele>334.57142857142856</ele><time>2026-04-04T12:10:20.769Z</time></trkpt><trkpt lat="44.1201955" lon="10.415268"><ele>334.7142857142857</ele><time>2026-04-04T12:10:23.775Z</time></trkpt><trkpt lat="44.1202645" lon="10.4152786"><ele>334.85714285714283</ele><time>2026-04-04T12:10:26.771Z</time></trkpt><trkpt lat="44.1203301" lon="10.4153163"><ele>335.0</ele><time>2026-04-04T12:10:29.772Z</time></trkpt><trkpt lat="44.1204029" lon="10.4153347"><ele>334.99999999999994</ele><time>2026-04-04T12:10:32.772Z</time></trkpt><trkpt lat="44.1204741" lon="10.4153484"><ele>335.0</ele><time>2026-04-04T12:10:35.767Z</time></trkpt><trkpt lat="44.1205431" lon="10.4153647"><ele>335.0</ele><time>2026-04-04T12:10:38.761Z</time></trkpt><trkpt lat="44.1206118" lon="10.4153676"><ele>335.0</ele><time>2026-04-04T12:10:41.771Z</time></trkpt><trkpt lat="44.1206822" lon="10.4153774"><ele>335.0</ele><time>2026-04-04T12:10:44.775Z</time></trkpt><trkpt lat="44.1207521" lon="10.4153883"><ele>334.99999999999994</ele><time>2026-04-04T12:10:47.766Z</time></trkpt><trkpt lat="44.1208188" lon="10.4153964"><ele>335.0</ele><time>2026-04-04T12:10:50.777Z</time></trkpt><trkpt lat="44.1208855" lon="10.415401"><ele>335.71428571428567</ele><time>2026-04-04T12:10:53.77Z</time></trkpt><trkpt lat="44.1209486" lon="10.4154182"><ele>336.42857142857144</ele><time>2026-04-04T12:10:56.769Z</time></trkpt><trkpt lat="44.1210122" lon="10.415434"><ele>337.1428571428571</ele><time>2026-04-04T12:10:59.768Z</time></trkpt><trkpt lat="44.1210802" lon="10.4154791"><ele>337.85714285714283</ele><time>2026-04-04T12:11:03.773Z</time></trkpt><trkpt lat="44.12114" lon="10.415518"><ele>338.57142857142856</ele><time>2026-04-04T12:11:06.764Z</time></trkpt><trkpt lat="44.121199" lon="10.415553"><ele>339.2857142857143</ele><time>2026-04-04T12:11:09.767Z</time></trkpt><trkpt lat="44.1212615" lon="10.4155888"><ele>340.0</ele><time>2026-04-04T12:11:12.773Z</time></trkpt><trkpt lat="44.121341" lon="10.4156263"><ele>342.0</ele><time>2026-04-04T12:11:16.769Z</time></trkpt><trkpt lat="44.1214223" lon="10.4156363"><ele>344.0</ele><time>2026-04-04T12:11:20.766Z</time></trkpt><trkpt lat="44.1214906" lon="10.4156298"><ele>346.0</ele><time>2026-04-04T12:11:23.775Z</time></trkpt><trkpt lat="44.1215606" lon="10.4156317"><ele>348.0</ele><time>2026-04-04T12:11:26.767Z</time></trkpt><trkpt lat="44.1216318" lon="10.4156257"><ele>350.0</ele><time>2026-04-04T12:11:29.777Z</time></trkpt><trkpt lat="44.1217047" lon="10.415629"><ele>352.0</ele><time>2026-04-04T12:11:32.771Z</time></trkpt><trkpt lat="44.1217767" lon="10.415644"><ele>354.0</ele><time>2026-04-04T12:11:35.765Z</time></trkpt><trkpt lat="44.1218443" lon="10.4156598"><ele>354.14285714285717</ele><time>2026-04-04T12:11:38.767Z</time></trkpt><trkpt lat="44.1219127" lon="10.415673"><ele>354.2857142857143</ele><time>2026-04-04T12:11:41.772Z</time></trkpt><trkpt lat="44.1219812" lon="10.4156825"><ele>354.42857142857144</ele><time>2026-04-04T12:11:44.771Z</time></trkpt><trkpt lat="44.1220629" lon="10.4156998"><ele>354.57142857142856</ele><time>2026-04-04T12:11:48.775Z</time></trkpt><trkpt lat="44.1221274" lon="10.4157129"><ele>354.7142857142857</ele><time>2026-04-04T12:11:51.767Z</time></trkpt><trkpt lat="44.1221924" lon="10.4157247"><ele>354.85714285714283</ele><time>2026-04-04T12:11:54.77Z</time></trkpt><trkpt lat="44.1222625" lon="10.4157327"><ele>355.0</ele><time>2026-04-04T12:11:57.766Z</time></trkpt><trkpt lat="44.1223319" lon="10.4157478"><ele>354.7142857142857</ele><time>2026-04-04T12:12:00.763Z</time></trkpt><trkpt lat="44.1223989" lon="10.4157578"><ele>354.42857142857144</ele><time>2026-04-04T12:12:03.77Z</time></trkpt><trkpt lat="44.1224681" lon="10.4157692"><ele>354.1428571428571</ele><time>2026-04-04T12:12:06.769Z</time></trkpt><trkpt lat="44.1225494" lon="10.4157833"><ele>353.8571428571429</ele><time>2026-04-04T12:12:10.766Z</time></trkpt><trkpt lat="44.1226121" lon="10.4157928"><ele>353.5714285714286</ele><time>2026-04-04T12:12:13.771Z</time></trkpt><trkpt lat="44.1226766" lon="10.415804"><ele>353.2857142857143</ele><time>2026-04-04T12:12:16.766Z</time></trkpt><trkpt lat="44.1227175" lon="10.4158878"><ele>353.0</ele><time>2026-04-04T12:12:20.777Z</time></trkpt><trkpt lat="44.1227058" lon="10.4159895"><ele>353.0</ele><time>2026-04-04T12:12:24.769Z</time></trkpt><trkpt lat="44.1227662" lon="10.4160454"><ele>353.0</ele><time>2026-04-04T12:12:28.778Z</time></trkpt><trkpt lat="44.1228293" lon="10.4160621"><ele>353.0</ele><time>2026-04-04T12:12:31.773Z</time></trkpt><trkpt lat="44.122893" lon="10.4160808"><ele>353.0</ele><time>2026-04-04T12:12:34.774Z</time></trkpt><trkpt lat="44.1229571" lon="10.4161117"><ele>353.0</ele><time>2026-04-04T12:12:38.77Z</time></trkpt><trkpt lat="44.1230295" lon="10.4161531"><ele>353.0</ele><time>2026-04-04T12:12:43.767Z</time></trkpt><trkpt lat="44.1231252" lon="10.4161226"><ele>353.0</ele><time>2026-04-04T12:12:46.779Z</time></trkpt><trkpt lat="44.1232" lon="10.416096"><ele>352.0</ele><time>2026-04-04T12:12:48.772Z</time></trkpt><trkpt lat="44.1232517" lon="10.4160069"><ele>351.0</ele><time>2026-04-04T12:12:51.765Z</time></trkpt><trkpt lat="44.1232706" lon="10.4159157"><ele>350.0</ele><time>2026-04-04T12:12:53.767Z</time></trkpt><trkpt lat="44.1233314" lon="10.4158549"><ele>349.0</ele><time>2026-04-04T12:12:55.777Z</time></trkpt><trkpt lat="44.1234221" lon="10.4158679"><ele>348.0</ele><time>2026-04-04T12:12:57.771Z</time></trkpt><trkpt lat="44.1235147" lon="10.4159028"><ele>347.0</ele><time>2026-04-04T12:12:59.771Z</time></trkpt><trkpt lat="44.1235998" lon="10.415923"><ele>347.0</ele><time>2026-04-04T12:13:01.778Z</time></trkpt><trkpt lat="44.1236836" lon="10.4159304"><ele>347.0</ele><time>2026-04-04T12:13:03.767Z</time></trkpt><trkpt lat="44.1237551" lon="10.4159123"><ele>347.0</ele><time>2026-04-04T12:13:05.77Z</time></trkpt><trkpt lat="44.1238142" lon="10.4158612"><ele>347.0</ele><time>2026-04-04T12:13:07.771Z</time></trkpt><trkpt lat="44.1238432" lon="10.4157309"><ele>347.0</ele><time>2026-04-04T12:13:09.783Z</time></trkpt><trkpt lat="44.1238751" lon="10.4155882"><ele>347.0</ele><time>2026-04-04T12:13:11.77Z</time></trkpt><trkpt lat="44.1239015" lon="10.4154452"><ele>346.0</ele><time>2026-04-04T12:13:13.769Z</time></trkpt><trkpt lat="44.1238555" lon="10.4153382"><ele>345.0</ele><time>2026-04-04T12:13:15.785Z</time></trkpt><trkpt lat="44.123759" lon="10.415332"><ele>344.0</ele><time>2026-04-04T12:13:17.769Z</time></trkpt><trkpt lat="44.1236833" lon="10.4153318"><ele>343.0</ele><time>2026-04-04T12:13:19.766Z</time></trkpt><trkpt lat="44.1236283" lon="10.4152539"><ele>342.0</ele><time>2026-04-04T12:13:22.767Z</time></trkpt><trkpt lat="44.123672" lon="10.4151802"><ele>341.0</ele><time>2026-04-04T12:13:24.764Z</time></trkpt><trkpt lat="44.12378" lon="10.4151089"><ele>341.0</ele><time>2026-04-04T12:13:26.769Z</time></trkpt><trkpt lat="44.1238362" lon="10.4149788"><ele>341.0</ele><time>2026-04-04T12:13:28.767Z</time></trkpt><trkpt lat="44.1238102" lon="10.4148491"><ele>341.0</ele><time>2026-04-04T12:13:30.764Z</time></trkpt><trkpt lat="44.1237705" lon="10.4147645"><ele>341.0</ele><time>2026-04-04T12:13:32.77Z</time></trkpt><trkpt lat="44.1237255" lon="10.4146965"><ele>341.0</ele><time>2026-04-04T12:13:34.775Z</time></trkpt><trkpt lat="44.1236724" lon="10.4146248"><ele>341.0</ele><time>2026-04-04T12:13:37.775Z</time></trkpt><trkpt lat="44.12361" lon="10.4145491"><ele>341.0</ele><time>2026-04-04T12:13:41.779Z</time></trkpt><trkpt lat="44.1235696" lon="10.4144504"><ele>341.0</ele><time>2026-04-04T12:13:45.776Z</time></trkpt><trkpt lat="44.1235872" lon="10.4143491"><ele>341.0</ele><time>2026-04-04T12:13:49.767Z</time></trkpt><trkpt lat="44.1236179" lon="10.4142674"><ele>341.0</ele><time>2026-04-04T12:13:52.777Z</time></trkpt><trkpt lat="44.1236433" lon="10.414178"><ele>341.0</ele><time>2026-04-04T12:13:55.772Z</time></trkpt><trkpt lat="44.1236701" lon="10.4140894"><ele>341.0</ele><time>2026-04-04T12:13:58.784Z</time></trkpt><trkpt lat="44.1236915" lon="10.4139989"><ele>341.0</ele><time>2026-04-04T12:14:01.774Z</time></trkpt><trkpt lat="44.1237168" lon="10.4139049"><ele>341.0</ele><time>2026-04-04T12:14:04.769Z</time></trkpt><trkpt lat="44.1237463" lon="10.4138175"><ele>341.0</ele><time>2026-04-04T12:14:07.762Z</time></trkpt><trkpt lat="44.1237784" lon="10.4137194"><ele>341.0</ele><time>2026-04-04T12:14:10.767Z</time></trkpt><trkpt lat="44.1238107" lon="10.4136195"><ele>341.0</ele><time>2026-04-04T12:14:13.785Z</time></trkpt><trkpt lat="44.1238426" lon="10.4135147"><ele>341.0</ele><time>2026-04-04T12:14:16.792Z</time></trkpt><trkpt lat="44.1238754" lon="10.4134001"><ele>341.0</ele><time>2026-04-04T12:14:19.76Z</time></trkpt><trkpt lat="44.1239094" lon="10.4132939"><ele>341.0</ele><time>2026-04-04T12:14:22.676Z</time></trkpt><trkpt lat="44.1239474" lon="10.4131806"><ele>341.0</ele><time>2026-04-04T12:14:25.76Z</time></trkpt><trkpt lat="44.1239855" lon="10.4130664"><ele>341.0</ele><time>2026-04-04T12:14:28.772Z</time></trkpt><trkpt lat="44.1240055" lon="10.4129809"><ele>341.0</ele><time>2026-04-04T12:14:30.773Z</time></trkpt><trkpt lat="44.1240231" lon="10.4128537"><ele>341.0</ele><time>2026-04-04T12:14:33.771Z</time></trkpt><trkpt lat="44.1240809" lon="10.4127848"><ele>341.0</ele><time>2026-04-04T12:14:36.779Z</time></trkpt><trkpt lat="44.1241546" lon="10.4128296"><ele>341.42857142857144</ele><time>2026-04-04T12:14:39.765Z</time></trkpt><trkpt lat="44.1242068" lon="10.4129063"><ele>341.8571428571429</ele><time>2026-04-04T12:14:42.777Z</time></trkpt><trkpt lat="44.1242655" lon="10.4129619"><ele>342.28571428571433</ele><time>2026-04-04T12:14:45.773Z</time></trkpt><trkpt lat="44.1243371" lon="10.4129779"><ele>342.7142857142857</ele><time>2026-04-04T12:14:48.778Z</time></trkpt><trkpt lat="44.1243993" lon="10.4130084"><ele>343.14285714285717</ele><time>2026-04-04T12:14:51.766Z</time></trkpt><trkpt lat="44.1244551" lon="10.4130683"><ele>343.5714285714286</ele><time>2026-04-04T12:14:54.771Z</time></trkpt><trkpt lat="44.1245085" lon="10.4131282"><ele>344.0</ele><time>2026-04-04T12:14:57.769Z</time></trkpt><trkpt lat="44.124566" lon="10.4131903"><ele>344.00000000000006</ele><time>2026-04-04T12:15:00.766Z</time></trkpt><trkpt lat="44.124615" lon="10.4132589"><ele>344.0</ele><time>2026-04-04T12:15:03.773Z</time></trkpt><trkpt lat="44.1246772" lon="10.413309"><ele>344.0</ele><time>2026-04-04T12:15:06.78Z</time></trkpt><trkpt lat="44.1247429" lon="10.4133583"><ele>344.0</ele><time>2026-04-04T12:15:09.776Z</time></trkpt><trkpt lat="44.1248093" lon="10.4134047"><ele>344.0</ele><time>2026-04-04T12:15:12.765Z</time></trkpt><trkpt lat="44.1248771" lon="10.4134565"><ele>344.00000000000006</ele><time>2026-04-04T12:15:15.791Z</time></trkpt><trkpt lat="44.1249475" lon="10.4134962"><ele>344.0</ele><time>2026-04-04T12:15:18.773Z</time></trkpt><trkpt lat="44.125018" lon="10.4135232"><ele>344.42857142857144</ele><time>2026-04-04T12:15:21.772Z</time></trkpt><trkpt lat="44.1250862" lon="10.4135492"><ele>344.8571428571429</ele><time>2026-04-04T12:15:24.771Z</time></trkpt><trkpt lat="44.1251569" lon="10.4135743"><ele>345.28571428571433</ele><time>2026-04-04T12:15:27.775Z</time></trkpt><trkpt lat="44.125231" lon="10.4135956"><ele>345.7142857142857</ele><time>2026-04-04T12:15:30.776Z</time></trkpt><trkpt lat="44.1253005" lon="10.4136205"><ele>346.1428571428571</ele><time>2026-04-04T12:15:33.766Z</time></trkpt><trkpt lat="44.1253714" lon="10.4136465"><ele>346.5714285714286</ele><time>2026-04-04T12:15:36.775Z</time></trkpt><trkpt lat="44.1254407" lon="10.4136754"><ele>347.0</ele><time>2026-04-04T12:15:39.761Z</time></trkpt><trkpt lat="44.1255106" lon="10.4137078"><ele>347.0</ele><time>2026-04-04T12:15:42.773Z</time></trkpt><trkpt lat="44.1255826" lon="10.4137383"><ele>347.0</ele><time>2026-04-04T12:15:45.782Z</time></trkpt><trkpt lat="44.125652" lon="10.4137711"><ele>347.0</ele><time>2026-04-04T12:15:48.768Z</time></trkpt><trkpt lat="44.1257103" lon="10.4138245"><ele>347.0</ele><time>2026-04-04T12:15:51.772Z</time></trkpt><trkpt lat="44.1257696" lon="10.41388"><ele>347.0</ele><time>2026-04-04T12:15:54.764Z</time></trkpt><trkpt lat="44.1258314" lon="10.4139281"><ele>347.0</ele><time>2026-04-04T12:15:57.764Z</time></trkpt><trkpt lat="44.1258914" lon="10.4139781"><ele>347.0</ele><time>2026-04-04T12:16:00.76Z</time></trkpt><trkpt lat="44.1259552" lon="10.4140383"><ele>347.42857142857144</ele><time>2026-04-04T12:16:03.77Z</time></trkpt><trkpt lat="44.1260205" lon="10.4140887"><ele>347.85714285714283</ele><time>2026-04-04T12:16:06.78Z</time></trkpt><trkpt lat="44.126086" lon="10.4140713"><ele>348.2857142857143</ele><time>2026-04-04T12:16:09.772Z</time></trkpt><trkpt lat="44.1261418" lon="10.4140023"><ele>348.7142857142857</ele><time>2026-04-04T12:16:12.768Z</time></trkpt><trkpt lat="44.1261945" lon="10.4139291"><ele>349.1428571428571</ele><time>2026-04-04T12:16:15.775Z</time></trkpt><trkpt lat="44.1262438" lon="10.4138474"><ele>349.57142857142856</ele><time>2026-04-04T12:16:18.774Z</time></trkpt><trkpt lat="44.1262937" lon="10.4137618"><ele>350.0</ele><time>2026-04-04T12:16:21.772Z</time></trkpt><trkpt lat="44.1263421" lon="10.4136829"><ele>350.0</ele><time>2026-04-04T12:16:24.767Z</time></trkpt><trkpt lat="44.1263963" lon="10.4136109"><ele>350.0</ele><time>2026-04-04T12:16:27.758Z</time></trkpt><trkpt lat="44.1264527" lon="10.413544"><ele>350.0</ele><time>2026-04-04T12:16:30.79Z</time></trkpt><trkpt lat="44.1265125" lon="10.4134845"><ele>350.0</ele><time>2026-04-04T12:16:33.771Z</time></trkpt><trkpt lat="44.126578" lon="10.4134344"><ele>350.0</ele><time>2026-04-04T12:16:36.773Z</time></trkpt><trkpt lat="44.1266444" lon="10.4133938"><ele>350.0</ele><time>2026-04-04T12:16:39.769Z</time></trkpt><trkpt lat="44.1267083" lon="10.4133451"><ele>350.0</ele><time>2026-04-04T12:16:42.77Z</time></trkpt><trkpt lat="44.1267723" lon="10.4132972"><ele>350.2857142857143</ele><time>2026-04-04T12:16:45.774Z</time></trkpt><trkpt lat="44.1268355" lon="10.4132509"><ele>350.57142857142856</ele><time>2026-04-04T12:16:48.766Z</time></trkpt><trkpt lat="44.1269033" lon="10.4132063"><ele>350.8571428571429</ele><time>2026-04-04T12:16:51.773Z</time></trkpt><trkpt lat="44.1269738" lon="10.4131692"><ele>351.1428571428571</ele><time>2026-04-04T12:16:54.78Z</time></trkpt><trkpt lat="44.1270411" lon="10.4131334"><ele>351.42857142857144</ele><time>2026-04-04T12:16:57.77Z</time></trkpt><trkpt lat="44.1271103" lon="10.4131097"><ele>351.7142857142857</ele><time>2026-04-04T12:17:00.772Z</time></trkpt><trkpt lat="44.1271787" lon="10.4130761"><ele>352.0</ele><time>2026-04-04T12:17:03.767Z</time></trkpt><trkpt lat="44.1272498" lon="10.4130534"><ele>352.0</ele><time>2026-04-04T12:17:06.775Z</time></trkpt><trkpt lat="44.1273214" lon="10.4130295"><ele>352.0</ele><time>2026-04-04T12:17:09.771Z</time></trkpt><trkpt lat="44.1273954" lon="10.4130091"><ele>352.0</ele><time>2026-04-04T12:17:12.77Z</time></trkpt><trkpt lat="44.127465" lon="10.412988"><ele>352.0</ele><time>2026-04-04T12:17:15.764Z</time></trkpt><trkpt lat="44.1275377" lon="10.4129677"><ele>352.0</ele><time>2026-04-04T12:17:18.771Z</time></trkpt><trkpt lat="44.1276035" lon="10.412942"><ele>352.0</ele><time>2026-04-04T12:17:21.771Z</time></trkpt><trkpt lat="44.1276668" lon="10.4129159"><ele>352.0</ele><time>2026-04-04T12:17:24.77Z</time></trkpt><trkpt lat="44.1277306" lon="10.4128759"><ele>352.0</ele><time>2026-04-04T12:17:27.781Z</time></trkpt><trkpt lat="44.1277873" lon="10.4128125"><ele>352.0</ele><time>2026-04-04T12:17:30.785Z</time></trkpt><trkpt lat="44.1278391" lon="10.412746"><ele>352.0</ele><time>2026-04-04T12:17:33.773Z</time></trkpt><trkpt lat="44.1278919" lon="10.4126748"><ele>352.0</ele><time>2026-04-04T12:17:36.779Z</time></trkpt><trkpt lat="44.1279345" lon="10.4126065"><ele>352.0</ele><time>2026-04-04T12:17:39.763Z</time></trkpt><trkpt lat="44.1279759" lon="10.4125288"><ele>352.0</ele><time>2026-04-04T12:17:42.775Z</time></trkpt><trkpt lat="44.1280248" lon="10.4124511"><ele>352.0</ele><time>2026-04-04T12:17:45.772Z</time></trkpt><trkpt lat="44.1280868" lon="10.4124085"><ele>352.0</ele><time>2026-04-04T12:17:48.774Z</time></trkpt><trkpt lat="44.1281567" lon="10.4123816"><ele>352.0</ele><time>2026-04-04T12:17:51.785Z</time></trkpt><trkpt lat="44.1282283" lon="10.4123717"><ele>352.0</ele><time>2026-04-04T12:17:54.771Z</time></trkpt><trkpt lat="44.1283004" lon="10.4123721"><ele>352.0</ele><time>2026-04-04T12:17:57.771Z</time></trkpt><trkpt lat="44.1283735" lon="10.4123821"><ele>352.0</ele><time>2026-04-04T12:18:00.774Z</time></trkpt><trkpt lat="44.1284449" lon="10.4123799"><ele>352.0</ele><time>2026-04-04T12:18:03.772Z</time></trkpt><trkpt lat="44.1285185" lon="10.4123923"><ele>352.0</ele><time>2026-04-04T12:18:06.76Z</time></trkpt><trkpt lat="44.1285884" lon="10.4124064"><ele>352.14285714285717</ele><time>2026-04-04T12:18:09.766Z</time></trkpt><trkpt lat="44.1286568" lon="10.4124048"><ele>352.2857142857143</ele><time>2026-04-04T12:18:12.766Z</time></trkpt><trkpt lat="44.1287316" lon="10.4123676"><ele>352.42857142857144</ele><time>2026-04-04T12:18:16.765Z</time></trkpt><trkpt lat="44.1287978" lon="10.4123134"><ele>352.57142857142856</ele><time>2026-04-04T12:18:20.775Z</time></trkpt><trkpt lat="44.1288513" lon="10.4122656"><ele>352.7142857142857</ele><time>2026-04-04T12:18:23.77Z</time></trkpt><trkpt lat="44.1289125" lon="10.4121986"><ele>352.85714285714283</ele><time>2026-04-04T12:18:26.767Z</time></trkpt><trkpt lat="44.128948" lon="10.4121128"><ele>353.0</ele><time>2026-04-04T12:18:28.772Z</time></trkpt><trkpt lat="44.1289801" lon="10.4120012"><ele>353.0</ele><time>2026-04-04T12:18:30.76Z</time></trkpt><trkpt lat="44.1289983" lon="10.4118774"><ele>353.0</ele><time>2026-04-04T12:18:32.763Z</time></trkpt><trkpt lat="44.1290175" lon="10.4117743"><ele>353.0</ele><time>2026-04-04T12:18:34.774Z</time></trkpt><trkpt lat="44.1290405" lon="10.4116649"><ele>353.0</ele><time>2026-04-04T12:18:37.77Z</time></trkpt><trkpt lat="44.1291198" lon="10.4116443"><ele>353.0</ele><time>2026-04-04T12:18:42.763Z</time></trkpt><trkpt lat="44.1291848" lon="10.4116805"><ele>353.0</ele><time>2026-04-04T12:18:45.763Z</time></trkpt><trkpt lat="44.1292595" lon="10.4117025"><ele>353.33333333333337</ele><time>2026-04-04T12:18:48.777Z</time></trkpt><trkpt lat="44.1293335" lon="10.411736"><ele>353.6666666666667</ele><time>2026-04-04T12:18:51.766Z</time></trkpt><trkpt lat="44.1294126" lon="10.4117707"><ele>354.0</ele><time>2026-04-04T12:18:54.773Z</time></trkpt><trkpt lat="44.1294928" lon="10.4117917"><ele>354.3333333333333</ele><time>2026-04-04T12:18:57.774Z</time></trkpt><trkpt lat="44.1295774" lon="10.4118222"><ele>354.66666666666663</ele><time>2026-04-04T12:19:00.774Z</time></trkpt><trkpt lat="44.1296609" lon="10.4118622"><ele>355.0</ele><time>2026-04-04T12:19:03.771Z</time></trkpt><trkpt lat="44.1297403" lon="10.4119065"><ele>355.0</ele><time>2026-04-04T12:19:06.767Z</time></trkpt><trkpt lat="44.129818" lon="10.4119553"><ele>355.0</ele><time>2026-04-04T12:19:09.774Z</time></trkpt><trkpt lat="44.129897" lon="10.4120082"><ele>355.0</ele><time>2026-04-04T12:19:12.766Z</time></trkpt><trkpt lat="44.1299785" lon="10.4120608"><ele>355.0</ele><time>2026-04-04T12:19:15.768Z</time></trkpt><trkpt lat="44.1300361" lon="10.4121038"><ele>355.0</ele><time>2026-04-04T12:19:17.767Z</time></trkpt><trkpt lat="44.130121" lon="10.4121595"><ele>355.0</ele><time>2026-04-04T12:19:20.78Z</time></trkpt><trkpt lat="44.1302076" lon="10.4122151"><ele>356.1428571428571</ele><time>2026-04-04T12:19:23.767Z</time></trkpt><trkpt lat="44.1302644" lon="10.412259"><ele>357.2857142857143</ele><time>2026-04-04T12:19:25.761Z</time></trkpt><trkpt lat="44.1303238" lon="10.4123011"><ele>358.42857142857144</ele><time>2026-04-04T12:19:27.764Z</time></trkpt><trkpt lat="44.1303871" lon="10.4123417"><ele>359.57142857142856</ele><time>2026-04-04T12:19:29.766Z</time></trkpt><trkpt lat="44.1304494" lon="10.4123789"><ele>360.7142857142857</ele><time>2026-04-04T12:19:31.775Z</time></trkpt><trkpt lat="44.1305079" lon="10.4124176"><ele>361.85714285714283</ele><time>2026-04-04T12:19:33.765Z</time></trkpt><trkpt lat="44.1305678" lon="10.4124603"><ele>363.0</ele><time>2026-04-04T12:19:35.765Z</time></trkpt><trkpt lat="44.1306264" lon="10.4125009"><ele>362.99999999999994</ele><time>2026-04-04T12:19:37.762Z</time></trkpt><trkpt lat="44.1307111" lon="10.4125586"><ele>363.0</ele><time>2026-04-04T12:19:40.77Z</time></trkpt><trkpt lat="44.1307676" lon="10.4126"><ele>363.0</ele><time>2026-04-04T12:19:42.77Z</time></trkpt><trkpt lat="44.1308478" lon="10.4126611"><ele>363.0</ele><time>2026-04-04T12:19:45.763Z</time></trkpt><trkpt lat="44.1309058" lon="10.4127005"><ele>363.0</ele><time>2026-04-04T12:19:47.77Z</time></trkpt><trkpt lat="44.1309638" lon="10.4127361"><ele>362.99999999999994</ele><time>2026-04-04T12:19:49.763Z</time></trkpt><trkpt lat="44.1310212" lon="10.4127777"><ele>363.0</ele><time>2026-04-04T12:19:51.771Z</time></trkpt><trkpt lat="44.1310978" lon="10.4128324"><ele>363.1666666666667</ele><time>2026-04-04T12:19:54.768Z</time></trkpt><trkpt lat="44.1311808" lon="10.412894"><ele>363.3333333333333</ele><time>2026-04-04T12:19:57.767Z</time></trkpt><trkpt lat="44.1312414" lon="10.412933"><ele>363.5</ele><time>2026-04-04T12:19:59.793Z</time></trkpt><trkpt lat="44.1313053" lon="10.4129733"><ele>363.66666666666663</ele><time>2026-04-04T12:20:01.77Z</time></trkpt><trkpt lat="44.1313677" lon="10.4130135"><ele>363.8333333333333</ele><time>2026-04-04T12:20:03.778Z</time></trkpt><trkpt lat="44.1314267" lon="10.4130516"><ele>364.0</ele><time>2026-04-04T12:20:05.767Z</time></trkpt><trkpt lat="44.1315075" lon="10.4131063"><ele>364.66666666666663</ele><time>2026-04-04T12:20:08.77Z</time></trkpt><trkpt lat="44.1315828" lon="10.413132"><ele>365.3333333333333</ele><time>2026-04-04T12:20:11.768Z</time></trkpt><trkpt lat="44.1316648" lon="10.4131747"><ele>366.0</ele><time>2026-04-04T12:20:14.771Z</time></trkpt><trkpt lat="44.1317445" lon="10.4132437"><ele>366.6666666666667</ele><time>2026-04-04T12:20:17.775Z</time></trkpt><trkpt lat="44.1318044" lon="10.4132727"><ele>367.33333333333337</ele><time>2026-04-04T12:20:19.773Z</time></trkpt><trkpt lat="44.1318667" lon="10.4133009"><ele>368.0</ele><time>2026-04-04T12:20:21.781Z</time></trkpt><trkpt lat="44.1319292" lon="10.413329"><ele>368.0</ele><time>2026-04-04T12:20:23.763Z</time></trkpt><trkpt lat="44.1319915" lon="10.4133499"><ele>368.0</ele><time>2026-04-04T12:20:25.775Z</time></trkpt><trkpt lat="44.132057" lon="10.4133707"><ele>368.0</ele><time>2026-04-04T12:20:27.766Z</time></trkpt><trkpt lat="44.132123" lon="10.4133983"><ele>368.0</ele><time>2026-04-04T12:20:29.771Z</time></trkpt><trkpt lat="44.1321876" lon="10.4134258"><ele>368.0</ele><time>2026-04-04T12:20:31.774Z</time></trkpt><trkpt lat="44.1322535" lon="10.4134455"><ele>368.0</ele><time>2026-04-04T12:20:33.772Z</time></trkpt><trkpt lat="44.1323168" lon="10.4134697"><ele>368.0</ele><time>2026-04-04T12:20:35.765Z</time></trkpt><trkpt lat="44.1323792" lon="10.4134953"><ele>368.7142857142857</ele><time>2026-04-04T12:20:37.771Z</time></trkpt><trkpt lat="44.1324411" lon="10.4135189"><ele>369.4285714285714</ele><time>2026-04-04T12:20:39.768Z</time></trkpt><trkpt lat="44.1325321" lon="10.4135561"><ele>370.1428571428571</ele><time>2026-04-04T12:20:42.766Z</time></trkpt><trkpt lat="44.132597" lon="10.4135809"><ele>370.8571428571429</ele><time>2026-04-04T12:20:44.771Z</time></trkpt><trkpt lat="44.1326618" lon="10.4136066"><ele>371.57142857142856</ele><time>2026-04-04T12:20:46.773Z</time></trkpt><trkpt lat="44.1327271" lon="10.413636"><ele>372.2857142857143</ele><time>2026-04-04T12:20:48.771Z</time></trkpt><trkpt lat="44.1327911" lon="10.4136639"><ele>373.0</ele><time>2026-04-04T12:20:50.776Z</time></trkpt><trkpt lat="44.1328561" lon="10.4136909"><ele>373.0</ele><time>2026-04-04T12:20:52.769Z</time></trkpt><trkpt lat="44.1329223" lon="10.4137233"><ele>373.0</ele><time>2026-04-04T12:20:54.774Z</time></trkpt><trkpt lat="44.132984" lon="10.413753"><ele>373.0</ele><time>2026-04-04T12:20:56.786Z</time></trkpt><trkpt lat="44.1330461" lon="10.4137767"><ele>373.0</ele><time>2026-04-04T12:20:58.767Z</time></trkpt><trkpt lat="44.1331088" lon="10.4138006"><ele>373.0</ele><time>2026-04-04T12:21:00.77Z</time></trkpt><trkpt lat="44.1331714" lon="10.4138309"><ele>373.0</ele><time>2026-04-04T12:21:02.764Z</time></trkpt><trkpt lat="44.1332342" lon="10.4138573"><ele>373.0</ele><time>2026-04-04T12:21:04.767Z</time></trkpt><trkpt lat="44.133298" lon="10.4138796"><ele>373.7142857142857</ele><time>2026-04-04T12:21:06.777Z</time></trkpt><trkpt lat="44.1333576" lon="10.4139142"><ele>374.42857142857144</ele><time>2026-04-04T12:21:08.777Z</time></trkpt><trkpt lat="44.1334169" lon="10.413954"><ele>375.1428571428571</ele><time>2026-04-04T12:21:10.768Z</time></trkpt><trkpt lat="44.1334754" lon="10.4140008"><ele>375.8571428571429</ele><time>2026-04-04T12:21:12.775Z</time></trkpt><trkpt lat="44.1335316" lon="10.4140461"><ele>376.57142857142856</ele><time>2026-04-04T12:21:14.769Z</time></trkpt><trkpt lat="44.1336107" lon="10.4141178"><ele>377.2857142857143</ele><time>2026-04-04T12:21:17.764Z</time></trkpt><trkpt lat="44.1336628" lon="10.4141718"><ele>378.0</ele><time>2026-04-04T12:21:19.774Z</time></trkpt><trkpt lat="44.1337386" lon="10.4142475"><ele>378.0</ele><time>2026-04-04T12:21:22.772Z</time></trkpt><trkpt lat="44.1337867" lon="10.4143064"><ele>378.0</ele><time>2026-04-04T12:21:24.763Z</time></trkpt><trkpt lat="44.1338364" lon="10.4143645"><ele>378.0</ele><time>2026-04-04T12:21:26.774Z</time></trkpt><trkpt lat="44.1338832" lon="10.4144248"><ele>378.0</ele><time>2026-04-04T12:21:28.78Z</time></trkpt><trkpt lat="44.1339313" lon="10.4144898"><ele>378.0</ele><time>2026-04-04T12:21:30.768Z</time></trkpt><trkpt lat="44.1339805" lon="10.4145558"><ele>378.0</ele><time>2026-04-04T12:21:32.773Z</time></trkpt><trkpt lat="44.1340276" lon="10.414621"><ele>378.0</ele><time>2026-04-04T12:21:34.774Z</time></trkpt><trkpt lat="44.1340803" lon="10.4146798"><ele>378.57142857142856</ele><time>2026-04-04T12:21:36.771Z</time></trkpt><trkpt lat="44.1341349" lon="10.4147385"><ele>379.1428571428571</ele><time>2026-04-04T12:21:38.768Z</time></trkpt><trkpt lat="44.1341898" lon="10.4147911"><ele>379.7142857142857</ele><time>2026-04-04T12:21:40.771Z</time></trkpt><trkpt lat="44.1342397" lon="10.4148492"><ele>380.2857142857143</ele><time>2026-04-04T12:21:42.763Z</time></trkpt><trkpt lat="44.1342833" lon="10.4149129"><ele>380.85714285714283</ele><time>2026-04-04T12:21:44.771Z</time></trkpt><trkpt lat="44.1343538" lon="10.4150019"><ele>381.42857142857144</ele><time>2026-04-04T12:21:47.777Z</time></trkpt><trkpt lat="44.1344037" lon="10.4150567"><ele>382.0</ele><time>2026-04-04T12:21:49.766Z</time></trkpt><trkpt lat="44.1344534" lon="10.4151122"><ele>382.0</ele><time>2026-04-04T12:21:51.77Z</time></trkpt><trkpt lat="44.1345062" lon="10.4151699"><ele>382.0</ele><time>2026-04-04T12:21:53.776Z</time></trkpt><trkpt lat="44.13456" lon="10.4152293"><ele>382.0</ele><time>2026-04-04T12:21:55.769Z</time></trkpt><trkpt lat="44.134615" lon="10.4152904"><ele>382.0</ele><time>2026-04-04T12:21:57.767Z</time></trkpt><trkpt lat="44.1346711" lon="10.4153475"><ele>382.0</ele><time>2026-04-04T12:21:59.773Z</time></trkpt><trkpt lat="44.1347258" lon="10.4154053"><ele>382.0</ele><time>2026-04-04T12:22:01.767Z</time></trkpt><trkpt lat="44.1347786" lon="10.4154612"><ele>382.0</ele><time>2026-04-04T12:22:03.775Z</time></trkpt><trkpt lat="44.1348353" lon="10.415513"><ele>382.2857142857143</ele><time>2026-04-04T12:22:05.775Z</time></trkpt><trkpt lat="44.1348966" lon="10.4155542"><ele>382.57142857142856</ele><time>2026-04-04T12:22:07.769Z</time></trkpt><trkpt lat="44.1349591" lon="10.4155895"><ele>382.85714285714283</ele><time>2026-04-04T12:22:09.792Z</time></trkpt><trkpt lat="44.1350233" lon="10.4156189"><ele>383.1428571428571</ele><time>2026-04-04T12:22:11.768Z</time></trkpt><trkpt lat="44.1350858" lon="10.4156509"><ele>383.42857142857144</ele><time>2026-04-04T12:22:13.771Z</time></trkpt><trkpt lat="44.1351495" lon="10.4156799"><ele>383.71428571428567</ele><time>2026-04-04T12:22:15.771Z</time></trkpt><trkpt lat="44.1352152" lon="10.4157098"><ele>384.0</ele><time>2026-04-04T12:22:17.77Z</time></trkpt><trkpt lat="44.1352816" lon="10.4157379"><ele>383.99999999999994</ele><time>2026-04-04T12:22:19.774Z</time></trkpt><trkpt lat="44.1353483" lon="10.4157651"><ele>384.0</ele><time>2026-04-04T12:22:21.762Z</time></trkpt><trkpt lat="44.1354125" lon="10.4157943"><ele>384.0</ele><time>2026-04-04T12:22:23.772Z</time></trkpt><trkpt lat="44.1354762" lon="10.4158227"><ele>384.0</ele><time>2026-04-04T12:22:25.766Z</time></trkpt><trkpt lat="44.1355423" lon="10.4158532"><ele>384.0</ele><time>2026-04-04T12:22:27.769Z</time></trkpt><trkpt lat="44.1356081" lon="10.4158815"><ele>383.99999999999994</ele><time>2026-04-04T12:22:29.77Z</time></trkpt><trkpt lat="44.1356743" lon="10.4159092"><ele>384.0</ele><time>2026-04-04T12:22:31.775Z</time></trkpt><trkpt lat="44.1357409" lon="10.4159429"><ele>384.57142857142856</ele><time>2026-04-04T12:22:33.769Z</time></trkpt><trkpt lat="44.13581" lon="10.4159744"><ele>385.1428571428571</ele><time>2026-04-04T12:22:35.769Z</time></trkpt><trkpt lat="44.1358775" lon="10.4159999"><ele>385.71428571428567</ele><time>2026-04-04T12:22:37.771Z</time></trkpt><trkpt lat="44.1359438" lon="10.416028"><ele>386.2857142857143</ele><time>2026-04-04T12:22:39.791Z</time></trkpt><trkpt lat="44.1360105" lon="10.4160588"><ele>386.8571428571429</ele><time>2026-04-04T12:22:41.775Z</time></trkpt><trkpt lat="44.1360773" lon="10.4160901"><ele>387.4285714285714</ele><time>2026-04-04T12:22:43.765Z</time></trkpt><trkpt lat="44.1361422" lon="10.4161287"><ele>388.0</ele><time>2026-04-04T12:22:45.774Z</time></trkpt><trkpt lat="44.1362079" lon="10.416167"><ele>388.0</ele><time>2026-04-04T12:22:47.77Z</time></trkpt><trkpt lat="44.1362709" lon="10.4162092"><ele>388.0</ele><time>2026-04-04T12:22:49.772Z</time></trkpt><trkpt lat="44.1363329" lon="10.4162575"><ele>388.0</ele><time>2026-04-04T12:22:51.769Z</time></trkpt><trkpt lat="44.1363928" lon="10.4163083"><ele>388.0</ele><time>2026-04-04T12:22:53.764Z</time></trkpt><trkpt lat="44.1364514" lon="10.416364"><ele>388.0</ele><time>2026-04-04T12:22:55.774Z</time></trkpt><trkpt lat="44.1365108" lon="10.4164196"><ele>388.0</ele><time>2026-04-04T12:22:57.762Z</time></trkpt><trkpt lat="44.136568" lon="10.4164761"><ele>388.0</ele><time>2026-04-04T12:22:59.791Z</time></trkpt><trkpt lat="44.1366257" lon="10.4165336"><ele>388.85714285714283</ele><time>2026-04-04T12:23:01.776Z</time></trkpt><trkpt lat="44.1366867" lon="10.4165887"><ele>389.7142857142857</ele><time>2026-04-04T12:23:03.772Z</time></trkpt><trkpt lat="44.1367459" lon="10.4166483"><ele>390.57142857142856</ele><time>2026-04-04T12:23:05.77Z</time></trkpt><trkpt lat="44.1368035" lon="10.4167095"><ele>391.42857142857144</ele><time>2026-04-04T12:23:07.77Z</time></trkpt><trkpt lat="44.1368614" lon="10.4167695"><ele>392.28571428571433</ele><time>2026-04-04T12:23:09.764Z</time></trkpt><trkpt lat="44.1369194" lon="10.4168297"><ele>393.14285714285717</ele><time>2026-04-04T12:23:11.772Z</time></trkpt><trkpt lat="44.1369772" lon="10.4168894"><ele>394.0</ele><time>2026-04-04T12:23:13.769Z</time></trkpt><trkpt lat="44.1370331" lon="10.4169506"><ele>394.0</ele><time>2026-04-04T12:23:15.772Z</time></trkpt><trkpt lat="44.1370893" lon="10.41701"><ele>394.0</ele><time>2026-04-04T12:23:17.763Z</time></trkpt><trkpt lat="44.1371451" lon="10.4170709"><ele>394.0</ele><time>2026-04-04T12:23:19.773Z</time></trkpt><trkpt lat="44.1372008" lon="10.4171303"><ele>394.0</ele><time>2026-04-04T12:23:21.768Z</time></trkpt><trkpt lat="44.1372554" lon="10.4171906"><ele>394.0</ele><time>2026-04-04T12:23:23.773Z</time></trkpt><trkpt lat="44.137308" lon="10.4172525"><ele>394.0</ele><time>2026-04-04T12:23:25.768Z</time></trkpt><trkpt lat="44.1373601" lon="10.417313"><ele>394.0</ele><time>2026-04-04T12:23:27.765Z</time></trkpt><trkpt lat="44.1374119" lon="10.4173687"><ele>395.00000000000006</ele><time>2026-04-04T12:23:29.775Z</time></trkpt><trkpt lat="44.1374704" lon="10.4174281"><ele>396.0</ele><time>2026-04-04T12:23:31.773Z</time></trkpt><trkpt lat="44.137533" lon="10.4174922"><ele>397.0</ele><time>2026-04-04T12:23:33.777Z</time></trkpt><trkpt lat="44.1375953" lon="10.4175611"><ele>398.0</ele><time>2026-04-04T12:23:35.761Z</time></trkpt><trkpt lat="44.1376565" lon="10.4176305"><ele>399.00000000000006</ele><time>2026-04-04T12:23:37.764Z</time></trkpt><trkpt lat="44.1377209" lon="10.4176982"><ele>400.0</ele><time>2026-04-04T12:23:39.766Z</time></trkpt><trkpt lat="44.137786" lon="10.4177664"><ele>400.0</ele><time>2026-04-04T12:23:41.77Z</time></trkpt><trkpt lat="44.1378536" lon="10.4178375"><ele>400.0</ele><time>2026-04-04T12:23:43.767Z</time></trkpt><trkpt lat="44.1379251" lon="10.4179095"><ele>400.0</ele><time>2026-04-04T12:23:45.768Z</time></trkpt><trkpt lat="44.1379977" lon="10.4179846"><ele>400.0</ele><time>2026-04-04T12:23:47.771Z</time></trkpt><trkpt lat="44.1380747" lon="10.4180524"><ele>400.0</ele><time>2026-04-04T12:23:49.772Z</time></trkpt><trkpt lat="44.1381682" lon="10.4181084"><ele>400.6</ele><time>2026-04-04T12:23:51.762Z</time></trkpt><trkpt lat="44.1382725" lon="10.4181636"><ele>401.2</ele><time>2026-04-04T12:23:53.781Z</time></trkpt><trkpt lat="44.1383821" lon="10.4182118"><ele>401.79999999999995</ele><time>2026-04-04T12:23:55.776Z</time></trkpt><trkpt lat="44.1385059" lon="10.4182393"><ele>402.4</ele><time>2026-04-04T12:23:57.775Z</time></trkpt><trkpt lat="44.1385711" lon="10.4182387"><ele>403.0</ele><time>2026-04-04T12:23:58.771Z</time></trkpt><trkpt lat="44.138638" lon="10.4182329"><ele>403.0</ele><time>2026-04-04T12:23:59.771Z</time></trkpt><trkpt lat="44.1387033" lon="10.418229"><ele>403.0</ele><time>2026-04-04T12:24:00.775Z</time></trkpt><trkpt lat="44.138771" lon="10.418221"><ele>403.0</ele><time>2026-04-04T12:24:01.768Z</time></trkpt><trkpt lat="44.1388436" lon="10.4182152"><ele>403.0</ele><time>2026-04-04T12:24:02.791Z</time></trkpt><trkpt lat="44.1389168" lon="10.41821"><ele>403.0</ele><time>2026-04-04T12:24:03.768Z</time></trkpt><trkpt lat="44.1389907" lon="10.4182117"><ele>403.0</ele><time>2026-04-04T12:24:04.777Z</time></trkpt><trkpt lat="44.1390683" lon="10.4182136"><ele>403.0</ele><time>2026-04-04T12:24:05.766Z</time></trkpt><trkpt lat="44.1391488" lon="10.4182289"><ele>401.83333333333337</ele><time>2026-04-04T12:24:06.77Z</time></trkpt><trkpt lat="44.139228" lon="10.4182459"><ele>400.6666666666667</ele><time>2026-04-04T12:24:07.764Z</time></trkpt><trkpt lat="44.1393091" lon="10.4182551"><ele>399.5</ele><time>2026-04-04T12:24:08.768Z</time></trkpt><trkpt lat="44.1393905" lon="10.4182548"><ele>398.33333333333337</ele><time>2026-04-04T12:24:09.776Z</time></trkpt><trkpt lat="44.1394729" lon="10.4182536"><ele>397.1666666666667</ele><time>2026-04-04T12:24:10.765Z</time></trkpt><trkpt lat="44.1395541" lon="10.4182453"><ele>396.0</ele><time>2026-04-04T12:24:11.771Z</time></trkpt><trkpt lat="44.1396354" lon="10.4182382"><ele>396.0</ele><time>2026-04-04T12:24:12.769Z</time></trkpt><trkpt lat="44.1397192" lon="10.4182254"><ele>396.0</ele><time>2026-04-04T12:24:13.764Z</time></trkpt><trkpt lat="44.1398038" lon="10.4182119"><ele>396.0</ele><time>2026-04-04T12:24:14.765Z</time></trkpt><trkpt lat="44.1398906" lon="10.4182029"><ele>396.0</ele><time>2026-04-04T12:24:15.765Z</time></trkpt><trkpt lat="44.1399757" lon="10.4181895"><ele>396.0</ele><time>2026-04-04T12:24:16.777Z</time></trkpt><trkpt lat="44.1400612" lon="10.418174"><ele>396.0</ele><time>2026-04-04T12:24:17.776Z</time></trkpt><trkpt lat="44.1401439" lon="10.4181589"><ele>396.0</ele><time>2026-04-04T12:24:18.79Z</time></trkpt><trkpt lat="44.1402229" lon="10.4181215"><ele>396.0</ele><time>2026-04-04T12:24:19.768Z</time></trkpt><trkpt lat="44.1402906" lon="10.4180567"><ele>396.0</ele><time>2026-04-04T12:24:20.785Z</time></trkpt><trkpt lat="44.1403502" lon="10.4179719"><ele>396.0</ele><time>2026-04-04T12:24:21.774Z</time></trkpt><trkpt lat="44.1403931" lon="10.4178677"><ele>396.0</ele><time>2026-04-04T12:24:22.772Z</time></trkpt><trkpt lat="44.1404264" lon="10.4177562"><ele>396.0</ele><time>2026-04-04T12:24:23.768Z</time></trkpt><trkpt lat="44.1404461" lon="10.4176389"><ele>393.8333333333333</ele><time>2026-04-04T12:24:24.771Z</time></trkpt><trkpt lat="44.1404598" lon="10.4175227"><ele>391.6666666666667</ele><time>2026-04-04T12:24:25.767Z</time></trkpt><trkpt lat="44.1404744" lon="10.4174132"><ele>389.5</ele><time>2026-04-04T12:24:26.76Z</time></trkpt><trkpt lat="44.1404866" lon="10.4173067"><ele>387.33333333333337</ele><time>2026-04-04T12:24:27.766Z</time></trkpt><trkpt lat="44.1405001" lon="10.4171995"><ele>385.1666666666667</ele><time>2026-04-04T12:24:28.771Z</time></trkpt><trkpt lat="44.1405137" lon="10.4170973"><ele>383.0</ele><time>2026-04-04T12:24:29.772Z</time></trkpt><trkpt lat="44.140528" lon="10.4169955"><ele>382.2857142857143</ele><time>2026-04-04T12:24:30.766Z</time></trkpt><trkpt lat="44.1405406" lon="10.4168958"><ele>381.57142857142856</ele><time>2026-04-04T12:24:31.769Z</time></trkpt><trkpt lat="44.1405536" lon="10.4168008"><ele>380.8571428571429</ele><time>2026-04-04T12:24:32.773Z</time></trkpt><trkpt lat="44.1405684" lon="10.4167056"><ele>380.1428571428571</ele><time>2026-04-04T12:24:33.779Z</time></trkpt><trkpt lat="44.1405809" lon="10.4166123"><ele>379.42857142857144</ele><time>2026-04-04T12:24:34.778Z</time></trkpt><trkpt lat="44.1405945" lon="10.4165196"><ele>378.7142857142857</ele><time>2026-04-04T12:24:35.78Z</time></trkpt><trkpt lat="44.1406069" lon="10.4164289"><ele>378.0</ele><time>2026-04-04T12:24:36.765Z</time></trkpt><trkpt lat="44.1406198" lon="10.4163372"><ele>377.75</ele><time>2026-04-04T12:24:37.773Z</time></trkpt><trkpt lat="44.1406462" lon="10.4161666"><ele>377.5</ele><time>2026-04-04T12:24:39.778Z</time></trkpt><trkpt lat="44.1406733" lon="10.4159986"><ele>377.25</ele><time>2026-04-04T12:24:41.776Z</time></trkpt><trkpt lat="44.1406979" lon="10.4158348"><ele>377.0</ele><time>2026-04-04T12:24:43.783Z</time></trkpt><trkpt lat="44.1407151" lon="10.4156827"><ele>377.1666666666667</ele><time>2026-04-04T12:24:45.776Z</time></trkpt><trkpt lat="44.1407231" lon="10.4155474"><ele>377.33333333333337</ele><time>2026-04-04T12:24:47.791Z</time></trkpt><trkpt lat="44.1407272" lon="10.415428"><ele>377.5</ele><time>2026-04-04T12:24:49.768Z</time></trkpt><trkpt lat="44.1407266" lon="10.4153153"><ele>377.6666666666667</ele><time>2026-04-04T12:24:51.769Z</time></trkpt><trkpt lat="44.1407229" lon="10.4152018"><ele>377.8333333333333</ele><time>2026-04-04T12:24:53.764Z</time></trkpt><trkpt lat="44.1407168" lon="10.4150925"><ele>378.0</ele><time>2026-04-04T12:24:55.781Z</time></trkpt><trkpt lat="44.1407133" lon="10.4149888"><ele>378.0</ele><time>2026-04-04T12:24:57.783Z</time></trkpt><trkpt lat="44.1407061" lon="10.4148989"><ele>378.0</ele><time>2026-04-04T12:24:59.775Z</time></trkpt><trkpt lat="44.1406986" lon="10.4147746"><ele>378.0</ele><time>2026-04-04T12:25:02.783Z</time></trkpt><trkpt lat="44.140696" lon="10.4146593"><ele>378.0</ele><time>2026-04-04T12:25:05.772Z</time></trkpt><trkpt lat="44.1406912" lon="10.4145466"><ele>378.0</ele><time>2026-04-04T12:25:08.774Z</time></trkpt><trkpt lat="44.1406909" lon="10.4144345"><ele>378.0</ele><time>2026-04-04T12:25:11.773Z</time></trkpt><trkpt lat="44.140711" lon="10.4143249"><ele>380.5</ele><time>2026-04-04T12:25:14.775Z</time></trkpt><trkpt lat="44.1407586" lon="10.4142379"><ele>383.0</ele><time>2026-04-04T12:25:17.765Z</time></trkpt><trkpt lat="44.1408256" lon="10.4141801"><ele>385.5</ele><time>2026-04-04T12:25:20.765Z</time></trkpt><trkpt lat="44.1409029" lon="10.4141656"><ele>388.0</ele><time>2026-04-04T12:25:23.778Z</time></trkpt><trkpt lat="44.1409766" lon="10.4142149"><ele>390.5</ele><time>2026-04-04T12:25:26.787Z</time></trkpt><trkpt lat="44.1410317" lon="10.4142969"><ele>393.0</ele><time>2026-04-04T12:25:29.774Z</time></trkpt><trkpt lat="44.1410596" lon="10.4144047"><ele>393.0</ele><time>2026-04-04T12:25:32.768Z</time></trkpt><trkpt lat="44.1410688" lon="10.4145149"><ele>393.0</ele><time>2026-04-04T12:25:35.774Z</time></trkpt><trkpt lat="44.1410776" lon="10.4146277"><ele>393.0</ele><time>2026-04-04T12:25:38.768Z</time></trkpt><trkpt lat="44.1411041" lon="10.4147349"><ele>393.0</ele><time>2026-04-04T12:25:41.771Z</time></trkpt><trkpt lat="44.1411513" lon="10.4148234"><ele>393.0</ele><time>2026-04-04T12:25:44.775Z</time></trkpt><trkpt lat="44.1412132" lon="10.4148937"><ele>393.0</ele><time>2026-04-04T12:25:47.783Z</time></trkpt><trkpt lat="44.1412889" lon="10.4149257"><ele>393.6666666666667</ele><time>2026-04-04T12:25:50.774Z</time></trkpt><trkpt lat="44.1413692" lon="10.4149353"><ele>394.33333333333337</ele><time>2026-04-04T12:25:53.77Z</time></trkpt><trkpt lat="44.1414521" lon="10.4149232"><ele>395.0</ele><time>2026-04-04T12:25:56.779Z</time></trkpt><trkpt lat="44.1415286" lon="10.4149029"><ele>395.6666666666667</ele><time>2026-04-04T12:25:59.775Z</time></trkpt><trkpt lat="44.1416097" lon="10.4148926"><ele>396.33333333333337</ele><time>2026-04-04T12:26:02.767Z</time></trkpt><trkpt lat="44.1416884" lon="10.4148781"><ele>397.0</ele><time>2026-04-04T12:26:05.764Z</time></trkpt><trkpt lat="44.1417672" lon="10.4148593"><ele>397.00000000000006</ele><time>2026-04-04T12:26:08.767Z</time></trkpt><trkpt lat="44.1418483" lon="10.4148401"><ele>397.0</ele><time>2026-04-04T12:26:11.778Z</time></trkpt><trkpt lat="44.1419268" lon="10.4148389"><ele>397.0</ele><time>2026-04-04T12:26:14.763Z</time></trkpt><trkpt lat="44.142007" lon="10.4148412"><ele>397.0</ele><time>2026-04-04T12:26:17.776Z</time></trkpt><trkpt lat="44.1420836" lon="10.4148505"><ele>397.00000000000006</ele><time>2026-04-04T12:26:20.772Z</time></trkpt><trkpt lat="44.1421584" lon="10.4148659"><ele>397.0</ele><time>2026-04-04T12:26:23.768Z</time></trkpt><trkpt lat="44.1422272" lon="10.4148836"><ele>397.0</ele><time>2026-04-04T12:26:26.78Z</time></trkpt><trkpt lat="44.1423007" lon="10.4149023"><ele>397.0</ele><time>2026-04-04T12:26:29.776Z</time></trkpt><trkpt lat="44.142381" lon="10.4149262"><ele>397.0</ele><time>2026-04-04T12:26:32.772Z</time></trkpt><trkpt lat="44.142454" lon="10.414936"><ele>397.0</ele><time>2026-04-04T12:26:35.796Z</time></trkpt><trkpt lat="44.1425354" lon="10.4149486"><ele>397.0</ele><time>2026-04-04T12:26:38.774Z</time></trkpt><trkpt lat="44.1425988" lon="10.4149582"><ele>397.0</ele><time>2026-04-04T12:26:40.769Z</time></trkpt><trkpt lat="44.1426618" lon="10.4149623"><ele>397.0</ele><time>2026-04-04T12:26:42.769Z</time></trkpt><trkpt lat="44.1427462" lon="10.4149565"><ele>398.00000000000006</ele><time>2026-04-04T12:26:45.776Z</time></trkpt><trkpt lat="44.1428298" lon="10.4149454"><ele>399.0</ele><time>2026-04-04T12:26:48.8Z</time></trkpt><trkpt lat="44.1429162" lon="10.4149386"><ele>400.0</ele><time>2026-04-04T12:26:51.776Z</time></trkpt><trkpt lat="44.1429956" lon="10.414913"><ele>401.0</ele><time>2026-04-04T12:26:54.766Z</time></trkpt><trkpt lat="44.143076" lon="10.4148953"><ele>402.00000000000006</ele><time>2026-04-04T12:26:57.769Z</time></trkpt><trkpt lat="44.1431557" lon="10.4148889"><ele>403.0</ele><time>2026-04-04T12:27:00.769Z</time></trkpt><trkpt lat="44.143243" lon="10.4148885"><ele>405.00000000000006</ele><time>2026-04-04T12:27:03.771Z</time></trkpt><trkpt lat="44.143326" lon="10.4149097"><ele>407.0</ele><time>2026-04-04T12:27:06.779Z</time></trkpt><trkpt lat="44.1434044" lon="10.4149301"><ele>409.0</ele><time>2026-04-04T12:27:09.768Z</time></trkpt><trkpt lat="44.1434791" lon="10.4149584"><ele>411.0</ele><time>2026-04-04T12:27:12.769Z</time></trkpt><trkpt lat="44.1435589" lon="10.4149791"><ele>413.00000000000006</ele><time>2026-04-04T12:27:15.768Z</time></trkpt><trkpt lat="44.143639" lon="10.4150026"><ele>415.0</ele><time>2026-04-04T12:27:18.778Z</time></trkpt><trkpt lat="44.1437178" lon="10.4150174"><ele>415.00000000000006</ele><time>2026-04-04T12:27:21.775Z</time></trkpt><trkpt lat="44.1437921" lon="10.4150526"><ele>415.0</ele><time>2026-04-04T12:27:24.766Z</time></trkpt><trkpt lat="44.1438632" lon="10.415078"><ele>415.0</ele><time>2026-04-04T12:27:27.77Z</time></trkpt><trkpt lat="44.1439313" lon="10.4151088"><ele>415.0</ele><time>2026-04-04T12:27:30.761Z</time></trkpt><trkpt lat="44.1440096" lon="10.4151392"><ele>415.00000000000006</ele><time>2026-04-04T12:27:33.783Z</time></trkpt><trkpt lat="44.1440848" lon="10.4151238"><ele>415.0</ele><time>2026-04-04T12:27:36.78Z</time></trkpt><trkpt lat="44.1441377" lon="10.4150426"><ele>415.00000000000006</ele><time>2026-04-04T12:27:39.768Z</time></trkpt><trkpt lat="44.1441372" lon="10.4149219"><ele>415.0</ele><time>2026-04-04T12:27:42.771Z</time></trkpt><trkpt lat="44.1440799" lon="10.4148312"><ele>415.0</ele><time>2026-04-04T12:27:45.769Z</time></trkpt><trkpt lat="44.1440078" lon="10.4147792"><ele>415.0</ele><time>2026-04-04T12:27:48.763Z</time></trkpt><trkpt lat="44.1439371" lon="10.4147354"><ele>415.00000000000006</ele><time>2026-04-04T12:27:51.761Z</time></trkpt><trkpt lat="44.1438583" lon="10.4147065"><ele>415.0</ele><time>2026-04-04T12:27:54.765Z</time></trkpt><trkpt lat="44.14378" lon="10.414679"><ele>415.00000000000006</ele><time>2026-04-04T12:27:57.768Z</time></trkpt><trkpt lat="44.1437039" lon="10.4146603"><ele>415.0</ele><time>2026-04-04T12:28:00.764Z</time></trkpt><trkpt lat="44.1436254" lon="10.4146424"><ele>415.0</ele><time>2026-04-04T12:28:03.773Z</time></trkpt><trkpt lat="44.1435454" lon="10.4146204"><ele>415.0</ele><time>2026-04-04T12:28:06.773Z</time></trkpt><trkpt lat="44.1434764" lon="10.4145626"><ele>415.00000000000006</ele><time>2026-04-04T12:28:09.773Z</time></trkpt><trkpt lat="44.143431" lon="10.4144715"><ele>415.0</ele><time>2026-04-04T12:28:12.764Z</time></trkpt><trkpt lat="44.1434124" lon="10.4143597"><ele>416.6666666666667</ele><time>2026-04-04T12:28:15.769Z</time></trkpt><trkpt lat="44.1434122" lon="10.4142435"><ele>418.33333333333337</ele><time>2026-04-04T12:28:18.77Z</time></trkpt><trkpt lat="44.1434172" lon="10.4141274"><ele>420.0</ele><time>2026-04-04T12:28:21.781Z</time></trkpt><trkpt lat="44.1434236" lon="10.4140117"><ele>421.66666666666663</ele><time>2026-04-04T12:28:24.793Z</time></trkpt><trkpt lat="44.1434237" lon="10.413895"><ele>423.3333333333333</ele><time>2026-04-04T12:28:27.772Z</time></trkpt><trkpt lat="44.143415" lon="10.4137793"><ele>425.0</ele><time>2026-04-04T12:28:30.766Z</time></trkpt><trkpt lat="44.1434052" lon="10.4136637"><ele>425.99999999999994</ele><time>2026-04-04T12:28:33.78Z</time></trkpt><trkpt lat="44.1433803" lon="10.4135496"><ele>427.0</ele><time>2026-04-04T12:28:36.775Z</time></trkpt><trkpt lat="44.143352" lon="10.4134353"><ele>428.0</ele><time>2026-04-04T12:28:39.773Z</time></trkpt><trkpt lat="44.1433259" lon="10.4133254"><ele>429.0</ele><time>2026-04-04T12:28:42.773Z</time></trkpt><trkpt lat="44.1433043" lon="10.4132152"><ele>429.99999999999994</ele><time>2026-04-04T12:28:45.773Z</time></trkpt><trkpt lat="44.1432852" lon="10.4131061"><ele>431.0</ele><time>2026-04-04T12:28:48.779Z</time></trkpt><trkpt lat="44.1432468" lon="10.4130021"><ele>430.66666666666663</ele><time>2026-04-04T12:28:51.777Z</time></trkpt><trkpt lat="44.1431956" lon="10.4129105"><ele>430.3333333333333</ele><time>2026-04-04T12:28:54.773Z</time></trkpt><trkpt lat="44.1431212" lon="10.4128695"><ele>430.0</ele><time>2026-04-04T12:28:57.782Z</time></trkpt><trkpt lat="44.1430425" lon="10.4128434"><ele>429.66666666666663</ele><time>2026-04-04T12:29:00.76Z</time></trkpt><trkpt lat="44.1429645" lon="10.412826"><ele>429.3333333333333</ele><time>2026-04-04T12:29:03.773Z</time></trkpt><trkpt lat="44.1428909" lon="10.4128117"><ele>429.0</ele><time>2026-04-04T12:29:06.78Z</time></trkpt><trkpt lat="44.1428113" lon="10.4127829"><ele>429.0</ele><time>2026-04-04T12:29:09.766Z</time></trkpt><trkpt lat="44.1427444" lon="10.4127073"><ele>429.0</ele><time>2026-04-04T12:29:12.77Z</time></trkpt><trkpt lat="44.1427205" lon="10.4125887"><ele>429.0</ele><time>2026-04-04T12:29:15.774Z</time></trkpt><trkpt lat="44.1427403" lon="10.4124645"><ele>429.0</ele><time>2026-04-04T12:29:18.76Z</time></trkpt><trkpt lat="44.1428044" lon="10.4123765"><ele>429.0</ele><time>2026-04-04T12:29:21.761Z</time></trkpt><trkpt lat="44.1428889" lon="10.4123256"><ele>429.0</ele><time>2026-04-04T12:29:24.76Z</time></trkpt><trkpt lat="44.1429702" lon="10.4122918"><ele>429.0</ele><time>2026-04-04T12:29:27.759Z</time></trkpt><trkpt lat="44.1430502" lon="10.412262"><ele>429.0</ele><time>2026-04-04T12:29:30.777Z</time></trkpt><trkpt lat="44.1431285" lon="10.4122313"><ele>429.0</ele><time>2026-04-04T12:29:33.763Z</time></trkpt><trkpt lat="44.1432045" lon="10.4121946"><ele>429.0</ele><time>2026-04-04T12:29:36.76Z</time></trkpt><trkpt lat="44.1432796" lon="10.4121574"><ele>429.0</ele><time>2026-04-04T12:29:39.773Z</time></trkpt><trkpt lat="44.143358" lon="10.4121297"><ele>429.0</ele><time>2026-04-04T12:29:42.767Z</time></trkpt><trkpt lat="44.14344" lon="10.4121128"><ele>430.8333333333333</ele><time>2026-04-04T12:29:45.765Z</time></trkpt><trkpt lat="44.143523" lon="10.4120973"><ele>432.66666666666663</ele><time>2026-04-04T12:29:48.777Z</time></trkpt><trkpt lat="44.1436036" lon="10.4120817"><ele>434.5</ele><time>2026-04-04T12:29:51.783Z</time></trkpt><trkpt lat="44.1436843" lon="10.4120556"><ele>436.3333333333333</ele><time>2026-04-04T12:29:54.777Z</time></trkpt><trkpt lat="44.1437575" lon="10.4120033"><ele>438.16666666666663</ele><time>2026-04-04T12:29:57.767Z</time></trkpt><trkpt lat="44.1438164" lon="10.4119247"><ele>440.0</ele><time>2026-04-04T12:30:00.783Z</time></trkpt><trkpt lat="44.1438739" lon="10.4118451"><ele>439.99999999999994</ele><time>2026-04-04T12:30:03.776Z</time></trkpt><trkpt lat="44.1439268" lon="10.4117661"><ele>440.0</ele><time>2026-04-04T12:30:06.778Z</time></trkpt><trkpt lat="44.1439747" lon="10.4116694"><ele>440.0</ele><time>2026-04-04T12:30:09.779Z</time></trkpt><trkpt lat="44.1440088" lon="10.4115635"><ele>440.0</ele><time>2026-04-04T12:30:12.766Z</time></trkpt><trkpt lat="44.1440223" lon="10.411452"><ele>439.99999999999994</ele><time>2026-04-04T12:30:15.767Z</time></trkpt><trkpt lat="44.1440122" lon="10.4113414"><ele>440.0</ele><time>2026-04-04T12:30:18.765Z</time></trkpt><trkpt lat="44.1439994" lon="10.4112451"><ele>441.16666666666663</ele><time>2026-04-04T12:30:21.772Z</time></trkpt><trkpt lat="44.1439551" lon="10.4111448"><ele>442.3333333333333</ele><time>2026-04-04T12:30:24.768Z</time></trkpt><trkpt lat="44.1439012" lon="10.4110733"><ele>443.5</ele><time>2026-04-04T12:30:27.78Z</time></trkpt><trkpt lat="44.1438393" lon="10.4110067"><ele>444.66666666666663</ele><time>2026-04-04T12:30:30.758Z</time></trkpt><trkpt lat="44.143778" lon="10.4109422"><ele>445.8333333333333</ele><time>2026-04-04T12:30:33.78Z</time></trkpt><trkpt lat="44.1437173" lon="10.4108799"><ele>447.0</ele><time>2026-04-04T12:30:36.782Z</time></trkpt><trkpt lat="44.143653" lon="10.4108115"><ele>447.0</ele><time>2026-04-04T12:30:39.775Z</time></trkpt><trkpt lat="44.1435876" lon="10.4107444"><ele>447.0</ele><time>2026-04-04T12:30:42.768Z</time></trkpt><trkpt lat="44.1435273" lon="10.4106871"><ele>447.0</ele><time>2026-04-04T12:30:45.773Z</time></trkpt><trkpt lat="44.1434594" lon="10.410628"><ele>447.0</ele><time>2026-04-04T12:30:48.77Z</time></trkpt><trkpt lat="44.1434178" lon="10.4105281"><ele>447.0</ele><time>2026-04-04T12:30:51.769Z</time></trkpt><trkpt lat="44.1434255" lon="10.4104087"><ele>447.0</ele><time>2026-04-04T12:30:54.769Z</time></trkpt><trkpt lat="44.1434881" lon="10.4103236"><ele>447.5</ele><time>2026-04-04T12:30:57.783Z</time></trkpt><trkpt lat="44.1435598" lon="10.410279"><ele>448.0</ele><time>2026-04-04T12:31:00.765Z</time></trkpt><trkpt lat="44.1436301" lon="10.4102507"><ele>448.5</ele><time>2026-04-04T12:31:03.773Z</time></trkpt><trkpt lat="44.1436993" lon="10.4102147"><ele>449.0</ele><time>2026-04-04T12:31:06.784Z</time></trkpt><trkpt lat="44.1437701" lon="10.410172"><ele>449.5</ele><time>2026-04-04T12:31:09.781Z</time></trkpt><trkpt lat="44.1438433" lon="10.4101383"><ele>450.0</ele><time>2026-04-04T12:31:12.772Z</time></trkpt><trkpt lat="44.1439143" lon="10.4101025"><ele>450.0</ele><time>2026-04-04T12:31:15.767Z</time></trkpt><trkpt lat="44.1439895" lon="10.4100845"><ele>450.0</ele><time>2026-04-04T12:31:18.779Z</time></trkpt><trkpt lat="44.1440651" lon="10.4100845"><ele>450.0</ele><time>2026-04-04T12:31:21.768Z</time></trkpt><trkpt lat="44.1441398" lon="10.4100979"><ele>450.0</ele><time>2026-04-04T12:31:24.769Z</time></trkpt><trkpt lat="44.1442147" lon="10.4101209"><ele>450.0</ele><time>2026-04-04T12:31:27.763Z</time></trkpt><trkpt lat="44.1442896" lon="10.4101484"><ele>450.0</ele><time>2026-04-04T12:31:30.775Z</time></trkpt><trkpt lat="44.1443694" lon="10.4101761"><ele>452.3333333333333</ele><time>2026-04-04T12:31:33.774Z</time></trkpt><trkpt lat="44.1444436" lon="10.4102007"><ele>454.66666666666663</ele><time>2026-04-04T12:31:36.774Z</time></trkpt><trkpt lat="44.1445198" lon="10.4102316"><ele>457.0</ele><time>2026-04-04T12:31:39.762Z</time></trkpt><trkpt lat="44.1445974" lon="10.4102589"><ele>459.3333333333333</ele><time>2026-04-04T12:31:42.772Z</time></trkpt><trkpt lat="44.1446733" lon="10.4102818"><ele>461.66666666666663</ele><time>2026-04-04T12:31:45.78Z</time></trkpt><trkpt lat="44.144749" lon="10.4103006"><ele>464.0</ele><time>2026-04-04T12:31:48.78Z</time></trkpt><trkpt lat="44.1448272" lon="10.4103283"><ele>465.16666666666663</ele><time>2026-04-04T12:31:51.772Z</time></trkpt><trkpt lat="44.1449058" lon="10.4103548"><ele>466.3333333333333</ele><time>2026-04-04T12:31:54.766Z</time></trkpt><trkpt lat="44.1449847" lon="10.4103883"><ele>467.5</ele><time>2026-04-04T12:31:57.768Z</time></trkpt><trkpt lat="44.1450624" lon="10.4104201"><ele>468.66666666666663</ele><time>2026-04-04T12:32:00.769Z</time></trkpt><trkpt lat="44.1451398" lon="10.4104476"><ele>469.8333333333333</ele><time>2026-04-04T12:32:03.777Z</time></trkpt><trkpt lat="44.145216" lon="10.4104766"><ele>471.0</ele><time>2026-04-04T12:32:06.762Z</time></trkpt><trkpt lat="44.1452918" lon="10.4105072"><ele>471.3333333333333</ele><time>2026-04-04T12:32:09.761Z</time></trkpt><trkpt lat="44.14537" lon="10.4105353"><ele>471.66666666666663</ele><time>2026-04-04T12:32:12.768Z</time></trkpt><trkpt lat="44.1454474" lon="10.4105562"><ele>472.0</ele><time>2026-04-04T12:32:15.776Z</time></trkpt><trkpt lat="44.1455232" lon="10.4105856"><ele>472.3333333333333</ele><time>2026-04-04T12:32:18.766Z</time></trkpt><trkpt lat="44.1456009" lon="10.4106124"><ele>472.66666666666663</ele><time>2026-04-04T12:32:21.768Z</time></trkpt><trkpt lat="44.1456822" lon="10.4106427"><ele>473.0</ele><time>2026-04-04T12:32:24.775Z</time></trkpt><trkpt lat="44.1457615" lon="10.4106726"><ele>473.3333333333333</ele><time>2026-04-04T12:32:27.771Z</time></trkpt><trkpt lat="44.1458432" lon="10.4106992"><ele>473.66666666666663</ele><time>2026-04-04T12:32:30.77Z</time></trkpt><trkpt lat="44.1459211" lon="10.4107318"><ele>474.0</ele><time>2026-04-04T12:32:33.772Z</time></trkpt><trkpt lat="44.1459959" lon="10.4107596"><ele>474.33333333333337</ele><time>2026-04-04T12:32:36.79Z</time></trkpt><trkpt lat="44.146077" lon="10.4107845"><ele>474.6666666666667</ele><time>2026-04-04T12:32:39.775Z</time></trkpt><trkpt lat="44.1461616" lon="10.4108091"><ele>475.0</ele><time>2026-04-04T12:32:42.774Z</time></trkpt><trkpt lat="44.1462368" lon="10.4108345"><ele>475.00000000000006</ele><time>2026-04-04T12:32:45.773Z</time></trkpt><trkpt lat="44.1463189" lon="10.4108681"><ele>475.0</ele><time>2026-04-04T12:32:48.777Z</time></trkpt><trkpt lat="44.1463973" lon="10.4108914"><ele>475.0</ele><time>2026-04-04T12:32:51.765Z</time></trkpt><trkpt lat="44.1464742" lon="10.4109303"><ele>475.0</ele><time>2026-04-04T12:32:54.777Z</time></trkpt><trkpt lat="44.1465486" lon="10.4109771"><ele>475.00000000000006</ele><time>2026-04-04T12:32:57.771Z</time></trkpt><trkpt lat="44.1466183" lon="10.4110411"><ele>475.0</ele><time>2026-04-04T12:33:00.783Z</time></trkpt><trkpt lat="44.1466758" lon="10.4111159"><ele>475.83333333333337</ele><time>2026-04-04T12:33:03.778Z</time></trkpt><trkpt lat="44.1467309" lon="10.4112041"><ele>476.6666666666667</ele><time>2026-04-04T12:33:06.765Z</time></trkpt><trkpt lat="44.1467946" lon="10.4112947"><ele>477.5</ele><time>2026-04-04T12:33:09.775Z</time></trkpt><trkpt lat="44.1468552" lon="10.4113699"><ele>478.33333333333337</ele><time>2026-04-04T12:33:12.782Z</time></trkpt><trkpt lat="44.1469108" lon="10.4114487"><ele>479.1666666666667</ele><time>2026-04-04T12:33:15.768Z</time></trkpt><trkpt lat="44.1469663" lon="10.4115302"><ele>480.0</ele><time>2026-04-04T12:33:18.776Z</time></trkpt><trkpt lat="44.1470232" lon="10.4116034"><ele>481.1666666666667</ele><time>2026-04-04T12:33:21.774Z</time></trkpt><trkpt lat="44.147079" lon="10.4116846"><ele>482.33333333333337</ele><time>2026-04-04T12:33:24.774Z</time></trkpt><trkpt lat="44.1471373" lon="10.4117635"><ele>483.5</ele><time>2026-04-04T12:33:27.77Z</time></trkpt><trkpt lat="44.1471917" lon="10.4118467"><ele>484.6666666666667</ele><time>2026-04-04T12:33:30.777Z</time></trkpt><trkpt lat="44.1472492" lon="10.4119229"><ele>485.83333333333337</ele><time>2026-04-04T12:33:33.772Z</time></trkpt><trkpt lat="44.1473043" lon="10.4120052"><ele>487.0</ele><time>2026-04-04T12:33:36.773Z</time></trkpt><trkpt lat="44.1473525" lon="10.4120888"><ele>487.6666666666667</ele><time>2026-04-04T12:33:39.774Z</time></trkpt><trkpt lat="44.14741" lon="10.4121708"><ele>488.33333333333337</ele><time>2026-04-04T12:33:42.777Z</time></trkpt><trkpt lat="44.1474694" lon="10.4122495"><ele>489.0</ele><time>2026-04-04T12:33:45.771Z</time></trkpt><trkpt lat="44.1475265" lon="10.4123303"><ele>489.66666666666663</ele><time>2026-04-04T12:33:48.779Z</time></trkpt><trkpt lat="44.1475811" lon="10.4124115"><ele>490.3333333333333</ele><time>2026-04-04T12:33:51.784Z</time></trkpt><trkpt lat="44.1476368" lon="10.4124913"><ele>491.0</ele><time>2026-04-04T12:33:54.77Z</time></trkpt><trkpt lat="44.1476904" lon="10.4125704"><ele>490.99999999999994</ele><time>2026-04-04T12:33:57.768Z</time></trkpt><trkpt lat="44.1477462" lon="10.4126533"><ele>491.0</ele><time>2026-04-04T12:34:00.768Z</time></trkpt><trkpt lat="44.1478026" lon="10.4127322"><ele>491.0</ele><time>2026-04-04T12:34:03.78Z</time></trkpt><trkpt lat="44.1478606" lon="10.412814"><ele>491.0</ele><time>2026-04-04T12:34:06.785Z</time></trkpt><trkpt lat="44.1479171" lon="10.412894"><ele>490.99999999999994</ele><time>2026-04-04T12:34:09.77Z</time></trkpt><trkpt lat="44.1479666" lon="10.4129706"><ele>491.0</ele><time>2026-04-04T12:34:12.767Z</time></trkpt><trkpt lat="44.1480228" lon="10.4130551"><ele>490.99999999999994</ele><time>2026-04-04T12:34:16.765Z</time></trkpt><trkpt lat="44.1480773" lon="10.413122"><ele>491.0</ele><time>2026-04-04T12:34:19.763Z</time></trkpt><trkpt lat="44.1481482" lon="10.4131681"><ele>491.0</ele><time>2026-04-04T12:34:22.764Z</time></trkpt><trkpt lat="44.1482105" lon="10.4131102"><ele>491.0</ele><time>2026-04-04T12:34:25.766Z</time></trkpt><trkpt lat="44.1482127" lon="10.4129971"><ele>490.99999999999994</ele><time>2026-04-04T12:34:28.778Z</time></trkpt><trkpt lat="44.1481996" lon="10.4128844"><ele>491.0</ele><time>2026-04-04T12:34:31.772Z</time></trkpt><trkpt lat="44.1481873" lon="10.412771"><ele>490.99999999999994</ele><time>2026-04-04T12:34:34.768Z</time></trkpt><trkpt lat="44.14816" lon="10.4126647"><ele>491.0</ele><time>2026-04-04T12:34:37.78Z</time></trkpt><trkpt lat="44.148145" lon="10.4125506"><ele>491.0</ele><time>2026-04-04T12:34:40.773Z</time></trkpt><trkpt lat="44.1481193" lon="10.4124395"><ele>491.0</ele><time>2026-04-04T12:34:43.764Z</time></trkpt><trkpt lat="44.1481" lon="10.4123315"><ele>490.99999999999994</ele><time>2026-04-04T12:34:46.767Z</time></trkpt><trkpt lat="44.1480858" lon="10.4122297"><ele>491.0</ele><time>2026-04-04T12:34:49.771Z</time></trkpt><trkpt lat="44.1480632" lon="10.4121187"><ele>490.8333333333333</ele><time>2026-04-04T12:34:52.777Z</time></trkpt><trkpt lat="44.1480463" lon="10.412004"><ele>490.66666666666663</ele><time>2026-04-04T12:34:55.773Z</time></trkpt><trkpt lat="44.1480249" lon="10.411892"><ele>490.5</ele><time>2026-04-04T12:34:58.77Z</time></trkpt><trkpt lat="44.1480095" lon="10.4117799"><ele>490.33333333333337</ele><time>2026-04-04T12:35:01.772Z</time></trkpt><trkpt lat="44.1479883" lon="10.4116639"><ele>490.1666666666667</ele><time>2026-04-04T12:35:04.772Z</time></trkpt><trkpt lat="44.1479622" lon="10.411557"><ele>490.0</ele><time>2026-04-04T12:35:07.781Z</time></trkpt><trkpt lat="44.1479408" lon="10.4114476"><ele>490.00000000000006</ele><time>2026-04-04T12:35:10.771Z</time></trkpt><trkpt lat="44.1479263" lon="10.4113367"><ele>490.0</ele><time>2026-04-04T12:35:13.773Z</time></trkpt><trkpt lat="44.1479049" lon="10.4112331"><ele>490.0</ele><time>2026-04-04T12:35:16.766Z</time></trkpt><trkpt lat="44.1478828" lon="10.4111264"><ele>490.0</ele><time>2026-04-04T12:35:19.773Z</time></trkpt><trkpt lat="44.1478634" lon="10.4110225"><ele>490.00000000000006</ele><time>2026-04-04T12:35:22.765Z</time></trkpt><trkpt lat="44.1478426" lon="10.4109281"><ele>490.0</ele><time>2026-04-04T12:35:25.772Z</time></trkpt><trkpt lat="44.1478196" lon="10.4108425"><ele>490.57142857142856</ele><time>2026-04-04T12:35:29.771Z</time></trkpt><trkpt lat="44.1478044" lon="10.4107473"><ele>491.1428571428571</ele><time>2026-04-04T12:35:32.782Z</time></trkpt><trkpt lat="44.147784" lon="10.410632"><ele>491.7142857142857</ele><time>2026-04-04T12:35:36.777Z</time></trkpt><trkpt lat="44.1477716" lon="10.4105451"><ele>492.2857142857143</ele><time>2026-04-04T12:35:39.771Z</time></trkpt><trkpt lat="44.1477592" lon="10.4104438"><ele>492.85714285714283</ele><time>2026-04-04T12:35:44.771Z</time></trkpt><trkpt lat="44.1477245" lon="10.4103671"><ele>493.42857142857144</ele><time>2026-04-04T12:35:48.772Z</time></trkpt><trkpt lat="44.1477823" lon="10.4104369"><ele>494.0</ele><time>2026-04-04T12:35:58.776Z</time></trkpt><trkpt lat="44.1478119" lon="10.4105422"><ele>493.99999999999994</ele><time>2026-04-04T12:36:02.777Z</time></trkpt><trkpt lat="44.1478584" lon="10.4106342"><ele>494.0</ele><time>2026-04-04T12:36:06.769Z</time></trkpt><trkpt lat="44.1479061" lon="10.4107246"><ele>494.0</ele><time>2026-04-04T12:36:10.775Z</time></trkpt><trkpt lat="44.1479403" lon="10.410817"><ele>494.0</ele><time>2026-04-04T12:36:14.768Z</time></trkpt><trkpt lat="44.1479698" lon="10.4109132"><ele>493.99999999999994</ele><time>2026-04-04T12:36:18.77Z</time></trkpt><trkpt lat="44.148009" lon="10.4110087"><ele>494.0</ele><time>2026-04-04T12:36:22.761Z</time></trkpt><trkpt lat="44.1480473" lon="10.4111054"><ele>494.0</ele><time>2026-04-04T12:36:26.765Z</time></trkpt><trkpt lat="44.1480827" lon="10.4112085"><ele>494.0</ele><time>2026-04-04T12:36:30.771Z</time></trkpt><trkpt lat="44.1481119" lon="10.4112882"><ele>494.0</ele><time>2026-04-04T12:36:33.765Z</time></trkpt><trkpt lat="44.1481602" lon="10.4113715"><ele>494.0</ele><time>2026-04-04T12:36:37.771Z</time></trkpt><trkpt lat="44.1482187" lon="10.4114334"><ele>494.0</ele><time>2026-04-04T12:36:41.769Z</time></trkpt><trkpt lat="44.1482778" lon="10.4115012"><ele>494.0</ele><time>2026-04-04T12:36:45.778Z</time></trkpt><trkpt lat="44.1483381" lon="10.4115633"><ele>494.0</ele><time>2026-04-04T12:36:49.77Z</time></trkpt><trkpt lat="44.1483963" lon="10.4116085"><ele>496.57142857142856</ele><time>2026-04-04T12:36:53.771Z</time></trkpt><trkpt lat="44.1484652" lon="10.4116601"><ele>499.1428571428571</ele><time>2026-04-04T12:36:58.774Z</time></trkpt><trkpt lat="44.1485231" lon="10.411719"><ele>501.71428571428567</ele><time>2026-04-04T12:37:03.769Z</time></trkpt><trkpt lat="44.1485781" lon="10.4117716"><ele>504.2857142857143</ele><time>2026-04-04T12:37:08.775Z</time></trkpt><trkpt lat="44.1486421" lon="10.4118219"><ele>506.8571428571428</ele><time>2026-04-04T12:39:53.774Z</time></trkpt><trkpt lat="44.1486981" lon="10.4118772"><ele>509.4285714285714</ele><time>2026-04-04T12:39:57.769Z</time></trkpt><trkpt lat="44.1487795" lon="10.4119006"><ele>512.0</ele><time>2026-04-04T12:40:01.769Z</time></trkpt><trkpt lat="44.1488572" lon="10.4119162"><ele>511.99999999999994</ele><time>2026-04-04T12:40:05.771Z</time></trkpt><trkpt lat="44.1489362" lon="10.4119312"><ele>512.0</ele><time>2026-04-04T12:40:09.769Z</time></trkpt><trkpt lat="44.1490143" lon="10.4119576"><ele>512.0</ele><time>2026-04-04T12:40:13.782Z</time></trkpt><trkpt lat="44.1490843" lon="10.4119604"><ele>512.0</ele><time>2026-04-04T12:40:17.771Z</time></trkpt><trkpt lat="44.1491537" lon="10.411912"><ele>511.99999999999994</ele><time>2026-04-04T12:40:21.77Z</time></trkpt><trkpt lat="44.1491977" lon="10.4118325"><ele>512.0</ele><time>2026-04-04T12:40:25.768Z</time></trkpt><trkpt lat="44.1492131" lon="10.4117298"><ele>513.7142857142857</ele><time>2026-04-04T12:40:29.775Z</time></trkpt><trkpt lat="44.1492135" lon="10.4116228"><ele>515.4285714285713</ele><time>2026-04-04T12:40:33.755Z</time></trkpt><trkpt lat="44.149213" lon="10.4115326"><ele>517.1428571428571</ele><time>2026-04-04T12:40:37.771Z</time></trkpt><trkpt lat="44.1492152" lon="10.411436"><ele>518.8571428571429</ele><time>2026-04-04T12:40:41.767Z</time></trkpt><trkpt lat="44.149217" lon="10.4113354"><ele>520.5714285714287</ele><time>2026-04-04T12:40:46.769Z</time></trkpt><trkpt lat="44.1492095" lon="10.4112383"><ele>522.2857142857143</ele><time>2026-04-04T12:40:51.767Z</time></trkpt><trkpt lat="44.1492531" lon="10.41117"><ele>524.0</ele><time>2026-04-04T12:40:57.764Z</time></trkpt><trkpt lat="44.1493141" lon="10.4111918"><ele>524.0</ele><time>2026-04-04T12:41:01.767Z</time></trkpt><trkpt lat="44.1493881" lon="10.4112225"><ele>524.0</ele><time>2026-04-04T12:41:05.762Z</time></trkpt><trkpt lat="44.1494598" lon="10.4112518"><ele>524.0</ele><time>2026-04-04T12:41:09.764Z</time></trkpt><trkpt lat="44.1495239" lon="10.4112872"><ele>524.0</ele><time>2026-04-04T12:41:12.776Z</time></trkpt><trkpt lat="44.1495853" lon="10.4113156"><ele>524.0</ele><time>2026-04-04T12:41:15.78Z</time></trkpt><trkpt lat="44.1496507" lon="10.4113519"><ele>524.0</ele><time>2026-04-04T12:41:18.771Z</time></trkpt><trkpt lat="44.1497099" lon="10.4113831"><ele>524.0</ele><time>2026-04-04T12:41:21.765Z</time></trkpt><trkpt lat="44.1497856" lon="10.4114323"><ele>524.0</ele><time>2026-04-04T12:41:25.77Z</time></trkpt><trkpt lat="44.1498588" lon="10.411473"><ele>524.0</ele><time>2026-04-04T12:41:29.761Z</time></trkpt><trkpt lat="44.1499231" lon="10.4115061"><ele>524.0</ele><time>2026-04-04T12:41:32.76Z</time></trkpt><trkpt lat="44.1499879" lon="10.4115367"><ele>524.0</ele><time>2026-04-04T12:41:35.772Z</time></trkpt><trkpt lat="44.1500508" lon="10.411569"><ele>524.0</ele><time>2026-04-04T12:41:38.786Z</time></trkpt><trkpt lat="44.1501166" lon="10.4116053"><ele>524.0</ele><time>2026-04-04T12:41:41.766Z</time></trkpt><trkpt lat="44.1501803" lon="10.4116331"><ele>524.0</ele><time>2026-04-04T12:41:44.772Z</time></trkpt><trkpt lat="44.1502578" lon="10.411667"><ele>524.8571428571429</ele><time>2026-04-04T12:41:48.766Z</time></trkpt><trkpt lat="44.1503186" lon="10.4117017"><ele>525.7142857142858</ele><time>2026-04-04T12:41:51.771Z</time></trkpt><trkpt lat="44.1503954" lon="10.4117428"><ele>526.5714285714286</ele><time>2026-04-04T12:41:55.773Z</time></trkpt><trkpt lat="44.1504545" lon="10.4117751"><ele>527.4285714285714</ele><time>2026-04-04T12:41:58.77Z</time></trkpt><trkpt lat="44.1505197" lon="10.4117943"><ele>528.2857142857142</ele><time>2026-04-04T12:42:01.769Z</time></trkpt><trkpt lat="44.1505993" lon="10.4118276"><ele>529.1428571428571</ele><time>2026-04-04T12:42:05.769Z</time></trkpt><trkpt lat="44.1506643" lon="10.4118346"><ele>530.0</ele><time>2026-04-04T12:42:08.775Z</time></trkpt><trkpt lat="44.1507444" lon="10.4118207"><ele>530.1428571428571</ele><time>2026-04-04T12:42:12.765Z</time></trkpt><trkpt lat="44.1508097" lon="10.4118083"><ele>530.2857142857142</ele><time>2026-04-04T12:42:15.776Z</time></trkpt><trkpt lat="44.1508786" lon="10.4118156"><ele>530.4285714285714</ele><time>2026-04-04T12:42:18.77Z</time></trkpt><trkpt lat="44.1509489" lon="10.4118753"><ele>530.5714285714286</ele><time>2026-04-04T12:42:22.796Z</time></trkpt><trkpt lat="44.1510149" lon="10.411903"><ele>530.7142857142858</ele><time>2026-04-04T12:42:25.77Z</time></trkpt><trkpt lat="44.1510828" lon="10.4119283"><ele>530.8571428571429</ele><time>2026-04-04T12:42:28.762Z</time></trkpt><trkpt lat="44.1510995" lon="10.4120141"><ele>531.0</ele><time>2026-04-04T12:42:31.773Z</time></trkpt><trkpt lat="44.1510572" lon="10.4120801"><ele>531.0</ele><time>2026-04-04T12:42:34.762Z</time></trkpt><trkpt lat="44.1509779" lon="10.4120957"><ele>531.0</ele><time>2026-04-04T12:42:38.782Z</time></trkpt><trkpt lat="44.1509105" lon="10.4121011"><ele>531.0</ele><time>2026-04-04T12:42:41.768Z</time></trkpt><trkpt lat="44.1508507" lon="10.4121395"><ele>531.0</ele><time>2026-04-04T12:42:44.781Z</time></trkpt><trkpt lat="44.1508236" lon="10.412222"><ele>531.0</ele><time>2026-04-04T12:42:47.768Z</time></trkpt><trkpt lat="44.150801" lon="10.4123217"><ele>531.0</ele><time>2026-04-04T12:42:51.779Z</time></trkpt><trkpt lat="44.1507866" lon="10.4124425"><ele>531.0</ele><time>2026-04-04T12:42:55.774Z</time></trkpt><trkpt lat="44.1507713" lon="10.4125287"><ele>546.0</ele><time>2026-04-04T12:42:58.772Z</time></trkpt></trkseg></trk></gpx>